<?xml version="1.0" encoding="UTF-8" standalone="no" ?>
<gpx xmlns="http://www.topografix.com/GPX/1/1" xmlns:xsi="http://www.w3.org/2001/XMLSchema-instance" xsi:schemaLocation="http://www.topografix.com/GPX/1/1 http://www.topografix.com/GPX/1/1/gpx.xsd" version="1.1" creator="VisuGPX - https://www.visugpx.com">
  <metadata>
    <name>Randovales 2013 - Grande boucle</name>
    <desc><![CDATA[Circuit avec alternance de côteaux et de vallées; quelques beaux points de vue sur les Pyrénées.]]></desc>
  </metadata>
  <trk>
    <name><![CDATA[29-SEP-13 04:15:22 PM]]></name>
    <trkseg>
      <trkpt lat="43.5388" lon="1.51465">
        <ele>203.94</ele>
        <time>2013-09-29T06:59:04Z</time>
      </trkpt>
      <trkpt lat="43.53868" lon="1.5149">
        <ele>199.61</ele>
        <time>2013-09-29T06:59:14Z</time>
      </trkpt>
      <trkpt lat="43.53865" lon="1.51494">
        <ele>197.69</ele>
        <time>2013-09-29T06:59:15Z</time>
      </trkpt>
      <trkpt lat="43.53855" lon="1.515">
        <ele>194.32</ele>
        <time>2013-09-29T06:59:19Z</time>
      </trkpt>
      <trkpt lat="43.53847" lon="1.51501">
        <ele>190.48</ele>
        <time>2013-09-29T06:59:21Z</time>
      </trkpt>
      <trkpt lat="43.53837" lon="1.51501">
        <ele>187.11</ele>
        <time>2013-09-29T06:59:23Z</time>
      </trkpt>
      <trkpt lat="43.53827" lon="1.51504">
        <ele>184.71</ele>
        <time>2013-09-29T06:59:25Z</time>
      </trkpt>
      <trkpt lat="43.53814" lon="1.5151">
        <ele>181.35</ele>
        <time>2013-09-29T06:59:28Z</time>
      </trkpt>
      <trkpt lat="43.53783" lon="1.51527">
        <ele>177.02</ele>
        <time>2013-09-29T06:59:35Z</time>
      </trkpt>
      <trkpt lat="43.53767" lon="1.51538">
        <ele>174.14</ele>
        <time>2013-09-29T06:59:39Z</time>
      </trkpt>
      <trkpt lat="43.53746" lon="1.51553">
        <ele>170.77</ele>
        <time>2013-09-29T06:59:44Z</time>
      </trkpt>
      <trkpt lat="43.53734" lon="1.51561">
        <ele>168.85</ele>
        <time>2013-09-29T06:59:47Z</time>
      </trkpt>
      <trkpt lat="43.53688" lon="1.51605">
        <ele>165.96</ele>
        <time>2013-09-29T07:00:02Z</time>
      </trkpt>
      <trkpt lat="43.53688" lon="1.51608">
        <ele>165.96</ele>
        <time>2013-09-29T07:00:03Z</time>
      </trkpt>
      <trkpt lat="43.5369" lon="1.51612">
        <ele>165.48</ele>
        <time>2013-09-29T07:00:04Z</time>
      </trkpt>
      <trkpt lat="43.53692" lon="1.51616">
        <ele>165.96</ele>
        <time>2013-09-29T07:00:05Z</time>
      </trkpt>
      <trkpt lat="43.53693" lon="1.5162">
        <ele>165.48</ele>
        <time>2013-09-29T07:00:06Z</time>
      </trkpt>
      <trkpt lat="43.53695" lon="1.51625">
        <ele>165</ele>
        <time>2013-09-29T07:00:07Z</time>
      </trkpt>
      <trkpt lat="43.53714" lon="1.51666">
        <ele>164.04</ele>
        <time>2013-09-29T07:00:17Z</time>
      </trkpt>
      <trkpt lat="43.53718" lon="1.51678">
        <ele>162.6</ele>
        <time>2013-09-29T07:00:20Z</time>
      </trkpt>
      <trkpt lat="43.53718" lon="1.51682">
        <ele>163.08</ele>
        <time>2013-09-29T07:00:21Z</time>
      </trkpt>
      <trkpt lat="43.53716" lon="1.5169">
        <ele>162.6</ele>
        <time>2013-09-29T07:00:23Z</time>
      </trkpt>
      <trkpt lat="43.53711" lon="1.51715">
        <ele>159.72</ele>
        <time>2013-09-29T07:00:35Z</time>
      </trkpt>
      <trkpt lat="43.53711" lon="1.51717">
        <ele>159.72</ele>
        <time>2013-09-29T07:00:38Z</time>
      </trkpt>
      <trkpt lat="43.53711" lon="1.51725">
        <ele>158.75</ele>
        <time>2013-09-29T07:00:41Z</time>
      </trkpt>
      <trkpt lat="43.53688" lon="1.51755">
        <ele>156.83</ele>
        <time>2013-09-29T07:00:53Z</time>
      </trkpt>
      <trkpt lat="43.53648" lon="1.51804">
        <ele>156.83</ele>
        <time>2013-09-29T07:01:10Z</time>
      </trkpt>
      <trkpt lat="43.53617" lon="1.51852">
        <ele>158.27</ele>
        <time>2013-09-29T07:01:23Z</time>
      </trkpt>
      <trkpt lat="43.53587" lon="1.51905">
        <ele>157.31</ele>
        <time>2013-09-29T07:01:38Z</time>
      </trkpt>
      <trkpt lat="43.53545" lon="1.51955">
        <ele>156.35</ele>
        <time>2013-09-29T07:01:54Z</time>
      </trkpt>
      <trkpt lat="43.53516" lon="1.52004">
        <ele>155.87</ele>
        <time>2013-09-29T07:02:07Z</time>
      </trkpt>
      <trkpt lat="43.5348" lon="1.52033">
        <ele>157.31</ele>
        <time>2013-09-29T07:02:20Z</time>
      </trkpt>
      <trkpt lat="43.53482" lon="1.52033">
        <ele>157.31</ele>
        <time>2013-09-29T07:02:32Z</time>
      </trkpt>
      <trkpt lat="43.53482" lon="1.52033">
        <ele>156.83</ele>
        <time>2013-09-29T07:02:56Z</time>
      </trkpt>
      <trkpt lat="43.53482" lon="1.52033">
        <ele>156.35</ele>
        <time>2013-09-29T07:03:22Z</time>
      </trkpt>
      <trkpt lat="43.53481" lon="1.52033">
        <ele>156.35</ele>
        <time>2013-09-29T07:03:24Z</time>
      </trkpt>
      <trkpt lat="43.5348" lon="1.52034">
        <ele>156.35</ele>
        <time>2013-09-29T07:03:25Z</time>
      </trkpt>
      <trkpt lat="43.53479" lon="1.52035">
        <ele>156.35</ele>
        <time>2013-09-29T07:03:26Z</time>
      </trkpt>
      <trkpt lat="43.53478" lon="1.52036">
        <ele>156.35</ele>
        <time>2013-09-29T07:03:27Z</time>
      </trkpt>
      <trkpt lat="43.53476" lon="1.52037">
        <ele>156.35</ele>
        <time>2013-09-29T07:03:28Z</time>
      </trkpt>
      <trkpt lat="43.53474" lon="1.52039">
        <ele>156.35</ele>
        <time>2013-09-29T07:03:29Z</time>
      </trkpt>
      <trkpt lat="43.53473" lon="1.52041">
        <ele>156.35</ele>
        <time>2013-09-29T07:03:30Z</time>
      </trkpt>
      <trkpt lat="43.53473" lon="1.52043">
        <ele>156.35</ele>
        <time>2013-09-29T07:03:31Z</time>
      </trkpt>
      <trkpt lat="43.53473" lon="1.52046">
        <ele>156.35</ele>
        <time>2013-09-29T07:03:32Z</time>
      </trkpt>
      <trkpt lat="43.53473" lon="1.52048">
        <ele>155.87</ele>
        <time>2013-09-29T07:03:33Z</time>
      </trkpt>
      <trkpt lat="43.53473" lon="1.52051">
        <ele>156.35</ele>
        <time>2013-09-29T07:03:34Z</time>
      </trkpt>
      <trkpt lat="43.53472" lon="1.52054">
        <ele>155.87</ele>
        <time>2013-09-29T07:03:35Z</time>
      </trkpt>
      <trkpt lat="43.53471" lon="1.52057">
        <ele>156.35</ele>
        <time>2013-09-29T07:03:36Z</time>
      </trkpt>
      <trkpt lat="43.5347" lon="1.52059">
        <ele>155.87</ele>
        <time>2013-09-29T07:03:37Z</time>
      </trkpt>
      <trkpt lat="43.53468" lon="1.52062">
        <ele>155.87</ele>
        <time>2013-09-29T07:03:38Z</time>
      </trkpt>
      <trkpt lat="43.53431" lon="1.52099">
        <ele>156.83</ele>
        <time>2013-09-29T07:03:51Z</time>
      </trkpt>
      <trkpt lat="43.53396" lon="1.52143">
        <ele>156.35</ele>
        <time>2013-09-29T07:04:04Z</time>
      </trkpt>
      <trkpt lat="43.53346" lon="1.52229">
        <ele>155.87</ele>
        <time>2013-09-29T07:04:20Z</time>
      </trkpt>
      <trkpt lat="43.53336" lon="1.52251">
        <ele>155.87</ele>
        <time>2013-09-29T07:04:24Z</time>
      </trkpt>
      <trkpt lat="43.53334" lon="1.52256">
        <ele>156.35</ele>
        <time>2013-09-29T07:04:25Z</time>
      </trkpt>
      <trkpt lat="43.5333" lon="1.52261">
        <ele>155.87</ele>
        <time>2013-09-29T07:04:26Z</time>
      </trkpt>
      <trkpt lat="43.53271" lon="1.52306">
        <ele>154.43</ele>
        <time>2013-09-29T07:04:41Z</time>
      </trkpt>
      <trkpt lat="43.53265" lon="1.52305">
        <ele>154.43</ele>
        <time>2013-09-29T07:04:42Z</time>
      </trkpt>
      <trkpt lat="43.53259" lon="1.52305">
        <ele>153.95</ele>
        <time>2013-09-29T07:04:43Z</time>
      </trkpt>
      <trkpt lat="43.53255" lon="1.52304">
        <ele>153.47</ele>
        <time>2013-09-29T07:04:44Z</time>
      </trkpt>
      <trkpt lat="43.53251" lon="1.52305">
        <ele>153.95</ele>
        <time>2013-09-29T07:04:45Z</time>
      </trkpt>
      <trkpt lat="43.53248" lon="1.52308">
        <ele>153.95</ele>
        <time>2013-09-29T07:04:46Z</time>
      </trkpt>
      <trkpt lat="43.53246" lon="1.52312">
        <ele>153.95</ele>
        <time>2013-09-29T07:04:47Z</time>
      </trkpt>
      <trkpt lat="43.53245" lon="1.52318">
        <ele>153.95</ele>
        <time>2013-09-29T07:04:48Z</time>
      </trkpt>
      <trkpt lat="43.53246" lon="1.52322">
        <ele>153.47</ele>
        <time>2013-09-29T07:04:49Z</time>
      </trkpt>
      <trkpt lat="43.53246" lon="1.52327">
        <ele>153.95</ele>
        <time>2013-09-29T07:04:50Z</time>
      </trkpt>
      <trkpt lat="43.53248" lon="1.52332">
        <ele>153.47</ele>
        <time>2013-09-29T07:04:51Z</time>
      </trkpt>
      <trkpt lat="43.53244" lon="1.52355">
        <ele>153.95</ele>
        <time>2013-09-29T07:04:57Z</time>
      </trkpt>
      <trkpt lat="43.53241" lon="1.52357">
        <ele>153.47</ele>
        <time>2013-09-29T07:04:58Z</time>
      </trkpt>
      <trkpt lat="43.53233" lon="1.52368">
        <ele>152.99</ele>
        <time>2013-09-29T07:05:01Z</time>
      </trkpt>
      <trkpt lat="43.53229" lon="1.52371">
        <ele>152.99</ele>
        <time>2013-09-29T07:05:02Z</time>
      </trkpt>
      <trkpt lat="43.53202" lon="1.52396">
        <ele>152.03</ele>
        <time>2013-09-29T07:05:11Z</time>
      </trkpt>
      <trkpt lat="43.53198" lon="1.52401">
        <ele>152.03</ele>
        <time>2013-09-29T07:05:12Z</time>
      </trkpt>
      <trkpt lat="43.53195" lon="1.52406">
        <ele>152.03</ele>
        <time>2013-09-29T07:05:13Z</time>
      </trkpt>
      <trkpt lat="43.53193" lon="1.52411">
        <ele>152.03</ele>
        <time>2013-09-29T07:05:14Z</time>
      </trkpt>
      <trkpt lat="43.53188" lon="1.52423">
        <ele>152.03</ele>
        <time>2013-09-29T07:05:16Z</time>
      </trkpt>
      <trkpt lat="43.53185" lon="1.52429">
        <ele>152.51</ele>
        <time>2013-09-29T07:05:17Z</time>
      </trkpt>
      <trkpt lat="43.53127" lon="1.52522">
        <ele>152.03</ele>
        <time>2013-09-29T07:05:35Z</time>
      </trkpt>
      <trkpt lat="43.53077" lon="1.52573">
        <ele>152.99</ele>
        <time>2013-09-29T07:05:50Z</time>
      </trkpt>
      <trkpt lat="43.53077" lon="1.52574">
        <ele>153.47</ele>
        <time>2013-09-29T07:06:00Z</time>
      </trkpt>
      <trkpt lat="43.53079" lon="1.52575">
        <ele>152.99</ele>
        <time>2013-09-29T07:06:12Z</time>
      </trkpt>
      <trkpt lat="43.5308" lon="1.52575">
        <ele>152.51</ele>
        <time>2013-09-29T07:06:13Z</time>
      </trkpt>
      <trkpt lat="43.53109" lon="1.52547">
        <ele>151.54</ele>
        <time>2013-09-29T07:06:28Z</time>
      </trkpt>
      <trkpt lat="43.53123" lon="1.52528">
        <ele>152.03</ele>
        <time>2013-09-29T07:06:39Z</time>
      </trkpt>
      <trkpt lat="43.53122" lon="1.52527">
        <ele>152.03</ele>
        <time>2013-09-29T07:06:45Z</time>
      </trkpt>
      <trkpt lat="43.5312" lon="1.52527">
        <ele>152.03</ele>
        <time>2013-09-29T07:06:46Z</time>
      </trkpt>
      <trkpt lat="43.53119" lon="1.52529">
        <ele>152.03</ele>
        <time>2013-09-29T07:06:47Z</time>
      </trkpt>
      <trkpt lat="43.53117" lon="1.52531">
        <ele>152.03</ele>
        <time>2013-09-29T07:06:48Z</time>
      </trkpt>
      <trkpt lat="43.53115" lon="1.52534">
        <ele>151.54</ele>
        <time>2013-09-29T07:06:49Z</time>
      </trkpt>
      <trkpt lat="43.53112" lon="1.52537">
        <ele>152.03</ele>
        <time>2013-09-29T07:06:50Z</time>
      </trkpt>
      <trkpt lat="43.53093" lon="1.52559">
        <ele>152.03</ele>
        <time>2013-09-29T07:06:56Z</time>
      </trkpt>
      <trkpt lat="43.53091" lon="1.52564">
        <ele>152.03</ele>
        <time>2013-09-29T07:06:57Z</time>
      </trkpt>
      <trkpt lat="43.53089" lon="1.52568">
        <ele>152.03</ele>
        <time>2013-09-29T07:06:58Z</time>
      </trkpt>
      <trkpt lat="43.53088" lon="1.52572">
        <ele>152.51</ele>
        <time>2013-09-29T07:06:59Z</time>
      </trkpt>
      <trkpt lat="43.53087" lon="1.52574">
        <ele>152.99</ele>
        <time>2013-09-29T07:07:00Z</time>
      </trkpt>
      <trkpt lat="43.53087" lon="1.52574">
        <ele>152.51</ele>
        <time>2013-09-29T07:07:16Z</time>
      </trkpt>
      <trkpt lat="43.53085" lon="1.52575">
        <ele>152.51</ele>
        <time>2013-09-29T07:07:42Z</time>
      </trkpt>
      <trkpt lat="43.53085" lon="1.52576">
        <ele>152.99</ele>
        <time>2013-09-29T07:07:43Z</time>
      </trkpt>
      <trkpt lat="43.53083" lon="1.52576">
        <ele>153.47</ele>
        <time>2013-09-29T07:07:44Z</time>
      </trkpt>
      <trkpt lat="43.53082" lon="1.52576">
        <ele>152.99</ele>
        <time>2013-09-29T07:07:45Z</time>
      </trkpt>
      <trkpt lat="43.53081" lon="1.52577">
        <ele>153.47</ele>
        <time>2013-09-29T07:07:46Z</time>
      </trkpt>
      <trkpt lat="43.53058" lon="1.52605">
        <ele>152.99</ele>
        <time>2013-09-29T07:07:57Z</time>
      </trkpt>
      <trkpt lat="43.53048" lon="1.52623">
        <ele>152.99</ele>
        <time>2013-09-29T07:08:01Z</time>
      </trkpt>
      <trkpt lat="43.52998" lon="1.52701">
        <ele>153.95</ele>
        <time>2013-09-29T07:08:18Z</time>
      </trkpt>
      <trkpt lat="43.52984" lon="1.52723">
        <ele>153.95</ele>
        <time>2013-09-29T07:08:29Z</time>
      </trkpt>
      <trkpt lat="43.52982" lon="1.52723">
        <ele>153.95</ele>
        <time>2013-09-29T07:08:30Z</time>
      </trkpt>
      <trkpt lat="43.52981" lon="1.52722">
        <ele>153.95</ele>
        <time>2013-09-29T07:08:31Z</time>
      </trkpt>
      <trkpt lat="43.52979" lon="1.52721">
        <ele>153.95</ele>
        <time>2013-09-29T07:08:32Z</time>
      </trkpt>
      <trkpt lat="43.52977" lon="1.5272">
        <ele>153.47</ele>
        <time>2013-09-29T07:08:33Z</time>
      </trkpt>
      <trkpt lat="43.52975" lon="1.52717">
        <ele>152.99</ele>
        <time>2013-09-29T07:08:34Z</time>
      </trkpt>
      <trkpt lat="43.52946" lon="1.52719">
        <ele>152.03</ele>
        <time>2013-09-29T07:08:45Z</time>
      </trkpt>
      <trkpt lat="43.52935" lon="1.52758">
        <ele>151.06</ele>
        <time>2013-09-29T07:08:57Z</time>
      </trkpt>
      <trkpt lat="43.52928" lon="1.52778">
        <ele>151.54</ele>
        <time>2013-09-29T07:09:01Z</time>
      </trkpt>
      <trkpt lat="43.5291" lon="1.52829">
        <ele>152.99</ele>
        <time>2013-09-29T07:09:11Z</time>
      </trkpt>
      <trkpt lat="43.52909" lon="1.52835">
        <ele>153.47</ele>
        <time>2013-09-29T07:09:12Z</time>
      </trkpt>
      <trkpt lat="43.52907" lon="1.52846">
        <ele>153.95</ele>
        <time>2013-09-29T07:09:14Z</time>
      </trkpt>
      <trkpt lat="43.52905" lon="1.52851">
        <ele>153.47</ele>
        <time>2013-09-29T07:09:15Z</time>
      </trkpt>
      <trkpt lat="43.52885" lon="1.5291">
        <ele>155.39</ele>
        <time>2013-09-29T07:09:27Z</time>
      </trkpt>
      <trkpt lat="43.52888" lon="1.52969">
        <ele>155.87</ele>
        <time>2013-09-29T07:09:40Z</time>
      </trkpt>
      <trkpt lat="43.52916" lon="1.53003">
        <ele>155.87</ele>
        <time>2013-09-29T07:09:53Z</time>
      </trkpt>
      <trkpt lat="43.52958" lon="1.52996">
        <ele>156.35</ele>
        <time>2013-09-29T07:10:04Z</time>
      </trkpt>
      <trkpt lat="43.53006" lon="1.52988">
        <ele>156.83</ele>
        <time>2013-09-29T07:10:16Z</time>
      </trkpt>
      <trkpt lat="43.53054" lon="1.53">
        <ele>157.31</ele>
        <time>2013-09-29T07:10:31Z</time>
      </trkpt>
      <trkpt lat="43.53046" lon="1.53039">
        <ele>158.27</ele>
        <time>2013-09-29T07:10:39Z</time>
      </trkpt>
      <trkpt lat="43.53009" lon="1.53121">
        <ele>158.27</ele>
        <time>2013-09-29T07:10:56Z</time>
      </trkpt>
      <trkpt lat="43.53012" lon="1.53156">
        <ele>158.27</ele>
        <time>2013-09-29T07:11:06Z</time>
      </trkpt>
      <trkpt lat="43.53059" lon="1.53201">
        <ele>156.35</ele>
        <time>2013-09-29T07:11:20Z</time>
      </trkpt>
      <trkpt lat="43.53125" lon="1.5327">
        <ele>156.35</ele>
        <time>2013-09-29T07:11:35Z</time>
      </trkpt>
      <trkpt lat="43.53166" lon="1.53322">
        <ele>158.75</ele>
        <time>2013-09-29T07:11:49Z</time>
      </trkpt>
      <trkpt lat="43.532" lon="1.53365">
        <ele>159.72</ele>
        <time>2013-09-29T07:12:02Z</time>
      </trkpt>
      <trkpt lat="43.53221" lon="1.53386">
        <ele>160.68</ele>
        <time>2013-09-29T07:12:14Z</time>
      </trkpt>
      <trkpt lat="43.53226" lon="1.53392">
        <ele>160.2</ele>
        <time>2013-09-29T07:12:17Z</time>
      </trkpt>
      <trkpt lat="43.53228" lon="1.53393">
        <ele>160.2</ele>
        <time>2013-09-29T07:12:18Z</time>
      </trkpt>
      <trkpt lat="43.53231" lon="1.53392">
        <ele>160.2</ele>
        <time>2013-09-29T07:12:19Z</time>
      </trkpt>
      <trkpt lat="43.53265" lon="1.53351">
        <ele>160.2</ele>
        <time>2013-09-29T07:12:32Z</time>
      </trkpt>
      <trkpt lat="43.533" lon="1.53309">
        <ele>159.72</ele>
        <time>2013-09-29T07:12:45Z</time>
      </trkpt>
      <trkpt lat="43.53329" lon="1.53339">
        <ele>158.75</ele>
        <time>2013-09-29T07:12:55Z</time>
      </trkpt>
      <trkpt lat="43.53367" lon="1.53412">
        <ele>160.2</ele>
        <time>2013-09-29T07:13:10Z</time>
      </trkpt>
      <trkpt lat="43.53407" lon="1.53496">
        <ele>160.68</ele>
        <time>2013-09-29T07:13:27Z</time>
      </trkpt>
      <trkpt lat="43.53458" lon="1.5358">
        <ele>162.6</ele>
        <time>2013-09-29T07:13:46Z</time>
      </trkpt>
      <trkpt lat="43.53487" lon="1.53611">
        <ele>162.6</ele>
        <time>2013-09-29T07:13:59Z</time>
      </trkpt>
      <trkpt lat="43.53489" lon="1.53612">
        <ele>163.56</ele>
        <time>2013-09-29T07:14:01Z</time>
      </trkpt>
      <trkpt lat="43.5349" lon="1.53614">
        <ele>163.56</ele>
        <time>2013-09-29T07:14:02Z</time>
      </trkpt>
      <trkpt lat="43.53488" lon="1.53618">
        <ele>163.56</ele>
        <time>2013-09-29T07:14:04Z</time>
      </trkpt>
      <trkpt lat="43.53487" lon="1.5362">
        <ele>163.56</ele>
        <time>2013-09-29T07:14:05Z</time>
      </trkpt>
      <trkpt lat="43.53449" lon="1.53655">
        <ele>165.96</ele>
        <time>2013-09-29T07:14:19Z</time>
      </trkpt>
      <trkpt lat="43.53427" lon="1.53689">
        <ele>169.33</ele>
        <time>2013-09-29T07:14:31Z</time>
      </trkpt>
      <trkpt lat="43.53423" lon="1.53697">
        <ele>169.81</ele>
        <time>2013-09-29T07:14:34Z</time>
      </trkpt>
      <trkpt lat="43.53423" lon="1.537">
        <ele>169.81</ele>
        <time>2013-09-29T07:14:35Z</time>
      </trkpt>
      <trkpt lat="43.53423" lon="1.53702">
        <ele>170.29</ele>
        <time>2013-09-29T07:14:36Z</time>
      </trkpt>
      <trkpt lat="43.53425" lon="1.53704">
        <ele>169.81</ele>
        <time>2013-09-29T07:14:37Z</time>
      </trkpt>
      <trkpt lat="43.53426" lon="1.53707">
        <ele>170.29</ele>
        <time>2013-09-29T07:14:38Z</time>
      </trkpt>
      <trkpt lat="43.53448" lon="1.53745">
        <ele>171.73</ele>
        <time>2013-09-29T07:14:50Z</time>
      </trkpt>
      <trkpt lat="43.53486" lon="1.53775">
        <ele>172.21</ele>
        <time>2013-09-29T07:15:02Z</time>
      </trkpt>
      <trkpt lat="43.53492" lon="1.53781">
        <ele>171.73</ele>
        <time>2013-09-29T07:15:04Z</time>
      </trkpt>
      <trkpt lat="43.53503" lon="1.53798">
        <ele>171.73</ele>
        <time>2013-09-29T07:15:08Z</time>
      </trkpt>
      <trkpt lat="43.53506" lon="1.53804">
        <ele>171.73</ele>
        <time>2013-09-29T07:15:09Z</time>
      </trkpt>
      <trkpt lat="43.53522" lon="1.53844">
        <ele>170.29</ele>
        <time>2013-09-29T07:15:16Z</time>
      </trkpt>
      <trkpt lat="43.53527" lon="1.5392">
        <ele>170.29</ele>
        <time>2013-09-29T07:15:27Z</time>
      </trkpt>
      <trkpt lat="43.53514" lon="1.53978">
        <ele>171.25</ele>
        <time>2013-09-29T07:15:36Z</time>
      </trkpt>
      <trkpt lat="43.53512" lon="1.53984">
        <ele>170.77</ele>
        <time>2013-09-29T07:15:37Z</time>
      </trkpt>
      <trkpt lat="43.53485" lon="1.54085">
        <ele>172.69</ele>
        <time>2013-09-29T07:15:55Z</time>
      </trkpt>
      <trkpt lat="43.53458" lon="1.5419">
        <ele>172.21</ele>
        <time>2013-09-29T07:16:12Z</time>
      </trkpt>
      <trkpt lat="43.53453" lon="1.54238">
        <ele>171.73</ele>
        <time>2013-09-29T07:16:19Z</time>
      </trkpt>
      <trkpt lat="43.53437" lon="1.54314">
        <ele>171.25</ele>
        <time>2013-09-29T07:16:30Z</time>
      </trkpt>
      <trkpt lat="43.5342" lon="1.54421">
        <ele>171.25</ele>
        <time>2013-09-29T07:16:47Z</time>
      </trkpt>
      <trkpt lat="43.53419" lon="1.54434">
        <ele>171.73</ele>
        <time>2013-09-29T07:16:58Z</time>
      </trkpt>
      <trkpt lat="43.53418" lon="1.54436">
        <ele>171.73</ele>
        <time>2013-09-29T07:17:01Z</time>
      </trkpt>
      <trkpt lat="43.53418" lon="1.54437">
        <ele>171.73</ele>
        <time>2013-09-29T07:17:02Z</time>
      </trkpt>
      <trkpt lat="43.53417" lon="1.54439">
        <ele>171.73</ele>
        <time>2013-09-29T07:17:03Z</time>
      </trkpt>
      <trkpt lat="43.53416" lon="1.54441">
        <ele>171.73</ele>
        <time>2013-09-29T07:17:04Z</time>
      </trkpt>
      <trkpt lat="43.53416" lon="1.54444">
        <ele>171.73</ele>
        <time>2013-09-29T07:17:05Z</time>
      </trkpt>
      <trkpt lat="43.53404" lon="1.545">
        <ele>173.17</ele>
        <time>2013-09-29T07:17:17Z</time>
      </trkpt>
      <trkpt lat="43.53379" lon="1.54583">
        <ele>174.62</ele>
        <time>2013-09-29T07:17:32Z</time>
      </trkpt>
      <trkpt lat="43.53362" lon="1.54625">
        <ele>175.58</ele>
        <time>2013-09-29T07:17:40Z</time>
      </trkpt>
      <trkpt lat="43.53359" lon="1.5463">
        <ele>175.58</ele>
        <time>2013-09-29T07:17:41Z</time>
      </trkpt>
      <trkpt lat="43.53349" lon="1.54647">
        <ele>176.54</ele>
        <time>2013-09-29T07:17:45Z</time>
      </trkpt>
      <trkpt lat="43.53323" lon="1.547">
        <ele>177.98</ele>
        <time>2013-09-29T07:17:59Z</time>
      </trkpt>
      <trkpt lat="43.53325" lon="1.54707">
        <ele>177.5</ele>
        <time>2013-09-29T07:18:02Z</time>
      </trkpt>
      <trkpt lat="43.53327" lon="1.54709">
        <ele>177.5</ele>
        <time>2013-09-29T07:18:03Z</time>
      </trkpt>
      <trkpt lat="43.5333" lon="1.54711">
        <ele>177.5</ele>
        <time>2013-09-29T07:18:04Z</time>
      </trkpt>
      <trkpt lat="43.53363" lon="1.54732">
        <ele>174.14</ele>
        <time>2013-09-29T07:18:13Z</time>
      </trkpt>
      <trkpt lat="43.53359" lon="1.54793">
        <ele>173.66</ele>
        <time>2013-09-29T07:18:26Z</time>
      </trkpt>
      <trkpt lat="43.53316" lon="1.54894">
        <ele>176.06</ele>
        <time>2013-09-29T07:18:39Z</time>
      </trkpt>
      <trkpt lat="43.53288" lon="1.5498">
        <ele>176.06</ele>
        <time>2013-09-29T07:18:56Z</time>
      </trkpt>
      <trkpt lat="43.53282" lon="1.55039">
        <ele>175.58</ele>
        <time>2013-09-29T07:19:08Z</time>
      </trkpt>
      <trkpt lat="43.53269" lon="1.55088">
        <ele>176.06</ele>
        <time>2013-09-29T07:19:20Z</time>
      </trkpt>
      <trkpt lat="43.53254" lon="1.55126">
        <ele>176.54</ele>
        <time>2013-09-29T07:19:34Z</time>
      </trkpt>
      <trkpt lat="43.53235" lon="1.55181">
        <ele>179.42</ele>
        <time>2013-09-29T07:19:48Z</time>
      </trkpt>
      <trkpt lat="43.53222" lon="1.55242">
        <ele>179.9</ele>
        <time>2013-09-29T07:20:03Z</time>
      </trkpt>
      <trkpt lat="43.53226" lon="1.55258">
        <ele>180.38</ele>
        <time>2013-09-29T07:20:10Z</time>
      </trkpt>
      <trkpt lat="43.53228" lon="1.55259">
        <ele>180.38</ele>
        <time>2013-09-29T07:20:11Z</time>
      </trkpt>
      <trkpt lat="43.53232" lon="1.5527">
        <ele>180.38</ele>
        <time>2013-09-29T07:20:22Z</time>
      </trkpt>
      <trkpt lat="43.53231" lon="1.55269">
        <ele>180.87</ele>
        <time>2013-09-29T07:20:23Z</time>
      </trkpt>
      <trkpt lat="43.5323" lon="1.5527">
        <ele>180.38</ele>
        <time>2013-09-29T07:20:24Z</time>
      </trkpt>
      <trkpt lat="43.53229" lon="1.55271">
        <ele>180.38</ele>
        <time>2013-09-29T07:20:25Z</time>
      </trkpt>
      <trkpt lat="43.53223" lon="1.55272">
        <ele>179.9</ele>
        <time>2013-09-29T07:20:26Z</time>
      </trkpt>
      <trkpt lat="43.5322" lon="1.55274">
        <ele>180.38</ele>
        <time>2013-09-29T07:20:27Z</time>
      </trkpt>
      <trkpt lat="43.53218" lon="1.55277">
        <ele>180.38</ele>
        <time>2013-09-29T07:20:28Z</time>
      </trkpt>
      <trkpt lat="43.53205" lon="1.55326">
        <ele>179.42</ele>
        <time>2013-09-29T07:20:38Z</time>
      </trkpt>
      <trkpt lat="43.53188" lon="1.55389">
        <ele>180.38</ele>
        <time>2013-09-29T07:20:53Z</time>
      </trkpt>
      <trkpt lat="43.53161" lon="1.55463">
        <ele>180.38</ele>
        <time>2013-09-29T07:21:11Z</time>
      </trkpt>
      <trkpt lat="43.53143" lon="1.55525">
        <ele>180.87</ele>
        <time>2013-09-29T07:21:27Z</time>
      </trkpt>
      <trkpt lat="43.53149" lon="1.55598">
        <ele>181.35</ele>
        <time>2013-09-29T07:21:43Z</time>
      </trkpt>
      <trkpt lat="43.53146" lon="1.55653">
        <ele>181.83</ele>
        <time>2013-09-29T07:21:57Z</time>
      </trkpt>
      <trkpt lat="43.53139" lon="1.5571">
        <ele>182.79</ele>
        <time>2013-09-29T07:22:10Z</time>
      </trkpt>
      <trkpt lat="43.53136" lon="1.55771">
        <ele>183.75</ele>
        <time>2013-09-29T07:22:24Z</time>
      </trkpt>
      <trkpt lat="43.53129" lon="1.55824">
        <ele>184.23</ele>
        <time>2013-09-29T07:22:36Z</time>
      </trkpt>
      <trkpt lat="43.53104" lon="1.55878">
        <ele>185.19</ele>
        <time>2013-09-29T07:22:50Z</time>
      </trkpt>
      <trkpt lat="43.53081" lon="1.55925">
        <ele>186.15</ele>
        <time>2013-09-29T07:23:02Z</time>
      </trkpt>
      <trkpt lat="43.53056" lon="1.55974">
        <ele>186.63</ele>
        <time>2013-09-29T07:23:15Z</time>
      </trkpt>
      <trkpt lat="43.53039" lon="1.56017">
        <ele>187.59</ele>
        <time>2013-09-29T07:23:27Z</time>
      </trkpt>
      <trkpt lat="43.53023" lon="1.56044">
        <ele>188.08</ele>
        <time>2013-09-29T07:23:40Z</time>
      </trkpt>
      <trkpt lat="43.52988" lon="1.56009">
        <ele>189.52</ele>
        <time>2013-09-29T07:23:52Z</time>
      </trkpt>
      <trkpt lat="43.52931" lon="1.5596">
        <ele>190.48</ele>
        <time>2013-09-29T07:24:11Z</time>
      </trkpt>
      <trkpt lat="43.52868" lon="1.55904">
        <ele>191.44</ele>
        <time>2013-09-29T07:24:32Z</time>
      </trkpt>
      <trkpt lat="43.52842" lon="1.55904">
        <ele>191.44</ele>
        <time>2013-09-29T07:24:43Z</time>
      </trkpt>
      <trkpt lat="43.52811" lon="1.55952">
        <ele>193.36</ele>
        <time>2013-09-29T07:24:58Z</time>
      </trkpt>
      <trkpt lat="43.52778" lon="1.55922">
        <ele>197.21</ele>
        <time>2013-09-29T07:25:08Z</time>
      </trkpt>
      <trkpt lat="43.52744" lon="1.55901">
        <ele>200.09</ele>
        <time>2013-09-29T07:25:20Z</time>
      </trkpt>
      <trkpt lat="43.52708" lon="1.55898">
        <ele>202.01</ele>
        <time>2013-09-29T07:25:33Z</time>
      </trkpt>
      <trkpt lat="43.52682" lon="1.55948">
        <ele>205.38</ele>
        <time>2013-09-29T07:25:46Z</time>
      </trkpt>
      <trkpt lat="43.52642" lon="1.56007">
        <ele>206.82</ele>
        <time>2013-09-29T07:26:02Z</time>
      </trkpt>
      <trkpt lat="43.52602" lon="1.56092">
        <ele>206.82</ele>
        <time>2013-09-29T07:26:20Z</time>
      </trkpt>
      <trkpt lat="43.52599" lon="1.56102">
        <ele>206.34</ele>
        <time>2013-09-29T07:26:22Z</time>
      </trkpt>
      <trkpt lat="43.52583" lon="1.56143">
        <ele>206.34</ele>
        <time>2013-09-29T07:26:30Z</time>
      </trkpt>
      <trkpt lat="43.52579" lon="1.56153">
        <ele>205.86</ele>
        <time>2013-09-29T07:26:32Z</time>
      </trkpt>
      <trkpt lat="43.52569" lon="1.56179">
        <ele>205.86</ele>
        <time>2013-09-29T07:26:37Z</time>
      </trkpt>
      <trkpt lat="43.52564" lon="1.5619">
        <ele>205.86</ele>
        <time>2013-09-29T07:26:39Z</time>
      </trkpt>
      <trkpt lat="43.52556" lon="1.56209">
        <ele>205.38</ele>
        <time>2013-09-29T07:26:43Z</time>
      </trkpt>
      <trkpt lat="43.52554" lon="1.56214">
        <ele>205.38</ele>
        <time>2013-09-29T07:26:44Z</time>
      </trkpt>
      <trkpt lat="43.52532" lon="1.56268">
        <ele>203.46</ele>
        <time>2013-09-29T07:26:57Z</time>
      </trkpt>
      <trkpt lat="43.52508" lon="1.56326">
        <ele>201.05</ele>
        <time>2013-09-29T07:27:11Z</time>
      </trkpt>
      <trkpt lat="43.52486" lon="1.56382">
        <ele>200.57</ele>
        <time>2013-09-29T07:27:24Z</time>
      </trkpt>
      <trkpt lat="43.52527" lon="1.56405">
        <ele>203.46</ele>
        <time>2013-09-29T07:27:38Z</time>
      </trkpt>
      <trkpt lat="43.52586" lon="1.56431">
        <ele>202.98</ele>
        <time>2013-09-29T07:27:54Z</time>
      </trkpt>
      <trkpt lat="43.52619" lon="1.56472">
        <ele>200.57</ele>
        <time>2013-09-29T07:28:06Z</time>
      </trkpt>
      <trkpt lat="43.52651" lon="1.56466">
        <ele>200.09</ele>
        <time>2013-09-29T07:28:16Z</time>
      </trkpt>
      <trkpt lat="43.52713" lon="1.56509">
        <ele>200.57</ele>
        <time>2013-09-29T07:28:29Z</time>
      </trkpt>
      <trkpt lat="43.52781" lon="1.56558">
        <ele>201.05</ele>
        <time>2013-09-29T07:28:44Z</time>
      </trkpt>
      <trkpt lat="43.52857" lon="1.5661">
        <ele>201.53</ele>
        <time>2013-09-29T07:29:02Z</time>
      </trkpt>
      <trkpt lat="43.52923" lon="1.56658">
        <ele>203.46</ele>
        <time>2013-09-29T07:29:18Z</time>
      </trkpt>
      <trkpt lat="43.52994" lon="1.56712">
        <ele>205.86</ele>
        <time>2013-09-29T07:29:34Z</time>
      </trkpt>
      <trkpt lat="43.53063" lon="1.56761">
        <ele>208.26</ele>
        <time>2013-09-29T07:29:51Z</time>
      </trkpt>
      <trkpt lat="43.53144" lon="1.56818">
        <ele>209.7</ele>
        <time>2013-09-29T07:30:11Z</time>
      </trkpt>
      <trkpt lat="43.53151" lon="1.56823">
        <ele>209.7</ele>
        <time>2013-09-29T07:30:13Z</time>
      </trkpt>
      <trkpt lat="43.53155" lon="1.56826">
        <ele>210.19</ele>
        <time>2013-09-29T07:30:14Z</time>
      </trkpt>
      <trkpt lat="43.53159" lon="1.56828">
        <ele>209.7</ele>
        <time>2013-09-29T07:30:15Z</time>
      </trkpt>
      <trkpt lat="43.53162" lon="1.56831">
        <ele>209.7</ele>
        <time>2013-09-29T07:30:16Z</time>
      </trkpt>
      <trkpt lat="43.53166" lon="1.56833">
        <ele>210.19</ele>
        <time>2013-09-29T07:30:17Z</time>
      </trkpt>
      <trkpt lat="43.53214" lon="1.56856">
        <ele>208.74</ele>
        <time>2013-09-29T07:30:28Z</time>
      </trkpt>
      <trkpt lat="43.53219" lon="1.56856">
        <ele>208.74</ele>
        <time>2013-09-29T07:30:29Z</time>
      </trkpt>
      <trkpt lat="43.53256" lon="1.56858">
        <ele>209.22</ele>
        <time>2013-09-29T07:30:36Z</time>
      </trkpt>
      <trkpt lat="43.53283" lon="1.5686">
        <ele>210.67</ele>
        <time>2013-09-29T07:30:41Z</time>
      </trkpt>
      <trkpt lat="43.53315" lon="1.56864">
        <ele>212.59</ele>
        <time>2013-09-29T07:30:48Z</time>
      </trkpt>
      <trkpt lat="43.53324" lon="1.56866">
        <ele>213.07</ele>
        <time>2013-09-29T07:30:50Z</time>
      </trkpt>
      <trkpt lat="43.53328" lon="1.56867">
        <ele>212.59</ele>
        <time>2013-09-29T07:30:51Z</time>
      </trkpt>
      <trkpt lat="43.53359" lon="1.56867">
        <ele>214.03</ele>
        <time>2013-09-29T07:30:58Z</time>
      </trkpt>
      <trkpt lat="43.53363" lon="1.56868">
        <ele>214.03</ele>
        <time>2013-09-29T07:30:59Z</time>
      </trkpt>
      <trkpt lat="43.53386" lon="1.56873">
        <ele>214.51</ele>
        <time>2013-09-29T07:31:04Z</time>
      </trkpt>
      <trkpt lat="43.53394" lon="1.56875">
        <ele>214.99</ele>
        <time>2013-09-29T07:31:06Z</time>
      </trkpt>
      <trkpt lat="43.53421" lon="1.56881">
        <ele>215.47</ele>
        <time>2013-09-29T07:31:12Z</time>
      </trkpt>
      <trkpt lat="43.53425" lon="1.56883">
        <ele>215.47</ele>
        <time>2013-09-29T07:31:13Z</time>
      </trkpt>
      <trkpt lat="43.53429" lon="1.56884">
        <ele>215.47</ele>
        <time>2013-09-29T07:31:14Z</time>
      </trkpt>
      <trkpt lat="43.53434" lon="1.56885">
        <ele>215.95</ele>
        <time>2013-09-29T07:31:15Z</time>
      </trkpt>
      <trkpt lat="43.53438" lon="1.56886">
        <ele>215.47</ele>
        <time>2013-09-29T07:31:16Z</time>
      </trkpt>
      <trkpt lat="43.53451" lon="1.56887">
        <ele>214.99</ele>
        <time>2013-09-29T07:31:19Z</time>
      </trkpt>
      <trkpt lat="43.53455" lon="1.56888">
        <ele>214.99</ele>
        <time>2013-09-29T07:31:20Z</time>
      </trkpt>
      <trkpt lat="43.53459" lon="1.56891">
        <ele>214.99</ele>
        <time>2013-09-29T07:31:21Z</time>
      </trkpt>
      <trkpt lat="43.53462" lon="1.56895">
        <ele>214.99</ele>
        <time>2013-09-29T07:31:22Z</time>
      </trkpt>
      <trkpt lat="43.53465" lon="1.569">
        <ele>214.99</ele>
        <time>2013-09-29T07:31:23Z</time>
      </trkpt>
      <trkpt lat="43.53466" lon="1.56905">
        <ele>214.99</ele>
        <time>2013-09-29T07:31:24Z</time>
      </trkpt>
      <trkpt lat="43.53466" lon="1.5691">
        <ele>214.99</ele>
        <time>2013-09-29T07:31:25Z</time>
      </trkpt>
      <trkpt lat="43.53466" lon="1.56916">
        <ele>215.47</ele>
        <time>2013-09-29T07:31:26Z</time>
      </trkpt>
      <trkpt lat="43.53465" lon="1.5692">
        <ele>215.47</ele>
        <time>2013-09-29T07:31:27Z</time>
      </trkpt>
      <trkpt lat="43.53461" lon="1.56941">
        <ele>214.99</ele>
        <time>2013-09-29T07:31:31Z</time>
      </trkpt>
      <trkpt lat="43.53458" lon="1.56952">
        <ele>215.95</ele>
        <time>2013-09-29T07:31:33Z</time>
      </trkpt>
      <trkpt lat="43.53458" lon="1.56958">
        <ele>215.95</ele>
        <time>2013-09-29T07:31:34Z</time>
      </trkpt>
      <trkpt lat="43.53439" lon="1.57069">
        <ele>218.36</ele>
        <time>2013-09-29T07:31:54Z</time>
      </trkpt>
      <trkpt lat="43.5343" lon="1.57104">
        <ele>219.32</ele>
        <time>2013-09-29T07:32:00Z</time>
      </trkpt>
      <trkpt lat="43.53399" lon="1.57193">
        <ele>220.28</ele>
        <time>2013-09-29T07:32:17Z</time>
      </trkpt>
      <trkpt lat="43.53378" lon="1.57254">
        <ele>221.24</ele>
        <time>2013-09-29T07:32:29Z</time>
      </trkpt>
      <trkpt lat="43.53377" lon="1.5726">
        <ele>221.72</ele>
        <time>2013-09-29T07:32:30Z</time>
      </trkpt>
      <trkpt lat="43.53377" lon="1.57265">
        <ele>221.72</ele>
        <time>2013-09-29T07:32:31Z</time>
      </trkpt>
      <trkpt lat="43.53378" lon="1.57289">
        <ele>224.12</ele>
        <time>2013-09-29T07:32:36Z</time>
      </trkpt>
      <trkpt lat="43.53391" lon="1.57297">
        <ele>225.57</ele>
        <time>2013-09-29T07:32:41Z</time>
      </trkpt>
      <trkpt lat="43.53415" lon="1.5731">
        <ele>226.53</ele>
        <time>2013-09-29T07:32:55Z</time>
      </trkpt>
      <trkpt lat="43.53443" lon="1.57331">
        <ele>224.12</ele>
        <time>2013-09-29T07:33:07Z</time>
      </trkpt>
      <trkpt lat="43.53464" lon="1.57353">
        <ele>221.72</ele>
        <time>2013-09-29T07:33:12Z</time>
      </trkpt>
      <trkpt lat="43.53492" lon="1.57387">
        <ele>218.36</ele>
        <time>2013-09-29T07:33:18Z</time>
      </trkpt>
      <trkpt lat="43.53503" lon="1.57398">
        <ele>216.91</ele>
        <time>2013-09-29T07:33:20Z</time>
      </trkpt>
      <trkpt lat="43.53509" lon="1.57403">
        <ele>215.95</ele>
        <time>2013-09-29T07:33:21Z</time>
      </trkpt>
      <trkpt lat="43.53515" lon="1.57406">
        <ele>215.47</ele>
        <time>2013-09-29T07:33:22Z</time>
      </trkpt>
      <trkpt lat="43.53522" lon="1.57409">
        <ele>214.99</ele>
        <time>2013-09-29T07:33:23Z</time>
      </trkpt>
      <trkpt lat="43.53545" lon="1.57418">
        <ele>211.63</ele>
        <time>2013-09-29T07:33:26Z</time>
      </trkpt>
      <trkpt lat="43.53552" lon="1.57423">
        <ele>210.19</ele>
        <time>2013-09-29T07:33:27Z</time>
      </trkpt>
      <trkpt lat="43.53576" lon="1.57441">
        <ele>206.34</ele>
        <time>2013-09-29T07:33:30Z</time>
      </trkpt>
      <trkpt lat="43.53593" lon="1.57455">
        <ele>202.98</ele>
        <time>2013-09-29T07:33:32Z</time>
      </trkpt>
      <trkpt lat="43.53616" lon="1.57473">
        <ele>199.61</ele>
        <time>2013-09-29T07:33:35Z</time>
      </trkpt>
      <trkpt lat="43.53621" lon="1.57476">
        <ele>198.65</ele>
        <time>2013-09-29T07:33:36Z</time>
      </trkpt>
      <trkpt lat="43.53626" lon="1.57476">
        <ele>198.65</ele>
        <time>2013-09-29T07:33:37Z</time>
      </trkpt>
      <trkpt lat="43.5363" lon="1.57474">
        <ele>198.17</ele>
        <time>2013-09-29T07:33:38Z</time>
      </trkpt>
      <trkpt lat="43.53635" lon="1.57469">
        <ele>198.17</ele>
        <time>2013-09-29T07:33:39Z</time>
      </trkpt>
      <trkpt lat="43.53638" lon="1.57464">
        <ele>197.69</ele>
        <time>2013-09-29T07:33:40Z</time>
      </trkpt>
      <trkpt lat="43.53666" lon="1.57413">
        <ele>197.21</ele>
        <time>2013-09-29T07:33:48Z</time>
      </trkpt>
      <trkpt lat="43.5367" lon="1.57409">
        <ele>197.69</ele>
        <time>2013-09-29T07:33:49Z</time>
      </trkpt>
      <trkpt lat="43.53674" lon="1.57406">
        <ele>197.69</ele>
        <time>2013-09-29T07:33:50Z</time>
      </trkpt>
      <trkpt lat="43.53678" lon="1.57406">
        <ele>198.17</ele>
        <time>2013-09-29T07:33:51Z</time>
      </trkpt>
      <trkpt lat="43.53682" lon="1.57406">
        <ele>198.17</ele>
        <time>2013-09-29T07:33:52Z</time>
      </trkpt>
      <trkpt lat="43.53686" lon="1.57406">
        <ele>198.65</ele>
        <time>2013-09-29T07:33:53Z</time>
      </trkpt>
      <trkpt lat="43.5369" lon="1.57406">
        <ele>198.65</ele>
        <time>2013-09-29T07:33:54Z</time>
      </trkpt>
      <trkpt lat="43.53708" lon="1.5741">
        <ele>202.01</ele>
        <time>2013-09-29T07:34:02Z</time>
      </trkpt>
      <trkpt lat="43.53709" lon="1.57412">
        <ele>201.53</ele>
        <time>2013-09-29T07:34:03Z</time>
      </trkpt>
      <trkpt lat="43.53709" lon="1.57414">
        <ele>201.53</ele>
        <time>2013-09-29T07:34:04Z</time>
      </trkpt>
      <trkpt lat="43.53708" lon="1.57416">
        <ele>201.53</ele>
        <time>2013-09-29T07:34:05Z</time>
      </trkpt>
      <trkpt lat="43.53708" lon="1.57419">
        <ele>201.53</ele>
        <time>2013-09-29T07:34:06Z</time>
      </trkpt>
      <trkpt lat="43.53707" lon="1.57421">
        <ele>201.05</ele>
        <time>2013-09-29T07:34:07Z</time>
      </trkpt>
      <trkpt lat="43.53706" lon="1.57424">
        <ele>201.05</ele>
        <time>2013-09-29T07:34:08Z</time>
      </trkpt>
      <trkpt lat="43.53705" lon="1.57427">
        <ele>200.57</ele>
        <time>2013-09-29T07:34:19Z</time>
      </trkpt>
      <trkpt lat="43.53705" lon="1.57427">
        <ele>200.57</ele>
        <time>2013-09-29T07:34:46Z</time>
      </trkpt>
      <trkpt lat="43.53697" lon="1.57459">
        <ele>200.09</ele>
        <time>2013-09-29T07:34:56Z</time>
      </trkpt>
      <trkpt lat="43.53698" lon="1.5751">
        <ele>198.17</ele>
        <time>2013-09-29T07:35:04Z</time>
      </trkpt>
      <trkpt lat="43.53697" lon="1.57517">
        <ele>198.17</ele>
        <time>2013-09-29T07:35:05Z</time>
      </trkpt>
      <trkpt lat="43.53693" lon="1.57621">
        <ele>197.69</ele>
        <time>2013-09-29T07:35:18Z</time>
      </trkpt>
      <trkpt lat="43.53692" lon="1.57661">
        <ele>195.77</ele>
        <time>2013-09-29T07:35:23Z</time>
      </trkpt>
      <trkpt lat="43.53693" lon="1.57699">
        <ele>193.36</ele>
        <time>2013-09-29T07:35:27Z</time>
      </trkpt>
      <trkpt lat="43.53693" lon="1.57744">
        <ele>190.48</ele>
        <time>2013-09-29T07:35:32Z</time>
      </trkpt>
      <trkpt lat="43.53693" lon="1.57754">
        <ele>190</ele>
        <time>2013-09-29T07:35:33Z</time>
      </trkpt>
      <trkpt lat="43.53697" lon="1.57797">
        <ele>186.15</ele>
        <time>2013-09-29T07:35:38Z</time>
      </trkpt>
      <trkpt lat="43.53698" lon="1.57805">
        <ele>186.15</ele>
        <time>2013-09-29T07:35:39Z</time>
      </trkpt>
      <trkpt lat="43.53698" lon="1.57814">
        <ele>184.23</ele>
        <time>2013-09-29T07:35:40Z</time>
      </trkpt>
      <trkpt lat="43.53697" lon="1.57833">
        <ele>183.27</ele>
        <time>2013-09-29T07:35:42Z</time>
      </trkpt>
      <trkpt lat="43.53693" lon="1.57859">
        <ele>179.9</ele>
        <time>2013-09-29T07:35:45Z</time>
      </trkpt>
      <trkpt lat="43.53692" lon="1.57884">
        <ele>176.54</ele>
        <time>2013-09-29T07:35:48Z</time>
      </trkpt>
      <trkpt lat="43.53695" lon="1.57925">
        <ele>173.17</ele>
        <time>2013-09-29T07:35:52Z</time>
      </trkpt>
      <trkpt lat="43.53699" lon="1.57934">
        <ele>171.73</ele>
        <time>2013-09-29T07:35:53Z</time>
      </trkpt>
      <trkpt lat="43.53703" lon="1.57942">
        <ele>171.25</ele>
        <time>2013-09-29T07:35:54Z</time>
      </trkpt>
      <trkpt lat="43.53709" lon="1.57949">
        <ele>170.77</ele>
        <time>2013-09-29T07:35:55Z</time>
      </trkpt>
      <trkpt lat="43.53716" lon="1.57956">
        <ele>169.33</ele>
        <time>2013-09-29T07:35:56Z</time>
      </trkpt>
      <trkpt lat="43.53723" lon="1.5796">
        <ele>169.33</ele>
        <time>2013-09-29T07:35:57Z</time>
      </trkpt>
      <trkpt lat="43.53731" lon="1.57965">
        <ele>168.85</ele>
        <time>2013-09-29T07:35:58Z</time>
      </trkpt>
      <trkpt lat="43.53799" lon="1.58021">
        <ele>168.85</ele>
        <time>2013-09-29T07:36:09Z</time>
      </trkpt>
      <trkpt lat="43.53804" lon="1.58026">
        <ele>169.33</ele>
        <time>2013-09-29T07:36:10Z</time>
      </trkpt>
      <trkpt lat="43.53807" lon="1.58032">
        <ele>169.33</ele>
        <time>2013-09-29T07:36:11Z</time>
      </trkpt>
      <trkpt lat="43.53811" lon="1.58038">
        <ele>168.85</ele>
        <time>2013-09-29T07:36:12Z</time>
      </trkpt>
      <trkpt lat="43.53814" lon="1.58044">
        <ele>168.37</ele>
        <time>2013-09-29T07:36:13Z</time>
      </trkpt>
      <trkpt lat="43.53818" lon="1.58051">
        <ele>167.41</ele>
        <time>2013-09-29T07:36:14Z</time>
      </trkpt>
      <trkpt lat="43.53822" lon="1.58057">
        <ele>166.93</ele>
        <time>2013-09-29T07:36:15Z</time>
      </trkpt>
      <trkpt lat="43.53834" lon="1.5808">
        <ele>165.48</ele>
        <time>2013-09-29T07:36:18Z</time>
      </trkpt>
      <trkpt lat="43.5384" lon="1.58088">
        <ele>165</ele>
        <time>2013-09-29T07:36:19Z</time>
      </trkpt>
      <trkpt lat="43.53851" lon="1.58103">
        <ele>163.56</ele>
        <time>2013-09-29T07:36:21Z</time>
      </trkpt>
      <trkpt lat="43.53857" lon="1.5811">
        <ele>163.08</ele>
        <time>2013-09-29T07:36:22Z</time>
      </trkpt>
      <trkpt lat="43.53869" lon="1.58123">
        <ele>162.6</ele>
        <time>2013-09-29T07:36:24Z</time>
      </trkpt>
      <trkpt lat="43.53871" lon="1.58129">
        <ele>162.6</ele>
        <time>2013-09-29T07:36:25Z</time>
      </trkpt>
      <trkpt lat="43.53872" lon="1.58135">
        <ele>162.6</ele>
        <time>2013-09-29T07:36:26Z</time>
      </trkpt>
      <trkpt lat="43.5387" lon="1.58141">
        <ele>162.12</ele>
        <time>2013-09-29T07:36:27Z</time>
      </trkpt>
      <trkpt lat="43.53866" lon="1.58146">
        <ele>162.12</ele>
        <time>2013-09-29T07:36:28Z</time>
      </trkpt>
      <trkpt lat="43.53862" lon="1.5815">
        <ele>161.16</ele>
        <time>2013-09-29T07:36:29Z</time>
      </trkpt>
      <trkpt lat="43.53845" lon="1.58172">
        <ele>160.68</ele>
        <time>2013-09-29T07:36:33Z</time>
      </trkpt>
      <trkpt lat="43.5384" lon="1.58178">
        <ele>160.68</ele>
        <time>2013-09-29T07:36:34Z</time>
      </trkpt>
      <trkpt lat="43.53782" lon="1.58264">
        <ele>160.2</ele>
        <time>2013-09-29T07:36:47Z</time>
      </trkpt>
      <trkpt lat="43.53743" lon="1.5834">
        <ele>161.16</ele>
        <time>2013-09-29T07:37:00Z</time>
      </trkpt>
      <trkpt lat="43.53736" lon="1.58355">
        <ele>161.16</ele>
        <time>2013-09-29T07:37:03Z</time>
      </trkpt>
      <trkpt lat="43.53721" lon="1.58385">
        <ele>160.68</ele>
        <time>2013-09-29T07:37:08Z</time>
      </trkpt>
      <trkpt lat="43.53717" lon="1.58393">
        <ele>160.68</ele>
        <time>2013-09-29T07:37:09Z</time>
      </trkpt>
      <trkpt lat="43.53715" lon="1.58401">
        <ele>160.68</ele>
        <time>2013-09-29T07:37:10Z</time>
      </trkpt>
      <trkpt lat="43.53706" lon="1.58433">
        <ele>161.16</ele>
        <time>2013-09-29T07:37:14Z</time>
      </trkpt>
      <trkpt lat="43.53703" lon="1.5844">
        <ele>160.68</ele>
        <time>2013-09-29T07:37:15Z</time>
      </trkpt>
      <trkpt lat="43.53702" lon="1.58446">
        <ele>161.16</ele>
        <time>2013-09-29T07:37:16Z</time>
      </trkpt>
      <trkpt lat="43.53696" lon="1.58468">
        <ele>161.64</ele>
        <time>2013-09-29T07:37:20Z</time>
      </trkpt>
      <trkpt lat="43.53666" lon="1.58521">
        <ele>161.16</ele>
        <time>2013-09-29T07:37:31Z</time>
      </trkpt>
      <trkpt lat="43.53646" lon="1.58544">
        <ele>161.64</ele>
        <time>2013-09-29T07:37:37Z</time>
      </trkpt>
      <trkpt lat="43.53606" lon="1.58581">
        <ele>162.12</ele>
        <time>2013-09-29T07:37:49Z</time>
      </trkpt>
      <trkpt lat="43.53563" lon="1.58625">
        <ele>162.12</ele>
        <time>2013-09-29T07:38:02Z</time>
      </trkpt>
      <trkpt lat="43.53557" lon="1.58635">
        <ele>162.12</ele>
        <time>2013-09-29T07:38:04Z</time>
      </trkpt>
      <trkpt lat="43.53536" lon="1.5866">
        <ele>162.6</ele>
        <time>2013-09-29T07:38:11Z</time>
      </trkpt>
      <trkpt lat="43.53533" lon="1.58663">
        <ele>162.6</ele>
        <time>2013-09-29T07:38:12Z</time>
      </trkpt>
      <trkpt lat="43.53478" lon="1.58707">
        <ele>163.56</ele>
        <time>2013-09-29T07:38:28Z</time>
      </trkpt>
      <trkpt lat="43.53431" lon="1.58759">
        <ele>163.56</ele>
        <time>2013-09-29T07:38:43Z</time>
      </trkpt>
      <trkpt lat="43.53389" lon="1.5881">
        <ele>165</ele>
        <time>2013-09-29T07:38:59Z</time>
      </trkpt>
      <trkpt lat="43.53383" lon="1.58803">
        <ele>165</ele>
        <time>2013-09-29T07:39:03Z</time>
      </trkpt>
      <trkpt lat="43.53381" lon="1.58799">
        <ele>165</ele>
        <time>2013-09-29T07:39:04Z</time>
      </trkpt>
      <trkpt lat="43.53355" lon="1.5876">
        <ele>166.93</ele>
        <time>2013-09-29T07:39:18Z</time>
      </trkpt>
      <trkpt lat="43.53333" lon="1.58731">
        <ele>169.81</ele>
        <time>2013-09-29T07:39:31Z</time>
      </trkpt>
      <trkpt lat="43.53331" lon="1.58729">
        <ele>169.81</ele>
        <time>2013-09-29T07:39:32Z</time>
      </trkpt>
      <trkpt lat="43.53313" lon="1.58713">
        <ele>173.17</ele>
        <time>2013-09-29T07:39:43Z</time>
      </trkpt>
      <trkpt lat="43.53301" lon="1.58701">
        <ele>176.06</ele>
        <time>2013-09-29T07:39:51Z</time>
      </trkpt>
      <trkpt lat="43.53286" lon="1.5868">
        <ele>179.42</ele>
        <time>2013-09-29T07:40:05Z</time>
      </trkpt>
      <trkpt lat="43.53269" lon="1.5866">
        <ele>182.31</ele>
        <time>2013-09-29T07:40:19Z</time>
      </trkpt>
      <trkpt lat="43.53251" lon="1.5865">
        <ele>185.67</ele>
        <time>2013-09-29T07:40:32Z</time>
      </trkpt>
      <trkpt lat="43.53237" lon="1.58637">
        <ele>188.56</ele>
        <time>2013-09-29T07:40:44Z</time>
      </trkpt>
      <trkpt lat="43.53217" lon="1.5862">
        <ele>191.44</ele>
        <time>2013-09-29T07:40:59Z</time>
      </trkpt>
      <trkpt lat="43.53194" lon="1.586">
        <ele>192.4</ele>
        <time>2013-09-29T07:41:12Z</time>
      </trkpt>
      <trkpt lat="43.5317" lon="1.58626">
        <ele>193.84</ele>
        <time>2013-09-29T07:41:26Z</time>
      </trkpt>
      <trkpt lat="43.53149" lon="1.58653">
        <ele>197.21</ele>
        <time>2013-09-29T07:41:40Z</time>
      </trkpt>
      <trkpt lat="43.5313" lon="1.58681">
        <ele>199.61</ele>
        <time>2013-09-29T07:41:55Z</time>
      </trkpt>
      <trkpt lat="43.53104" lon="1.58712">
        <ele>201.53</ele>
        <time>2013-09-29T07:42:12Z</time>
      </trkpt>
      <trkpt lat="43.53073" lon="1.58744">
        <ele>203.94</ele>
        <time>2013-09-29T07:42:30Z</time>
      </trkpt>
      <trkpt lat="43.5305" lon="1.5877">
        <ele>206.82</ele>
        <time>2013-09-29T07:42:44Z</time>
      </trkpt>
      <trkpt lat="43.53022" lon="1.58799">
        <ele>208.74</ele>
        <time>2013-09-29T07:42:59Z</time>
      </trkpt>
      <trkpt lat="43.52988" lon="1.58834">
        <ele>208.74</ele>
        <time>2013-09-29T07:43:13Z</time>
      </trkpt>
      <trkpt lat="43.52945" lon="1.58868">
        <ele>207.78</ele>
        <time>2013-09-29T07:43:26Z</time>
      </trkpt>
      <trkpt lat="43.52936" lon="1.5887">
        <ele>207.78</ele>
        <time>2013-09-29T07:43:28Z</time>
      </trkpt>
      <trkpt lat="43.52866" lon="1.58861">
        <ele>207.78</ele>
        <time>2013-09-29T07:43:42Z</time>
      </trkpt>
      <trkpt lat="43.52791" lon="1.58843">
        <ele>207.3</ele>
        <time>2013-09-29T07:43:58Z</time>
      </trkpt>
      <trkpt lat="43.52785" lon="1.58842">
        <ele>207.3</ele>
        <time>2013-09-29T07:43:59Z</time>
      </trkpt>
      <trkpt lat="43.5278" lon="1.58841">
        <ele>206.82</ele>
        <time>2013-09-29T07:44:00Z</time>
      </trkpt>
      <trkpt lat="43.52775" lon="1.58838">
        <ele>207.3</ele>
        <time>2013-09-29T07:44:01Z</time>
      </trkpt>
      <trkpt lat="43.5277" lon="1.58835">
        <ele>207.3</ele>
        <time>2013-09-29T07:44:02Z</time>
      </trkpt>
      <trkpt lat="43.52766" lon="1.58831">
        <ele>207.3</ele>
        <time>2013-09-29T07:44:03Z</time>
      </trkpt>
      <trkpt lat="43.52763" lon="1.58828">
        <ele>207.78</ele>
        <time>2013-09-29T07:44:04Z</time>
      </trkpt>
      <trkpt lat="43.52761" lon="1.58826">
        <ele>207.78</ele>
        <time>2013-09-29T07:44:05Z</time>
      </trkpt>
      <trkpt lat="43.52759" lon="1.58823">
        <ele>208.26</ele>
        <time>2013-09-29T07:44:06Z</time>
      </trkpt>
      <trkpt lat="43.52739" lon="1.58796">
        <ele>211.15</ele>
        <time>2013-09-29T07:44:21Z</time>
      </trkpt>
      <trkpt lat="43.52718" lon="1.58772">
        <ele>214.03</ele>
        <time>2013-09-29T07:44:36Z</time>
      </trkpt>
      <trkpt lat="43.52702" lon="1.58758">
        <ele>217.4</ele>
        <time>2013-09-29T07:44:48Z</time>
      </trkpt>
      <trkpt lat="43.52685" lon="1.58744">
        <ele>220.76</ele>
        <time>2013-09-29T07:45:01Z</time>
      </trkpt>
      <trkpt lat="43.52673" lon="1.58733">
        <ele>223.16</ele>
        <time>2013-09-29T07:45:11Z</time>
      </trkpt>
      <trkpt lat="43.52663" lon="1.58726">
        <ele>224.61</ele>
        <time>2013-09-29T07:45:19Z</time>
      </trkpt>
      <trkpt lat="43.52662" lon="1.58725">
        <ele>225.09</ele>
        <time>2013-09-29T07:45:20Z</time>
      </trkpt>
      <trkpt lat="43.52661" lon="1.58724">
        <ele>225.57</ele>
        <time>2013-09-29T07:45:21Z</time>
      </trkpt>
      <trkpt lat="43.5265" lon="1.58717">
        <ele>227.49</ele>
        <time>2013-09-29T07:45:30Z</time>
      </trkpt>
      <trkpt lat="43.52649" lon="1.58716">
        <ele>227.01</ele>
        <time>2013-09-29T07:45:31Z</time>
      </trkpt>
      <trkpt lat="43.52632" lon="1.58706">
        <ele>229.89</ele>
        <time>2013-09-29T07:45:45Z</time>
      </trkpt>
      <trkpt lat="43.52616" lon="1.58695">
        <ele>231.81</ele>
        <time>2013-09-29T07:45:56Z</time>
      </trkpt>
      <trkpt lat="43.52615" lon="1.58694">
        <ele>232.3</ele>
        <time>2013-09-29T07:45:57Z</time>
      </trkpt>
      <trkpt lat="43.52614" lon="1.58692">
        <ele>231.81</ele>
        <time>2013-09-29T07:45:58Z</time>
      </trkpt>
      <trkpt lat="43.52612" lon="1.58691">
        <ele>231.81</ele>
        <time>2013-09-29T07:45:59Z</time>
      </trkpt>
      <trkpt lat="43.52611" lon="1.58691">
        <ele>232.3</ele>
        <time>2013-09-29T07:46:00Z</time>
      </trkpt>
      <trkpt lat="43.52609" lon="1.58691">
        <ele>232.3</ele>
        <time>2013-09-29T07:46:01Z</time>
      </trkpt>
      <trkpt lat="43.52598" lon="1.58687">
        <ele>232.78</ele>
        <time>2013-09-29T07:46:09Z</time>
      </trkpt>
      <trkpt lat="43.52597" lon="1.58689">
        <ele>232.78</ele>
        <time>2013-09-29T07:46:10Z</time>
      </trkpt>
      <trkpt lat="43.52581" lon="1.58715">
        <ele>232.78</ele>
        <time>2013-09-29T07:46:24Z</time>
      </trkpt>
      <trkpt lat="43.52561" lon="1.58736">
        <ele>232.3</ele>
        <time>2013-09-29T07:46:37Z</time>
      </trkpt>
      <trkpt lat="43.52541" lon="1.58752">
        <ele>232.3</ele>
        <time>2013-09-29T07:46:49Z</time>
      </trkpt>
      <trkpt lat="43.52513" lon="1.58782">
        <ele>232.78</ele>
        <time>2013-09-29T07:47:04Z</time>
      </trkpt>
      <trkpt lat="43.52523" lon="1.58813">
        <ele>232.3</ele>
        <time>2013-09-29T07:47:16Z</time>
      </trkpt>
      <trkpt lat="43.52532" lon="1.58827">
        <ele>232.3</ele>
        <time>2013-09-29T07:47:28Z</time>
      </trkpt>
      <trkpt lat="43.52532" lon="1.58827">
        <ele>232.78</ele>
        <time>2013-09-29T07:47:49Z</time>
      </trkpt>
      <trkpt lat="43.52532" lon="1.58827">
        <ele>232.3</ele>
        <time>2013-09-29T07:48:10Z</time>
      </trkpt>
      <trkpt lat="43.52532" lon="1.58827">
        <ele>232.3</ele>
        <time>2013-09-29T07:48:27Z</time>
      </trkpt>
      <trkpt lat="43.52532" lon="1.58827">
        <ele>232.3</ele>
        <time>2013-09-29T07:48:54Z</time>
      </trkpt>
      <trkpt lat="43.52532" lon="1.58827">
        <ele>232.3</ele>
        <time>2013-09-29T07:49:15Z</time>
      </trkpt>
      <trkpt lat="43.52532" lon="1.58827">
        <ele>231.81</ele>
        <time>2013-09-29T07:49:41Z</time>
      </trkpt>
      <trkpt lat="43.52531" lon="1.58827">
        <ele>231.81</ele>
        <time>2013-09-29T07:50:08Z</time>
      </trkpt>
      <trkpt lat="43.52532" lon="1.58832">
        <ele>232.3</ele>
        <time>2013-09-29T07:50:24Z</time>
      </trkpt>
      <trkpt lat="43.52532" lon="1.58834">
        <ele>232.3</ele>
        <time>2013-09-29T07:50:25Z</time>
      </trkpt>
      <trkpt lat="43.52532" lon="1.58836">
        <ele>231.81</ele>
        <time>2013-09-29T07:50:26Z</time>
      </trkpt>
      <trkpt lat="43.52531" lon="1.58839">
        <ele>231.81</ele>
        <time>2013-09-29T07:50:27Z</time>
      </trkpt>
      <trkpt lat="43.52531" lon="1.58842">
        <ele>231.81</ele>
        <time>2013-09-29T07:50:28Z</time>
      </trkpt>
      <trkpt lat="43.52512" lon="1.5889">
        <ele>231.33</ele>
        <time>2013-09-29T07:50:40Z</time>
      </trkpt>
      <trkpt lat="43.52482" lon="1.58952">
        <ele>230.85</ele>
        <time>2013-09-29T07:50:58Z</time>
      </trkpt>
      <trkpt lat="43.52448" lon="1.58988">
        <ele>230.37</ele>
        <time>2013-09-29T07:51:11Z</time>
      </trkpt>
      <trkpt lat="43.52435" lon="1.59016">
        <ele>228.45</ele>
        <time>2013-09-29T07:51:18Z</time>
      </trkpt>
      <trkpt lat="43.52437" lon="1.59022">
        <ele>228.45</ele>
        <time>2013-09-29T07:51:19Z</time>
      </trkpt>
      <trkpt lat="43.52436" lon="1.59027">
        <ele>227.97</ele>
        <time>2013-09-29T07:51:20Z</time>
      </trkpt>
      <trkpt lat="43.52407" lon="1.59086">
        <ele>225.09</ele>
        <time>2013-09-29T07:51:30Z</time>
      </trkpt>
      <trkpt lat="43.52362" lon="1.59151">
        <ele>222.68</ele>
        <time>2013-09-29T07:51:42Z</time>
      </trkpt>
      <trkpt lat="43.52364" lon="1.59155">
        <ele>222.68</ele>
        <time>2013-09-29T07:51:50Z</time>
      </trkpt>
      <trkpt lat="43.52366" lon="1.59156">
        <ele>222.68</ele>
        <time>2013-09-29T07:51:51Z</time>
      </trkpt>
      <trkpt lat="43.52367" lon="1.59159">
        <ele>222.2</ele>
        <time>2013-09-29T07:51:52Z</time>
      </trkpt>
      <trkpt lat="43.52369" lon="1.59162">
        <ele>222.2</ele>
        <time>2013-09-29T07:51:53Z</time>
      </trkpt>
      <trkpt lat="43.5237" lon="1.59165">
        <ele>221.72</ele>
        <time>2013-09-29T07:51:54Z</time>
      </trkpt>
      <trkpt lat="43.52372" lon="1.59169">
        <ele>221.72</ele>
        <time>2013-09-29T07:51:55Z</time>
      </trkpt>
      <trkpt lat="43.52377" lon="1.59184">
        <ele>219.8</ele>
        <time>2013-09-29T07:51:58Z</time>
      </trkpt>
      <trkpt lat="43.52386" lon="1.59207">
        <ele>216.91</ele>
        <time>2013-09-29T07:52:02Z</time>
      </trkpt>
      <trkpt lat="43.52387" lon="1.59214">
        <ele>214.99</ele>
        <time>2013-09-29T07:52:03Z</time>
      </trkpt>
      <trkpt lat="43.52388" lon="1.59221">
        <ele>214.51</ele>
        <time>2013-09-29T07:52:04Z</time>
      </trkpt>
      <trkpt lat="43.52393" lon="1.59252">
        <ele>211.15</ele>
        <time>2013-09-29T07:52:08Z</time>
      </trkpt>
      <trkpt lat="43.524" lon="1.59282">
        <ele>207.3</ele>
        <time>2013-09-29T07:52:12Z</time>
      </trkpt>
      <trkpt lat="43.52404" lon="1.59296">
        <ele>206.34</ele>
        <time>2013-09-29T07:52:14Z</time>
      </trkpt>
      <trkpt lat="43.52408" lon="1.59321">
        <ele>204.42</ele>
        <time>2013-09-29T07:52:19Z</time>
      </trkpt>
      <trkpt lat="43.52406" lon="1.59323">
        <ele>204.42</ele>
        <time>2013-09-29T07:52:20Z</time>
      </trkpt>
      <trkpt lat="43.52404" lon="1.59325">
        <ele>204.42</ele>
        <time>2013-09-29T07:52:21Z</time>
      </trkpt>
      <trkpt lat="43.52401" lon="1.59325">
        <ele>204.42</ele>
        <time>2013-09-29T07:52:22Z</time>
      </trkpt>
      <trkpt lat="43.52398" lon="1.59326">
        <ele>204.42</ele>
        <time>2013-09-29T07:52:23Z</time>
      </trkpt>
      <trkpt lat="43.52395" lon="1.59326">
        <ele>204.42</ele>
        <time>2013-09-29T07:52:24Z</time>
      </trkpt>
      <trkpt lat="43.52389" lon="1.5933">
        <ele>204.42</ele>
        <time>2013-09-29T07:52:26Z</time>
      </trkpt>
      <trkpt lat="43.52388" lon="1.59333">
        <ele>203.94</ele>
        <time>2013-09-29T07:52:27Z</time>
      </trkpt>
      <trkpt lat="43.52398" lon="1.5938">
        <ele>200.57</ele>
        <time>2013-09-29T07:52:37Z</time>
      </trkpt>
      <trkpt lat="43.52397" lon="1.59403">
        <ele>199.61</ele>
        <time>2013-09-29T07:52:44Z</time>
      </trkpt>
      <trkpt lat="43.52395" lon="1.59405">
        <ele>199.61</ele>
        <time>2013-09-29T07:52:45Z</time>
      </trkpt>
      <trkpt lat="43.52392" lon="1.59406">
        <ele>199.61</ele>
        <time>2013-09-29T07:52:46Z</time>
      </trkpt>
      <trkpt lat="43.52386" lon="1.59409">
        <ele>199.61</ele>
        <time>2013-09-29T07:52:49Z</time>
      </trkpt>
      <trkpt lat="43.52385" lon="1.5941">
        <ele>199.61</ele>
        <time>2013-09-29T07:52:50Z</time>
      </trkpt>
      <trkpt lat="43.52384" lon="1.59411">
        <ele>199.13</ele>
        <time>2013-09-29T07:52:51Z</time>
      </trkpt>
      <trkpt lat="43.52382" lon="1.59413">
        <ele>198.17</ele>
        <time>2013-09-29T07:52:52Z</time>
      </trkpt>
      <trkpt lat="43.5238" lon="1.59414">
        <ele>198.17</ele>
        <time>2013-09-29T07:52:53Z</time>
      </trkpt>
      <trkpt lat="43.52377" lon="1.59414">
        <ele>197.69</ele>
        <time>2013-09-29T07:52:54Z</time>
      </trkpt>
      <trkpt lat="43.52373" lon="1.59413">
        <ele>197.69</ele>
        <time>2013-09-29T07:52:55Z</time>
      </trkpt>
      <trkpt lat="43.5237" lon="1.59412">
        <ele>197.21</ele>
        <time>2013-09-29T07:52:56Z</time>
      </trkpt>
      <trkpt lat="43.52367" lon="1.59411">
        <ele>197.21</ele>
        <time>2013-09-29T07:52:57Z</time>
      </trkpt>
      <trkpt lat="43.52359" lon="1.59409">
        <ele>193.84</ele>
        <time>2013-09-29T07:53:02Z</time>
      </trkpt>
      <trkpt lat="43.52356" lon="1.59409">
        <ele>193.84</ele>
        <time>2013-09-29T07:53:03Z</time>
      </trkpt>
      <trkpt lat="43.52343" lon="1.59412">
        <ele>192.88</ele>
        <time>2013-09-29T07:53:09Z</time>
      </trkpt>
      <trkpt lat="43.52342" lon="1.59415">
        <ele>192.4</ele>
        <time>2013-09-29T07:53:10Z</time>
      </trkpt>
      <trkpt lat="43.5234" lon="1.5942">
        <ele>191.92</ele>
        <time>2013-09-29T07:53:11Z</time>
      </trkpt>
      <trkpt lat="43.52335" lon="1.59431">
        <ele>190.96</ele>
        <time>2013-09-29T07:53:13Z</time>
      </trkpt>
      <trkpt lat="43.52324" lon="1.59464">
        <ele>189.04</ele>
        <time>2013-09-29T07:53:22Z</time>
      </trkpt>
      <trkpt lat="43.52328" lon="1.59509">
        <ele>188.08</ele>
        <time>2013-09-29T07:53:33Z</time>
      </trkpt>
      <trkpt lat="43.5233" lon="1.5951">
        <ele>188.08</ele>
        <time>2013-09-29T07:53:34Z</time>
      </trkpt>
      <trkpt lat="43.52331" lon="1.59511">
        <ele>188.08</ele>
        <time>2013-09-29T07:53:35Z</time>
      </trkpt>
      <trkpt lat="43.52333" lon="1.59512">
        <ele>188.08</ele>
        <time>2013-09-29T07:53:36Z</time>
      </trkpt>
      <trkpt lat="43.52335" lon="1.59514">
        <ele>188.08</ele>
        <time>2013-09-29T07:53:37Z</time>
      </trkpt>
      <trkpt lat="43.52337" lon="1.59515">
        <ele>188.08</ele>
        <time>2013-09-29T07:53:38Z</time>
      </trkpt>
      <trkpt lat="43.5234" lon="1.59516">
        <ele>187.59</ele>
        <time>2013-09-29T07:53:39Z</time>
      </trkpt>
      <trkpt lat="43.52342" lon="1.59517">
        <ele>187.59</ele>
        <time>2013-09-29T07:53:40Z</time>
      </trkpt>
      <trkpt lat="43.52381" lon="1.59511">
        <ele>186.63</ele>
        <time>2013-09-29T07:53:54Z</time>
      </trkpt>
      <trkpt lat="43.52404" lon="1.59515">
        <ele>188.56</ele>
        <time>2013-09-29T07:54:05Z</time>
      </trkpt>
      <trkpt lat="43.52402" lon="1.59517">
        <ele>188.56</ele>
        <time>2013-09-29T07:54:06Z</time>
      </trkpt>
      <trkpt lat="43.52397" lon="1.59519">
        <ele>189.52</ele>
        <time>2013-09-29T07:54:08Z</time>
      </trkpt>
      <trkpt lat="43.52376" lon="1.59533">
        <ele>192.88</ele>
        <time>2013-09-29T07:54:19Z</time>
      </trkpt>
      <trkpt lat="43.52362" lon="1.59556">
        <ele>194.32</ele>
        <time>2013-09-29T07:54:29Z</time>
      </trkpt>
      <trkpt lat="43.52396" lon="1.59607">
        <ele>193.84</ele>
        <time>2013-09-29T07:54:43Z</time>
      </trkpt>
      <trkpt lat="43.5243" lon="1.59661">
        <ele>191.92</ele>
        <time>2013-09-29T07:54:52Z</time>
      </trkpt>
      <trkpt lat="43.5243" lon="1.59666">
        <ele>192.4</ele>
        <time>2013-09-29T07:54:53Z</time>
      </trkpt>
      <trkpt lat="43.52427" lon="1.59668">
        <ele>192.4</ele>
        <time>2013-09-29T07:54:54Z</time>
      </trkpt>
      <trkpt lat="43.52383" lon="1.5971">
        <ele>194.8</ele>
        <time>2013-09-29T07:55:09Z</time>
      </trkpt>
      <trkpt lat="43.52367" lon="1.59727">
        <ele>195.28</ele>
        <time>2013-09-29T07:55:15Z</time>
      </trkpt>
      <trkpt lat="43.52367" lon="1.59731">
        <ele>195.77</ele>
        <time>2013-09-29T07:55:16Z</time>
      </trkpt>
      <trkpt lat="43.52368" lon="1.59735">
        <ele>195.77</ele>
        <time>2013-09-29T07:55:17Z</time>
      </trkpt>
      <trkpt lat="43.52403" lon="1.59795">
        <ele>195.77</ele>
        <time>2013-09-29T07:55:32Z</time>
      </trkpt>
      <trkpt lat="43.52416" lon="1.59811">
        <ele>195.77</ele>
        <time>2013-09-29T07:55:37Z</time>
      </trkpt>
      <trkpt lat="43.52419" lon="1.5981">
        <ele>195.28</ele>
        <time>2013-09-29T07:55:38Z</time>
      </trkpt>
      <trkpt lat="43.52422" lon="1.59807">
        <ele>195.77</ele>
        <time>2013-09-29T07:55:39Z</time>
      </trkpt>
      <trkpt lat="43.52451" lon="1.59789">
        <ele>194.8</ele>
        <time>2013-09-29T07:55:50Z</time>
      </trkpt>
      <trkpt lat="43.52466" lon="1.59774">
        <ele>194.8</ele>
        <time>2013-09-29T07:56:02Z</time>
      </trkpt>
      <trkpt lat="43.5247" lon="1.59769">
        <ele>194.32</ele>
        <time>2013-09-29T07:56:08Z</time>
      </trkpt>
      <trkpt lat="43.52475" lon="1.59766">
        <ele>194.32</ele>
        <time>2013-09-29T07:56:21Z</time>
      </trkpt>
      <trkpt lat="43.52475" lon="1.59766">
        <ele>193.84</ele>
        <time>2013-09-29T07:57:00Z</time>
      </trkpt>
      <trkpt lat="43.52476" lon="1.59768">
        <ele>193.36</ele>
        <time>2013-09-29T07:57:14Z</time>
      </trkpt>
      <trkpt lat="43.52477" lon="1.5977">
        <ele>193.84</ele>
        <time>2013-09-29T07:57:15Z</time>
      </trkpt>
      <trkpt lat="43.52478" lon="1.59772">
        <ele>193.84</ele>
        <time>2013-09-29T07:57:16Z</time>
      </trkpt>
      <trkpt lat="43.5248" lon="1.59775">
        <ele>193.84</ele>
        <time>2013-09-29T07:57:17Z</time>
      </trkpt>
      <trkpt lat="43.52482" lon="1.59778">
        <ele>193.36</ele>
        <time>2013-09-29T07:57:18Z</time>
      </trkpt>
      <trkpt lat="43.52484" lon="1.59781">
        <ele>192.88</ele>
        <time>2013-09-29T07:57:19Z</time>
      </trkpt>
      <trkpt lat="43.52487" lon="1.59784">
        <ele>192.88</ele>
        <time>2013-09-29T07:57:20Z</time>
      </trkpt>
      <trkpt lat="43.5249" lon="1.59788">
        <ele>192.4</ele>
        <time>2013-09-29T07:57:21Z</time>
      </trkpt>
      <trkpt lat="43.525" lon="1.59803">
        <ele>190.96</ele>
        <time>2013-09-29T07:57:24Z</time>
      </trkpt>
      <trkpt lat="43.5252" lon="1.59833">
        <ele>187.11</ele>
        <time>2013-09-29T07:57:29Z</time>
      </trkpt>
      <trkpt lat="43.5253" lon="1.59847">
        <ele>185.67</ele>
        <time>2013-09-29T07:57:32Z</time>
      </trkpt>
      <trkpt lat="43.52542" lon="1.59866">
        <ele>182.31</ele>
        <time>2013-09-29T07:57:36Z</time>
      </trkpt>
      <trkpt lat="43.52554" lon="1.59885">
        <ele>177.98</ele>
        <time>2013-09-29T07:57:39Z</time>
      </trkpt>
      <trkpt lat="43.52563" lon="1.59899">
        <ele>175.1</ele>
        <time>2013-09-29T07:57:41Z</time>
      </trkpt>
      <trkpt lat="43.52572" lon="1.59914">
        <ele>171.73</ele>
        <time>2013-09-29T07:57:43Z</time>
      </trkpt>
      <trkpt lat="43.52586" lon="1.59935">
        <ele>168.85</ele>
        <time>2013-09-29T07:57:46Z</time>
      </trkpt>
      <trkpt lat="43.52607" lon="1.59964">
        <ele>165.96</ele>
        <time>2013-09-29T07:57:51Z</time>
      </trkpt>
      <trkpt lat="43.52611" lon="1.59968">
        <ele>165.48</ele>
        <time>2013-09-29T07:57:52Z</time>
      </trkpt>
      <trkpt lat="43.52615" lon="1.59971">
        <ele>165.48</ele>
        <time>2013-09-29T07:57:53Z</time>
      </trkpt>
      <trkpt lat="43.52618" lon="1.59973">
        <ele>165.48</ele>
        <time>2013-09-29T07:57:54Z</time>
      </trkpt>
      <trkpt lat="43.5262" lon="1.59976">
        <ele>165</ele>
        <time>2013-09-29T07:57:55Z</time>
      </trkpt>
      <trkpt lat="43.52621" lon="1.5998">
        <ele>164.04</ele>
        <time>2013-09-29T07:57:56Z</time>
      </trkpt>
      <trkpt lat="43.5262" lon="1.59984">
        <ele>164.52</ele>
        <time>2013-09-29T07:57:57Z</time>
      </trkpt>
      <trkpt lat="43.52618" lon="1.59988">
        <ele>164.52</ele>
        <time>2013-09-29T07:57:58Z</time>
      </trkpt>
      <trkpt lat="43.52615" lon="1.59991">
        <ele>164.52</ele>
        <time>2013-09-29T07:57:59Z</time>
      </trkpt>
      <trkpt lat="43.52612" lon="1.59995">
        <ele>164.04</ele>
        <time>2013-09-29T07:58:00Z</time>
      </trkpt>
      <trkpt lat="43.52609" lon="1.59999">
        <ele>164.04</ele>
        <time>2013-09-29T07:58:01Z</time>
      </trkpt>
      <trkpt lat="43.52592" lon="1.60021">
        <ele>164.04</ele>
        <time>2013-09-29T07:58:06Z</time>
      </trkpt>
      <trkpt lat="43.52564" lon="1.60062">
        <ele>165</ele>
        <time>2013-09-29T07:58:15Z</time>
      </trkpt>
      <trkpt lat="43.52522" lon="1.60121">
        <ele>165</ele>
        <time>2013-09-29T07:58:27Z</time>
      </trkpt>
      <trkpt lat="43.52518" lon="1.60126">
        <ele>165.48</ele>
        <time>2013-09-29T07:58:28Z</time>
      </trkpt>
      <trkpt lat="43.52462" lon="1.602">
        <ele>165.96</ele>
        <time>2013-09-29T07:58:44Z</time>
      </trkpt>
      <trkpt lat="43.52414" lon="1.60263">
        <ele>166.93</ele>
        <time>2013-09-29T07:58:57Z</time>
      </trkpt>
      <trkpt lat="43.52362" lon="1.60325">
        <ele>167.89</ele>
        <time>2013-09-29T07:59:13Z</time>
      </trkpt>
      <trkpt lat="43.52317" lon="1.60373">
        <ele>168.37</ele>
        <time>2013-09-29T07:59:29Z</time>
      </trkpt>
      <trkpt lat="43.52275" lon="1.60415">
        <ele>169.33</ele>
        <time>2013-09-29T07:59:42Z</time>
      </trkpt>
      <trkpt lat="43.52271" lon="1.60419">
        <ele>169.33</ele>
        <time>2013-09-29T07:59:43Z</time>
      </trkpt>
      <trkpt lat="43.52239" lon="1.60454">
        <ele>169.81</ele>
        <time>2013-09-29T07:59:51Z</time>
      </trkpt>
      <trkpt lat="43.52229" lon="1.60471">
        <ele>169.33</ele>
        <time>2013-09-29T07:59:54Z</time>
      </trkpt>
      <trkpt lat="43.52177" lon="1.60576">
        <ele>169.81</ele>
        <time>2013-09-29T08:00:12Z</time>
      </trkpt>
      <trkpt lat="43.5213" lon="1.60664">
        <ele>168.85</ele>
        <time>2013-09-29T08:00:25Z</time>
      </trkpt>
      <trkpt lat="43.52062" lon="1.60746">
        <ele>169.33</ele>
        <time>2013-09-29T08:00:39Z</time>
      </trkpt>
      <trkpt lat="43.51994" lon="1.6081">
        <ele>168.85</ele>
        <time>2013-09-29T08:00:52Z</time>
      </trkpt>
      <trkpt lat="43.51991" lon="1.60816">
        <ele>168.85</ele>
        <time>2013-09-29T08:00:53Z</time>
      </trkpt>
      <trkpt lat="43.51989" lon="1.60822">
        <ele>168.85</ele>
        <time>2013-09-29T08:00:54Z</time>
      </trkpt>
      <trkpt lat="43.51978" lon="1.60862">
        <ele>168.85</ele>
        <time>2013-09-29T08:01:00Z</time>
      </trkpt>
      <trkpt lat="43.51976" lon="1.60869">
        <ele>168.85</ele>
        <time>2013-09-29T08:01:01Z</time>
      </trkpt>
      <trkpt lat="43.5197" lon="1.60881">
        <ele>168.85</ele>
        <time>2013-09-29T08:01:03Z</time>
      </trkpt>
      <trkpt lat="43.5191" lon="1.60976">
        <ele>169.33</ele>
        <time>2013-09-29T08:01:21Z</time>
      </trkpt>
      <trkpt lat="43.51889" lon="1.61006">
        <ele>169.81</ele>
        <time>2013-09-29T08:01:27Z</time>
      </trkpt>
      <trkpt lat="43.51886" lon="1.61012">
        <ele>169.81</ele>
        <time>2013-09-29T08:01:28Z</time>
      </trkpt>
      <trkpt lat="43.51826" lon="1.61096">
        <ele>171.25</ele>
        <time>2013-09-29T08:01:46Z</time>
      </trkpt>
      <trkpt lat="43.51806" lon="1.61116">
        <ele>171.25</ele>
        <time>2013-09-29T08:01:53Z</time>
      </trkpt>
      <trkpt lat="43.51803" lon="1.61115">
        <ele>171.73</ele>
        <time>2013-09-29T08:01:54Z</time>
      </trkpt>
      <trkpt lat="43.51801" lon="1.61113">
        <ele>171.73</ele>
        <time>2013-09-29T08:01:55Z</time>
      </trkpt>
      <trkpt lat="43.51799" lon="1.61112">
        <ele>171.73</ele>
        <time>2013-09-29T08:01:56Z</time>
      </trkpt>
      <trkpt lat="43.51798" lon="1.61112">
        <ele>171.73</ele>
        <time>2013-09-29T08:01:57Z</time>
      </trkpt>
      <trkpt lat="43.51796" lon="1.61112">
        <ele>171.73</ele>
        <time>2013-09-29T08:01:58Z</time>
      </trkpt>
      <trkpt lat="43.51794" lon="1.61113">
        <ele>171.73</ele>
        <time>2013-09-29T08:02:13Z</time>
      </trkpt>
      <trkpt lat="43.51795" lon="1.61112">
        <ele>171.73</ele>
        <time>2013-09-29T08:02:40Z</time>
      </trkpt>
      <trkpt lat="43.51791" lon="1.61112">
        <ele>171.73</ele>
        <time>2013-09-29T08:03:00Z</time>
      </trkpt>
      <trkpt lat="43.51753" lon="1.61107">
        <ele>173.17</ele>
        <time>2013-09-29T08:03:14Z</time>
      </trkpt>
      <trkpt lat="43.51717" lon="1.61102">
        <ele>174.62</ele>
        <time>2013-09-29T08:03:28Z</time>
      </trkpt>
      <trkpt lat="43.51664" lon="1.61099">
        <ele>177.5</ele>
        <time>2013-09-29T08:03:47Z</time>
      </trkpt>
      <trkpt lat="43.51613" lon="1.61111">
        <ele>179.9</ele>
        <time>2013-09-29T08:04:05Z</time>
      </trkpt>
      <trkpt lat="43.51559" lon="1.61123">
        <ele>182.79</ele>
        <time>2013-09-29T08:04:23Z</time>
      </trkpt>
      <trkpt lat="43.51527" lon="1.61132">
        <ele>185.67</ele>
        <time>2013-09-29T08:04:35Z</time>
      </trkpt>
      <trkpt lat="43.51507" lon="1.61136">
        <ele>189.04</ele>
        <time>2013-09-29T08:04:43Z</time>
      </trkpt>
      <trkpt lat="43.51476" lon="1.61143">
        <ele>191.44</ele>
        <time>2013-09-29T08:04:57Z</time>
      </trkpt>
      <trkpt lat="43.51442" lon="1.6115">
        <ele>194.8</ele>
        <time>2013-09-29T08:05:11Z</time>
      </trkpt>
      <trkpt lat="43.51407" lon="1.61171">
        <ele>197.21</ele>
        <time>2013-09-29T08:05:26Z</time>
      </trkpt>
      <trkpt lat="43.51366" lon="1.61199">
        <ele>198.65</ele>
        <time>2013-09-29T08:05:41Z</time>
      </trkpt>
      <trkpt lat="43.51312" lon="1.61243">
        <ele>200.09</ele>
        <time>2013-09-29T08:06:00Z</time>
      </trkpt>
      <trkpt lat="43.51267" lon="1.61302">
        <ele>202.01</ele>
        <time>2013-09-29T08:06:17Z</time>
      </trkpt>
      <trkpt lat="43.51224" lon="1.61367">
        <ele>203.94</ele>
        <time>2013-09-29T08:06:33Z</time>
      </trkpt>
      <trkpt lat="43.51179" lon="1.61436">
        <ele>206.34</ele>
        <time>2013-09-29T08:06:52Z</time>
      </trkpt>
      <trkpt lat="43.51153" lon="1.61476">
        <ele>208.74</ele>
        <time>2013-09-29T08:07:05Z</time>
      </trkpt>
      <trkpt lat="43.51128" lon="1.61512">
        <ele>209.22</ele>
        <time>2013-09-29T08:07:18Z</time>
      </trkpt>
      <trkpt lat="43.51094" lon="1.61566">
        <ele>208.74</ele>
        <time>2013-09-29T08:07:34Z</time>
      </trkpt>
      <trkpt lat="43.51048" lon="1.61613">
        <ele>210.19</ele>
        <time>2013-09-29T08:07:53Z</time>
      </trkpt>
      <trkpt lat="43.51009" lon="1.61654">
        <ele>211.63</ele>
        <time>2013-09-29T08:08:10Z</time>
      </trkpt>
      <trkpt lat="43.50977" lon="1.61693">
        <ele>213.55</ele>
        <time>2013-09-29T08:08:25Z</time>
      </trkpt>
      <trkpt lat="43.50938" lon="1.61738">
        <ele>214.99</ele>
        <time>2013-09-29T08:08:41Z</time>
      </trkpt>
      <trkpt lat="43.50891" lon="1.61785">
        <ele>216.91</ele>
        <time>2013-09-29T08:08:58Z</time>
      </trkpt>
      <trkpt lat="43.50853" lon="1.61828">
        <ele>219.32</ele>
        <time>2013-09-29T08:09:14Z</time>
      </trkpt>
      <trkpt lat="43.50822" lon="1.61865">
        <ele>220.28</ele>
        <time>2013-09-29T08:09:30Z</time>
      </trkpt>
      <trkpt lat="43.5082" lon="1.61865">
        <ele>220.28</ele>
        <time>2013-09-29T08:09:31Z</time>
      </trkpt>
      <trkpt lat="43.50819" lon="1.61865">
        <ele>220.28</ele>
        <time>2013-09-29T08:09:32Z</time>
      </trkpt>
      <trkpt lat="43.50818" lon="1.61864">
        <ele>220.28</ele>
        <time>2013-09-29T08:09:33Z</time>
      </trkpt>
      <trkpt lat="43.50816" lon="1.61861">
        <ele>220.28</ele>
        <time>2013-09-29T08:09:35Z</time>
      </trkpt>
      <trkpt lat="43.50815" lon="1.61861">
        <ele>220.28</ele>
        <time>2013-09-29T08:09:51Z</time>
      </trkpt>
      <trkpt lat="43.50815" lon="1.61862">
        <ele>220.28</ele>
        <time>2013-09-29T08:10:17Z</time>
      </trkpt>
      <trkpt lat="43.50815" lon="1.61862">
        <ele>219.8</ele>
        <time>2013-09-29T08:10:44Z</time>
      </trkpt>
      <trkpt lat="43.50789" lon="1.61863">
        <ele>217.88</ele>
        <time>2013-09-29T08:10:52Z</time>
      </trkpt>
      <trkpt lat="43.5078" lon="1.61861">
        <ele>216.91</ele>
        <time>2013-09-29T08:10:54Z</time>
      </trkpt>
      <trkpt lat="43.5076" lon="1.61851">
        <ele>213.07</ele>
        <time>2013-09-29T08:10:58Z</time>
      </trkpt>
      <trkpt lat="43.50738" lon="1.61833">
        <ele>209.22</ele>
        <time>2013-09-29T08:11:01Z</time>
      </trkpt>
      <trkpt lat="43.50709" lon="1.61807">
        <ele>206.34</ele>
        <time>2013-09-29T08:11:05Z</time>
      </trkpt>
      <trkpt lat="43.50696" lon="1.61794">
        <ele>205.38</ele>
        <time>2013-09-29T08:11:07Z</time>
      </trkpt>
      <trkpt lat="43.50673" lon="1.61771">
        <ele>203.46</ele>
        <time>2013-09-29T08:11:11Z</time>
      </trkpt>
      <trkpt lat="43.50657" lon="1.61759">
        <ele>202.98</ele>
        <time>2013-09-29T08:11:15Z</time>
      </trkpt>
      <trkpt lat="43.50654" lon="1.61761">
        <ele>202.49</ele>
        <time>2013-09-29T08:11:16Z</time>
      </trkpt>
      <trkpt lat="43.5065" lon="1.61764">
        <ele>203.46</ele>
        <time>2013-09-29T08:11:17Z</time>
      </trkpt>
      <trkpt lat="43.50648" lon="1.61768">
        <ele>203.46</ele>
        <time>2013-09-29T08:11:18Z</time>
      </trkpt>
      <trkpt lat="43.50646" lon="1.61772">
        <ele>202.98</ele>
        <time>2013-09-29T08:11:19Z</time>
      </trkpt>
      <trkpt lat="43.50644" lon="1.61775">
        <ele>202.98</ele>
        <time>2013-09-29T08:11:20Z</time>
      </trkpt>
      <trkpt lat="43.50643" lon="1.61779">
        <ele>203.46</ele>
        <time>2013-09-29T08:11:21Z</time>
      </trkpt>
      <trkpt lat="43.5063" lon="1.61802">
        <ele>203.46</ele>
        <time>2013-09-29T08:11:32Z</time>
      </trkpt>
      <trkpt lat="43.50621" lon="1.61813">
        <ele>203.94</ele>
        <time>2013-09-29T08:11:43Z</time>
      </trkpt>
      <trkpt lat="43.50621" lon="1.61814">
        <ele>203.94</ele>
        <time>2013-09-29T08:11:44Z</time>
      </trkpt>
      <trkpt lat="43.5062" lon="1.61816">
        <ele>204.42</ele>
        <time>2013-09-29T08:11:45Z</time>
      </trkpt>
      <trkpt lat="43.50619" lon="1.61817">
        <ele>204.42</ele>
        <time>2013-09-29T08:11:46Z</time>
      </trkpt>
      <trkpt lat="43.50618" lon="1.61819">
        <ele>204.42</ele>
        <time>2013-09-29T08:11:47Z</time>
      </trkpt>
      <trkpt lat="43.50616" lon="1.61821">
        <ele>204.42</ele>
        <time>2013-09-29T08:11:48Z</time>
      </trkpt>
      <trkpt lat="43.50595" lon="1.61856">
        <ele>205.38</ele>
        <time>2013-09-29T08:12:02Z</time>
      </trkpt>
      <trkpt lat="43.50579" lon="1.61883">
        <ele>207.3</ele>
        <time>2013-09-29T08:12:15Z</time>
      </trkpt>
      <trkpt lat="43.50561" lon="1.61907">
        <ele>207.78</ele>
        <time>2013-09-29T08:12:26Z</time>
      </trkpt>
      <trkpt lat="43.50542" lon="1.61941">
        <ele>209.22</ele>
        <time>2013-09-29T08:12:39Z</time>
      </trkpt>
      <trkpt lat="43.50531" lon="1.61967">
        <ele>210.67</ele>
        <time>2013-09-29T08:12:51Z</time>
      </trkpt>
      <trkpt lat="43.50513" lon="1.61996">
        <ele>211.63</ele>
        <time>2013-09-29T08:13:04Z</time>
      </trkpt>
      <trkpt lat="43.50501" lon="1.62009">
        <ele>212.59</ele>
        <time>2013-09-29T08:13:14Z</time>
      </trkpt>
      <trkpt lat="43.50502" lon="1.6201">
        <ele>212.59</ele>
        <time>2013-09-29T08:13:15Z</time>
      </trkpt>
      <trkpt lat="43.50511" lon="1.6201">
        <ele>211.63</ele>
        <time>2013-09-29T08:13:24Z</time>
      </trkpt>
      <trkpt lat="43.50511" lon="1.62009">
        <ele>211.63</ele>
        <time>2013-09-29T08:13:25Z</time>
      </trkpt>
      <trkpt lat="43.50508" lon="1.62007">
        <ele>212.59</ele>
        <time>2013-09-29T08:13:30Z</time>
      </trkpt>
      <trkpt lat="43.50508" lon="1.62009">
        <ele>212.59</ele>
        <time>2013-09-29T08:13:31Z</time>
      </trkpt>
      <trkpt lat="43.50509" lon="1.62011">
        <ele>213.07</ele>
        <time>2013-09-29T08:13:33Z</time>
      </trkpt>
      <trkpt lat="43.5051" lon="1.62012">
        <ele>213.07</ele>
        <time>2013-09-29T08:13:34Z</time>
      </trkpt>
      <trkpt lat="43.50508" lon="1.62022">
        <ele>214.03</ele>
        <time>2013-09-29T08:13:43Z</time>
      </trkpt>
      <trkpt lat="43.50508" lon="1.62024">
        <ele>214.03</ele>
        <time>2013-09-29T08:13:44Z</time>
      </trkpt>
      <trkpt lat="43.50509" lon="1.62025">
        <ele>214.03</ele>
        <time>2013-09-29T08:13:45Z</time>
      </trkpt>
      <trkpt lat="43.50509" lon="1.62027">
        <ele>214.51</ele>
        <time>2013-09-29T08:13:51Z</time>
      </trkpt>
      <trkpt lat="43.50508" lon="1.62028">
        <ele>214.99</ele>
        <time>2013-09-29T08:13:52Z</time>
      </trkpt>
      <trkpt lat="43.50494" lon="1.62052">
        <ele>215.95</ele>
        <time>2013-09-29T08:14:04Z</time>
      </trkpt>
      <trkpt lat="43.50448" lon="1.62112">
        <ele>217.4</ele>
        <time>2013-09-29T08:14:17Z</time>
      </trkpt>
      <trkpt lat="43.50442" lon="1.62128">
        <ele>217.88</ele>
        <time>2013-09-29T08:14:24Z</time>
      </trkpt>
      <trkpt lat="43.50438" lon="1.62138">
        <ele>217.88</ele>
        <time>2013-09-29T08:14:29Z</time>
      </trkpt>
      <trkpt lat="43.50436" lon="1.62141">
        <ele>217.88</ele>
        <time>2013-09-29T08:14:31Z</time>
      </trkpt>
      <trkpt lat="43.50431" lon="1.6215">
        <ele>218.36</ele>
        <time>2013-09-29T08:14:36Z</time>
      </trkpt>
      <trkpt lat="43.50413" lon="1.62191">
        <ele>220.76</ele>
        <time>2013-09-29T08:14:53Z</time>
      </trkpt>
      <trkpt lat="43.50388" lon="1.62223">
        <ele>221.72</ele>
        <time>2013-09-29T08:15:08Z</time>
      </trkpt>
      <trkpt lat="43.50353" lon="1.62235">
        <ele>223.16</ele>
        <time>2013-09-29T08:15:23Z</time>
      </trkpt>
      <trkpt lat="43.50323" lon="1.62202">
        <ele>225.57</ele>
        <time>2013-09-29T08:15:38Z</time>
      </trkpt>
      <trkpt lat="43.50295" lon="1.6218">
        <ele>228.93</ele>
        <time>2013-09-29T08:15:50Z</time>
      </trkpt>
      <trkpt lat="43.50269" lon="1.62202">
        <ele>229.41</ele>
        <time>2013-09-29T08:16:00Z</time>
      </trkpt>
      <trkpt lat="43.5023" lon="1.62254">
        <ele>230.37</ele>
        <time>2013-09-29T08:16:18Z</time>
      </trkpt>
      <trkpt lat="43.50198" lon="1.62296">
        <ele>231.81</ele>
        <time>2013-09-29T08:16:33Z</time>
      </trkpt>
      <trkpt lat="43.50163" lon="1.62342">
        <ele>231.81</ele>
        <time>2013-09-29T08:16:49Z</time>
      </trkpt>
      <trkpt lat="43.5015" lon="1.6236">
        <ele>230.85</ele>
        <time>2013-09-29T08:16:54Z</time>
      </trkpt>
      <trkpt lat="43.50139" lon="1.62376">
        <ele>227.49</ele>
        <time>2013-09-29T08:16:58Z</time>
      </trkpt>
      <trkpt lat="43.50125" lon="1.62377">
        <ele>224.61</ele>
        <time>2013-09-29T08:17:01Z</time>
      </trkpt>
      <trkpt lat="43.50119" lon="1.62375">
        <ele>224.12</ele>
        <time>2013-09-29T08:17:02Z</time>
      </trkpt>
      <trkpt lat="43.5011" lon="1.6237">
        <ele>222.68</ele>
        <time>2013-09-29T08:17:03Z</time>
      </trkpt>
      <trkpt lat="43.50101" lon="1.62367">
        <ele>220.28</ele>
        <time>2013-09-29T08:17:04Z</time>
      </trkpt>
      <trkpt lat="43.50091" lon="1.62364">
        <ele>218.84</ele>
        <time>2013-09-29T08:17:05Z</time>
      </trkpt>
      <trkpt lat="43.50079" lon="1.62361">
        <ele>218.84</ele>
        <time>2013-09-29T08:17:06Z</time>
      </trkpt>
      <trkpt lat="43.50068" lon="1.62358">
        <ele>219.32</ele>
        <time>2013-09-29T08:17:07Z</time>
      </trkpt>
      <trkpt lat="43.50058" lon="1.62355">
        <ele>221.24</ele>
        <time>2013-09-29T08:17:08Z</time>
      </trkpt>
      <trkpt lat="43.50044" lon="1.62349">
        <ele>223.64</ele>
        <time>2013-09-29T08:17:10Z</time>
      </trkpt>
      <trkpt lat="43.5004" lon="1.62346">
        <ele>224.61</ele>
        <time>2013-09-29T08:17:11Z</time>
      </trkpt>
      <trkpt lat="43.50036" lon="1.62342">
        <ele>225.09</ele>
        <time>2013-09-29T08:17:12Z</time>
      </trkpt>
      <trkpt lat="43.50015" lon="1.62329">
        <ele>228.45</ele>
        <time>2013-09-29T08:17:18Z</time>
      </trkpt>
      <trkpt lat="43.49994" lon="1.62316">
        <ele>231.81</ele>
        <time>2013-09-29T08:17:27Z</time>
      </trkpt>
      <trkpt lat="43.49978" lon="1.62306">
        <ele>235.18</ele>
        <time>2013-09-29T08:17:35Z</time>
      </trkpt>
      <trkpt lat="43.49957" lon="1.62293">
        <ele>238.06</ele>
        <time>2013-09-29T08:17:45Z</time>
      </trkpt>
      <trkpt lat="43.49954" lon="1.62292">
        <ele>238.54</ele>
        <time>2013-09-29T08:17:46Z</time>
      </trkpt>
      <trkpt lat="43.49936" lon="1.62268">
        <ele>240.47</ele>
        <time>2013-09-29T08:17:57Z</time>
      </trkpt>
      <trkpt lat="43.49912" lon="1.62218">
        <ele>241.91</ele>
        <time>2013-09-29T08:18:13Z</time>
      </trkpt>
      <trkpt lat="43.49894" lon="1.62233">
        <ele>241.91</ele>
        <time>2013-09-29T08:18:23Z</time>
      </trkpt>
      <trkpt lat="43.49872" lon="1.62242">
        <ele>242.39</ele>
        <time>2013-09-29T08:18:33Z</time>
      </trkpt>
      <trkpt lat="43.49851" lon="1.62216">
        <ele>242.87</ele>
        <time>2013-09-29T08:18:46Z</time>
      </trkpt>
      <trkpt lat="43.49812" lon="1.62172">
        <ele>242.39</ele>
        <time>2013-09-29T08:19:03Z</time>
      </trkpt>
      <trkpt lat="43.49779" lon="1.6213">
        <ele>239.99</ele>
        <time>2013-09-29T08:19:13Z</time>
      </trkpt>
      <trkpt lat="43.49775" lon="1.62125">
        <ele>240.47</ele>
        <time>2013-09-29T08:19:14Z</time>
      </trkpt>
      <trkpt lat="43.49736" lon="1.62049">
        <ele>236.62</ele>
        <time>2013-09-29T08:19:27Z</time>
      </trkpt>
      <trkpt lat="43.49733" lon="1.62042">
        <ele>236.62</ele>
        <time>2013-09-29T08:19:28Z</time>
      </trkpt>
      <trkpt lat="43.49713" lon="1.62004">
        <ele>233.26</ele>
        <time>2013-09-29T08:19:33Z</time>
      </trkpt>
      <trkpt lat="43.49689" lon="1.61958">
        <ele>230.37</ele>
        <time>2013-09-29T08:19:38Z</time>
      </trkpt>
      <trkpt lat="43.49672" lon="1.61928">
        <ele>227.01</ele>
        <time>2013-09-29T08:19:41Z</time>
      </trkpt>
      <trkpt lat="43.49665" lon="1.61918">
        <ele>226.53</ele>
        <time>2013-09-29T08:19:42Z</time>
      </trkpt>
      <trkpt lat="43.49658" lon="1.61908">
        <ele>225.57</ele>
        <time>2013-09-29T08:19:43Z</time>
      </trkpt>
      <trkpt lat="43.49624" lon="1.61872">
        <ele>221.24</ele>
        <time>2013-09-29T08:19:47Z</time>
      </trkpt>
      <trkpt lat="43.49585" lon="1.61838">
        <ele>218.84</ele>
        <time>2013-09-29T08:19:51Z</time>
      </trkpt>
      <trkpt lat="43.49508" lon="1.6177">
        <ele>218.84</ele>
        <time>2013-09-29T08:20:00Z</time>
      </trkpt>
      <trkpt lat="43.49446" lon="1.61724">
        <ele>221.24</ele>
        <time>2013-09-29T08:20:11Z</time>
      </trkpt>
      <trkpt lat="43.49374" lon="1.61664">
        <ele>224.12</ele>
        <time>2013-09-29T08:20:27Z</time>
      </trkpt>
      <trkpt lat="43.49359" lon="1.61649">
        <ele>225.09</ele>
        <time>2013-09-29T08:20:31Z</time>
      </trkpt>
      <trkpt lat="43.49322" lon="1.6162">
        <ele>228.45</ele>
        <time>2013-09-29T08:20:42Z</time>
      </trkpt>
      <trkpt lat="43.4927" lon="1.61581">
        <ele>230.37</ele>
        <time>2013-09-29T08:20:58Z</time>
      </trkpt>
      <trkpt lat="43.49192" lon="1.61534">
        <ele>229.89</ele>
        <time>2013-09-29T08:21:16Z</time>
      </trkpt>
      <trkpt lat="43.49147" lon="1.61525">
        <ele>230.85</ele>
        <time>2013-09-29T08:21:28Z</time>
      </trkpt>
      <trkpt lat="43.49138" lon="1.61525">
        <ele>231.33</ele>
        <time>2013-09-29T08:21:38Z</time>
      </trkpt>
      <trkpt lat="43.49136" lon="1.61524">
        <ele>231.33</ele>
        <time>2013-09-29T08:22:01Z</time>
      </trkpt>
      <trkpt lat="43.49134" lon="1.61524">
        <ele>230.85</ele>
        <time>2013-09-29T08:22:16Z</time>
      </trkpt>
      <trkpt lat="43.49134" lon="1.61524">
        <ele>231.33</ele>
        <time>2013-09-29T08:22:42Z</time>
      </trkpt>
      <trkpt lat="43.49133" lon="1.61523">
        <ele>230.85</ele>
        <time>2013-09-29T08:22:55Z</time>
      </trkpt>
      <trkpt lat="43.49132" lon="1.61522">
        <ele>230.37</ele>
        <time>2013-09-29T08:22:56Z</time>
      </trkpt>
      <trkpt lat="43.49131" lon="1.6152">
        <ele>230.37</ele>
        <time>2013-09-29T08:23:10Z</time>
      </trkpt>
      <trkpt lat="43.49131" lon="1.6152">
        <ele>230.37</ele>
        <time>2013-09-29T08:23:53Z</time>
      </trkpt>
      <trkpt lat="43.49131" lon="1.6152">
        <ele>230.37</ele>
        <time>2013-09-29T08:24:36Z</time>
      </trkpt>
      <trkpt lat="43.49131" lon="1.61522">
        <ele>230.37</ele>
        <time>2013-09-29T08:25:12Z</time>
      </trkpt>
      <trkpt lat="43.49131" lon="1.61522">
        <ele>230.85</ele>
        <time>2013-09-29T08:25:31Z</time>
      </trkpt>
      <trkpt lat="43.49131" lon="1.61522">
        <ele>230.85</ele>
        <time>2013-09-29T08:25:56Z</time>
      </trkpt>
      <trkpt lat="43.49131" lon="1.61522">
        <ele>230.85</ele>
        <time>2013-09-29T08:26:25Z</time>
      </trkpt>
      <trkpt lat="43.49128" lon="1.61523">
        <ele>230.85</ele>
        <time>2013-09-29T08:26:46Z</time>
      </trkpt>
      <trkpt lat="43.49111" lon="1.6152">
        <ele>228.45</ele>
        <time>2013-09-29T08:26:52Z</time>
      </trkpt>
      <trkpt lat="43.49086" lon="1.61516">
        <ele>225.09</ele>
        <time>2013-09-29T08:26:57Z</time>
      </trkpt>
      <trkpt lat="43.49062" lon="1.61513">
        <ele>222.2</ele>
        <time>2013-09-29T08:27:01Z</time>
      </trkpt>
      <trkpt lat="43.49032" lon="1.61511">
        <ele>218.84</ele>
        <time>2013-09-29T08:27:05Z</time>
      </trkpt>
      <trkpt lat="43.49007" lon="1.61511">
        <ele>215.47</ele>
        <time>2013-09-29T08:27:09Z</time>
      </trkpt>
      <trkpt lat="43.48984" lon="1.61511">
        <ele>212.11</ele>
        <time>2013-09-29T08:27:14Z</time>
      </trkpt>
      <trkpt lat="43.48964" lon="1.61509">
        <ele>208.74</ele>
        <time>2013-09-29T08:27:17Z</time>
      </trkpt>
      <trkpt lat="43.48943" lon="1.61509">
        <ele>205.86</ele>
        <time>2013-09-29T08:27:21Z</time>
      </trkpt>
      <trkpt lat="43.48923" lon="1.61507">
        <ele>202.01</ele>
        <time>2013-09-29T08:27:25Z</time>
      </trkpt>
      <trkpt lat="43.48902" lon="1.61505">
        <ele>198.17</ele>
        <time>2013-09-29T08:27:28Z</time>
      </trkpt>
      <trkpt lat="43.4888" lon="1.61503">
        <ele>193.84</ele>
        <time>2013-09-29T08:27:31Z</time>
      </trkpt>
      <trkpt lat="43.48858" lon="1.61501">
        <ele>189.52</ele>
        <time>2013-09-29T08:27:34Z</time>
      </trkpt>
      <trkpt lat="43.48832" lon="1.61499">
        <ele>185.67</ele>
        <time>2013-09-29T08:27:37Z</time>
      </trkpt>
      <trkpt lat="43.48814" lon="1.61501">
        <ele>183.27</ele>
        <time>2013-09-29T08:27:39Z</time>
      </trkpt>
      <trkpt lat="43.48786" lon="1.61508">
        <ele>180.87</ele>
        <time>2013-09-29T08:27:42Z</time>
      </trkpt>
      <trkpt lat="43.48777" lon="1.6151">
        <ele>180.38</ele>
        <time>2013-09-29T08:27:43Z</time>
      </trkpt>
      <trkpt lat="43.48731" lon="1.61513">
        <ele>182.31</ele>
        <time>2013-09-29T08:27:49Z</time>
      </trkpt>
      <trkpt lat="43.48724" lon="1.61512">
        <ele>182.79</ele>
        <time>2013-09-29T08:27:50Z</time>
      </trkpt>
      <trkpt lat="43.48717" lon="1.6151">
        <ele>183.27</ele>
        <time>2013-09-29T08:27:51Z</time>
      </trkpt>
      <trkpt lat="43.48685" lon="1.61494">
        <ele>187.11</ele>
        <time>2013-09-29T08:27:58Z</time>
      </trkpt>
      <trkpt lat="43.48681" lon="1.61494">
        <ele>187.11</ele>
        <time>2013-09-29T08:27:59Z</time>
      </trkpt>
      <trkpt lat="43.48679" lon="1.61496">
        <ele>187.59</ele>
        <time>2013-09-29T08:28:00Z</time>
      </trkpt>
      <trkpt lat="43.48676" lon="1.61499">
        <ele>187.11</ele>
        <time>2013-09-29T08:28:01Z</time>
      </trkpt>
      <trkpt lat="43.48674" lon="1.61504">
        <ele>187.59</ele>
        <time>2013-09-29T08:28:02Z</time>
      </trkpt>
      <trkpt lat="43.48673" lon="1.61509">
        <ele>188.08</ele>
        <time>2013-09-29T08:28:03Z</time>
      </trkpt>
      <trkpt lat="43.48671" lon="1.61514">
        <ele>188.08</ele>
        <time>2013-09-29T08:28:04Z</time>
      </trkpt>
      <trkpt lat="43.48655" lon="1.61562">
        <ele>190.96</ele>
        <time>2013-09-29T08:28:16Z</time>
      </trkpt>
      <trkpt lat="43.48636" lon="1.61608">
        <ele>192.4</ele>
        <time>2013-09-29T08:28:28Z</time>
      </trkpt>
      <trkpt lat="43.48626" lon="1.61622">
        <ele>193.84</ele>
        <time>2013-09-29T08:28:33Z</time>
      </trkpt>
      <trkpt lat="43.48604" lon="1.61673">
        <ele>196.73</ele>
        <time>2013-09-29T08:28:49Z</time>
      </trkpt>
      <trkpt lat="43.48587" lon="1.61716">
        <ele>199.61</ele>
        <time>2013-09-29T08:29:03Z</time>
      </trkpt>
      <trkpt lat="43.4857" lon="1.61759">
        <ele>202.98</ele>
        <time>2013-09-29T08:29:18Z</time>
      </trkpt>
      <trkpt lat="43.48552" lon="1.61808">
        <ele>202.98</ele>
        <time>2013-09-29T08:29:32Z</time>
      </trkpt>
      <trkpt lat="43.48533" lon="1.61863">
        <ele>203.46</ele>
        <time>2013-09-29T08:29:45Z</time>
      </trkpt>
      <trkpt lat="43.48506" lon="1.61904">
        <ele>206.34</ele>
        <time>2013-09-29T08:30:00Z</time>
      </trkpt>
      <trkpt lat="43.48477" lon="1.61956">
        <ele>207.3</ele>
        <time>2013-09-29T08:30:16Z</time>
      </trkpt>
      <trkpt lat="43.4844" lon="1.62015">
        <ele>207.78</ele>
        <time>2013-09-29T08:30:33Z</time>
      </trkpt>
      <trkpt lat="43.48405" lon="1.62071">
        <ele>208.74</ele>
        <time>2013-09-29T08:30:49Z</time>
      </trkpt>
      <trkpt lat="43.48369" lon="1.62125">
        <ele>210.67</ele>
        <time>2013-09-29T08:31:07Z</time>
      </trkpt>
      <trkpt lat="43.48335" lon="1.62175">
        <ele>212.59</ele>
        <time>2013-09-29T08:31:23Z</time>
      </trkpt>
      <trkpt lat="43.48304" lon="1.62218">
        <ele>214.51</ele>
        <time>2013-09-29T08:31:38Z</time>
      </trkpt>
      <trkpt lat="43.48267" lon="1.62258">
        <ele>216.43</ele>
        <time>2013-09-29T08:31:54Z</time>
      </trkpt>
      <trkpt lat="43.48257" lon="1.62317">
        <ele>216.91</ele>
        <time>2013-09-29T08:32:07Z</time>
      </trkpt>
      <trkpt lat="43.48233" lon="1.62373">
        <ele>218.36</ele>
        <time>2013-09-29T08:32:22Z</time>
      </trkpt>
      <trkpt lat="43.48212" lon="1.62416">
        <ele>219.32</ele>
        <time>2013-09-29T08:32:34Z</time>
      </trkpt>
      <trkpt lat="43.48179" lon="1.62477">
        <ele>220.76</ele>
        <time>2013-09-29T08:32:51Z</time>
      </trkpt>
      <trkpt lat="43.48142" lon="1.62499">
        <ele>221.72</ele>
        <time>2013-09-29T08:33:04Z</time>
      </trkpt>
      <trkpt lat="43.48086" lon="1.62476">
        <ele>222.2</ele>
        <time>2013-09-29T08:33:22Z</time>
      </trkpt>
      <trkpt lat="43.48034" lon="1.62455">
        <ele>221.72</ele>
        <time>2013-09-29T08:33:37Z</time>
      </trkpt>
      <trkpt lat="43.4799" lon="1.62441">
        <ele>223.64</ele>
        <time>2013-09-29T08:33:51Z</time>
      </trkpt>
      <trkpt lat="43.4795" lon="1.62428">
        <ele>225.57</ele>
        <time>2013-09-29T08:34:06Z</time>
      </trkpt>
      <trkpt lat="43.47923" lon="1.62419">
        <ele>228.45</ele>
        <time>2013-09-29T08:34:18Z</time>
      </trkpt>
      <trkpt lat="43.47886" lon="1.62408">
        <ele>231.33</ele>
        <time>2013-09-29T08:34:33Z</time>
      </trkpt>
      <trkpt lat="43.47839" lon="1.62397">
        <ele>233.26</ele>
        <time>2013-09-29T08:34:50Z</time>
      </trkpt>
      <trkpt lat="43.47831" lon="1.62403">
        <ele>233.74</ele>
        <time>2013-09-29T08:34:54Z</time>
      </trkpt>
      <trkpt lat="43.4783" lon="1.62405">
        <ele>234.22</ele>
        <time>2013-09-29T08:34:55Z</time>
      </trkpt>
      <trkpt lat="43.47829" lon="1.62407">
        <ele>234.22</ele>
        <time>2013-09-29T08:34:56Z</time>
      </trkpt>
      <trkpt lat="43.47829" lon="1.6241">
        <ele>234.7</ele>
        <time>2013-09-29T08:34:57Z</time>
      </trkpt>
      <trkpt lat="43.47829" lon="1.62413">
        <ele>234.22</ele>
        <time>2013-09-29T08:34:58Z</time>
      </trkpt>
      <trkpt lat="43.47825" lon="1.62433">
        <ele>235.18</ele>
        <time>2013-09-29T08:35:08Z</time>
      </trkpt>
      <trkpt lat="43.47824" lon="1.62435">
        <ele>235.18</ele>
        <time>2013-09-29T08:35:23Z</time>
      </trkpt>
      <trkpt lat="43.47824" lon="1.62435">
        <ele>235.66</ele>
        <time>2013-09-29T08:35:49Z</time>
      </trkpt>
      <trkpt lat="43.47825" lon="1.62435">
        <ele>235.18</ele>
        <time>2013-09-29T08:36:18Z</time>
      </trkpt>
      <trkpt lat="43.47825" lon="1.62435">
        <ele>235.18</ele>
        <time>2013-09-29T08:36:48Z</time>
      </trkpt>
      <trkpt lat="43.47824" lon="1.62435">
        <ele>235.66</ele>
        <time>2013-09-29T08:37:15Z</time>
      </trkpt>
      <trkpt lat="43.47824" lon="1.62436">
        <ele>235.66</ele>
        <time>2013-09-29T08:37:37Z</time>
      </trkpt>
      <trkpt lat="43.47815" lon="1.62469">
        <ele>236.62</ele>
        <time>2013-09-29T08:37:51Z</time>
      </trkpt>
      <trkpt lat="43.47799" lon="1.62535">
        <ele>239.51</ele>
        <time>2013-09-29T08:38:10Z</time>
      </trkpt>
      <trkpt lat="43.47787" lon="1.62584">
        <ele>240.95</ele>
        <time>2013-09-29T08:38:26Z</time>
      </trkpt>
      <trkpt lat="43.47771" lon="1.62652">
        <ele>242.39</ele>
        <time>2013-09-29T08:38:45Z</time>
      </trkpt>
      <trkpt lat="43.47756" lon="1.62719">
        <ele>243.83</ele>
        <time>2013-09-29T08:39:03Z</time>
      </trkpt>
      <trkpt lat="43.47747" lon="1.62786">
        <ele>244.31</ele>
        <time>2013-09-29T08:39:21Z</time>
      </trkpt>
      <trkpt lat="43.47743" lon="1.62857">
        <ele>243.83</ele>
        <time>2013-09-29T08:39:38Z</time>
      </trkpt>
      <trkpt lat="43.47752" lon="1.62941">
        <ele>241.91</ele>
        <time>2013-09-29T08:39:53Z</time>
      </trkpt>
      <trkpt lat="43.47772" lon="1.6304">
        <ele>238.54</ele>
        <time>2013-09-29T08:40:08Z</time>
      </trkpt>
      <trkpt lat="43.47799" lon="1.63171">
        <ele>235.66</ele>
        <time>2013-09-29T08:40:26Z</time>
      </trkpt>
      <trkpt lat="43.47801" lon="1.63199">
        <ele>234.22</ele>
        <time>2013-09-29T08:40:31Z</time>
      </trkpt>
      <trkpt lat="43.47802" lon="1.63226">
        <ele>234.22</ele>
        <time>2013-09-29T08:40:35Z</time>
      </trkpt>
      <trkpt lat="43.47801" lon="1.63232">
        <ele>234.22</ele>
        <time>2013-09-29T08:40:36Z</time>
      </trkpt>
      <trkpt lat="43.47788" lon="1.63339">
        <ele>234.7</ele>
        <time>2013-09-29T08:40:52Z</time>
      </trkpt>
      <trkpt lat="43.47787" lon="1.63351">
        <ele>235.66</ele>
        <time>2013-09-29T08:40:54Z</time>
      </trkpt>
      <trkpt lat="43.4777" lon="1.63427">
        <ele>238.06</ele>
        <time>2013-09-29T08:41:09Z</time>
      </trkpt>
      <trkpt lat="43.47749" lon="1.6349">
        <ele>238.54</ele>
        <time>2013-09-29T08:41:22Z</time>
      </trkpt>
      <trkpt lat="43.47729" lon="1.6356">
        <ele>239.99</ele>
        <time>2013-09-29T08:41:36Z</time>
      </trkpt>
      <trkpt lat="43.47728" lon="1.63565">
        <ele>240.47</ele>
        <time>2013-09-29T08:41:37Z</time>
      </trkpt>
      <trkpt lat="43.47726" lon="1.6357">
        <ele>240.95</ele>
        <time>2013-09-29T08:41:38Z</time>
      </trkpt>
      <trkpt lat="43.47725" lon="1.63575">
        <ele>240.95</ele>
        <time>2013-09-29T08:41:39Z</time>
      </trkpt>
      <trkpt lat="43.47723" lon="1.63581">
        <ele>240.95</ele>
        <time>2013-09-29T08:41:40Z</time>
      </trkpt>
      <trkpt lat="43.47722" lon="1.63586">
        <ele>240.95</ele>
        <time>2013-09-29T08:41:41Z</time>
      </trkpt>
      <trkpt lat="43.47704" lon="1.63657">
        <ele>244.31</ele>
        <time>2013-09-29T08:41:54Z</time>
      </trkpt>
      <trkpt lat="43.47691" lon="1.63768">
        <ele>246.23</ele>
        <time>2013-09-29T08:42:13Z</time>
      </trkpt>
      <trkpt lat="43.47696" lon="1.6387">
        <ele>247.2</ele>
        <time>2013-09-29T08:42:32Z</time>
      </trkpt>
      <trkpt lat="43.47691" lon="1.63928">
        <ele>247.68</ele>
        <time>2013-09-29T08:42:43Z</time>
      </trkpt>
      <trkpt lat="43.47685" lon="1.63959">
        <ele>248.64</ele>
        <time>2013-09-29T08:42:49Z</time>
      </trkpt>
      <trkpt lat="43.4767" lon="1.64061">
        <ele>247.68</ele>
        <time>2013-09-29T08:43:06Z</time>
      </trkpt>
      <trkpt lat="43.47665" lon="1.64192">
        <ele>244.79</ele>
        <time>2013-09-29T08:43:24Z</time>
      </trkpt>
      <trkpt lat="43.47667" lon="1.64282">
        <ele>245.27</ele>
        <time>2013-09-29T08:43:38Z</time>
      </trkpt>
      <trkpt lat="43.47662" lon="1.64417">
        <ele>241.91</ele>
        <time>2013-09-29T08:43:55Z</time>
      </trkpt>
      <trkpt lat="43.47651" lon="1.64511">
        <ele>240.47</ele>
        <time>2013-09-29T08:44:07Z</time>
      </trkpt>
      <trkpt lat="43.47644" lon="1.6462">
        <ele>240.47</ele>
        <time>2013-09-29T08:44:21Z</time>
      </trkpt>
      <trkpt lat="43.47636" lon="1.64717">
        <ele>239.02</ele>
        <time>2013-09-29T08:44:36Z</time>
      </trkpt>
      <trkpt lat="43.47635" lon="1.64734">
        <ele>238.54</ele>
        <time>2013-09-29T08:44:38Z</time>
      </trkpt>
      <trkpt lat="43.47632" lon="1.64776">
        <ele>235.18</ele>
        <time>2013-09-29T08:44:42Z</time>
      </trkpt>
      <trkpt lat="43.47628" lon="1.64825">
        <ele>231.33</ele>
        <time>2013-09-29T08:44:46Z</time>
      </trkpt>
      <trkpt lat="43.47624" lon="1.64883">
        <ele>227.97</ele>
        <time>2013-09-29T08:44:50Z</time>
      </trkpt>
      <trkpt lat="43.47618" lon="1.64958">
        <ele>229.89</ele>
        <time>2013-09-29T08:44:56Z</time>
      </trkpt>
      <trkpt lat="43.47617" lon="1.64976">
        <ele>231.33</ele>
        <time>2013-09-29T08:44:58Z</time>
      </trkpt>
      <trkpt lat="43.47612" lon="1.65042">
        <ele>234.7</ele>
        <time>2013-09-29T08:45:06Z</time>
      </trkpt>
      <trkpt lat="43.47605" lon="1.65135">
        <ele>236.62</ele>
        <time>2013-09-29T08:45:20Z</time>
      </trkpt>
      <trkpt lat="43.47599" lon="1.65176">
        <ele>235.66</ele>
        <time>2013-09-29T08:45:26Z</time>
      </trkpt>
      <trkpt lat="43.47598" lon="1.65184">
        <ele>235.66</ele>
        <time>2013-09-29T08:45:27Z</time>
      </trkpt>
      <trkpt lat="43.47585" lon="1.65249">
        <ele>231.81</ele>
        <time>2013-09-29T08:45:34Z</time>
      </trkpt>
      <trkpt lat="43.47577" lon="1.65297">
        <ele>228.93</ele>
        <time>2013-09-29T08:45:38Z</time>
      </trkpt>
      <trkpt lat="43.47556" lon="1.65409">
        <ele>230.37</ele>
        <time>2013-09-29T08:45:49Z</time>
      </trkpt>
      <trkpt lat="43.47535" lon="1.65532">
        <ele>231.33</ele>
        <time>2013-09-29T08:46:06Z</time>
      </trkpt>
      <trkpt lat="43.47527" lon="1.65577">
        <ele>230.37</ele>
        <time>2013-09-29T08:46:18Z</time>
      </trkpt>
      <trkpt lat="43.47527" lon="1.65577">
        <ele>230.37</ele>
        <time>2013-09-29T08:46:36Z</time>
      </trkpt>
      <trkpt lat="43.47527" lon="1.65578">
        <ele>230.37</ele>
        <time>2013-09-29T08:47:08Z</time>
      </trkpt>
      <trkpt lat="43.47527" lon="1.65577">
        <ele>230.85</ele>
        <time>2013-09-29T08:47:41Z</time>
      </trkpt>
      <trkpt lat="43.47527" lon="1.65577">
        <ele>230.37</ele>
        <time>2013-09-29T08:48:03Z</time>
      </trkpt>
      <trkpt lat="43.47527" lon="1.65578">
        <ele>230.85</ele>
        <time>2013-09-29T08:48:25Z</time>
      </trkpt>
      <trkpt lat="43.47527" lon="1.65577">
        <ele>230.85</ele>
        <time>2013-09-29T08:48:55Z</time>
      </trkpt>
      <trkpt lat="43.47527" lon="1.65577">
        <ele>226.05</ele>
        <time>2013-09-29T08:49:00Z</time>
      </trkpt>
      <trkpt lat="43.47527" lon="1.65577">
        <ele>230.85</ele>
        <time>2013-09-29T08:49:01Z</time>
      </trkpt>
      <trkpt lat="43.47527" lon="1.65577">
        <ele>230.85</ele>
        <time>2013-09-29T08:49:34Z</time>
      </trkpt>
      <trkpt lat="43.47527" lon="1.65577">
        <ele>230.85</ele>
        <time>2013-09-29T08:49:57Z</time>
      </trkpt>
      <trkpt lat="43.47527" lon="1.65577">
        <ele>230.85</ele>
        <time>2013-09-29T08:50:24Z</time>
      </trkpt>
      <trkpt lat="43.47527" lon="1.65577">
        <ele>230.85</ele>
        <time>2013-09-29T08:50:41Z</time>
      </trkpt>
      <trkpt lat="43.47524" lon="1.65577">
        <ele>230.37</ele>
        <time>2013-09-29T08:50:42Z</time>
      </trkpt>
      <trkpt lat="43.47506" lon="1.65578">
        <ele>228.93</ele>
        <time>2013-09-29T08:50:47Z</time>
      </trkpt>
      <trkpt lat="43.47485" lon="1.65577">
        <ele>227.97</ele>
        <time>2013-09-29T08:50:51Z</time>
      </trkpt>
      <trkpt lat="43.4748" lon="1.65577">
        <ele>227.49</ele>
        <time>2013-09-29T08:50:52Z</time>
      </trkpt>
      <trkpt lat="43.47443" lon="1.65579">
        <ele>226.53</ele>
        <time>2013-09-29T08:50:59Z</time>
      </trkpt>
      <trkpt lat="43.47438" lon="1.65582">
        <ele>226.53</ele>
        <time>2013-09-29T08:51:00Z</time>
      </trkpt>
      <trkpt lat="43.47433" lon="1.65586">
        <ele>227.01</ele>
        <time>2013-09-29T08:51:01Z</time>
      </trkpt>
      <trkpt lat="43.47429" lon="1.65591">
        <ele>226.53</ele>
        <time>2013-09-29T08:51:02Z</time>
      </trkpt>
      <trkpt lat="43.47426" lon="1.65596">
        <ele>227.01</ele>
        <time>2013-09-29T08:51:03Z</time>
      </trkpt>
      <trkpt lat="43.47422" lon="1.65601">
        <ele>227.01</ele>
        <time>2013-09-29T08:51:04Z</time>
      </trkpt>
      <trkpt lat="43.47374" lon="1.65685">
        <ele>227.49</ele>
        <time>2013-09-29T08:51:22Z</time>
      </trkpt>
      <trkpt lat="43.47319" lon="1.65781">
        <ele>227.97</ele>
        <time>2013-09-29T08:51:41Z</time>
      </trkpt>
      <trkpt lat="43.47271" lon="1.65867">
        <ele>230.85</ele>
        <time>2013-09-29T08:52:00Z</time>
      </trkpt>
      <trkpt lat="43.4723" lon="1.65921">
        <ele>233.74</ele>
        <time>2013-09-29T08:52:17Z</time>
      </trkpt>
      <trkpt lat="43.47192" lon="1.65929">
        <ele>230.37</ele>
        <time>2013-09-29T08:52:25Z</time>
      </trkpt>
      <trkpt lat="43.47169" lon="1.65933">
        <ele>226.53</ele>
        <time>2013-09-29T08:52:28Z</time>
      </trkpt>
      <trkpt lat="43.4716" lon="1.65936">
        <ele>225.09</ele>
        <time>2013-09-29T08:52:29Z</time>
      </trkpt>
      <trkpt lat="43.47152" lon="1.6594">
        <ele>223.16</ele>
        <time>2013-09-29T08:52:30Z</time>
      </trkpt>
      <trkpt lat="43.47143" lon="1.65945">
        <ele>221.72</ele>
        <time>2013-09-29T08:52:31Z</time>
      </trkpt>
      <trkpt lat="43.47125" lon="1.65957">
        <ele>217.88</ele>
        <time>2013-09-29T08:52:33Z</time>
      </trkpt>
      <trkpt lat="43.47108" lon="1.65971">
        <ele>214.03</ele>
        <time>2013-09-29T08:52:35Z</time>
      </trkpt>
      <trkpt lat="43.47075" lon="1.65996">
        <ele>209.7</ele>
        <time>2013-09-29T08:52:39Z</time>
      </trkpt>
      <trkpt lat="43.47047" lon="1.66017">
        <ele>205.38</ele>
        <time>2013-09-29T08:52:42Z</time>
      </trkpt>
      <trkpt lat="43.47018" lon="1.6604">
        <ele>201.05</ele>
        <time>2013-09-29T08:52:45Z</time>
      </trkpt>
      <trkpt lat="43.46996" lon="1.66057">
        <ele>196.73</ele>
        <time>2013-09-29T08:52:47Z</time>
      </trkpt>
      <trkpt lat="43.46974" lon="1.66073">
        <ele>192.88</ele>
        <time>2013-09-29T08:52:49Z</time>
      </trkpt>
      <trkpt lat="43.4695" lon="1.66088">
        <ele>189.04</ele>
        <time>2013-09-29T08:52:51Z</time>
      </trkpt>
      <trkpt lat="43.46916" lon="1.66105">
        <ele>186.15</ele>
        <time>2013-09-29T08:52:54Z</time>
      </trkpt>
      <trkpt lat="43.46906" lon="1.66108">
        <ele>186.15</ele>
        <time>2013-09-29T08:52:55Z</time>
      </trkpt>
      <trkpt lat="43.46897" lon="1.6611">
        <ele>185.67</ele>
        <time>2013-09-29T08:52:56Z</time>
      </trkpt>
      <trkpt lat="43.4688" lon="1.66112">
        <ele>184.71</ele>
        <time>2013-09-29T08:52:58Z</time>
      </trkpt>
      <trkpt lat="43.46867" lon="1.66111">
        <ele>184.71</ele>
        <time>2013-09-29T08:53:00Z</time>
      </trkpt>
      <trkpt lat="43.46862" lon="1.66109">
        <ele>184.71</ele>
        <time>2013-09-29T08:53:01Z</time>
      </trkpt>
      <trkpt lat="43.46859" lon="1.66105">
        <ele>184.71</ele>
        <time>2013-09-29T08:53:02Z</time>
      </trkpt>
      <trkpt lat="43.46858" lon="1.66099">
        <ele>184.71</ele>
        <time>2013-09-29T08:53:03Z</time>
      </trkpt>
      <trkpt lat="43.46858" lon="1.66092">
        <ele>184.71</ele>
        <time>2013-09-29T08:53:04Z</time>
      </trkpt>
      <trkpt lat="43.46858" lon="1.66086">
        <ele>184.71</ele>
        <time>2013-09-29T08:53:05Z</time>
      </trkpt>
      <trkpt lat="43.46857" lon="1.66079">
        <ele>184.23</ele>
        <time>2013-09-29T08:53:06Z</time>
      </trkpt>
      <trkpt lat="43.46856" lon="1.66073">
        <ele>184.23</ele>
        <time>2013-09-29T08:53:07Z</time>
      </trkpt>
      <trkpt lat="43.46855" lon="1.66067">
        <ele>184.23</ele>
        <time>2013-09-29T08:53:08Z</time>
      </trkpt>
      <trkpt lat="43.46854" lon="1.6606">
        <ele>184.23</ele>
        <time>2013-09-29T08:53:09Z</time>
      </trkpt>
      <trkpt lat="43.46852" lon="1.66047">
        <ele>184.23</ele>
        <time>2013-09-29T08:53:11Z</time>
      </trkpt>
      <trkpt lat="43.46851" lon="1.6604">
        <ele>184.23</ele>
        <time>2013-09-29T08:53:12Z</time>
      </trkpt>
      <trkpt lat="43.46849" lon="1.66033">
        <ele>184.23</ele>
        <time>2013-09-29T08:53:13Z</time>
      </trkpt>
      <trkpt lat="43.46841" lon="1.66007">
        <ele>183.75</ele>
        <time>2013-09-29T08:53:17Z</time>
      </trkpt>
      <trkpt lat="43.4684" lon="1.66">
        <ele>183.75</ele>
        <time>2013-09-29T08:53:18Z</time>
      </trkpt>
      <trkpt lat="43.46838" lon="1.65994">
        <ele>183.75</ele>
        <time>2013-09-29T08:53:19Z</time>
      </trkpt>
      <trkpt lat="43.4679" lon="1.65886">
        <ele>183.27</ele>
        <time>2013-09-29T08:53:36Z</time>
      </trkpt>
      <trkpt lat="43.46739" lon="1.65799">
        <ele>183.27</ele>
        <time>2013-09-29T08:53:52Z</time>
      </trkpt>
      <trkpt lat="43.46737" lon="1.65793">
        <ele>183.27</ele>
        <time>2013-09-29T08:53:53Z</time>
      </trkpt>
      <trkpt lat="43.46735" lon="1.65788">
        <ele>183.27</ele>
        <time>2013-09-29T08:53:54Z</time>
      </trkpt>
      <trkpt lat="43.46732" lon="1.65784">
        <ele>183.27</ele>
        <time>2013-09-29T08:53:55Z</time>
      </trkpt>
      <trkpt lat="43.46725" lon="1.65781">
        <ele>183.75</ele>
        <time>2013-09-29T08:53:57Z</time>
      </trkpt>
      <trkpt lat="43.46656" lon="1.65786">
        <ele>185.19</ele>
        <time>2013-09-29T08:54:13Z</time>
      </trkpt>
      <trkpt lat="43.46616" lon="1.65789">
        <ele>187.11</ele>
        <time>2013-09-29T08:54:26Z</time>
      </trkpt>
      <trkpt lat="43.46588" lon="1.65792">
        <ele>188.08</ele>
        <time>2013-09-29T08:54:38Z</time>
      </trkpt>
      <trkpt lat="43.46556" lon="1.65793">
        <ele>190.48</ele>
        <time>2013-09-29T08:54:51Z</time>
      </trkpt>
      <trkpt lat="43.46524" lon="1.65794">
        <ele>191.92</ele>
        <time>2013-09-29T08:55:03Z</time>
      </trkpt>
      <trkpt lat="43.46483" lon="1.65798">
        <ele>192.88</ele>
        <time>2013-09-29T08:55:18Z</time>
      </trkpt>
      <trkpt lat="43.46458" lon="1.65811">
        <ele>193.36</ele>
        <time>2013-09-29T08:55:30Z</time>
      </trkpt>
      <trkpt lat="43.46427" lon="1.65827">
        <ele>194.32</ele>
        <time>2013-09-29T08:55:41Z</time>
      </trkpt>
      <trkpt lat="43.46362" lon="1.65788">
        <ele>191.44</ele>
        <time>2013-09-29T08:55:56Z</time>
      </trkpt>
      <trkpt lat="43.46313" lon="1.65741">
        <ele>193.36</ele>
        <time>2013-09-29T08:56:08Z</time>
      </trkpt>
      <trkpt lat="43.46267" lon="1.65702">
        <ele>196.73</ele>
        <time>2013-09-29T08:56:22Z</time>
      </trkpt>
      <trkpt lat="43.46227" lon="1.65669">
        <ele>198.65</ele>
        <time>2013-09-29T08:56:36Z</time>
      </trkpt>
      <trkpt lat="43.4619" lon="1.65638">
        <ele>201.05</ele>
        <time>2013-09-29T08:56:51Z</time>
      </trkpt>
      <trkpt lat="43.46156" lon="1.65609">
        <ele>202.01</ele>
        <time>2013-09-29T08:57:05Z</time>
      </trkpt>
      <trkpt lat="43.46139" lon="1.65604">
        <ele>202.98</ele>
        <time>2013-09-29T08:57:17Z</time>
      </trkpt>
      <trkpt lat="43.4614" lon="1.65604">
        <ele>202.01</ele>
        <time>2013-09-29T08:57:32Z</time>
      </trkpt>
      <trkpt lat="43.4614" lon="1.65604">
        <ele>202.49</ele>
        <time>2013-09-29T08:58:09Z</time>
      </trkpt>
      <trkpt lat="43.4614" lon="1.65605">
        <ele>202.98</ele>
        <time>2013-09-29T08:58:14Z</time>
      </trkpt>
      <trkpt lat="43.46138" lon="1.65604">
        <ele>202.98</ele>
        <time>2013-09-29T08:58:15Z</time>
      </trkpt>
      <trkpt lat="43.46137" lon="1.65604">
        <ele>202.98</ele>
        <time>2013-09-29T08:58:16Z</time>
      </trkpt>
      <trkpt lat="43.46136" lon="1.65602">
        <ele>202.49</ele>
        <time>2013-09-29T08:58:17Z</time>
      </trkpt>
      <trkpt lat="43.46136" lon="1.65601">
        <ele>202.01</ele>
        <time>2013-09-29T08:58:31Z</time>
      </trkpt>
      <trkpt lat="43.46136" lon="1.65601">
        <ele>202.01</ele>
        <time>2013-09-29T08:59:18Z</time>
      </trkpt>
      <trkpt lat="43.46136" lon="1.65601">
        <ele>202.49</ele>
        <time>2013-09-29T08:59:52Z</time>
      </trkpt>
      <trkpt lat="43.46136" lon="1.65599">
        <ele>202.01</ele>
        <time>2013-09-29T09:00:09Z</time>
      </trkpt>
      <trkpt lat="43.46135" lon="1.65597">
        <ele>202.49</ele>
        <time>2013-09-29T09:00:10Z</time>
      </trkpt>
      <trkpt lat="43.46124" lon="1.65585">
        <ele>201.05</ele>
        <time>2013-09-29T09:00:14Z</time>
      </trkpt>
      <trkpt lat="43.46114" lon="1.65578">
        <ele>201.05</ele>
        <time>2013-09-29T09:00:16Z</time>
      </trkpt>
      <trkpt lat="43.4608" lon="1.65553">
        <ele>198.17</ele>
        <time>2013-09-29T09:00:22Z</time>
      </trkpt>
      <trkpt lat="43.46074" lon="1.6555">
        <ele>197.69</ele>
        <time>2013-09-29T09:00:23Z</time>
      </trkpt>
      <trkpt lat="43.46067" lon="1.65547">
        <ele>197.21</ele>
        <time>2013-09-29T09:00:24Z</time>
      </trkpt>
      <trkpt lat="43.46059" lon="1.65546">
        <ele>196.73</ele>
        <time>2013-09-29T09:00:25Z</time>
      </trkpt>
      <trkpt lat="43.46051" lon="1.65545">
        <ele>196.73</ele>
        <time>2013-09-29T09:00:26Z</time>
      </trkpt>
      <trkpt lat="43.46044" lon="1.65545">
        <ele>196.73</ele>
        <time>2013-09-29T09:00:27Z</time>
      </trkpt>
      <trkpt lat="43.46037" lon="1.65544">
        <ele>196.73</ele>
        <time>2013-09-29T09:00:28Z</time>
      </trkpt>
      <trkpt lat="43.46031" lon="1.65541">
        <ele>196.73</ele>
        <time>2013-09-29T09:00:29Z</time>
      </trkpt>
      <trkpt lat="43.46026" lon="1.65536">
        <ele>196.73</ele>
        <time>2013-09-29T09:00:30Z</time>
      </trkpt>
      <trkpt lat="43.46022" lon="1.65532">
        <ele>197.21</ele>
        <time>2013-09-29T09:00:31Z</time>
      </trkpt>
      <trkpt lat="43.46018" lon="1.65528">
        <ele>197.21</ele>
        <time>2013-09-29T09:00:32Z</time>
      </trkpt>
      <trkpt lat="43.4599" lon="1.65483">
        <ele>200.57</ele>
        <time>2013-09-29T09:00:44Z</time>
      </trkpt>
      <trkpt lat="43.45966" lon="1.65435">
        <ele>203.46</ele>
        <time>2013-09-29T09:01:01Z</time>
      </trkpt>
      <trkpt lat="43.45949" lon="1.65404">
        <ele>206.82</ele>
        <time>2013-09-29T09:01:13Z</time>
      </trkpt>
      <trkpt lat="43.45939" lon="1.65385">
        <ele>209.7</ele>
        <time>2013-09-29T09:01:21Z</time>
      </trkpt>
      <trkpt lat="43.45925" lon="1.65363">
        <ele>213.07</ele>
        <time>2013-09-29T09:01:32Z</time>
      </trkpt>
      <trkpt lat="43.45902" lon="1.65324">
        <ele>214.51</ele>
        <time>2013-09-29T09:01:46Z</time>
      </trkpt>
      <trkpt lat="43.45864" lon="1.6527">
        <ele>214.99</ele>
        <time>2013-09-29T09:02:01Z</time>
      </trkpt>
      <trkpt lat="43.45825" lon="1.65235">
        <ele>216.91</ele>
        <time>2013-09-29T09:02:15Z</time>
      </trkpt>
      <trkpt lat="43.45783" lon="1.6521">
        <ele>214.51</ele>
        <time>2013-09-29T09:02:29Z</time>
      </trkpt>
      <trkpt lat="43.45769" lon="1.65202">
        <ele>212.59</ele>
        <time>2013-09-29T09:02:32Z</time>
      </trkpt>
      <trkpt lat="43.45763" lon="1.65198">
        <ele>211.15</ele>
        <time>2013-09-29T09:02:33Z</time>
      </trkpt>
      <trkpt lat="43.45757" lon="1.65194">
        <ele>209.22</ele>
        <time>2013-09-29T09:02:34Z</time>
      </trkpt>
      <trkpt lat="43.45728" lon="1.65174">
        <ele>206.34</ele>
        <time>2013-09-29T09:02:38Z</time>
      </trkpt>
      <trkpt lat="43.45712" lon="1.65148">
        <ele>202.49</ele>
        <time>2013-09-29T09:02:42Z</time>
      </trkpt>
      <trkpt lat="43.45705" lon="1.65131">
        <ele>200.09</ele>
        <time>2013-09-29T09:02:44Z</time>
      </trkpt>
      <trkpt lat="43.45697" lon="1.65104">
        <ele>196.25</ele>
        <time>2013-09-29T09:02:47Z</time>
      </trkpt>
      <trkpt lat="43.45683" lon="1.65023">
        <ele>194.8</ele>
        <time>2013-09-29T09:02:52Z</time>
      </trkpt>
      <trkpt lat="43.45683" lon="1.65009">
        <ele>193.84</ele>
        <time>2013-09-29T09:02:53Z</time>
      </trkpt>
      <trkpt lat="43.45684" lon="1.64996">
        <ele>193.84</ele>
        <time>2013-09-29T09:02:54Z</time>
      </trkpt>
      <trkpt lat="43.45697" lon="1.64893">
        <ele>192.4</ele>
        <time>2013-09-29T09:03:04Z</time>
      </trkpt>
      <trkpt lat="43.45696" lon="1.64887">
        <ele>192.4</ele>
        <time>2013-09-29T09:03:05Z</time>
      </trkpt>
      <trkpt lat="43.45692" lon="1.64884">
        <ele>192.4</ele>
        <time>2013-09-29T09:03:06Z</time>
      </trkpt>
      <trkpt lat="43.45646" lon="1.64868">
        <ele>195.77</ele>
        <time>2013-09-29T09:03:17Z</time>
      </trkpt>
      <trkpt lat="43.45612" lon="1.64858">
        <ele>197.69</ele>
        <time>2013-09-29T09:03:31Z</time>
      </trkpt>
      <trkpt lat="43.45588" lon="1.6485">
        <ele>201.05</ele>
        <time>2013-09-29T09:03:44Z</time>
      </trkpt>
      <trkpt lat="43.45565" lon="1.64846">
        <ele>204.42</ele>
        <time>2013-09-29T09:03:58Z</time>
      </trkpt>
      <trkpt lat="43.45535" lon="1.64863">
        <ele>207.3</ele>
        <time>2013-09-29T09:04:16Z</time>
      </trkpt>
      <trkpt lat="43.45507" lon="1.64857">
        <ele>208.74</ele>
        <time>2013-09-29T09:04:31Z</time>
      </trkpt>
      <trkpt lat="43.4549" lon="1.6484">
        <ele>211.63</ele>
        <time>2013-09-29T09:04:43Z</time>
      </trkpt>
      <trkpt lat="43.45471" lon="1.64825">
        <ele>214.51</ele>
        <time>2013-09-29T09:04:57Z</time>
      </trkpt>
      <trkpt lat="43.45449" lon="1.6481">
        <ele>217.4</ele>
        <time>2013-09-29T09:05:13Z</time>
      </trkpt>
      <trkpt lat="43.45428" lon="1.6479">
        <ele>220.28</ele>
        <time>2013-09-29T09:05:29Z</time>
      </trkpt>
      <trkpt lat="43.45393" lon="1.64773">
        <ele>222.2</ele>
        <time>2013-09-29T09:05:46Z</time>
      </trkpt>
      <trkpt lat="43.45353" lon="1.64762">
        <ele>221.72</ele>
        <time>2013-09-29T09:06:03Z</time>
      </trkpt>
      <trkpt lat="43.45351" lon="1.64759">
        <ele>221.72</ele>
        <time>2013-09-29T09:06:04Z</time>
      </trkpt>
      <trkpt lat="43.45315" lon="1.64703">
        <ele>219.32</ele>
        <time>2013-09-29T09:06:16Z</time>
      </trkpt>
      <trkpt lat="43.45293" lon="1.64671">
        <ele>215.95</ele>
        <time>2013-09-29T09:06:21Z</time>
      </trkpt>
      <trkpt lat="43.45287" lon="1.64664">
        <ele>215.47</ele>
        <time>2013-09-29T09:06:22Z</time>
      </trkpt>
      <trkpt lat="43.45222" lon="1.646">
        <ele>216.91</ele>
        <time>2013-09-29T09:06:35Z</time>
      </trkpt>
      <trkpt lat="43.45174" lon="1.64558">
        <ele>219.8</ele>
        <time>2013-09-29T09:06:51Z</time>
      </trkpt>
      <trkpt lat="43.45139" lon="1.64508">
        <ele>222.2</ele>
        <time>2013-09-29T09:07:06Z</time>
      </trkpt>
      <trkpt lat="43.45118" lon="1.64461">
        <ele>224.12</ele>
        <time>2013-09-29T09:07:19Z</time>
      </trkpt>
      <trkpt lat="43.45111" lon="1.64442">
        <ele>223.64</ele>
        <time>2013-09-29T09:07:23Z</time>
      </trkpt>
      <trkpt lat="43.45107" lon="1.64425">
        <ele>222.68</ele>
        <time>2013-09-29T09:07:26Z</time>
      </trkpt>
      <trkpt lat="43.45074" lon="1.64332">
        <ele>222.2</ele>
        <time>2013-09-29T09:07:43Z</time>
      </trkpt>
      <trkpt lat="43.45062" lon="1.64304">
        <ele>221.72</ele>
        <time>2013-09-29T09:07:48Z</time>
      </trkpt>
      <trkpt lat="43.45019" lon="1.64265">
        <ele>218.36</ele>
        <time>2013-09-29T09:07:57Z</time>
      </trkpt>
      <trkpt lat="43.45012" lon="1.64262">
        <ele>218.36</ele>
        <time>2013-09-29T09:07:58Z</time>
      </trkpt>
      <trkpt lat="43.44983" lon="1.64247">
        <ele>214.99</ele>
        <time>2013-09-29T09:08:02Z</time>
      </trkpt>
      <trkpt lat="43.44963" lon="1.64236">
        <ele>212.59</ele>
        <time>2013-09-29T09:08:05Z</time>
      </trkpt>
      <trkpt lat="43.44959" lon="1.64231">
        <ele>212.11</ele>
        <time>2013-09-29T09:08:06Z</time>
      </trkpt>
      <trkpt lat="43.44957" lon="1.64225">
        <ele>212.11</ele>
        <time>2013-09-29T09:08:07Z</time>
      </trkpt>
      <trkpt lat="43.44956" lon="1.64219">
        <ele>212.59</ele>
        <time>2013-09-29T09:08:08Z</time>
      </trkpt>
      <trkpt lat="43.44957" lon="1.64213">
        <ele>212.11</ele>
        <time>2013-09-29T09:08:09Z</time>
      </trkpt>
      <trkpt lat="43.44959" lon="1.64208">
        <ele>212.11</ele>
        <time>2013-09-29T09:08:10Z</time>
      </trkpt>
      <trkpt lat="43.4496" lon="1.64202">
        <ele>212.11</ele>
        <time>2013-09-29T09:08:11Z</time>
      </trkpt>
      <trkpt lat="43.44963" lon="1.64196">
        <ele>212.11</ele>
        <time>2013-09-29T09:08:12Z</time>
      </trkpt>
      <trkpt lat="43.45004" lon="1.64101">
        <ele>211.63</ele>
        <time>2013-09-29T09:08:28Z</time>
      </trkpt>
      <trkpt lat="43.45042" lon="1.64045">
        <ele>211.63</ele>
        <time>2013-09-29T09:08:38Z</time>
      </trkpt>
      <trkpt lat="43.45046" lon="1.64033">
        <ele>211.15</ele>
        <time>2013-09-29T09:08:40Z</time>
      </trkpt>
      <trkpt lat="43.45049" lon="1.64028">
        <ele>211.63</ele>
        <time>2013-09-29T09:08:41Z</time>
      </trkpt>
      <trkpt lat="43.45052" lon="1.64023">
        <ele>211.63</ele>
        <time>2013-09-29T09:08:42Z</time>
      </trkpt>
      <trkpt lat="43.45084" lon="1.63975">
        <ele>214.51</ele>
        <time>2013-09-29T09:08:55Z</time>
      </trkpt>
      <trkpt lat="43.45115" lon="1.63919">
        <ele>214.99</ele>
        <time>2013-09-29T09:09:09Z</time>
      </trkpt>
      <trkpt lat="43.45117" lon="1.63913">
        <ele>214.51</ele>
        <time>2013-09-29T09:09:10Z</time>
      </trkpt>
      <trkpt lat="43.45119" lon="1.63907">
        <ele>214.51</ele>
        <time>2013-09-29T09:09:11Z</time>
      </trkpt>
      <trkpt lat="43.45121" lon="1.63902">
        <ele>214.03</ele>
        <time>2013-09-29T09:09:12Z</time>
      </trkpt>
      <trkpt lat="43.45124" lon="1.63896">
        <ele>214.03</ele>
        <time>2013-09-29T09:09:13Z</time>
      </trkpt>
      <trkpt lat="43.45126" lon="1.63891">
        <ele>214.03</ele>
        <time>2013-09-29T09:09:14Z</time>
      </trkpt>
      <trkpt lat="43.45129" lon="1.63885">
        <ele>214.03</ele>
        <time>2013-09-29T09:09:15Z</time>
      </trkpt>
      <trkpt lat="43.45137" lon="1.6387">
        <ele>213.07</ele>
        <time>2013-09-29T09:09:18Z</time>
      </trkpt>
      <trkpt lat="43.45138" lon="1.63864">
        <ele>213.07</ele>
        <time>2013-09-29T09:09:19Z</time>
      </trkpt>
      <trkpt lat="43.45138" lon="1.6386">
        <ele>213.07</ele>
        <time>2013-09-29T09:09:20Z</time>
      </trkpt>
      <trkpt lat="43.45136" lon="1.63855">
        <ele>213.07</ele>
        <time>2013-09-29T09:09:21Z</time>
      </trkpt>
      <trkpt lat="43.45133" lon="1.63851">
        <ele>213.07</ele>
        <time>2013-09-29T09:09:22Z</time>
      </trkpt>
      <trkpt lat="43.4513" lon="1.63848">
        <ele>212.59</ele>
        <time>2013-09-29T09:09:23Z</time>
      </trkpt>
      <trkpt lat="43.45126" lon="1.63844">
        <ele>212.11</ele>
        <time>2013-09-29T09:09:24Z</time>
      </trkpt>
      <trkpt lat="43.45122" lon="1.63841">
        <ele>211.15</ele>
        <time>2013-09-29T09:09:25Z</time>
      </trkpt>
      <trkpt lat="43.45119" lon="1.63836">
        <ele>210.67</ele>
        <time>2013-09-29T09:09:26Z</time>
      </trkpt>
      <trkpt lat="43.45116" lon="1.6383">
        <ele>209.7</ele>
        <time>2013-09-29T09:09:27Z</time>
      </trkpt>
      <trkpt lat="43.45113" lon="1.63823">
        <ele>208.74</ele>
        <time>2013-09-29T09:09:28Z</time>
      </trkpt>
      <trkpt lat="43.45111" lon="1.63816">
        <ele>207.78</ele>
        <time>2013-09-29T09:09:29Z</time>
      </trkpt>
      <trkpt lat="43.4511" lon="1.63807">
        <ele>207.3</ele>
        <time>2013-09-29T09:09:30Z</time>
      </trkpt>
      <trkpt lat="43.45109" lon="1.63797">
        <ele>206.34</ele>
        <time>2013-09-29T09:09:31Z</time>
      </trkpt>
      <trkpt lat="43.4511" lon="1.63787">
        <ele>205.86</ele>
        <time>2013-09-29T09:09:32Z</time>
      </trkpt>
      <trkpt lat="43.45111" lon="1.63777">
        <ele>204.9</ele>
        <time>2013-09-29T09:09:33Z</time>
      </trkpt>
      <trkpt lat="43.45117" lon="1.63732">
        <ele>201.53</ele>
        <time>2013-09-29T09:09:37Z</time>
      </trkpt>
      <trkpt lat="43.45121" lon="1.63693">
        <ele>198.17</ele>
        <time>2013-09-29T09:09:40Z</time>
      </trkpt>
      <trkpt lat="43.45125" lon="1.63647">
        <ele>194.8</ele>
        <time>2013-09-29T09:09:44Z</time>
      </trkpt>
      <trkpt lat="43.45129" lon="1.63618">
        <ele>192.88</ele>
        <time>2013-09-29T09:09:48Z</time>
      </trkpt>
      <trkpt lat="43.45128" lon="1.63608">
        <ele>191.92</ele>
        <time>2013-09-29T09:09:50Z</time>
      </trkpt>
      <trkpt lat="43.45126" lon="1.63602">
        <ele>191.44</ele>
        <time>2013-09-29T09:09:51Z</time>
      </trkpt>
      <trkpt lat="43.45125" lon="1.63594">
        <ele>190.96</ele>
        <time>2013-09-29T09:09:52Z</time>
      </trkpt>
      <trkpt lat="43.45125" lon="1.63587">
        <ele>190.48</ele>
        <time>2013-09-29T09:09:53Z</time>
      </trkpt>
      <trkpt lat="43.45127" lon="1.63579">
        <ele>190.48</ele>
        <time>2013-09-29T09:09:54Z</time>
      </trkpt>
      <trkpt lat="43.45129" lon="1.63572">
        <ele>189.52</ele>
        <time>2013-09-29T09:09:55Z</time>
      </trkpt>
      <trkpt lat="43.45171" lon="1.63475">
        <ele>187.11</ele>
        <time>2013-09-29T09:10:08Z</time>
      </trkpt>
      <trkpt lat="43.45214" lon="1.6339">
        <ele>185.19</ele>
        <time>2013-09-29T09:10:21Z</time>
      </trkpt>
      <trkpt lat="43.45243" lon="1.63335">
        <ele>185.19</ele>
        <time>2013-09-29T09:10:32Z</time>
      </trkpt>
      <trkpt lat="43.45244" lon="1.63333">
        <ele>184.71</ele>
        <time>2013-09-29T09:10:42Z</time>
      </trkpt>
      <trkpt lat="43.45245" lon="1.63338">
        <ele>184.71</ele>
        <time>2013-09-29T09:10:56Z</time>
      </trkpt>
      <trkpt lat="43.45245" lon="1.63338">
        <ele>184.71</ele>
        <time>2013-09-29T09:11:31Z</time>
      </trkpt>
      <trkpt lat="43.45245" lon="1.63338">
        <ele>184.71</ele>
        <time>2013-09-29T09:12:09Z</time>
      </trkpt>
      <trkpt lat="43.45245" lon="1.63338">
        <ele>184.71</ele>
        <time>2013-09-29T09:12:46Z</time>
      </trkpt>
      <trkpt lat="43.45244" lon="1.63338">
        <ele>184.71</ele>
        <time>2013-09-29T09:13:22Z</time>
      </trkpt>
      <trkpt lat="43.45245" lon="1.63333">
        <ele>185.19</ele>
        <time>2013-09-29T09:13:37Z</time>
      </trkpt>
      <trkpt lat="43.45245" lon="1.63333">
        <ele>185.19</ele>
        <time>2013-09-29T09:14:03Z</time>
      </trkpt>
      <trkpt lat="43.45245" lon="1.63333">
        <ele>185.19</ele>
        <time>2013-09-29T09:14:40Z</time>
      </trkpt>
      <trkpt lat="43.45246" lon="1.63333">
        <ele>185.19</ele>
        <time>2013-09-29T09:15:03Z</time>
      </trkpt>
      <trkpt lat="43.45258" lon="1.63312">
        <ele>184.71</ele>
        <time>2013-09-29T09:15:14Z</time>
      </trkpt>
      <trkpt lat="43.45281" lon="1.63263">
        <ele>184.23</ele>
        <time>2013-09-29T09:15:29Z</time>
      </trkpt>
      <trkpt lat="43.45298" lon="1.63228">
        <ele>183.27</ele>
        <time>2013-09-29T09:15:41Z</time>
      </trkpt>
      <trkpt lat="43.45323" lon="1.63166">
        <ele>181.83</ele>
        <time>2013-09-29T09:15:55Z</time>
      </trkpt>
      <trkpt lat="43.45373" lon="1.63063">
        <ele>180.38</ele>
        <time>2013-09-29T09:16:14Z</time>
      </trkpt>
      <trkpt lat="43.45416" lon="1.62968">
        <ele>177.02</ele>
        <time>2013-09-29T09:16:29Z</time>
      </trkpt>
      <trkpt lat="43.45427" lon="1.6294">
        <ele>175.1</ele>
        <time>2013-09-29T09:16:34Z</time>
      </trkpt>
      <trkpt lat="43.45427" lon="1.62936">
        <ele>175.58</ele>
        <time>2013-09-29T09:16:35Z</time>
      </trkpt>
      <trkpt lat="43.45427" lon="1.62933">
        <ele>175.1</ele>
        <time>2013-09-29T09:16:36Z</time>
      </trkpt>
      <trkpt lat="43.45425" lon="1.62929">
        <ele>175.1</ele>
        <time>2013-09-29T09:16:37Z</time>
      </trkpt>
      <trkpt lat="43.45423" lon="1.62925">
        <ele>175.1</ele>
        <time>2013-09-29T09:16:38Z</time>
      </trkpt>
      <trkpt lat="43.45421" lon="1.62921">
        <ele>174.62</ele>
        <time>2013-09-29T09:16:39Z</time>
      </trkpt>
      <trkpt lat="43.454" lon="1.62898">
        <ele>172.69</ele>
        <time>2013-09-29T09:16:44Z</time>
      </trkpt>
      <trkpt lat="43.45381" lon="1.62877">
        <ele>170.77</ele>
        <time>2013-09-29T09:16:48Z</time>
      </trkpt>
      <trkpt lat="43.45379" lon="1.62872">
        <ele>171.25</ele>
        <time>2013-09-29T09:16:49Z</time>
      </trkpt>
      <trkpt lat="43.45379" lon="1.62868">
        <ele>171.73</ele>
        <time>2013-09-29T09:16:50Z</time>
      </trkpt>
      <trkpt lat="43.4538" lon="1.62865">
        <ele>172.21</ele>
        <time>2013-09-29T09:16:51Z</time>
      </trkpt>
      <trkpt lat="43.45383" lon="1.62863">
        <ele>172.21</ele>
        <time>2013-09-29T09:16:52Z</time>
      </trkpt>
      <trkpt lat="43.45387" lon="1.62863">
        <ele>171.73</ele>
        <time>2013-09-29T09:16:53Z</time>
      </trkpt>
      <trkpt lat="43.45391" lon="1.62864">
        <ele>171.73</ele>
        <time>2013-09-29T09:16:54Z</time>
      </trkpt>
      <trkpt lat="43.45398" lon="1.62864">
        <ele>172.21</ele>
        <time>2013-09-29T09:16:56Z</time>
      </trkpt>
      <trkpt lat="43.45403" lon="1.62863">
        <ele>172.21</ele>
        <time>2013-09-29T09:16:57Z</time>
      </trkpt>
      <trkpt lat="43.45479" lon="1.62838">
        <ele>174.14</ele>
        <time>2013-09-29T09:17:14Z</time>
      </trkpt>
      <trkpt lat="43.45508" lon="1.62826">
        <ele>174.62</ele>
        <time>2013-09-29T09:17:20Z</time>
      </trkpt>
      <trkpt lat="43.45537" lon="1.62815">
        <ele>174.62</ele>
        <time>2013-09-29T09:17:26Z</time>
      </trkpt>
      <trkpt lat="43.45623" lon="1.6279">
        <ele>172.21</ele>
        <time>2013-09-29T09:17:41Z</time>
      </trkpt>
      <trkpt lat="43.45719" lon="1.62792">
        <ele>172.69</ele>
        <time>2013-09-29T09:17:57Z</time>
      </trkpt>
      <trkpt lat="43.45804" lon="1.62814">
        <ele>174.62</ele>
        <time>2013-09-29T09:18:12Z</time>
      </trkpt>
      <trkpt lat="43.45878" lon="1.62848">
        <ele>173.17</ele>
        <time>2013-09-29T09:18:25Z</time>
      </trkpt>
      <trkpt lat="43.45903" lon="1.62866">
        <ele>173.17</ele>
        <time>2013-09-29T09:18:30Z</time>
      </trkpt>
      <trkpt lat="43.45906" lon="1.62865">
        <ele>173.17</ele>
        <time>2013-09-29T09:18:31Z</time>
      </trkpt>
      <trkpt lat="43.4591" lon="1.62861">
        <ele>172.69</ele>
        <time>2013-09-29T09:18:32Z</time>
      </trkpt>
      <trkpt lat="43.45912" lon="1.62855">
        <ele>172.69</ele>
        <time>2013-09-29T09:18:33Z</time>
      </trkpt>
      <trkpt lat="43.4594" lon="1.62776">
        <ele>171.73</ele>
        <time>2013-09-29T09:18:43Z</time>
      </trkpt>
      <trkpt lat="43.45949" lon="1.62732">
        <ele>171.73</ele>
        <time>2013-09-29T09:18:48Z</time>
      </trkpt>
      <trkpt lat="43.45982" lon="1.62678">
        <ele>172.69</ele>
        <time>2013-09-29T09:18:59Z</time>
      </trkpt>
      <trkpt lat="43.45991" lon="1.62653">
        <ele>172.21</ele>
        <time>2013-09-29T09:19:04Z</time>
      </trkpt>
      <trkpt lat="43.45994" lon="1.62641">
        <ele>172.21</ele>
        <time>2013-09-29T09:19:06Z</time>
      </trkpt>
      <trkpt lat="43.46014" lon="1.62599">
        <ele>173.17</ele>
        <time>2013-09-29T09:19:17Z</time>
      </trkpt>
      <trkpt lat="43.4604" lon="1.62605">
        <ele>176.06</ele>
        <time>2013-09-29T09:19:30Z</time>
      </trkpt>
      <trkpt lat="43.46046" lon="1.62606">
        <ele>177.02</ele>
        <time>2013-09-29T09:19:34Z</time>
      </trkpt>
      <trkpt lat="43.46058" lon="1.626">
        <ele>180.38</ele>
        <time>2013-09-29T09:19:42Z</time>
      </trkpt>
      <trkpt lat="43.46059" lon="1.62599">
        <ele>180.87</ele>
        <time>2013-09-29T09:19:43Z</time>
      </trkpt>
      <trkpt lat="43.46062" lon="1.62593">
        <ele>181.35</ele>
        <time>2013-09-29T09:19:48Z</time>
      </trkpt>
      <trkpt lat="43.46067" lon="1.62588">
        <ele>184.23</ele>
        <time>2013-09-29T09:19:54Z</time>
      </trkpt>
      <trkpt lat="43.46072" lon="1.62581">
        <ele>186.15</ele>
        <time>2013-09-29T09:20:02Z</time>
      </trkpt>
      <trkpt lat="43.46078" lon="1.62571">
        <ele>187.59</ele>
        <time>2013-09-29T09:20:10Z</time>
      </trkpt>
      <trkpt lat="43.46073" lon="1.62546">
        <ele>189.52</ele>
        <time>2013-09-29T09:20:23Z</time>
      </trkpt>
      <trkpt lat="43.46064" lon="1.62519">
        <ele>191.44</ele>
        <time>2013-09-29T09:20:38Z</time>
      </trkpt>
      <trkpt lat="43.46056" lon="1.62498">
        <ele>194.8</ele>
        <time>2013-09-29T09:20:51Z</time>
      </trkpt>
      <trkpt lat="43.46048" lon="1.62475">
        <ele>197.21</ele>
        <time>2013-09-29T09:21:05Z</time>
      </trkpt>
      <trkpt lat="43.46042" lon="1.62453">
        <ele>200.09</ele>
        <time>2013-09-29T09:21:18Z</time>
      </trkpt>
      <trkpt lat="43.46037" lon="1.62434">
        <ele>202.01</ele>
        <time>2013-09-29T09:21:31Z</time>
      </trkpt>
      <trkpt lat="43.46029" lon="1.62415">
        <ele>204.9</ele>
        <time>2013-09-29T09:21:46Z</time>
      </trkpt>
      <trkpt lat="43.46028" lon="1.62412">
        <ele>204.9</ele>
        <time>2013-09-29T09:21:48Z</time>
      </trkpt>
      <trkpt lat="43.46018" lon="1.62393">
        <ele>208.26</ele>
        <time>2013-09-29T09:22:03Z</time>
      </trkpt>
      <trkpt lat="43.46006" lon="1.62373">
        <ele>211.15</ele>
        <time>2013-09-29T09:22:19Z</time>
      </trkpt>
      <trkpt lat="43.45995" lon="1.62352">
        <ele>212.11</ele>
        <time>2013-09-29T09:22:33Z</time>
      </trkpt>
      <trkpt lat="43.4598" lon="1.62323">
        <ele>212.59</ele>
        <time>2013-09-29T09:22:48Z</time>
      </trkpt>
      <trkpt lat="43.45953" lon="1.62268">
        <ele>211.63</ele>
        <time>2013-09-29T09:23:05Z</time>
      </trkpt>
      <trkpt lat="43.45939" lon="1.62249">
        <ele>211.15</ele>
        <time>2013-09-29T09:23:10Z</time>
      </trkpt>
      <trkpt lat="43.45936" lon="1.62245">
        <ele>211.15</ele>
        <time>2013-09-29T09:23:11Z</time>
      </trkpt>
      <trkpt lat="43.45909" lon="1.62198">
        <ele>209.22</ele>
        <time>2013-09-29T09:23:21Z</time>
      </trkpt>
      <trkpt lat="43.45907" lon="1.62192">
        <ele>208.74</ele>
        <time>2013-09-29T09:23:22Z</time>
      </trkpt>
      <trkpt lat="43.45903" lon="1.6216">
        <ele>208.26</ele>
        <time>2013-09-29T09:23:28Z</time>
      </trkpt>
      <trkpt lat="43.45905" lon="1.62154">
        <ele>208.26</ele>
        <time>2013-09-29T09:23:29Z</time>
      </trkpt>
      <trkpt lat="43.45906" lon="1.62147">
        <ele>207.78</ele>
        <time>2013-09-29T09:23:30Z</time>
      </trkpt>
      <trkpt lat="43.4592" lon="1.6209">
        <ele>207.78</ele>
        <time>2013-09-29T09:23:42Z</time>
      </trkpt>
      <trkpt lat="43.45916" lon="1.62083">
        <ele>207.3</ele>
        <time>2013-09-29T09:23:47Z</time>
      </trkpt>
      <trkpt lat="43.45915" lon="1.62083">
        <ele>207.3</ele>
        <time>2013-09-29T09:24:01Z</time>
      </trkpt>
      <trkpt lat="43.45914" lon="1.62084">
        <ele>207.3</ele>
        <time>2013-09-29T09:24:29Z</time>
      </trkpt>
      <trkpt lat="43.45914" lon="1.62084">
        <ele>207.78</ele>
        <time>2013-09-29T09:25:06Z</time>
      </trkpt>
      <trkpt lat="43.45914" lon="1.62084">
        <ele>207.78</ele>
        <time>2013-09-29T09:25:42Z</time>
      </trkpt>
      <trkpt lat="43.45914" lon="1.62084">
        <ele>207.78</ele>
        <time>2013-09-29T09:26:24Z</time>
      </trkpt>
      <trkpt lat="43.45914" lon="1.62084">
        <ele>207.78</ele>
        <time>2013-09-29T09:27:12Z</time>
      </trkpt>
      <trkpt lat="43.45914" lon="1.62084">
        <ele>207.78</ele>
        <time>2013-09-29T09:27:58Z</time>
      </trkpt>
      <trkpt lat="43.45914" lon="1.62084">
        <ele>207.3</ele>
        <time>2013-09-29T09:28:43Z</time>
      </trkpt>
      <trkpt lat="43.45915" lon="1.62084">
        <ele>207.78</ele>
        <time>2013-09-29T09:29:21Z</time>
      </trkpt>
      <trkpt lat="43.45914" lon="1.62084">
        <ele>207.3</ele>
        <time>2013-09-29T09:29:56Z</time>
      </trkpt>
      <trkpt lat="43.45914" lon="1.62084">
        <ele>207.3</ele>
        <time>2013-09-29T09:30:36Z</time>
      </trkpt>
      <trkpt lat="43.45914" lon="1.62084">
        <ele>206.82</ele>
        <time>2013-09-29T09:31:16Z</time>
      </trkpt>
      <trkpt lat="43.45915" lon="1.62083">
        <ele>206.82</ele>
        <time>2013-09-29T09:31:57Z</time>
      </trkpt>
      <trkpt lat="43.45914" lon="1.62083">
        <ele>207.3</ele>
        <time>2013-09-29T09:32:32Z</time>
      </trkpt>
      <trkpt lat="43.45914" lon="1.62083">
        <ele>207.3</ele>
        <time>2013-09-29T09:33:15Z</time>
      </trkpt>
      <trkpt lat="43.45915" lon="1.62083">
        <ele>206.82</ele>
        <time>2013-09-29T09:33:56Z</time>
      </trkpt>
      <trkpt lat="43.45915" lon="1.62084">
        <ele>207.3</ele>
        <time>2013-09-29T09:34:40Z</time>
      </trkpt>
      <trkpt lat="43.45915" lon="1.62084">
        <ele>207.3</ele>
        <time>2013-09-29T09:35:17Z</time>
      </trkpt>
      <trkpt lat="43.45914" lon="1.62084">
        <ele>207.3</ele>
        <time>2013-09-29T09:35:54Z</time>
      </trkpt>
      <trkpt lat="43.45914" lon="1.62084">
        <ele>207.3</ele>
        <time>2013-09-29T09:36:27Z</time>
      </trkpt>
      <trkpt lat="43.45914" lon="1.62084">
        <ele>207.3</ele>
        <time>2013-09-29T09:36:55Z</time>
      </trkpt>
      <trkpt lat="43.45915" lon="1.62084">
        <ele>207.3</ele>
        <time>2013-09-29T09:37:29Z</time>
      </trkpt>
      <trkpt lat="43.45914" lon="1.62084">
        <ele>207.3</ele>
        <time>2013-09-29T09:38:08Z</time>
      </trkpt>
      <trkpt lat="43.45914" lon="1.62084">
        <ele>207.3</ele>
        <time>2013-09-29T09:38:44Z</time>
      </trkpt>
      <trkpt lat="43.45914" lon="1.62084">
        <ele>207.78</ele>
        <time>2013-09-29T09:39:19Z</time>
      </trkpt>
      <trkpt lat="43.45914" lon="1.62083">
        <ele>207.78</ele>
        <time>2013-09-29T09:39:56Z</time>
      </trkpt>
      <trkpt lat="43.45914" lon="1.62083">
        <ele>207.78</ele>
        <time>2013-09-29T09:40:24Z</time>
      </trkpt>
      <trkpt lat="43.45914" lon="1.62084">
        <ele>208.26</ele>
        <time>2013-09-29T09:40:48Z</time>
      </trkpt>
      <trkpt lat="43.45914" lon="1.62084">
        <ele>208.26</ele>
        <time>2013-09-29T09:41:21Z</time>
      </trkpt>
      <trkpt lat="43.45914" lon="1.62084">
        <ele>208.26</ele>
        <time>2013-09-29T09:41:53Z</time>
      </trkpt>
      <trkpt lat="43.45914" lon="1.62084">
        <ele>208.26</ele>
        <time>2013-09-29T09:42:26Z</time>
      </trkpt>
      <trkpt lat="43.45914" lon="1.62084">
        <ele>208.26</ele>
        <time>2013-09-29T09:42:43Z</time>
      </trkpt>
      <trkpt lat="43.45914" lon="1.62084">
        <ele>208.74</ele>
        <time>2013-09-29T09:43:08Z</time>
      </trkpt>
      <trkpt lat="43.45914" lon="1.62083">
        <ele>208.74</ele>
        <time>2013-09-29T09:43:39Z</time>
      </trkpt>
      <trkpt lat="43.45915" lon="1.62084">
        <ele>208.74</ele>
        <time>2013-09-29T09:44:09Z</time>
      </trkpt>
      <trkpt lat="43.45915" lon="1.62083">
        <ele>208.74</ele>
        <time>2013-09-29T09:44:39Z</time>
      </trkpt>
      <trkpt lat="43.45915" lon="1.62084">
        <ele>208.74</ele>
        <time>2013-09-29T09:45:10Z</time>
      </trkpt>
      <trkpt lat="43.45915" lon="1.62084">
        <ele>208.74</ele>
        <time>2013-09-29T09:45:38Z</time>
      </trkpt>
      <trkpt lat="43.45915" lon="1.62084">
        <ele>209.22</ele>
        <time>2013-09-29T09:46:05Z</time>
      </trkpt>
      <trkpt lat="43.45915" lon="1.62084">
        <ele>209.22</ele>
        <time>2013-09-29T09:46:25Z</time>
      </trkpt>
      <trkpt lat="43.45915" lon="1.62084">
        <ele>209.22</ele>
        <time>2013-09-29T09:46:50Z</time>
      </trkpt>
      <trkpt lat="43.45915" lon="1.62084">
        <ele>209.22</ele>
        <time>2013-09-29T09:47:26Z</time>
      </trkpt>
      <trkpt lat="43.45915" lon="1.62084">
        <ele>209.22</ele>
        <time>2013-09-29T09:48:04Z</time>
      </trkpt>
      <trkpt lat="43.45915" lon="1.62084">
        <ele>209.22</ele>
        <time>2013-09-29T09:48:26Z</time>
      </trkpt>
      <trkpt lat="43.45915" lon="1.62084">
        <ele>209.22</ele>
        <time>2013-09-29T09:48:53Z</time>
      </trkpt>
      <trkpt lat="43.45915" lon="1.62084">
        <ele>209.22</ele>
        <time>2013-09-29T09:49:36Z</time>
      </trkpt>
      <trkpt lat="43.45915" lon="1.62083">
        <ele>209.22</ele>
        <time>2013-09-29T09:50:17Z</time>
      </trkpt>
      <trkpt lat="43.45916" lon="1.62083">
        <ele>209.22</ele>
        <time>2013-09-29T09:50:53Z</time>
      </trkpt>
      <trkpt lat="43.45916" lon="1.62082">
        <ele>209.22</ele>
        <time>2013-09-29T09:51:32Z</time>
      </trkpt>
      <trkpt lat="43.45916" lon="1.62082">
        <ele>209.7</ele>
        <time>2013-09-29T09:51:49Z</time>
      </trkpt>
      <trkpt lat="43.45916" lon="1.62082">
        <ele>209.7</ele>
        <time>2013-09-29T09:52:16Z</time>
      </trkpt>
      <trkpt lat="43.45916" lon="1.62082">
        <ele>210.19</ele>
        <time>2013-09-29T09:52:48Z</time>
      </trkpt>
      <trkpt lat="43.45915" lon="1.62084">
        <ele>209.7</ele>
        <time>2013-09-29T09:53:03Z</time>
      </trkpt>
      <trkpt lat="43.45916" lon="1.62084">
        <ele>210.19</ele>
        <time>2013-09-29T09:53:39Z</time>
      </trkpt>
      <trkpt lat="43.45916" lon="1.62084">
        <ele>210.19</ele>
        <time>2013-09-29T09:54:11Z</time>
      </trkpt>
      <trkpt lat="43.45916" lon="1.62084">
        <ele>210.19</ele>
        <time>2013-09-29T09:54:43Z</time>
      </trkpt>
      <trkpt lat="43.45916" lon="1.62083">
        <ele>210.19</ele>
        <time>2013-09-29T09:55:20Z</time>
      </trkpt>
      <trkpt lat="43.45916" lon="1.62083">
        <ele>210.19</ele>
        <time>2013-09-29T09:55:55Z</time>
      </trkpt>
      <trkpt lat="43.45916" lon="1.62082">
        <ele>210.19</ele>
        <time>2013-09-29T09:56:35Z</time>
      </trkpt>
      <trkpt lat="43.45916" lon="1.62082">
        <ele>210.67</ele>
        <time>2013-09-29T09:57:13Z</time>
      </trkpt>
      <trkpt lat="43.45916" lon="1.62082">
        <ele>210.67</ele>
        <time>2013-09-29T09:57:44Z</time>
      </trkpt>
      <trkpt lat="43.45916" lon="1.62081">
        <ele>211.15</ele>
        <time>2013-09-29T09:58:20Z</time>
      </trkpt>
      <trkpt lat="43.45915" lon="1.6208">
        <ele>211.15</ele>
        <time>2013-09-29T09:59:00Z</time>
      </trkpt>
      <trkpt lat="43.45916" lon="1.6208">
        <ele>210.67</ele>
        <time>2013-09-29T09:59:38Z</time>
      </trkpt>
      <trkpt lat="43.45916" lon="1.6208">
        <ele>211.15</ele>
        <time>2013-09-29T10:00:12Z</time>
      </trkpt>
      <trkpt lat="43.45916" lon="1.6208">
        <ele>212.11</ele>
        <time>2013-09-29T10:00:43Z</time>
      </trkpt>
      <trkpt lat="43.45921" lon="1.62082">
        <ele>211.63</ele>
        <time>2013-09-29T10:00:57Z</time>
      </trkpt>
      <trkpt lat="43.45921" lon="1.62084">
        <ele>212.11</ele>
        <time>2013-09-29T10:01:10Z</time>
      </trkpt>
      <trkpt lat="43.45921" lon="1.62084">
        <ele>212.11</ele>
        <time>2013-09-29T10:01:30Z</time>
      </trkpt>
      <trkpt lat="43.45921" lon="1.62084">
        <ele>208.74</ele>
        <time>2013-09-29T10:01:44Z</time>
      </trkpt>
      <trkpt lat="43.45921" lon="1.62084">
        <ele>212.59</ele>
        <time>2013-09-29T10:01:45Z</time>
      </trkpt>
      <trkpt lat="43.45921" lon="1.62083">
        <ele>212.59</ele>
        <time>2013-09-29T10:02:11Z</time>
      </trkpt>
      <trkpt lat="43.4592" lon="1.62084">
        <ele>212.11</ele>
        <time>2013-09-29T10:02:37Z</time>
      </trkpt>
      <trkpt lat="43.45919" lon="1.62083">
        <ele>212.11</ele>
        <time>2013-09-29T10:02:59Z</time>
      </trkpt>
      <trkpt lat="43.45919" lon="1.62083">
        <ele>212.59</ele>
        <time>2013-09-29T10:03:27Z</time>
      </trkpt>
      <trkpt lat="43.45919" lon="1.62083">
        <ele>212.11</ele>
        <time>2013-09-29T10:03:56Z</time>
      </trkpt>
      <trkpt lat="43.45919" lon="1.62083">
        <ele>212.59</ele>
        <time>2013-09-29T10:04:27Z</time>
      </trkpt>
      <trkpt lat="43.45908" lon="1.62081">
        <ele>212.11</ele>
        <time>2013-09-29T10:04:56Z</time>
      </trkpt>
      <trkpt lat="43.45871" lon="1.62063">
        <ele>212.11</ele>
        <time>2013-09-29T10:05:10Z</time>
      </trkpt>
      <trkpt lat="43.45851" lon="1.62028">
        <ele>210.19</ele>
        <time>2013-09-29T10:05:19Z</time>
      </trkpt>
      <trkpt lat="43.45841" lon="1.62004">
        <ele>207.78</ele>
        <time>2013-09-29T10:05:23Z</time>
      </trkpt>
      <trkpt lat="43.45839" lon="1.61998">
        <ele>207.3</ele>
        <time>2013-09-29T10:05:24Z</time>
      </trkpt>
      <trkpt lat="43.45837" lon="1.61992">
        <ele>206.34</ele>
        <time>2013-09-29T10:05:25Z</time>
      </trkpt>
      <trkpt lat="43.45828" lon="1.61967">
        <ele>202.98</ele>
        <time>2013-09-29T10:05:29Z</time>
      </trkpt>
      <trkpt lat="43.45818" lon="1.61941">
        <ele>200.57</ele>
        <time>2013-09-29T10:05:33Z</time>
      </trkpt>
      <trkpt lat="43.45808" lon="1.61917">
        <ele>197.21</ele>
        <time>2013-09-29T10:05:36Z</time>
      </trkpt>
      <trkpt lat="43.45797" lon="1.61885">
        <ele>192.4</ele>
        <time>2013-09-29T10:05:39Z</time>
      </trkpt>
      <trkpt lat="43.45781" lon="1.61848">
        <ele>189.52</ele>
        <time>2013-09-29T10:05:42Z</time>
      </trkpt>
      <trkpt lat="43.45755" lon="1.61801">
        <ele>185.67</ele>
        <time>2013-09-29T10:05:46Z</time>
      </trkpt>
      <trkpt lat="43.45731" lon="1.61762">
        <ele>182.31</ele>
        <time>2013-09-29T10:05:50Z</time>
      </trkpt>
      <trkpt lat="43.45712" lon="1.61734">
        <ele>179.9</ele>
        <time>2013-09-29T10:05:54Z</time>
      </trkpt>
      <trkpt lat="43.45693" lon="1.6171">
        <ele>178.94</ele>
        <time>2013-09-29T10:06:02Z</time>
      </trkpt>
      <trkpt lat="43.45663" lon="1.61664">
        <ele>176.06</ele>
        <time>2013-09-29T10:06:11Z</time>
      </trkpt>
      <trkpt lat="43.45624" lon="1.61605">
        <ele>172.69</ele>
        <time>2013-09-29T10:06:21Z</time>
      </trkpt>
      <trkpt lat="43.45599" lon="1.61571">
        <ele>169.33</ele>
        <time>2013-09-29T10:06:27Z</time>
      </trkpt>
      <trkpt lat="43.45554" lon="1.61528">
        <ele>167.89</ele>
        <time>2013-09-29T10:06:36Z</time>
      </trkpt>
      <trkpt lat="43.45504" lon="1.61501">
        <ele>166.93</ele>
        <time>2013-09-29T10:06:47Z</time>
      </trkpt>
      <trkpt lat="43.45504" lon="1.61458">
        <ele>166.93</ele>
        <time>2013-09-29T10:06:58Z</time>
      </trkpt>
      <trkpt lat="43.45511" lon="1.61405">
        <ele>167.41</ele>
        <time>2013-09-29T10:07:10Z</time>
      </trkpt>
      <trkpt lat="43.45477" lon="1.61372">
        <ele>166.93</ele>
        <time>2013-09-29T10:07:20Z</time>
      </trkpt>
      <trkpt lat="43.45424" lon="1.61345">
        <ele>165.96</ele>
        <time>2013-09-29T10:07:33Z</time>
      </trkpt>
      <trkpt lat="43.45421" lon="1.61342">
        <ele>165.96</ele>
        <time>2013-09-29T10:07:34Z</time>
      </trkpt>
      <trkpt lat="43.45417" lon="1.61339">
        <ele>166.45</ele>
        <time>2013-09-29T10:07:35Z</time>
      </trkpt>
      <trkpt lat="43.45413" lon="1.61337">
        <ele>165.96</ele>
        <time>2013-09-29T10:07:36Z</time>
      </trkpt>
      <trkpt lat="43.45409" lon="1.61335">
        <ele>165.96</ele>
        <time>2013-09-29T10:07:37Z</time>
      </trkpt>
      <trkpt lat="43.45405" lon="1.61333">
        <ele>165.96</ele>
        <time>2013-09-29T10:07:38Z</time>
      </trkpt>
      <trkpt lat="43.45401" lon="1.61331">
        <ele>165.48</ele>
        <time>2013-09-29T10:07:39Z</time>
      </trkpt>
      <trkpt lat="43.45393" lon="1.61327">
        <ele>165.96</ele>
        <time>2013-09-29T10:07:41Z</time>
      </trkpt>
      <trkpt lat="43.45389" lon="1.61324">
        <ele>165.96</ele>
        <time>2013-09-29T10:07:42Z</time>
      </trkpt>
      <trkpt lat="43.45332" lon="1.61292">
        <ele>165.96</ele>
        <time>2013-09-29T10:07:55Z</time>
      </trkpt>
      <trkpt lat="43.45268" lon="1.61255">
        <ele>165</ele>
        <time>2013-09-29T10:08:11Z</time>
      </trkpt>
      <trkpt lat="43.45203" lon="1.61208">
        <ele>165.48</ele>
        <time>2013-09-29T10:08:26Z</time>
      </trkpt>
      <trkpt lat="43.45152" lon="1.61157">
        <ele>166.93</ele>
        <time>2013-09-29T10:08:42Z</time>
      </trkpt>
      <trkpt lat="43.45111" lon="1.61118">
        <ele>166.93</ele>
        <time>2013-09-29T10:08:57Z</time>
      </trkpt>
      <trkpt lat="43.4507" lon="1.61177">
        <ele>166.45</ele>
        <time>2013-09-29T10:09:10Z</time>
      </trkpt>
      <trkpt lat="43.45065" lon="1.61183">
        <ele>165.96</ele>
        <time>2013-09-29T10:09:11Z</time>
      </trkpt>
      <trkpt lat="43.45024" lon="1.6124">
        <ele>165.96</ele>
        <time>2013-09-29T10:09:22Z</time>
      </trkpt>
      <trkpt lat="43.4502" lon="1.61243">
        <ele>165.96</ele>
        <time>2013-09-29T10:09:23Z</time>
      </trkpt>
      <trkpt lat="43.45015" lon="1.61246">
        <ele>165.48</ele>
        <time>2013-09-29T10:09:24Z</time>
      </trkpt>
      <trkpt lat="43.45011" lon="1.61249">
        <ele>165.48</ele>
        <time>2013-09-29T10:09:25Z</time>
      </trkpt>
      <trkpt lat="43.45006" lon="1.61251">
        <ele>165.48</ele>
        <time>2013-09-29T10:09:26Z</time>
      </trkpt>
      <trkpt lat="43.4499" lon="1.61258">
        <ele>164.52</ele>
        <time>2013-09-29T10:09:29Z</time>
      </trkpt>
      <trkpt lat="43.44977" lon="1.61265">
        <ele>165</ele>
        <time>2013-09-29T10:09:32Z</time>
      </trkpt>
      <trkpt lat="43.44972" lon="1.61266">
        <ele>165</ele>
        <time>2013-09-29T10:09:33Z</time>
      </trkpt>
      <trkpt lat="43.44969" lon="1.61264">
        <ele>165.48</ele>
        <time>2013-09-29T10:09:34Z</time>
      </trkpt>
      <trkpt lat="43.44966" lon="1.61262">
        <ele>165.96</ele>
        <time>2013-09-29T10:09:35Z</time>
      </trkpt>
      <trkpt lat="43.44964" lon="1.61259">
        <ele>165.48</ele>
        <time>2013-09-29T10:09:36Z</time>
      </trkpt>
      <trkpt lat="43.44963" lon="1.61255">
        <ele>165.48</ele>
        <time>2013-09-29T10:09:37Z</time>
      </trkpt>
      <trkpt lat="43.44962" lon="1.6125">
        <ele>165.48</ele>
        <time>2013-09-29T10:09:38Z</time>
      </trkpt>
      <trkpt lat="43.44958" lon="1.61233">
        <ele>165</ele>
        <time>2013-09-29T10:09:41Z</time>
      </trkpt>
      <trkpt lat="43.44957" lon="1.6122">
        <ele>165.48</ele>
        <time>2013-09-29T10:09:43Z</time>
      </trkpt>
      <trkpt lat="43.44942" lon="1.61153">
        <ele>165.48</ele>
        <time>2013-09-29T10:09:54Z</time>
      </trkpt>
      <trkpt lat="43.44941" lon="1.61146">
        <ele>165.48</ele>
        <time>2013-09-29T10:09:55Z</time>
      </trkpt>
      <trkpt lat="43.44939" lon="1.61139">
        <ele>165.48</ele>
        <time>2013-09-29T10:09:56Z</time>
      </trkpt>
      <trkpt lat="43.44916" lon="1.61039">
        <ele>164.52</ele>
        <time>2013-09-29T10:10:11Z</time>
      </trkpt>
      <trkpt lat="43.44896" lon="1.60952">
        <ele>165</ele>
        <time>2013-09-29T10:10:24Z</time>
      </trkpt>
      <trkpt lat="43.44871" lon="1.60855">
        <ele>165</ele>
        <time>2013-09-29T10:10:39Z</time>
      </trkpt>
      <trkpt lat="43.44844" lon="1.6076">
        <ele>165.48</ele>
        <time>2013-09-29T10:10:55Z</time>
      </trkpt>
      <trkpt lat="43.44822" lon="1.60666">
        <ele>165.48</ele>
        <time>2013-09-29T10:11:11Z</time>
      </trkpt>
      <trkpt lat="43.448" lon="1.60595">
        <ele>166.45</ele>
        <time>2013-09-29T10:11:26Z</time>
      </trkpt>
      <trkpt lat="43.44788" lon="1.60576">
        <ele>165.96</ele>
        <time>2013-09-29T10:11:31Z</time>
      </trkpt>
      <trkpt lat="43.44787" lon="1.60571">
        <ele>165.96</ele>
        <time>2013-09-29T10:11:32Z</time>
      </trkpt>
      <trkpt lat="43.44785" lon="1.60565">
        <ele>165.48</ele>
        <time>2013-09-29T10:11:33Z</time>
      </trkpt>
      <trkpt lat="43.44785" lon="1.60559">
        <ele>165.48</ele>
        <time>2013-09-29T10:11:34Z</time>
      </trkpt>
      <trkpt lat="43.44784" lon="1.60553">
        <ele>165.48</ele>
        <time>2013-09-29T10:11:35Z</time>
      </trkpt>
      <trkpt lat="43.44784" lon="1.60547">
        <ele>165.48</ele>
        <time>2013-09-29T10:11:36Z</time>
      </trkpt>
      <trkpt lat="43.44784" lon="1.60541">
        <ele>165.48</ele>
        <time>2013-09-29T10:11:37Z</time>
      </trkpt>
      <trkpt lat="43.4477" lon="1.60449">
        <ele>165</ele>
        <time>2013-09-29T10:11:52Z</time>
      </trkpt>
      <trkpt lat="43.44741" lon="1.60362">
        <ele>165.48</ele>
        <time>2013-09-29T10:12:07Z</time>
      </trkpt>
      <trkpt lat="43.44733" lon="1.60284">
        <ele>165</ele>
        <time>2013-09-29T10:12:19Z</time>
      </trkpt>
      <trkpt lat="43.44723" lon="1.60184">
        <ele>165.48</ele>
        <time>2013-09-29T10:12:34Z</time>
      </trkpt>
      <trkpt lat="43.44723" lon="1.60177">
        <ele>165.48</ele>
        <time>2013-09-29T10:12:35Z</time>
      </trkpt>
      <trkpt lat="43.4471" lon="1.60076">
        <ele>165.96</ele>
        <time>2013-09-29T10:12:50Z</time>
      </trkpt>
      <trkpt lat="43.44697" lon="1.59975">
        <ele>168.37</ele>
        <time>2013-09-29T10:13:08Z</time>
      </trkpt>
      <trkpt lat="43.44696" lon="1.59936">
        <ele>168.85</ele>
        <time>2013-09-29T10:13:20Z</time>
      </trkpt>
      <trkpt lat="43.44698" lon="1.59934">
        <ele>168.37</ele>
        <time>2013-09-29T10:13:21Z</time>
      </trkpt>
      <trkpt lat="43.447" lon="1.59933">
        <ele>168.37</ele>
        <time>2013-09-29T10:13:22Z</time>
      </trkpt>
      <trkpt lat="43.44703" lon="1.59934">
        <ele>167.89</ele>
        <time>2013-09-29T10:13:23Z</time>
      </trkpt>
      <trkpt lat="43.44708" lon="1.59935">
        <ele>167.89</ele>
        <time>2013-09-29T10:13:24Z</time>
      </trkpt>
      <trkpt lat="43.44712" lon="1.59936">
        <ele>167.41</ele>
        <time>2013-09-29T10:13:25Z</time>
      </trkpt>
      <trkpt lat="43.44717" lon="1.59936">
        <ele>166.45</ele>
        <time>2013-09-29T10:13:26Z</time>
      </trkpt>
      <trkpt lat="43.44743" lon="1.5993">
        <ele>163.08</ele>
        <time>2013-09-29T10:13:30Z</time>
      </trkpt>
      <trkpt lat="43.44751" lon="1.59928">
        <ele>163.56</ele>
        <time>2013-09-29T10:13:31Z</time>
      </trkpt>
      <trkpt lat="43.44758" lon="1.59927">
        <ele>163.56</ele>
        <time>2013-09-29T10:13:32Z</time>
      </trkpt>
      <trkpt lat="43.44764" lon="1.59927">
        <ele>164.04</ele>
        <time>2013-09-29T10:13:33Z</time>
      </trkpt>
      <trkpt lat="43.4477" lon="1.59928">
        <ele>165</ele>
        <time>2013-09-29T10:13:34Z</time>
      </trkpt>
      <trkpt lat="43.44779" lon="1.59927">
        <ele>165.96</ele>
        <time>2013-09-29T10:13:36Z</time>
      </trkpt>
      <trkpt lat="43.4482" lon="1.59918">
        <ele>166.45</ele>
        <time>2013-09-29T10:13:46Z</time>
      </trkpt>
      <trkpt lat="43.44825" lon="1.59917">
        <ele>166.45</ele>
        <time>2013-09-29T10:13:47Z</time>
      </trkpt>
      <trkpt lat="43.44881" lon="1.59902">
        <ele>166.45</ele>
        <time>2013-09-29T10:14:00Z</time>
      </trkpt>
      <trkpt lat="43.44886" lon="1.599">
        <ele>166.45</ele>
        <time>2013-09-29T10:14:01Z</time>
      </trkpt>
      <trkpt lat="43.44891" lon="1.59898">
        <ele>166.45</ele>
        <time>2013-09-29T10:14:02Z</time>
      </trkpt>
      <trkpt lat="43.44945" lon="1.59868">
        <ele>165.96</ele>
        <time>2013-09-29T10:14:15Z</time>
      </trkpt>
      <trkpt lat="43.44953" lon="1.5986">
        <ele>165.96</ele>
        <time>2013-09-29T10:14:17Z</time>
      </trkpt>
      <trkpt lat="43.44998" lon="1.59794">
        <ele>165</ele>
        <time>2013-09-29T10:14:29Z</time>
      </trkpt>
      <trkpt lat="43.45002" lon="1.59789">
        <ele>164.52</ele>
        <time>2013-09-29T10:14:30Z</time>
      </trkpt>
      <trkpt lat="43.45005" lon="1.59783">
        <ele>165</ele>
        <time>2013-09-29T10:14:31Z</time>
      </trkpt>
      <trkpt lat="43.45009" lon="1.59777">
        <ele>164.52</ele>
        <time>2013-09-29T10:14:32Z</time>
      </trkpt>
      <trkpt lat="43.45014" lon="1.59771">
        <ele>164.52</ele>
        <time>2013-09-29T10:14:33Z</time>
      </trkpt>
      <trkpt lat="43.45018" lon="1.59765">
        <ele>165</ele>
        <time>2013-09-29T10:14:34Z</time>
      </trkpt>
      <trkpt lat="43.45022" lon="1.59758">
        <ele>164.52</ele>
        <time>2013-09-29T10:14:35Z</time>
      </trkpt>
      <trkpt lat="43.4503" lon="1.59745">
        <ele>164.52</ele>
        <time>2013-09-29T10:14:37Z</time>
      </trkpt>
      <trkpt lat="43.45034" lon="1.59739">
        <ele>164.52</ele>
        <time>2013-09-29T10:14:38Z</time>
      </trkpt>
      <trkpt lat="43.45044" lon="1.59722">
        <ele>164.52</ele>
        <time>2013-09-29T10:14:41Z</time>
      </trkpt>
      <trkpt lat="43.45052" lon="1.59704">
        <ele>163.56</ele>
        <time>2013-09-29T10:14:44Z</time>
      </trkpt>
      <trkpt lat="43.45089" lon="1.59607">
        <ele>164.04</ele>
        <time>2013-09-29T10:14:56Z</time>
      </trkpt>
      <trkpt lat="43.45095" lon="1.5959">
        <ele>163.56</ele>
        <time>2013-09-29T10:14:58Z</time>
      </trkpt>
      <trkpt lat="43.45142" lon="1.59494">
        <ele>163.08</ele>
        <time>2013-09-29T10:15:12Z</time>
      </trkpt>
      <trkpt lat="43.45174" lon="1.59455">
        <ele>163.08</ele>
        <time>2013-09-29T10:15:19Z</time>
      </trkpt>
      <trkpt lat="43.45237" lon="1.59392">
        <ele>162.6</ele>
        <time>2013-09-29T10:15:32Z</time>
      </trkpt>
      <trkpt lat="43.45313" lon="1.59351">
        <ele>162.6</ele>
        <time>2013-09-29T10:15:46Z</time>
      </trkpt>
      <trkpt lat="43.45414" lon="1.59317">
        <ele>163.08</ele>
        <time>2013-09-29T10:16:04Z</time>
      </trkpt>
      <trkpt lat="43.45472" lon="1.59295">
        <ele>163.56</ele>
        <time>2013-09-29T10:16:16Z</time>
      </trkpt>
      <trkpt lat="43.45477" lon="1.59292">
        <ele>163.56</ele>
        <time>2013-09-29T10:16:17Z</time>
      </trkpt>
      <trkpt lat="43.45511" lon="1.59253">
        <ele>163.08</ele>
        <time>2013-09-29T10:16:27Z</time>
      </trkpt>
      <trkpt lat="43.45514" lon="1.59248">
        <ele>163.56</ele>
        <time>2013-09-29T10:16:28Z</time>
      </trkpt>
      <trkpt lat="43.45541" lon="1.59184">
        <ele>164.04</ele>
        <time>2013-09-29T10:16:40Z</time>
      </trkpt>
      <trkpt lat="43.45564" lon="1.59125">
        <ele>165.48</ele>
        <time>2013-09-29T10:16:51Z</time>
      </trkpt>
      <trkpt lat="43.45569" lon="1.59106">
        <ele>165</ele>
        <time>2013-09-29T10:16:56Z</time>
      </trkpt>
      <trkpt lat="43.45569" lon="1.59099">
        <ele>164.04</ele>
        <time>2013-09-29T10:16:57Z</time>
      </trkpt>
      <trkpt lat="43.45566" lon="1.59071">
        <ele>163.08</ele>
        <time>2013-09-29T10:17:01Z</time>
      </trkpt>
      <trkpt lat="43.45566" lon="1.59065">
        <ele>163.56</ele>
        <time>2013-09-29T10:17:02Z</time>
      </trkpt>
      <trkpt lat="43.45567" lon="1.59059">
        <ele>163.08</ele>
        <time>2013-09-29T10:17:03Z</time>
      </trkpt>
      <trkpt lat="43.45568" lon="1.59053">
        <ele>163.56</ele>
        <time>2013-09-29T10:17:04Z</time>
      </trkpt>
      <trkpt lat="43.45569" lon="1.59048">
        <ele>163.56</ele>
        <time>2013-09-29T10:17:05Z</time>
      </trkpt>
      <trkpt lat="43.45572" lon="1.59021">
        <ele>163.56</ele>
        <time>2013-09-29T10:17:10Z</time>
      </trkpt>
      <trkpt lat="43.45581" lon="1.58944">
        <ele>163.56</ele>
        <time>2013-09-29T10:17:24Z</time>
      </trkpt>
      <trkpt lat="43.45586" lon="1.58885">
        <ele>162.6</ele>
        <time>2013-09-29T10:17:33Z</time>
      </trkpt>
      <trkpt lat="43.45587" lon="1.58878">
        <ele>162.6</ele>
        <time>2013-09-29T10:17:34Z</time>
      </trkpt>
      <trkpt lat="43.45587" lon="1.58863">
        <ele>163.08</ele>
        <time>2013-09-29T10:17:36Z</time>
      </trkpt>
      <trkpt lat="43.45588" lon="1.58842">
        <ele>163.08</ele>
        <time>2013-09-29T10:17:39Z</time>
      </trkpt>
      <trkpt lat="43.45592" lon="1.58789">
        <ele>162.6</ele>
        <time>2013-09-29T10:17:48Z</time>
      </trkpt>
      <trkpt lat="43.45591" lon="1.58781">
        <ele>162.6</ele>
        <time>2013-09-29T10:17:49Z</time>
      </trkpt>
      <trkpt lat="43.4559" lon="1.58774">
        <ele>162.6</ele>
        <time>2013-09-29T10:17:50Z</time>
      </trkpt>
      <trkpt lat="43.45589" lon="1.58767">
        <ele>162.6</ele>
        <time>2013-09-29T10:17:51Z</time>
      </trkpt>
      <trkpt lat="43.45589" lon="1.5876">
        <ele>162.6</ele>
        <time>2013-09-29T10:17:52Z</time>
      </trkpt>
      <trkpt lat="43.45588" lon="1.58753">
        <ele>162.6</ele>
        <time>2013-09-29T10:17:53Z</time>
      </trkpt>
      <trkpt lat="43.45588" lon="1.58745">
        <ele>162.6</ele>
        <time>2013-09-29T10:17:54Z</time>
      </trkpt>
      <trkpt lat="43.45585" lon="1.58706">
        <ele>161.64</ele>
        <time>2013-09-29T10:17:59Z</time>
      </trkpt>
      <trkpt lat="43.45583" lon="1.5869">
        <ele>162.12</ele>
        <time>2013-09-29T10:18:01Z</time>
      </trkpt>
      <trkpt lat="43.45582" lon="1.58683">
        <ele>162.12</ele>
        <time>2013-09-29T10:18:02Z</time>
      </trkpt>
      <trkpt lat="43.45571" lon="1.58595">
        <ele>162.12</ele>
        <time>2013-09-29T10:18:13Z</time>
      </trkpt>
      <trkpt lat="43.45565" lon="1.58488">
        <ele>161.64</ele>
        <time>2013-09-29T10:18:27Z</time>
      </trkpt>
      <trkpt lat="43.45566" lon="1.58465">
        <ele>161.64</ele>
        <time>2013-09-29T10:18:30Z</time>
      </trkpt>
      <trkpt lat="43.45568" lon="1.58445">
        <ele>162.12</ele>
        <time>2013-09-29T10:18:33Z</time>
      </trkpt>
      <trkpt lat="43.45569" lon="1.58438">
        <ele>163.08</ele>
        <time>2013-09-29T10:18:34Z</time>
      </trkpt>
      <trkpt lat="43.45574" lon="1.58376">
        <ele>162.12</ele>
        <time>2013-09-29T10:18:42Z</time>
      </trkpt>
      <trkpt lat="43.45575" lon="1.58368">
        <ele>162.6</ele>
        <time>2013-09-29T10:18:43Z</time>
      </trkpt>
      <trkpt lat="43.45578" lon="1.58354">
        <ele>162.6</ele>
        <time>2013-09-29T10:18:45Z</time>
      </trkpt>
      <trkpt lat="43.45591" lon="1.58315">
        <ele>162.12</ele>
        <time>2013-09-29T10:18:51Z</time>
      </trkpt>
      <trkpt lat="43.45593" lon="1.58308">
        <ele>162.6</ele>
        <time>2013-09-29T10:18:52Z</time>
      </trkpt>
      <trkpt lat="43.45614" lon="1.58266">
        <ele>162.6</ele>
        <time>2013-09-29T10:18:59Z</time>
      </trkpt>
      <trkpt lat="43.45644" lon="1.58221">
        <ele>163.08</ele>
        <time>2013-09-29T10:19:08Z</time>
      </trkpt>
      <trkpt lat="43.45664" lon="1.58194">
        <ele>163.56</ele>
        <time>2013-09-29T10:19:14Z</time>
      </trkpt>
      <trkpt lat="43.45667" lon="1.58188">
        <ele>163.08</ele>
        <time>2013-09-29T10:19:15Z</time>
      </trkpt>
      <trkpt lat="43.45706" lon="1.58122">
        <ele>162.12</ele>
        <time>2013-09-29T10:19:27Z</time>
      </trkpt>
      <trkpt lat="43.45749" lon="1.58059">
        <ele>162.6</ele>
        <time>2013-09-29T10:19:38Z</time>
      </trkpt>
      <trkpt lat="43.45797" lon="1.5797">
        <ele>162.6</ele>
        <time>2013-09-29T10:19:52Z</time>
      </trkpt>
      <trkpt lat="43.45812" lon="1.57941">
        <ele>163.56</ele>
        <time>2013-09-29T10:19:56Z</time>
      </trkpt>
      <trkpt lat="43.45816" lon="1.5793">
        <ele>164.04</ele>
        <time>2013-09-29T10:19:58Z</time>
      </trkpt>
      <trkpt lat="43.45818" lon="1.57925">
        <ele>164.04</ele>
        <time>2013-09-29T10:19:59Z</time>
      </trkpt>
      <trkpt lat="43.45837" lon="1.57877">
        <ele>164.52</ele>
        <time>2013-09-29T10:20:09Z</time>
      </trkpt>
      <trkpt lat="43.45842" lon="1.57859">
        <ele>164.52</ele>
        <time>2013-09-29T10:20:12Z</time>
      </trkpt>
      <trkpt lat="43.45854" lon="1.57825">
        <ele>164.04</ele>
        <time>2013-09-29T10:20:17Z</time>
      </trkpt>
      <trkpt lat="43.45855" lon="1.57819">
        <ele>164.04</ele>
        <time>2013-09-29T10:20:18Z</time>
      </trkpt>
      <trkpt lat="43.45858" lon="1.57812">
        <ele>163.56</ele>
        <time>2013-09-29T10:20:19Z</time>
      </trkpt>
      <trkpt lat="43.4586" lon="1.57805">
        <ele>164.04</ele>
        <time>2013-09-29T10:20:20Z</time>
      </trkpt>
      <trkpt lat="43.45862" lon="1.57797">
        <ele>163.56</ele>
        <time>2013-09-29T10:20:21Z</time>
      </trkpt>
      <trkpt lat="43.45865" lon="1.5779">
        <ele>163.56</ele>
        <time>2013-09-29T10:20:22Z</time>
      </trkpt>
      <trkpt lat="43.45884" lon="1.57738">
        <ele>162.6</ele>
        <time>2013-09-29T10:20:30Z</time>
      </trkpt>
      <trkpt lat="43.45886" lon="1.57732">
        <ele>162.6</ele>
        <time>2013-09-29T10:20:31Z</time>
      </trkpt>
      <trkpt lat="43.4589" lon="1.57718">
        <ele>162.12</ele>
        <time>2013-09-29T10:20:33Z</time>
      </trkpt>
      <trkpt lat="43.45893" lon="1.57711">
        <ele>162.12</ele>
        <time>2013-09-29T10:20:34Z</time>
      </trkpt>
      <trkpt lat="43.45928" lon="1.5763">
        <ele>163.08</ele>
        <time>2013-09-29T10:20:47Z</time>
      </trkpt>
      <trkpt lat="43.45958" lon="1.57568">
        <ele>162.6</ele>
        <time>2013-09-29T10:20:57Z</time>
      </trkpt>
      <trkpt lat="43.46005" lon="1.5748">
        <ele>162.12</ele>
        <time>2013-09-29T10:21:11Z</time>
      </trkpt>
      <trkpt lat="43.46008" lon="1.57474">
        <ele>162.12</ele>
        <time>2013-09-29T10:21:12Z</time>
      </trkpt>
      <trkpt lat="43.46052" lon="1.57398">
        <ele>164.04</ele>
        <time>2013-09-29T10:21:24Z</time>
      </trkpt>
      <trkpt lat="43.46093" lon="1.57326">
        <ele>162.12</ele>
        <time>2013-09-29T10:21:36Z</time>
      </trkpt>
      <trkpt lat="43.46143" lon="1.57246">
        <ele>162.12</ele>
        <time>2013-09-29T10:21:48Z</time>
      </trkpt>
      <trkpt lat="43.46149" lon="1.57235">
        <ele>162.12</ele>
        <time>2013-09-29T10:21:50Z</time>
      </trkpt>
      <trkpt lat="43.46201" lon="1.57169">
        <ele>160.68</ele>
        <time>2013-09-29T10:22:03Z</time>
      </trkpt>
      <trkpt lat="43.46212" lon="1.57155">
        <ele>160.2</ele>
        <time>2013-09-29T10:22:05Z</time>
      </trkpt>
      <trkpt lat="43.46217" lon="1.57149">
        <ele>159.72</ele>
        <time>2013-09-29T10:22:06Z</time>
      </trkpt>
      <trkpt lat="43.46223" lon="1.57144">
        <ele>159.24</ele>
        <time>2013-09-29T10:22:07Z</time>
      </trkpt>
      <trkpt lat="43.46282" lon="1.57092">
        <ele>159.24</ele>
        <time>2013-09-29T10:22:20Z</time>
      </trkpt>
      <trkpt lat="43.46318" lon="1.5706">
        <ele>159.24</ele>
        <time>2013-09-29T10:22:32Z</time>
      </trkpt>
      <trkpt lat="43.46327" lon="1.57052">
        <ele>159.72</ele>
        <time>2013-09-29T10:22:36Z</time>
      </trkpt>
      <trkpt lat="43.46333" lon="1.57041">
        <ele>160.2</ele>
        <time>2013-09-29T10:22:42Z</time>
      </trkpt>
      <trkpt lat="43.46333" lon="1.57039">
        <ele>159.72</ele>
        <time>2013-09-29T10:22:43Z</time>
      </trkpt>
      <trkpt lat="43.46328" lon="1.57028">
        <ele>160.2</ele>
        <time>2013-09-29T10:22:49Z</time>
      </trkpt>
      <trkpt lat="43.46328" lon="1.57028">
        <ele>159.72</ele>
        <time>2013-09-29T10:22:50Z</time>
      </trkpt>
      <trkpt lat="43.46326" lon="1.57029">
        <ele>160.2</ele>
        <time>2013-09-29T10:22:51Z</time>
      </trkpt>
      <trkpt lat="43.46325" lon="1.57029">
        <ele>160.2</ele>
        <time>2013-09-29T10:23:04Z</time>
      </trkpt>
      <trkpt lat="43.46325" lon="1.57028">
        <ele>159.72</ele>
        <time>2013-09-29T10:23:12Z</time>
      </trkpt>
      <trkpt lat="43.46324" lon="1.57027">
        <ele>159.72</ele>
        <time>2013-09-29T10:23:13Z</time>
      </trkpt>
      <trkpt lat="43.46323" lon="1.57025">
        <ele>159.72</ele>
        <time>2013-09-29T10:23:14Z</time>
      </trkpt>
      <trkpt lat="43.46323" lon="1.57023">
        <ele>159.72</ele>
        <time>2013-09-29T10:23:15Z</time>
      </trkpt>
      <trkpt lat="43.46322" lon="1.57022">
        <ele>159.72</ele>
        <time>2013-09-29T10:23:16Z</time>
      </trkpt>
      <trkpt lat="43.4632" lon="1.57022">
        <ele>159.72</ele>
        <time>2013-09-29T10:23:17Z</time>
      </trkpt>
      <trkpt lat="43.46318" lon="1.57022">
        <ele>159.72</ele>
        <time>2013-09-29T10:23:18Z</time>
      </trkpt>
      <trkpt lat="43.46295" lon="1.57041">
        <ele>159.72</ele>
        <time>2013-09-29T10:23:32Z</time>
      </trkpt>
      <trkpt lat="43.46285" lon="1.57052">
        <ele>160.68</ele>
        <time>2013-09-29T10:23:46Z</time>
      </trkpt>
      <trkpt lat="43.46284" lon="1.57053">
        <ele>160.2</ele>
        <time>2013-09-29T10:24:14Z</time>
      </trkpt>
      <trkpt lat="43.46283" lon="1.57052">
        <ele>160.2</ele>
        <time>2013-09-29T10:24:18Z</time>
      </trkpt>
      <trkpt lat="43.46282" lon="1.57051">
        <ele>160.2</ele>
        <time>2013-09-29T10:24:19Z</time>
      </trkpt>
      <trkpt lat="43.46262" lon="1.57024">
        <ele>161.16</ele>
        <time>2013-09-29T10:24:32Z</time>
      </trkpt>
      <trkpt lat="43.4624" lon="1.57033">
        <ele>161.64</ele>
        <time>2013-09-29T10:24:44Z</time>
      </trkpt>
      <trkpt lat="43.46212" lon="1.57071">
        <ele>162.12</ele>
        <time>2013-09-29T10:24:58Z</time>
      </trkpt>
      <trkpt lat="43.46185" lon="1.57069">
        <ele>163.08</ele>
        <time>2013-09-29T10:25:09Z</time>
      </trkpt>
      <trkpt lat="43.46152" lon="1.57046">
        <ele>165</ele>
        <time>2013-09-29T10:25:24Z</time>
      </trkpt>
      <trkpt lat="43.46122" lon="1.57021">
        <ele>166.93</ele>
        <time>2013-09-29T10:25:39Z</time>
      </trkpt>
      <trkpt lat="43.46084" lon="1.56992">
        <ele>168.85</ele>
        <time>2013-09-29T10:25:54Z</time>
      </trkpt>
      <trkpt lat="43.46055" lon="1.56967">
        <ele>171.25</ele>
        <time>2013-09-29T10:26:08Z</time>
      </trkpt>
      <trkpt lat="43.4602" lon="1.56941">
        <ele>173.66</ele>
        <time>2013-09-29T10:26:22Z</time>
      </trkpt>
      <trkpt lat="43.45978" lon="1.56934">
        <ele>175.58</ele>
        <time>2013-09-29T10:26:36Z</time>
      </trkpt>
      <trkpt lat="43.45946" lon="1.56956">
        <ele>177.5</ele>
        <time>2013-09-29T10:26:50Z</time>
      </trkpt>
      <trkpt lat="43.45904" lon="1.56988">
        <ele>180.87</ele>
        <time>2013-09-29T10:27:08Z</time>
      </trkpt>
      <trkpt lat="43.45868" lon="1.5702">
        <ele>182.31</ele>
        <time>2013-09-29T10:27:22Z</time>
      </trkpt>
      <trkpt lat="43.45826" lon="1.57052">
        <ele>185.19</ele>
        <time>2013-09-29T10:27:38Z</time>
      </trkpt>
      <trkpt lat="43.45793" lon="1.5705">
        <ele>186.63</ele>
        <time>2013-09-29T10:27:52Z</time>
      </trkpt>
      <trkpt lat="43.45794" lon="1.56988">
        <ele>187.59</ele>
        <time>2013-09-29T10:28:05Z</time>
      </trkpt>
      <trkpt lat="43.45814" lon="1.56915">
        <ele>188.56</ele>
        <time>2013-09-29T10:28:20Z</time>
      </trkpt>
      <trkpt lat="43.45805" lon="1.56877">
        <ele>189.52</ele>
        <time>2013-09-29T10:28:30Z</time>
      </trkpt>
      <trkpt lat="43.45765" lon="1.56817">
        <ele>190.96</ele>
        <time>2013-09-29T10:28:50Z</time>
      </trkpt>
      <trkpt lat="43.45734" lon="1.56779">
        <ele>193.36</ele>
        <time>2013-09-29T10:29:05Z</time>
      </trkpt>
      <trkpt lat="43.45693" lon="1.56738">
        <ele>194.8</ele>
        <time>2013-09-29T10:29:23Z</time>
      </trkpt>
      <trkpt lat="43.45662" lon="1.5671">
        <ele>198.17</ele>
        <time>2013-09-29T10:29:39Z</time>
      </trkpt>
      <trkpt lat="43.45641" lon="1.5669">
        <ele>200.57</ele>
        <time>2013-09-29T10:29:51Z</time>
      </trkpt>
      <trkpt lat="43.45618" lon="1.56669">
        <ele>203.94</ele>
        <time>2013-09-29T10:30:06Z</time>
      </trkpt>
      <trkpt lat="43.45588" lon="1.56641">
        <ele>206.82</ele>
        <time>2013-09-29T10:30:25Z</time>
      </trkpt>
      <trkpt lat="43.45568" lon="1.56622">
        <ele>208.74</ele>
        <time>2013-09-29T10:30:42Z</time>
      </trkpt>
      <trkpt lat="43.45568" lon="1.56622">
        <ele>208.74</ele>
        <time>2013-09-29T10:31:01Z</time>
      </trkpt>
      <trkpt lat="43.45568" lon="1.56622">
        <ele>208.74</ele>
        <time>2013-09-29T10:31:21Z</time>
      </trkpt>
      <trkpt lat="43.45568" lon="1.56622">
        <ele>208.74</ele>
        <time>2013-09-29T10:31:41Z</time>
      </trkpt>
      <trkpt lat="43.45568" lon="1.56622">
        <ele>209.22</ele>
        <time>2013-09-29T10:32:14Z</time>
      </trkpt>
      <trkpt lat="43.45568" lon="1.56621">
        <ele>208.74</ele>
        <time>2013-09-29T10:32:39Z</time>
      </trkpt>
      <trkpt lat="43.45568" lon="1.56621">
        <ele>209.22</ele>
        <time>2013-09-29T10:33:20Z</time>
      </trkpt>
      <trkpt lat="43.45567" lon="1.56621">
        <ele>208.74</ele>
        <time>2013-09-29T10:33:56Z</time>
      </trkpt>
      <trkpt lat="43.45567" lon="1.56621">
        <ele>209.22</ele>
        <time>2013-09-29T10:34:24Z</time>
      </trkpt>
      <trkpt lat="43.45567" lon="1.56621">
        <ele>209.22</ele>
        <time>2013-09-29T10:34:53Z</time>
      </trkpt>
      <trkpt lat="43.45567" lon="1.56621">
        <ele>209.22</ele>
        <time>2013-09-29T10:35:30Z</time>
      </trkpt>
      <trkpt lat="43.45568" lon="1.56621">
        <ele>209.22</ele>
        <time>2013-09-29T10:36:09Z</time>
      </trkpt>
      <trkpt lat="43.45568" lon="1.56621">
        <ele>209.22</ele>
        <time>2013-09-29T10:36:40Z</time>
      </trkpt>
      <trkpt lat="43.45549" lon="1.56588">
        <ele>206.34</ele>
        <time>2013-09-29T10:36:53Z</time>
      </trkpt>
      <trkpt lat="43.4554" lon="1.56573">
        <ele>205.38</ele>
        <time>2013-09-29T10:36:56Z</time>
      </trkpt>
      <trkpt lat="43.45528" lon="1.5655">
        <ele>202.01</ele>
        <time>2013-09-29T10:37:00Z</time>
      </trkpt>
      <trkpt lat="43.45513" lon="1.56519">
        <ele>197.69</ele>
        <time>2013-09-29T10:37:04Z</time>
      </trkpt>
      <trkpt lat="43.45495" lon="1.5648">
        <ele>193.84</ele>
        <time>2013-09-29T10:37:08Z</time>
      </trkpt>
      <trkpt lat="43.45478" lon="1.56438">
        <ele>190.48</ele>
        <time>2013-09-29T10:37:12Z</time>
      </trkpt>
      <trkpt lat="43.45459" lon="1.56403">
        <ele>186.63</ele>
        <time>2013-09-29T10:37:16Z</time>
      </trkpt>
      <trkpt lat="43.45443" lon="1.56373">
        <ele>182.79</ele>
        <time>2013-09-29T10:37:19Z</time>
      </trkpt>
      <trkpt lat="43.45431" lon="1.56349">
        <ele>180.87</ele>
        <time>2013-09-29T10:37:21Z</time>
      </trkpt>
      <trkpt lat="43.45416" lon="1.56314">
        <ele>178.46</ele>
        <time>2013-09-29T10:37:24Z</time>
      </trkpt>
      <trkpt lat="43.45414" lon="1.56302">
        <ele>178.94</ele>
        <time>2013-09-29T10:37:25Z</time>
      </trkpt>
      <trkpt lat="43.45412" lon="1.56289">
        <ele>178.94</ele>
        <time>2013-09-29T10:37:26Z</time>
      </trkpt>
      <trkpt lat="43.45413" lon="1.56217">
        <ele>181.35</ele>
        <time>2013-09-29T10:37:34Z</time>
      </trkpt>
      <trkpt lat="43.45414" lon="1.56208">
        <ele>184.23</ele>
        <time>2013-09-29T10:37:41Z</time>
      </trkpt>
      <trkpt lat="43.45403" lon="1.56193">
        <ele>187.11</ele>
        <time>2013-09-29T10:37:51Z</time>
      </trkpt>
      <trkpt lat="43.45392" lon="1.5617">
        <ele>190.48</ele>
        <time>2013-09-29T10:38:06Z</time>
      </trkpt>
      <trkpt lat="43.45377" lon="1.5615">
        <ele>193.36</ele>
        <time>2013-09-29T10:38:18Z</time>
      </trkpt>
      <trkpt lat="43.45371" lon="1.56142">
        <ele>194.32</ele>
        <time>2013-09-29T10:38:23Z</time>
      </trkpt>
      <trkpt lat="43.4537" lon="1.5614">
        <ele>194.8</ele>
        <time>2013-09-29T10:38:24Z</time>
      </trkpt>
      <trkpt lat="43.45369" lon="1.56139">
        <ele>194.8</ele>
        <time>2013-09-29T10:38:25Z</time>
      </trkpt>
      <trkpt lat="43.45367" lon="1.56137">
        <ele>194.8</ele>
        <time>2013-09-29T10:38:26Z</time>
      </trkpt>
      <trkpt lat="43.45367" lon="1.56136">
        <ele>195.28</ele>
        <time>2013-09-29T10:38:27Z</time>
      </trkpt>
      <trkpt lat="43.45366" lon="1.56135">
        <ele>195.77</ele>
        <time>2013-09-29T10:38:28Z</time>
      </trkpt>
      <trkpt lat="43.45348" lon="1.56115">
        <ele>198.65</ele>
        <time>2013-09-29T10:38:42Z</time>
      </trkpt>
      <trkpt lat="43.45334" lon="1.56096">
        <ele>201.05</ele>
        <time>2013-09-29T10:38:56Z</time>
      </trkpt>
      <trkpt lat="43.45315" lon="1.56072">
        <ele>204.42</ele>
        <time>2013-09-29T10:39:13Z</time>
      </trkpt>
      <trkpt lat="43.4531" lon="1.56065">
        <ele>206.34</ele>
        <time>2013-09-29T10:39:19Z</time>
      </trkpt>
      <trkpt lat="43.45307" lon="1.56062">
        <ele>206.82</ele>
        <time>2013-09-29T10:39:22Z</time>
      </trkpt>
      <trkpt lat="43.45306" lon="1.56061">
        <ele>206.82</ele>
        <time>2013-09-29T10:39:23Z</time>
      </trkpt>
      <trkpt lat="43.45305" lon="1.5606">
        <ele>206.82</ele>
        <time>2013-09-29T10:39:24Z</time>
      </trkpt>
      <trkpt lat="43.45304" lon="1.56059">
        <ele>207.3</ele>
        <time>2013-09-29T10:39:25Z</time>
      </trkpt>
      <trkpt lat="43.45303" lon="1.56058">
        <ele>207.3</ele>
        <time>2013-09-29T10:39:26Z</time>
      </trkpt>
      <trkpt lat="43.45302" lon="1.56057">
        <ele>207.3</ele>
        <time>2013-09-29T10:39:27Z</time>
      </trkpt>
      <trkpt lat="43.45301" lon="1.56056">
        <ele>207.78</ele>
        <time>2013-09-29T10:39:28Z</time>
      </trkpt>
      <trkpt lat="43.453" lon="1.56055">
        <ele>208.26</ele>
        <time>2013-09-29T10:39:29Z</time>
      </trkpt>
      <trkpt lat="43.45287" lon="1.56038">
        <ele>211.15</ele>
        <time>2013-09-29T10:39:44Z</time>
      </trkpt>
      <trkpt lat="43.45269" lon="1.56023">
        <ele>214.03</ele>
        <time>2013-09-29T10:40:00Z</time>
      </trkpt>
      <trkpt lat="43.45249" lon="1.56004">
        <ele>214.51</ele>
        <time>2013-09-29T10:40:18Z</time>
      </trkpt>
      <trkpt lat="43.45243" lon="1.56003">
        <ele>214.99</ele>
        <time>2013-09-29T10:40:24Z</time>
      </trkpt>
      <trkpt lat="43.45241" lon="1.56004">
        <ele>214.51</ele>
        <time>2013-09-29T10:40:25Z</time>
      </trkpt>
      <trkpt lat="43.4524" lon="1.56004">
        <ele>214.99</ele>
        <time>2013-09-29T10:40:26Z</time>
      </trkpt>
      <trkpt lat="43.45239" lon="1.56006">
        <ele>214.51</ele>
        <time>2013-09-29T10:40:27Z</time>
      </trkpt>
      <trkpt lat="43.45244" lon="1.56">
        <ele>215.47</ele>
        <time>2013-09-29T10:40:38Z</time>
      </trkpt>
      <trkpt lat="43.45243" lon="1.55998">
        <ele>214.99</ele>
        <time>2013-09-29T10:40:40Z</time>
      </trkpt>
      <trkpt lat="43.45241" lon="1.55994">
        <ele>214.99</ele>
        <time>2013-09-29T10:40:54Z</time>
      </trkpt>
      <trkpt lat="43.45237" lon="1.55988">
        <ele>214.51</ele>
        <time>2013-09-29T10:41:17Z</time>
      </trkpt>
      <trkpt lat="43.4521" lon="1.55948">
        <ele>212.59</ele>
        <time>2013-09-29T10:41:30Z</time>
      </trkpt>
      <trkpt lat="43.45171" lon="1.55914">
        <ele>214.99</ele>
        <time>2013-09-29T10:41:44Z</time>
      </trkpt>
      <trkpt lat="43.45133" lon="1.55878">
        <ele>218.36</ele>
        <time>2013-09-29T10:42:01Z</time>
      </trkpt>
      <trkpt lat="43.45102" lon="1.5585">
        <ele>219.8</ele>
        <time>2013-09-29T10:42:18Z</time>
      </trkpt>
      <trkpt lat="43.45079" lon="1.55828">
        <ele>221.24</ele>
        <time>2013-09-29T10:42:32Z</time>
      </trkpt>
      <trkpt lat="43.45032" lon="1.55783">
        <ele>221.24</ele>
        <time>2013-09-29T10:42:51Z</time>
      </trkpt>
      <trkpt lat="43.44986" lon="1.55741">
        <ele>222.2</ele>
        <time>2013-09-29T10:43:09Z</time>
      </trkpt>
      <trkpt lat="43.44958" lon="1.55716">
        <ele>225.09</ele>
        <time>2013-09-29T10:43:23Z</time>
      </trkpt>
      <trkpt lat="43.44938" lon="1.55701">
        <ele>227.97</ele>
        <time>2013-09-29T10:43:34Z</time>
      </trkpt>
      <trkpt lat="43.44913" lon="1.55684">
        <ele>230.85</ele>
        <time>2013-09-29T10:43:47Z</time>
      </trkpt>
      <trkpt lat="43.44877" lon="1.55654">
        <ele>231.33</ele>
        <time>2013-09-29T10:44:03Z</time>
      </trkpt>
      <trkpt lat="43.4487" lon="1.55617">
        <ele>230.85</ele>
        <time>2013-09-29T10:44:14Z</time>
      </trkpt>
      <trkpt lat="43.44895" lon="1.55574">
        <ele>229.89</ele>
        <time>2013-09-29T10:44:28Z</time>
      </trkpt>
      <trkpt lat="43.44907" lon="1.55554">
        <ele>230.37</ele>
        <time>2013-09-29T10:44:41Z</time>
      </trkpt>
      <trkpt lat="43.44908" lon="1.55551">
        <ele>229.89</ele>
        <time>2013-09-29T10:44:42Z</time>
      </trkpt>
      <trkpt lat="43.44899" lon="1.5554">
        <ele>229.41</ele>
        <time>2013-09-29T10:44:48Z</time>
      </trkpt>
      <trkpt lat="43.44838" lon="1.55533">
        <ele>226.53</ele>
        <time>2013-09-29T10:45:04Z</time>
      </trkpt>
      <trkpt lat="43.44828" lon="1.55532">
        <ele>225.57</ele>
        <time>2013-09-29T10:45:06Z</time>
      </trkpt>
      <trkpt lat="43.44824" lon="1.55533">
        <ele>225.57</ele>
        <time>2013-09-29T10:45:07Z</time>
      </trkpt>
      <trkpt lat="43.4476" lon="1.55543">
        <ele>227.01</ele>
        <time>2013-09-29T10:45:22Z</time>
      </trkpt>
      <trkpt lat="43.44725" lon="1.55548">
        <ele>230.37</ele>
        <time>2013-09-29T10:45:36Z</time>
      </trkpt>
      <trkpt lat="43.44698" lon="1.55552">
        <ele>233.74</ele>
        <time>2013-09-29T10:45:49Z</time>
      </trkpt>
      <trkpt lat="43.44679" lon="1.55555">
        <ele>236.62</ele>
        <time>2013-09-29T10:46:00Z</time>
      </trkpt>
      <trkpt lat="43.44677" lon="1.55555">
        <ele>237.58</ele>
        <time>2013-09-29T10:46:01Z</time>
      </trkpt>
      <trkpt lat="43.44676" lon="1.55556">
        <ele>237.58</ele>
        <time>2013-09-29T10:46:02Z</time>
      </trkpt>
      <trkpt lat="43.44674" lon="1.55556">
        <ele>238.06</ele>
        <time>2013-09-29T10:46:03Z</time>
      </trkpt>
      <trkpt lat="43.44673" lon="1.55556">
        <ele>238.06</ele>
        <time>2013-09-29T10:46:04Z</time>
      </trkpt>
      <trkpt lat="43.44671" lon="1.55556">
        <ele>238.06</ele>
        <time>2013-09-29T10:46:05Z</time>
      </trkpt>
      <trkpt lat="43.44669" lon="1.55557">
        <ele>238.54</ele>
        <time>2013-09-29T10:46:06Z</time>
      </trkpt>
      <trkpt lat="43.44668" lon="1.55557">
        <ele>239.02</ele>
        <time>2013-09-29T10:46:07Z</time>
      </trkpt>
      <trkpt lat="43.44666" lon="1.55557">
        <ele>239.51</ele>
        <time>2013-09-29T10:46:08Z</time>
      </trkpt>
      <trkpt lat="43.44649" lon="1.5556">
        <ele>241.91</ele>
        <time>2013-09-29T10:46:19Z</time>
      </trkpt>
      <trkpt lat="43.44633" lon="1.55565">
        <ele>245.27</ele>
        <time>2013-09-29T10:46:30Z</time>
      </trkpt>
      <trkpt lat="43.4461" lon="1.55577">
        <ele>247.68</ele>
        <time>2013-09-29T10:46:46Z</time>
      </trkpt>
      <trkpt lat="43.44583" lon="1.55599">
        <ele>250.08</ele>
        <time>2013-09-29T10:47:03Z</time>
      </trkpt>
      <trkpt lat="43.44556" lon="1.55638">
        <ele>250.08</ele>
        <time>2013-09-29T10:47:17Z</time>
      </trkpt>
      <trkpt lat="43.44511" lon="1.55702">
        <ele>249.12</ele>
        <time>2013-09-29T10:47:36Z</time>
      </trkpt>
      <trkpt lat="43.44465" lon="1.55769">
        <ele>247.68</ele>
        <time>2013-09-29T10:47:53Z</time>
      </trkpt>
      <trkpt lat="43.44426" lon="1.5579">
        <ele>247.2</ele>
        <time>2013-09-29T10:48:05Z</time>
      </trkpt>
      <trkpt lat="43.44391" lon="1.55751">
        <ele>249.12</ele>
        <time>2013-09-29T10:48:20Z</time>
      </trkpt>
      <trkpt lat="43.44381" lon="1.55745">
        <ele>250.56</ele>
        <time>2013-09-29T10:48:33Z</time>
      </trkpt>
      <trkpt lat="43.44381" lon="1.55745">
        <ele>250.08</ele>
        <time>2013-09-29T10:48:57Z</time>
      </trkpt>
      <trkpt lat="43.44381" lon="1.55745">
        <ele>250.08</ele>
        <time>2013-09-29T10:49:18Z</time>
      </trkpt>
      <trkpt lat="43.44381" lon="1.55745">
        <ele>250.08</ele>
        <time>2013-09-29T10:49:29Z</time>
      </trkpt>
      <trkpt lat="43.44379" lon="1.55745">
        <ele>250.08</ele>
        <time>2013-09-29T10:49:30Z</time>
      </trkpt>
      <trkpt lat="43.44378" lon="1.55745">
        <ele>250.08</ele>
        <time>2013-09-29T10:49:31Z</time>
      </trkpt>
      <trkpt lat="43.44376" lon="1.55744">
        <ele>250.08</ele>
        <time>2013-09-29T10:49:32Z</time>
      </trkpt>
      <trkpt lat="43.44375" lon="1.55743">
        <ele>250.08</ele>
        <time>2013-09-29T10:49:33Z</time>
      </trkpt>
      <trkpt lat="43.44373" lon="1.55743">
        <ele>250.08</ele>
        <time>2013-09-29T10:49:34Z</time>
      </trkpt>
      <trkpt lat="43.44371" lon="1.55742">
        <ele>250.08</ele>
        <time>2013-09-29T10:49:35Z</time>
      </trkpt>
      <trkpt lat="43.44368" lon="1.55741">
        <ele>250.08</ele>
        <time>2013-09-29T10:49:36Z</time>
      </trkpt>
      <trkpt lat="43.44365" lon="1.5574">
        <ele>250.08</ele>
        <time>2013-09-29T10:49:37Z</time>
      </trkpt>
      <trkpt lat="43.44312" lon="1.55727">
        <ele>246.72</ele>
        <time>2013-09-29T10:49:49Z</time>
      </trkpt>
      <trkpt lat="43.44251" lon="1.55711">
        <ele>244.79</ele>
        <time>2013-09-29T10:49:58Z</time>
      </trkpt>
      <trkpt lat="43.44244" lon="1.55707">
        <ele>244.79</ele>
        <time>2013-09-29T10:49:59Z</time>
      </trkpt>
      <trkpt lat="43.44237" lon="1.55701">
        <ele>243.83</ele>
        <time>2013-09-29T10:50:00Z</time>
      </trkpt>
      <trkpt lat="43.44231" lon="1.55694">
        <ele>243.35</ele>
        <time>2013-09-29T10:50:01Z</time>
      </trkpt>
      <trkpt lat="43.44226" lon="1.55686">
        <ele>243.35</ele>
        <time>2013-09-29T10:50:02Z</time>
      </trkpt>
      <trkpt lat="43.44222" lon="1.55678">
        <ele>243.83</ele>
        <time>2013-09-29T10:50:03Z</time>
      </trkpt>
      <trkpt lat="43.44218" lon="1.5567">
        <ele>244.31</ele>
        <time>2013-09-29T10:50:04Z</time>
      </trkpt>
      <trkpt lat="43.4418" lon="1.55611">
        <ele>246.23</ele>
        <time>2013-09-29T10:50:15Z</time>
      </trkpt>
      <trkpt lat="43.44169" lon="1.556">
        <ele>246.23</ele>
        <time>2013-09-29T10:50:18Z</time>
      </trkpt>
      <trkpt lat="43.44143" lon="1.55573">
        <ele>249.12</ele>
        <time>2013-09-29T10:50:26Z</time>
      </trkpt>
      <trkpt lat="43.4414" lon="1.5557">
        <ele>248.64</ele>
        <time>2013-09-29T10:50:27Z</time>
      </trkpt>
      <trkpt lat="43.44115" lon="1.55544">
        <ele>252</ele>
        <time>2013-09-29T10:50:38Z</time>
      </trkpt>
      <trkpt lat="43.44085" lon="1.55513">
        <ele>255.37</ele>
        <time>2013-09-29T10:50:52Z</time>
      </trkpt>
      <trkpt lat="43.44057" lon="1.55482">
        <ele>258.25</ele>
        <time>2013-09-29T10:51:07Z</time>
      </trkpt>
      <trkpt lat="43.44029" lon="1.55453">
        <ele>261.14</ele>
        <time>2013-09-29T10:51:22Z</time>
      </trkpt>
      <trkpt lat="43.44003" lon="1.55426">
        <ele>264.02</ele>
        <time>2013-09-29T10:51:36Z</time>
      </trkpt>
      <trkpt lat="43.43977" lon="1.55397">
        <ele>267.38</ele>
        <time>2013-09-29T10:51:52Z</time>
      </trkpt>
      <trkpt lat="43.43951" lon="1.55364">
        <ele>269.79</ele>
        <time>2013-09-29T10:52:08Z</time>
      </trkpt>
      <trkpt lat="43.43918" lon="1.55325">
        <ele>267.86</ele>
        <time>2013-09-29T10:52:20Z</time>
      </trkpt>
      <trkpt lat="43.43904" lon="1.55311">
        <ele>266.42</ele>
        <time>2013-09-29T10:52:23Z</time>
      </trkpt>
      <trkpt lat="43.43854" lon="1.55264">
        <ele>263.54</ele>
        <time>2013-09-29T10:52:32Z</time>
      </trkpt>
      <trkpt lat="43.438" lon="1.5521">
        <ele>262.1</ele>
        <time>2013-09-29T10:52:45Z</time>
      </trkpt>
      <trkpt lat="43.43787" lon="1.55197">
        <ele>260.65</ele>
        <time>2013-09-29T10:52:49Z</time>
      </trkpt>
      <trkpt lat="43.43784" lon="1.55192">
        <ele>260.17</ele>
        <time>2013-09-29T10:52:50Z</time>
      </trkpt>
      <trkpt lat="43.43779" lon="1.55185">
        <ele>259.69</ele>
        <time>2013-09-29T10:52:51Z</time>
      </trkpt>
      <trkpt lat="43.43771" lon="1.55171">
        <ele>258.73</ele>
        <time>2013-09-29T10:52:53Z</time>
      </trkpt>
      <trkpt lat="43.43766" lon="1.55164">
        <ele>258.25</ele>
        <time>2013-09-29T10:52:54Z</time>
      </trkpt>
      <trkpt lat="43.43749" lon="1.55141">
        <ele>256.33</ele>
        <time>2013-09-29T10:52:57Z</time>
      </trkpt>
      <trkpt lat="43.43737" lon="1.55125">
        <ele>254.89</ele>
        <time>2013-09-29T10:52:59Z</time>
      </trkpt>
      <trkpt lat="43.43675" lon="1.55047">
        <ele>256.81</ele>
        <time>2013-09-29T10:53:11Z</time>
      </trkpt>
      <trkpt lat="43.43671" lon="1.55043">
        <ele>257.29</ele>
        <time>2013-09-29T10:53:12Z</time>
      </trkpt>
      <trkpt lat="43.43623" lon="1.54994">
        <ele>259.21</ele>
        <time>2013-09-29T10:53:28Z</time>
      </trkpt>
      <trkpt lat="43.4359" lon="1.5496">
        <ele>256.81</ele>
        <time>2013-09-29T10:53:36Z</time>
      </trkpt>
      <trkpt lat="43.43502" lon="1.54874">
        <ele>256.33</ele>
        <time>2013-09-29T10:53:54Z</time>
      </trkpt>
      <trkpt lat="43.43468" lon="1.54849">
        <ele>259.21</ele>
        <time>2013-09-29T10:54:05Z</time>
      </trkpt>
      <trkpt lat="43.43449" lon="1.54829">
        <ele>261.62</ele>
        <time>2013-09-29T10:54:13Z</time>
      </trkpt>
      <trkpt lat="43.43426" lon="1.54807">
        <ele>264.98</ele>
        <time>2013-09-29T10:54:24Z</time>
      </trkpt>
      <trkpt lat="43.43406" lon="1.54788">
        <ele>267.86</ele>
        <time>2013-09-29T10:54:35Z</time>
      </trkpt>
      <trkpt lat="43.4339" lon="1.54772">
        <ele>271.23</ele>
        <time>2013-09-29T10:54:44Z</time>
      </trkpt>
      <trkpt lat="43.43373" lon="1.54753">
        <ele>272.67</ele>
        <time>2013-09-29T10:54:54Z</time>
      </trkpt>
      <trkpt lat="43.43351" lon="1.54734">
        <ele>274.59</ele>
        <time>2013-09-29T10:55:08Z</time>
      </trkpt>
      <trkpt lat="43.4335" lon="1.54733">
        <ele>274.11</ele>
        <time>2013-09-29T10:55:09Z</time>
      </trkpt>
      <trkpt lat="43.43348" lon="1.54732">
        <ele>274.59</ele>
        <time>2013-09-29T10:55:10Z</time>
      </trkpt>
      <trkpt lat="43.43341" lon="1.54723">
        <ele>274.11</ele>
        <time>2013-09-29T10:55:24Z</time>
      </trkpt>
      <trkpt lat="43.4334" lon="1.54723">
        <ele>275.07</ele>
        <time>2013-09-29T10:56:01Z</time>
      </trkpt>
      <trkpt lat="43.4334" lon="1.54723">
        <ele>275.56</ele>
        <time>2013-09-29T10:56:30Z</time>
      </trkpt>
      <trkpt lat="43.4334" lon="1.54723">
        <ele>275.07</ele>
        <time>2013-09-29T10:57:03Z</time>
      </trkpt>
      <trkpt lat="43.43324" lon="1.54709">
        <ele>273.15</ele>
        <time>2013-09-29T10:57:16Z</time>
      </trkpt>
      <trkpt lat="43.4329" lon="1.54682">
        <ele>270.27</ele>
        <time>2013-09-29T10:57:24Z</time>
      </trkpt>
      <trkpt lat="43.4327" lon="1.54668">
        <ele>266.42</ele>
        <time>2013-09-29T10:57:27Z</time>
      </trkpt>
      <trkpt lat="43.43245" lon="1.54651">
        <ele>263.06</ele>
        <time>2013-09-29T10:57:30Z</time>
      </trkpt>
      <trkpt lat="43.43207" lon="1.54625">
        <ele>259.21</ele>
        <time>2013-09-29T10:57:34Z</time>
      </trkpt>
      <trkpt lat="43.43177" lon="1.54605">
        <ele>257.29</ele>
        <time>2013-09-29T10:57:37Z</time>
      </trkpt>
      <trkpt lat="43.4315" lon="1.54589">
        <ele>255.85</ele>
        <time>2013-09-29T10:57:40Z</time>
      </trkpt>
      <trkpt lat="43.43101" lon="1.54572">
        <ele>252.48</ele>
        <time>2013-09-29T10:57:47Z</time>
      </trkpt>
      <trkpt lat="43.43086" lon="1.54572">
        <ele>251.04</ele>
        <time>2013-09-29T10:57:49Z</time>
      </trkpt>
      <trkpt lat="43.43042" lon="1.5457">
        <ele>247.2</ele>
        <time>2013-09-29T10:57:54Z</time>
      </trkpt>
      <trkpt lat="43.43025" lon="1.54568">
        <ele>246.72</ele>
        <time>2013-09-29T10:57:56Z</time>
      </trkpt>
      <trkpt lat="43.43008" lon="1.54564">
        <ele>245.75</ele>
        <time>2013-09-29T10:57:58Z</time>
      </trkpt>
      <trkpt lat="43.42973" lon="1.54555">
        <ele>242.39</ele>
        <time>2013-09-29T10:58:02Z</time>
      </trkpt>
      <trkpt lat="43.42913" lon="1.54542">
        <ele>239.02</ele>
        <time>2013-09-29T10:58:10Z</time>
      </trkpt>
      <trkpt lat="43.42902" lon="1.54542">
        <ele>238.06</ele>
        <time>2013-09-29T10:58:12Z</time>
      </trkpt>
      <trkpt lat="43.42871" lon="1.54549">
        <ele>234.22</ele>
        <time>2013-09-29T10:58:17Z</time>
      </trkpt>
      <trkpt lat="43.42844" lon="1.54564">
        <ele>231.33</ele>
        <time>2013-09-29T10:58:22Z</time>
      </trkpt>
      <trkpt lat="43.42839" lon="1.5457">
        <ele>230.37</ele>
        <time>2013-09-29T10:58:23Z</time>
      </trkpt>
      <trkpt lat="43.42834" lon="1.54579">
        <ele>230.37</ele>
        <time>2013-09-29T10:58:24Z</time>
      </trkpt>
      <trkpt lat="43.42807" lon="1.54636">
        <ele>227.97</ele>
        <time>2013-09-29T10:58:30Z</time>
      </trkpt>
      <trkpt lat="43.42793" lon="1.54661">
        <ele>226.53</ele>
        <time>2013-09-29T10:58:33Z</time>
      </trkpt>
      <trkpt lat="43.42762" lon="1.54731">
        <ele>222.68</ele>
        <time>2013-09-29T10:58:41Z</time>
      </trkpt>
      <trkpt lat="43.42759" lon="1.5474">
        <ele>222.68</ele>
        <time>2013-09-29T10:58:42Z</time>
      </trkpt>
      <trkpt lat="43.42719" lon="1.54856">
        <ele>220.76</ele>
        <time>2013-09-29T10:58:57Z</time>
      </trkpt>
      <trkpt lat="43.42715" lon="1.54881">
        <ele>220.76</ele>
        <time>2013-09-29T10:59:01Z</time>
      </trkpt>
      <trkpt lat="43.42713" lon="1.54885">
        <ele>220.76</ele>
        <time>2013-09-29T10:59:02Z</time>
      </trkpt>
      <trkpt lat="43.4271" lon="1.54888">
        <ele>220.76</ele>
        <time>2013-09-29T10:59:03Z</time>
      </trkpt>
      <trkpt lat="43.42707" lon="1.54889">
        <ele>220.76</ele>
        <time>2013-09-29T10:59:04Z</time>
      </trkpt>
      <trkpt lat="43.42704" lon="1.54889">
        <ele>220.28</ele>
        <time>2013-09-29T10:59:05Z</time>
      </trkpt>
      <trkpt lat="43.42701" lon="1.54889">
        <ele>220.28</ele>
        <time>2013-09-29T10:59:06Z</time>
      </trkpt>
      <trkpt lat="43.42699" lon="1.54888">
        <ele>220.76</ele>
        <time>2013-09-29T10:59:07Z</time>
      </trkpt>
      <trkpt lat="43.42696" lon="1.54887">
        <ele>220.76</ele>
        <time>2013-09-29T10:59:08Z</time>
      </trkpt>
      <trkpt lat="43.42653" lon="1.54883">
        <ele>223.64</ele>
        <time>2013-09-29T10:59:27Z</time>
      </trkpt>
      <trkpt lat="43.42616" lon="1.54887">
        <ele>226.53</ele>
        <time>2013-09-29T10:59:43Z</time>
      </trkpt>
      <trkpt lat="43.42571" lon="1.54891">
        <ele>229.41</ele>
        <time>2013-09-29T11:00:01Z</time>
      </trkpt>
      <trkpt lat="43.42536" lon="1.54895">
        <ele>232.3</ele>
        <time>2013-09-29T11:00:18Z</time>
      </trkpt>
      <trkpt lat="43.42507" lon="1.54898">
        <ele>235.18</ele>
        <time>2013-09-29T11:00:34Z</time>
      </trkpt>
      <trkpt lat="43.42484" lon="1.54899">
        <ele>238.54</ele>
        <time>2013-09-29T11:00:50Z</time>
      </trkpt>
      <trkpt lat="43.42468" lon="1.549">
        <ele>241.43</ele>
        <time>2013-09-29T11:01:04Z</time>
      </trkpt>
      <trkpt lat="43.42462" lon="1.549">
        <ele>242.87</ele>
        <time>2013-09-29T11:01:11Z</time>
      </trkpt>
      <trkpt lat="43.4245" lon="1.54903">
        <ele>245.75</ele>
        <time>2013-09-29T11:01:22Z</time>
      </trkpt>
      <trkpt lat="43.42433" lon="1.54903">
        <ele>249.12</ele>
        <time>2013-09-29T11:01:38Z</time>
      </trkpt>
      <trkpt lat="43.4242" lon="1.54904">
        <ele>252</ele>
        <time>2013-09-29T11:01:51Z</time>
      </trkpt>
      <trkpt lat="43.42404" lon="1.54904">
        <ele>254.41</ele>
        <time>2013-09-29T11:02:07Z</time>
      </trkpt>
      <trkpt lat="43.42393" lon="1.54923">
        <ele>254.89</ele>
        <time>2013-09-29T11:02:18Z</time>
      </trkpt>
      <trkpt lat="43.42392" lon="1.54923">
        <ele>254.89</ele>
        <time>2013-09-29T11:02:19Z</time>
      </trkpt>
      <trkpt lat="43.4239" lon="1.54922">
        <ele>254.89</ele>
        <time>2013-09-29T11:02:20Z</time>
      </trkpt>
      <trkpt lat="43.42389" lon="1.54921">
        <ele>255.37</ele>
        <time>2013-09-29T11:02:21Z</time>
      </trkpt>
      <trkpt lat="43.42389" lon="1.54919">
        <ele>254.89</ele>
        <time>2013-09-29T11:02:22Z</time>
      </trkpt>
      <trkpt lat="43.42389" lon="1.54917">
        <ele>255.37</ele>
        <time>2013-09-29T11:02:23Z</time>
      </trkpt>
      <trkpt lat="43.42389" lon="1.54915">
        <ele>255.37</ele>
        <time>2013-09-29T11:02:24Z</time>
      </trkpt>
      <trkpt lat="43.4239" lon="1.54913">
        <ele>255.37</ele>
        <time>2013-09-29T11:02:25Z</time>
      </trkpt>
      <trkpt lat="43.42391" lon="1.54911">
        <ele>255.37</ele>
        <time>2013-09-29T11:02:26Z</time>
      </trkpt>
      <trkpt lat="43.424" lon="1.5489">
        <ele>255.37</ele>
        <time>2013-09-29T11:02:41Z</time>
      </trkpt>
      <trkpt lat="43.424" lon="1.5489">
        <ele>255.85</ele>
        <time>2013-09-29T11:03:06Z</time>
      </trkpt>
      <trkpt lat="43.424" lon="1.5489">
        <ele>255.37</ele>
        <time>2013-09-29T11:03:35Z</time>
      </trkpt>
      <trkpt lat="43.424" lon="1.5489">
        <ele>255.85</ele>
        <time>2013-09-29T11:04:12Z</time>
      </trkpt>
      <trkpt lat="43.424" lon="1.5489">
        <ele>255.85</ele>
        <time>2013-09-29T11:04:44Z</time>
      </trkpt>
      <trkpt lat="43.424" lon="1.5489">
        <ele>255.85</ele>
        <time>2013-09-29T11:05:07Z</time>
      </trkpt>
      <trkpt lat="43.424" lon="1.5489">
        <ele>255.85</ele>
        <time>2013-09-29T11:05:39Z</time>
      </trkpt>
      <trkpt lat="43.42404" lon="1.54885">
        <ele>255.37</ele>
        <time>2013-09-29T11:05:48Z</time>
      </trkpt>
      <trkpt lat="43.42424" lon="1.54844">
        <ele>254.89</ele>
        <time>2013-09-29T11:06:02Z</time>
      </trkpt>
      <trkpt lat="43.4245" lon="1.54779">
        <ele>252.48</ele>
        <time>2013-09-29T11:06:16Z</time>
      </trkpt>
      <trkpt lat="43.42452" lon="1.54761">
        <ele>252</ele>
        <time>2013-09-29T11:06:19Z</time>
      </trkpt>
      <trkpt lat="43.42452" lon="1.54755">
        <ele>252</ele>
        <time>2013-09-29T11:06:20Z</time>
      </trkpt>
      <trkpt lat="43.4245" lon="1.5475">
        <ele>251.52</ele>
        <time>2013-09-29T11:06:21Z</time>
      </trkpt>
      <trkpt lat="43.42447" lon="1.54746">
        <ele>251.52</ele>
        <time>2013-09-29T11:06:22Z</time>
      </trkpt>
      <trkpt lat="43.42442" lon="1.54742">
        <ele>251.04</ele>
        <time>2013-09-29T11:06:23Z</time>
      </trkpt>
      <trkpt lat="43.42437" lon="1.54739">
        <ele>250.56</ele>
        <time>2013-09-29T11:06:24Z</time>
      </trkpt>
      <trkpt lat="43.42434" lon="1.54736">
        <ele>250.08</ele>
        <time>2013-09-29T11:06:25Z</time>
      </trkpt>
      <trkpt lat="43.42432" lon="1.54731">
        <ele>250.08</ele>
        <time>2013-09-29T11:06:26Z</time>
      </trkpt>
      <trkpt lat="43.42431" lon="1.54714">
        <ele>249.6</ele>
        <time>2013-09-29T11:06:29Z</time>
      </trkpt>
      <trkpt lat="43.42431" lon="1.54708">
        <ele>249.12</ele>
        <time>2013-09-29T11:06:30Z</time>
      </trkpt>
      <trkpt lat="43.42432" lon="1.54701">
        <ele>248.64</ele>
        <time>2013-09-29T11:06:31Z</time>
      </trkpt>
      <trkpt lat="43.42434" lon="1.54695">
        <ele>248.64</ele>
        <time>2013-09-29T11:06:32Z</time>
      </trkpt>
      <trkpt lat="43.42439" lon="1.54688">
        <ele>248.64</ele>
        <time>2013-09-29T11:06:33Z</time>
      </trkpt>
      <trkpt lat="43.42444" lon="1.54682">
        <ele>247.2</ele>
        <time>2013-09-29T11:06:34Z</time>
      </trkpt>
      <trkpt lat="43.42457" lon="1.54653">
        <ele>246.72</ele>
        <time>2013-09-29T11:06:38Z</time>
      </trkpt>
      <trkpt lat="43.4246" lon="1.54645">
        <ele>246.23</ele>
        <time>2013-09-29T11:06:39Z</time>
      </trkpt>
      <trkpt lat="43.42484" lon="1.54588">
        <ele>242.87</ele>
        <time>2013-09-29T11:06:46Z</time>
      </trkpt>
      <trkpt lat="43.42487" lon="1.54583">
        <ele>242.39</ele>
        <time>2013-09-29T11:06:47Z</time>
      </trkpt>
      <trkpt lat="43.42491" lon="1.5458">
        <ele>241.91</ele>
        <time>2013-09-29T11:06:48Z</time>
      </trkpt>
      <trkpt lat="43.42495" lon="1.5458">
        <ele>242.39</ele>
        <time>2013-09-29T11:06:49Z</time>
      </trkpt>
      <trkpt lat="43.42499" lon="1.54582">
        <ele>241.91</ele>
        <time>2013-09-29T11:06:50Z</time>
      </trkpt>
      <trkpt lat="43.42503" lon="1.54585">
        <ele>242.39</ele>
        <time>2013-09-29T11:06:51Z</time>
      </trkpt>
      <trkpt lat="43.42506" lon="1.54587">
        <ele>242.39</ele>
        <time>2013-09-29T11:06:52Z</time>
      </trkpt>
      <trkpt lat="43.42509" lon="1.54591">
        <ele>241.91</ele>
        <time>2013-09-29T11:06:53Z</time>
      </trkpt>
      <trkpt lat="43.42517" lon="1.54596">
        <ele>241.43</ele>
        <time>2013-09-29T11:06:55Z</time>
      </trkpt>
      <trkpt lat="43.42521" lon="1.54596">
        <ele>240.95</ele>
        <time>2013-09-29T11:06:56Z</time>
      </trkpt>
      <trkpt lat="43.42525" lon="1.54593">
        <ele>240.47</ele>
        <time>2013-09-29T11:06:57Z</time>
      </trkpt>
      <trkpt lat="43.42528" lon="1.54588">
        <ele>239.99</ele>
        <time>2013-09-29T11:06:58Z</time>
      </trkpt>
      <trkpt lat="43.42531" lon="1.54581">
        <ele>239.02</ele>
        <time>2013-09-29T11:06:59Z</time>
      </trkpt>
      <trkpt lat="43.42533" lon="1.54574">
        <ele>238.54</ele>
        <time>2013-09-29T11:07:00Z</time>
      </trkpt>
      <trkpt lat="43.42536" lon="1.54566">
        <ele>238.54</ele>
        <time>2013-09-29T11:07:01Z</time>
      </trkpt>
      <trkpt lat="43.42559" lon="1.54506">
        <ele>234.7</ele>
        <time>2013-09-29T11:07:08Z</time>
      </trkpt>
      <trkpt lat="43.42575" lon="1.54465">
        <ele>231.33</ele>
        <time>2013-09-29T11:07:12Z</time>
      </trkpt>
      <trkpt lat="43.4258" lon="1.54455">
        <ele>231.33</ele>
        <time>2013-09-29T11:07:13Z</time>
      </trkpt>
      <trkpt lat="43.42584" lon="1.54447">
        <ele>231.33</ele>
        <time>2013-09-29T11:07:14Z</time>
      </trkpt>
      <trkpt lat="43.42588" lon="1.5444">
        <ele>230.37</ele>
        <time>2013-09-29T11:07:15Z</time>
      </trkpt>
      <trkpt lat="43.42591" lon="1.54435">
        <ele>230.37</ele>
        <time>2013-09-29T11:07:16Z</time>
      </trkpt>
      <trkpt lat="43.42594" lon="1.5443">
        <ele>230.37</ele>
        <time>2013-09-29T11:07:17Z</time>
      </trkpt>
      <trkpt lat="43.42596" lon="1.54425">
        <ele>229.89</ele>
        <time>2013-09-29T11:07:18Z</time>
      </trkpt>
      <trkpt lat="43.42596" lon="1.5442">
        <ele>229.89</ele>
        <time>2013-09-29T11:07:19Z</time>
      </trkpt>
      <trkpt lat="43.42595" lon="1.54416">
        <ele>229.89</ele>
        <time>2013-09-29T11:07:20Z</time>
      </trkpt>
      <trkpt lat="43.42593" lon="1.54413">
        <ele>229.89</ele>
        <time>2013-09-29T11:07:21Z</time>
      </trkpt>
      <trkpt lat="43.42592" lon="1.54411">
        <ele>229.89</ele>
        <time>2013-09-29T11:07:22Z</time>
      </trkpt>
      <trkpt lat="43.4259" lon="1.54411">
        <ele>229.89</ele>
        <time>2013-09-29T11:07:23Z</time>
      </trkpt>
      <trkpt lat="43.42588" lon="1.54409">
        <ele>229.89</ele>
        <time>2013-09-29T11:07:24Z</time>
      </trkpt>
      <trkpt lat="43.42586" lon="1.54408">
        <ele>229.89</ele>
        <time>2013-09-29T11:07:25Z</time>
      </trkpt>
      <trkpt lat="43.42584" lon="1.54407">
        <ele>229.89</ele>
        <time>2013-09-29T11:07:26Z</time>
      </trkpt>
      <trkpt lat="43.42583" lon="1.54407">
        <ele>229.41</ele>
        <time>2013-09-29T11:07:27Z</time>
      </trkpt>
      <trkpt lat="43.42581" lon="1.54406">
        <ele>229.89</ele>
        <time>2013-09-29T11:07:28Z</time>
      </trkpt>
      <trkpt lat="43.4258" lon="1.54404">
        <ele>229.89</ele>
        <time>2013-09-29T11:07:29Z</time>
      </trkpt>
      <trkpt lat="43.42578" lon="1.54402">
        <ele>229.41</ele>
        <time>2013-09-29T11:07:30Z</time>
      </trkpt>
      <trkpt lat="43.42577" lon="1.54399">
        <ele>228.93</ele>
        <time>2013-09-29T11:07:31Z</time>
      </trkpt>
      <trkpt lat="43.42576" lon="1.54396">
        <ele>228.93</ele>
        <time>2013-09-29T11:07:32Z</time>
      </trkpt>
      <trkpt lat="43.42564" lon="1.54375">
        <ele>225.57</ele>
        <time>2013-09-29T11:07:39Z</time>
      </trkpt>
      <trkpt lat="43.42558" lon="1.54362">
        <ele>222.2</ele>
        <time>2013-09-29T11:07:42Z</time>
      </trkpt>
      <trkpt lat="43.42557" lon="1.54356">
        <ele>221.72</ele>
        <time>2013-09-29T11:07:43Z</time>
      </trkpt>
      <trkpt lat="43.42556" lon="1.54349">
        <ele>221.24</ele>
        <time>2013-09-29T11:07:44Z</time>
      </trkpt>
      <trkpt lat="43.42555" lon="1.54344">
        <ele>220.76</ele>
        <time>2013-09-29T11:07:45Z</time>
      </trkpt>
      <trkpt lat="43.42548" lon="1.54321">
        <ele>224.61</ele>
        <time>2013-09-29T11:07:54Z</time>
      </trkpt>
      <trkpt lat="43.42545" lon="1.54316">
        <ele>225.09</ele>
        <time>2013-09-29T11:08:08Z</time>
      </trkpt>
      <trkpt lat="43.42544" lon="1.54311">
        <ele>226.53</ele>
        <time>2013-09-29T11:08:13Z</time>
      </trkpt>
      <trkpt lat="43.42537" lon="1.54301">
        <ele>229.41</ele>
        <time>2013-09-29T11:08:26Z</time>
      </trkpt>
      <trkpt lat="43.42534" lon="1.54289">
        <ele>231.33</ele>
        <time>2013-09-29T11:08:44Z</time>
      </trkpt>
      <trkpt lat="43.42532" lon="1.54284">
        <ele>231.33</ele>
        <time>2013-09-29T11:09:00Z</time>
      </trkpt>
      <trkpt lat="43.42518" lon="1.54264">
        <ele>233.26</ele>
        <time>2013-09-29T11:09:16Z</time>
      </trkpt>
      <trkpt lat="43.42514" lon="1.54256">
        <ele>234.22</ele>
        <time>2013-09-29T11:09:21Z</time>
      </trkpt>
      <trkpt lat="43.42513" lon="1.54255">
        <ele>234.22</ele>
        <time>2013-09-29T11:09:22Z</time>
      </trkpt>
      <trkpt lat="43.42511" lon="1.54254">
        <ele>234.22</ele>
        <time>2013-09-29T11:09:23Z</time>
      </trkpt>
      <trkpt lat="43.4251" lon="1.54253">
        <ele>234.7</ele>
        <time>2013-09-29T11:09:24Z</time>
      </trkpt>
      <trkpt lat="43.42509" lon="1.54252">
        <ele>234.7</ele>
        <time>2013-09-29T11:09:25Z</time>
      </trkpt>
      <trkpt lat="43.42505" lon="1.54245">
        <ele>236.14</ele>
        <time>2013-09-29T11:09:30Z</time>
      </trkpt>
      <trkpt lat="43.42504" lon="1.54244">
        <ele>236.14</ele>
        <time>2013-09-29T11:09:31Z</time>
      </trkpt>
      <trkpt lat="43.42502" lon="1.54243">
        <ele>236.62</ele>
        <time>2013-09-29T11:09:32Z</time>
      </trkpt>
      <trkpt lat="43.42492" lon="1.54232">
        <ele>239.02</ele>
        <time>2013-09-29T11:09:42Z</time>
      </trkpt>
      <trkpt lat="43.42474" lon="1.54213">
        <ele>241.43</ele>
        <time>2013-09-29T11:09:57Z</time>
      </trkpt>
      <trkpt lat="43.42452" lon="1.5419">
        <ele>242.39</ele>
        <time>2013-09-29T11:10:12Z</time>
      </trkpt>
      <trkpt lat="43.42429" lon="1.54164">
        <ele>243.35</ele>
        <time>2013-09-29T11:10:26Z</time>
      </trkpt>
      <trkpt lat="43.42426" lon="1.54147">
        <ele>244.31</ele>
        <time>2013-09-29T11:10:33Z</time>
      </trkpt>
      <trkpt lat="43.42428" lon="1.54144">
        <ele>244.31</ele>
        <time>2013-09-29T11:10:34Z</time>
      </trkpt>
      <trkpt lat="43.4243" lon="1.54141">
        <ele>243.83</ele>
        <time>2013-09-29T11:10:35Z</time>
      </trkpt>
      <trkpt lat="43.42458" lon="1.54089">
        <ele>240.47</ele>
        <time>2013-09-29T11:10:46Z</time>
      </trkpt>
      <trkpt lat="43.42467" lon="1.54069">
        <ele>240.47</ele>
        <time>2013-09-29T11:10:49Z</time>
      </trkpt>
      <trkpt lat="43.42469" lon="1.54063">
        <ele>239.99</ele>
        <time>2013-09-29T11:10:50Z</time>
      </trkpt>
      <trkpt lat="43.42469" lon="1.54057">
        <ele>239.51</ele>
        <time>2013-09-29T11:10:51Z</time>
      </trkpt>
      <trkpt lat="43.42466" lon="1.54052">
        <ele>240.47</ele>
        <time>2013-09-29T11:10:52Z</time>
      </trkpt>
      <trkpt lat="43.42463" lon="1.5405">
        <ele>240.47</ele>
        <time>2013-09-29T11:10:53Z</time>
      </trkpt>
      <trkpt lat="43.4246" lon="1.54049">
        <ele>240.95</ele>
        <time>2013-09-29T11:10:54Z</time>
      </trkpt>
      <trkpt lat="43.42457" lon="1.54048">
        <ele>240.95</ele>
        <time>2013-09-29T11:10:55Z</time>
      </trkpt>
      <trkpt lat="43.42455" lon="1.54047">
        <ele>241.43</ele>
        <time>2013-09-29T11:10:56Z</time>
      </trkpt>
      <trkpt lat="43.42434" lon="1.54042">
        <ele>244.31</ele>
        <time>2013-09-29T11:11:09Z</time>
      </trkpt>
      <trkpt lat="43.42416" lon="1.54034">
        <ele>247.68</ele>
        <time>2013-09-29T11:11:23Z</time>
      </trkpt>
      <trkpt lat="43.42398" lon="1.54028">
        <ele>250.56</ele>
        <time>2013-09-29T11:11:37Z</time>
      </trkpt>
      <trkpt lat="43.42379" lon="1.54021">
        <ele>252.48</ele>
        <time>2013-09-29T11:11:51Z</time>
      </trkpt>
      <trkpt lat="43.42355" lon="1.54012">
        <ele>255.85</ele>
        <time>2013-09-29T11:12:10Z</time>
      </trkpt>
      <trkpt lat="43.42336" lon="1.54003">
        <ele>258.73</ele>
        <time>2013-09-29T11:12:26Z</time>
      </trkpt>
      <trkpt lat="43.42313" lon="1.53992">
        <ele>261.62</ele>
        <time>2013-09-29T11:12:43Z</time>
      </trkpt>
      <trkpt lat="43.42289" lon="1.53977">
        <ele>262.58</ele>
        <time>2013-09-29T11:12:59Z</time>
      </trkpt>
      <trkpt lat="43.4228" lon="1.53957">
        <ele>259.21</ele>
        <time>2013-09-29T11:13:07Z</time>
      </trkpt>
      <trkpt lat="43.42287" lon="1.53936">
        <ele>255.85</ele>
        <time>2013-09-29T11:13:10Z</time>
      </trkpt>
      <trkpt lat="43.42292" lon="1.53929">
        <ele>255.37</ele>
        <time>2013-09-29T11:13:11Z</time>
      </trkpt>
      <trkpt lat="43.42304" lon="1.53911">
        <ele>252.96</ele>
        <time>2013-09-29T11:13:13Z</time>
      </trkpt>
      <trkpt lat="43.4233" lon="1.53876">
        <ele>251.04</ele>
        <time>2013-09-29T11:13:16Z</time>
      </trkpt>
      <trkpt lat="43.42345" lon="1.53853">
        <ele>247.68</ele>
        <time>2013-09-29T11:13:18Z</time>
      </trkpt>
      <trkpt lat="43.42366" lon="1.53817">
        <ele>244.79</ele>
        <time>2013-09-29T11:13:21Z</time>
      </trkpt>
      <trkpt lat="43.42384" lon="1.53783">
        <ele>241.43</ele>
        <time>2013-09-29T11:13:24Z</time>
      </trkpt>
      <trkpt lat="43.42402" lon="1.5375">
        <ele>238.06</ele>
        <time>2013-09-29T11:13:27Z</time>
      </trkpt>
      <trkpt lat="43.42414" lon="1.53728">
        <ele>237.1</ele>
        <time>2013-09-29T11:13:29Z</time>
      </trkpt>
      <trkpt lat="43.42418" lon="1.53717">
        <ele>237.1</ele>
        <time>2013-09-29T11:13:30Z</time>
      </trkpt>
      <trkpt lat="43.42419" lon="1.53706">
        <ele>236.62</ele>
        <time>2013-09-29T11:13:31Z</time>
      </trkpt>
      <trkpt lat="43.42419" lon="1.53695">
        <ele>236.62</ele>
        <time>2013-09-29T11:13:32Z</time>
      </trkpt>
      <trkpt lat="43.42419" lon="1.53684">
        <ele>237.1</ele>
        <time>2013-09-29T11:13:33Z</time>
      </trkpt>
      <trkpt lat="43.42418" lon="1.53675">
        <ele>237.58</ele>
        <time>2013-09-29T11:13:34Z</time>
      </trkpt>
      <trkpt lat="43.42416" lon="1.53668">
        <ele>238.54</ele>
        <time>2013-09-29T11:13:35Z</time>
      </trkpt>
      <trkpt lat="43.42413" lon="1.53664">
        <ele>239.51</ele>
        <time>2013-09-29T11:13:36Z</time>
      </trkpt>
      <trkpt lat="43.42411" lon="1.53662">
        <ele>239.99</ele>
        <time>2013-09-29T11:13:37Z</time>
      </trkpt>
      <trkpt lat="43.42408" lon="1.53661">
        <ele>239.99</ele>
        <time>2013-09-29T11:13:38Z</time>
      </trkpt>
      <trkpt lat="43.42406" lon="1.53661">
        <ele>240.47</ele>
        <time>2013-09-29T11:13:39Z</time>
      </trkpt>
      <trkpt lat="43.42404" lon="1.53662">
        <ele>240.95</ele>
        <time>2013-09-29T11:13:40Z</time>
      </trkpt>
      <trkpt lat="43.42403" lon="1.53663">
        <ele>240.95</ele>
        <time>2013-09-29T11:13:41Z</time>
      </trkpt>
      <trkpt lat="43.42401" lon="1.53665">
        <ele>241.43</ele>
        <time>2013-09-29T11:13:42Z</time>
      </trkpt>
      <trkpt lat="43.424" lon="1.53665">
        <ele>241.43</ele>
        <time>2013-09-29T11:13:43Z</time>
      </trkpt>
      <trkpt lat="43.42381" lon="1.53676">
        <ele>244.31</ele>
        <time>2013-09-29T11:14:01Z</time>
      </trkpt>
      <trkpt lat="43.42368" lon="1.5368">
        <ele>247.2</ele>
        <time>2013-09-29T11:14:13Z</time>
      </trkpt>
      <trkpt lat="43.42352" lon="1.53685">
        <ele>250.08</ele>
        <time>2013-09-29T11:14:27Z</time>
      </trkpt>
      <trkpt lat="43.4235" lon="1.53686">
        <ele>250.56</ele>
        <time>2013-09-29T11:14:28Z</time>
      </trkpt>
      <trkpt lat="43.42337" lon="1.5369">
        <ele>253.44</ele>
        <time>2013-09-29T11:14:41Z</time>
      </trkpt>
      <trkpt lat="43.42336" lon="1.53689">
        <ele>253.44</ele>
        <time>2013-09-29T11:14:42Z</time>
      </trkpt>
      <trkpt lat="43.42321" lon="1.53694">
        <ele>256.33</ele>
        <time>2013-09-29T11:14:57Z</time>
      </trkpt>
      <trkpt lat="43.42303" lon="1.537">
        <ele>259.69</ele>
        <time>2013-09-29T11:15:15Z</time>
      </trkpt>
      <trkpt lat="43.42282" lon="1.53701">
        <ele>262.58</ele>
        <time>2013-09-29T11:15:33Z</time>
      </trkpt>
      <trkpt lat="43.42273" lon="1.53699">
        <ele>262.58</ele>
        <time>2013-09-29T11:15:41Z</time>
      </trkpt>
      <trkpt lat="43.42271" lon="1.53698">
        <ele>262.58</ele>
        <time>2013-09-29T11:15:55Z</time>
      </trkpt>
      <trkpt lat="43.42271" lon="1.53698">
        <ele>263.06</ele>
        <time>2013-09-29T11:16:18Z</time>
      </trkpt>
      <trkpt lat="43.42271" lon="1.53698">
        <ele>263.54</ele>
        <time>2013-09-29T11:16:53Z</time>
      </trkpt>
      <trkpt lat="43.42271" lon="1.53698">
        <ele>263.54</ele>
        <time>2013-09-29T11:17:23Z</time>
      </trkpt>
      <trkpt lat="43.42271" lon="1.53698">
        <ele>263.54</ele>
        <time>2013-09-29T11:17:56Z</time>
      </trkpt>
      <trkpt lat="43.42271" lon="1.53698">
        <ele>263.54</ele>
        <time>2013-09-29T11:18:31Z</time>
      </trkpt>
      <trkpt lat="43.42271" lon="1.53698">
        <ele>263.06</ele>
        <time>2013-09-29T11:19:08Z</time>
      </trkpt>
      <trkpt lat="43.42271" lon="1.53698">
        <ele>263.06</ele>
        <time>2013-09-29T11:19:41Z</time>
      </trkpt>
      <trkpt lat="43.42271" lon="1.53698">
        <ele>263.06</ele>
        <time>2013-09-29T11:20:14Z</time>
      </trkpt>
      <trkpt lat="43.42271" lon="1.53698">
        <ele>263.06</ele>
        <time>2013-09-29T11:20:48Z</time>
      </trkpt>
      <trkpt lat="43.42271" lon="1.53696">
        <ele>263.06</ele>
        <time>2013-09-29T11:21:05Z</time>
      </trkpt>
      <trkpt lat="43.42271" lon="1.53693">
        <ele>262.58</ele>
        <time>2013-09-29T11:21:06Z</time>
      </trkpt>
      <trkpt lat="43.42271" lon="1.53691">
        <ele>262.58</ele>
        <time>2013-09-29T11:21:07Z</time>
      </trkpt>
      <trkpt lat="43.42273" lon="1.5364">
        <ele>261.62</ele>
        <time>2013-09-29T11:21:20Z</time>
      </trkpt>
      <trkpt lat="43.42272" lon="1.5357">
        <ele>261.14</ele>
        <time>2013-09-29T11:21:37Z</time>
      </trkpt>
      <trkpt lat="43.42255" lon="1.53487">
        <ele>258.25</ele>
        <time>2013-09-29T11:21:49Z</time>
      </trkpt>
      <trkpt lat="43.42253" lon="1.5348">
        <ele>257.77</ele>
        <time>2013-09-29T11:21:50Z</time>
      </trkpt>
      <trkpt lat="43.42251" lon="1.53471">
        <ele>257.29</ele>
        <time>2013-09-29T11:21:51Z</time>
      </trkpt>
      <trkpt lat="43.4225" lon="1.53462">
        <ele>257.29</ele>
        <time>2013-09-29T11:21:52Z</time>
      </trkpt>
      <trkpt lat="43.4225" lon="1.53452">
        <ele>256.81</ele>
        <time>2013-09-29T11:21:53Z</time>
      </trkpt>
      <trkpt lat="43.4225" lon="1.53369">
        <ele>253.44</ele>
        <time>2013-09-29T11:22:01Z</time>
      </trkpt>
      <trkpt lat="43.42247" lon="1.53239">
        <ele>252</ele>
        <time>2013-09-29T11:22:16Z</time>
      </trkpt>
      <trkpt lat="43.42246" lon="1.53151">
        <ele>248.64</ele>
        <time>2013-09-29T11:22:25Z</time>
      </trkpt>
      <trkpt lat="43.42245" lon="1.53095">
        <ele>246.72</ele>
        <time>2013-09-29T11:22:30Z</time>
      </trkpt>
      <trkpt lat="43.42245" lon="1.53015">
        <ele>243.83</ele>
        <time>2013-09-29T11:22:37Z</time>
      </trkpt>
      <trkpt lat="43.42245" lon="1.52913">
        <ele>240.47</ele>
        <time>2013-09-29T11:22:46Z</time>
      </trkpt>
      <trkpt lat="43.42243" lon="1.52803">
        <ele>237.1</ele>
        <time>2013-09-29T11:22:56Z</time>
      </trkpt>
      <trkpt lat="43.4224" lon="1.52718">
        <ele>236.14</ele>
        <time>2013-09-29T11:23:07Z</time>
      </trkpt>
      <trkpt lat="43.42228" lon="1.52695">
        <ele>235.18</ele>
        <time>2013-09-29T11:23:22Z</time>
      </trkpt>
      <trkpt lat="43.42196" lon="1.52668">
        <ele>232.78</ele>
        <time>2013-09-29T11:23:35Z</time>
      </trkpt>
      <trkpt lat="43.42172" lon="1.52655">
        <ele>230.85</ele>
        <time>2013-09-29T11:23:41Z</time>
      </trkpt>
      <trkpt lat="43.42156" lon="1.52643">
        <ele>229.41</ele>
        <time>2013-09-29T11:23:45Z</time>
      </trkpt>
      <trkpt lat="43.42152" lon="1.52639">
        <ele>229.41</ele>
        <time>2013-09-29T11:23:46Z</time>
      </trkpt>
      <trkpt lat="43.42145" lon="1.5263">
        <ele>228.45</ele>
        <time>2013-09-29T11:23:48Z</time>
      </trkpt>
      <trkpt lat="43.42137" lon="1.52615">
        <ele>227.01</ele>
        <time>2013-09-29T11:23:51Z</time>
      </trkpt>
      <trkpt lat="43.4212" lon="1.52566">
        <ele>223.64</ele>
        <time>2013-09-29T11:23:58Z</time>
      </trkpt>
      <trkpt lat="43.42111" lon="1.52529">
        <ele>220.28</ele>
        <time>2013-09-29T11:24:02Z</time>
      </trkpt>
      <trkpt lat="43.42099" lon="1.52485">
        <ele>216.91</ele>
        <time>2013-09-29T11:24:06Z</time>
      </trkpt>
      <trkpt lat="43.42081" lon="1.52443">
        <ele>213.07</ele>
        <time>2013-09-29T11:24:10Z</time>
      </trkpt>
      <trkpt lat="43.42075" lon="1.52433">
        <ele>211.63</ele>
        <time>2013-09-29T11:24:11Z</time>
      </trkpt>
      <trkpt lat="43.42068" lon="1.52423">
        <ele>210.67</ele>
        <time>2013-09-29T11:24:12Z</time>
      </trkpt>
      <trkpt lat="43.42044" lon="1.52397">
        <ele>209.22</ele>
        <time>2013-09-29T11:24:15Z</time>
      </trkpt>
      <trkpt lat="43.41999" lon="1.52348">
        <ele>212.11</ele>
        <time>2013-09-29T11:24:22Z</time>
      </trkpt>
      <trkpt lat="43.41994" lon="1.52342">
        <ele>212.59</ele>
        <time>2013-09-29T11:24:23Z</time>
      </trkpt>
      <trkpt lat="43.41982" lon="1.52333">
        <ele>213.55</ele>
        <time>2013-09-29T11:24:25Z</time>
      </trkpt>
      <trkpt lat="43.41955" lon="1.5231">
        <ele>216.43</ele>
        <time>2013-09-29T11:24:31Z</time>
      </trkpt>
      <trkpt lat="43.41951" lon="1.52307">
        <ele>216.91</ele>
        <time>2013-09-29T11:24:32Z</time>
      </trkpt>
      <trkpt lat="43.41924" lon="1.52287">
        <ele>220.28</ele>
        <time>2013-09-29T11:24:41Z</time>
      </trkpt>
      <trkpt lat="43.4189" lon="1.52262">
        <ele>222.2</ele>
        <time>2013-09-29T11:24:53Z</time>
      </trkpt>
      <trkpt lat="43.41825" lon="1.52235">
        <ele>221.24</ele>
        <time>2013-09-29T11:25:08Z</time>
      </trkpt>
      <trkpt lat="43.41784" lon="1.52217">
        <ele>220.76</ele>
        <time>2013-09-29T11:25:17Z</time>
      </trkpt>
      <trkpt lat="43.41744" lon="1.52192">
        <ele>220.28</ele>
        <time>2013-09-29T11:25:26Z</time>
      </trkpt>
      <trkpt lat="43.4174" lon="1.52188">
        <ele>219.8</ele>
        <time>2013-09-29T11:25:27Z</time>
      </trkpt>
      <trkpt lat="43.41738" lon="1.52183">
        <ele>219.8</ele>
        <time>2013-09-29T11:25:28Z</time>
      </trkpt>
      <trkpt lat="43.41736" lon="1.52177">
        <ele>219.8</ele>
        <time>2013-09-29T11:25:29Z</time>
      </trkpt>
      <trkpt lat="43.41735" lon="1.52171">
        <ele>219.8</ele>
        <time>2013-09-29T11:25:30Z</time>
      </trkpt>
      <trkpt lat="43.41734" lon="1.52166">
        <ele>219.8</ele>
        <time>2013-09-29T11:25:31Z</time>
      </trkpt>
      <trkpt lat="43.41734" lon="1.5216">
        <ele>219.8</ele>
        <time>2013-09-29T11:25:32Z</time>
      </trkpt>
      <trkpt lat="43.41735" lon="1.52155">
        <ele>219.32</ele>
        <time>2013-09-29T11:25:33Z</time>
      </trkpt>
      <trkpt lat="43.41736" lon="1.52149">
        <ele>219.8</ele>
        <time>2013-09-29T11:25:34Z</time>
      </trkpt>
      <trkpt lat="43.41737" lon="1.52144">
        <ele>219.8</ele>
        <time>2013-09-29T11:25:35Z</time>
      </trkpt>
      <trkpt lat="43.41739" lon="1.52138">
        <ele>219.8</ele>
        <time>2013-09-29T11:25:36Z</time>
      </trkpt>
      <trkpt lat="43.41767" lon="1.52075">
        <ele>220.28</ele>
        <time>2013-09-29T11:25:50Z</time>
      </trkpt>
      <trkpt lat="43.41786" lon="1.51997">
        <ele>219.32</ele>
        <time>2013-09-29T11:26:06Z</time>
      </trkpt>
      <trkpt lat="43.41803" lon="1.51899">
        <ele>216.43</ele>
        <time>2013-09-29T11:26:21Z</time>
      </trkpt>
      <trkpt lat="43.41816" lon="1.51835">
        <ele>214.03</ele>
        <time>2013-09-29T11:26:29Z</time>
      </trkpt>
      <trkpt lat="43.41834" lon="1.51758">
        <ele>210.67</ele>
        <time>2013-09-29T11:26:38Z</time>
      </trkpt>
      <trkpt lat="43.41842" lon="1.51742">
        <ele>210.67</ele>
        <time>2013-09-29T11:26:40Z</time>
      </trkpt>
      <trkpt lat="43.41846" lon="1.51735">
        <ele>210.19</ele>
        <time>2013-09-29T11:26:41Z</time>
      </trkpt>
      <trkpt lat="43.41856" lon="1.51722">
        <ele>209.22</ele>
        <time>2013-09-29T11:26:43Z</time>
      </trkpt>
      <trkpt lat="43.41867" lon="1.51709">
        <ele>208.26</ele>
        <time>2013-09-29T11:26:45Z</time>
      </trkpt>
      <trkpt lat="43.419" lon="1.51669">
        <ele>205.86</ele>
        <time>2013-09-29T11:26:51Z</time>
      </trkpt>
      <trkpt lat="43.41974" lon="1.51581">
        <ele>202.98</ele>
        <time>2013-09-29T11:27:05Z</time>
      </trkpt>
      <trkpt lat="43.42038" lon="1.515">
        <ele>200.09</ele>
        <time>2013-09-29T11:27:18Z</time>
      </trkpt>
      <trkpt lat="43.42115" lon="1.51418">
        <ele>196.73</ele>
        <time>2013-09-29T11:27:33Z</time>
      </trkpt>
      <trkpt lat="43.42139" lon="1.51403">
        <ele>196.73</ele>
        <time>2013-09-29T11:27:39Z</time>
      </trkpt>
      <trkpt lat="43.42143" lon="1.51402">
        <ele>197.21</ele>
        <time>2013-09-29T11:27:40Z</time>
      </trkpt>
      <trkpt lat="43.42147" lon="1.51401">
        <ele>197.21</ele>
        <time>2013-09-29T11:27:41Z</time>
      </trkpt>
      <trkpt lat="43.42185" lon="1.51394">
        <ele>199.61</ele>
        <time>2013-09-29T11:27:55Z</time>
      </trkpt>
      <trkpt lat="43.42204" lon="1.51368">
        <ele>200.57</ele>
        <time>2013-09-29T11:28:06Z</time>
      </trkpt>
      <trkpt lat="43.42221" lon="1.51338">
        <ele>203.94</ele>
        <time>2013-09-29T11:28:19Z</time>
      </trkpt>
      <trkpt lat="43.42234" lon="1.51307">
        <ele>206.34</ele>
        <time>2013-09-29T11:28:34Z</time>
      </trkpt>
      <trkpt lat="43.42245" lon="1.51276">
        <ele>209.22</ele>
        <time>2013-09-29T11:28:49Z</time>
      </trkpt>
      <trkpt lat="43.42251" lon="1.51259">
        <ele>211.15</ele>
        <time>2013-09-29T11:28:59Z</time>
      </trkpt>
      <trkpt lat="43.42261" lon="1.51242">
        <ele>214.51</ele>
        <time>2013-09-29T11:29:12Z</time>
      </trkpt>
      <trkpt lat="43.42262" lon="1.51241">
        <ele>214.03</ele>
        <time>2013-09-29T11:29:13Z</time>
      </trkpt>
      <trkpt lat="43.42263" lon="1.51239">
        <ele>214.03</ele>
        <time>2013-09-29T11:29:14Z</time>
      </trkpt>
      <trkpt lat="43.42264" lon="1.51238">
        <ele>214.51</ele>
        <time>2013-09-29T11:29:15Z</time>
      </trkpt>
      <trkpt lat="43.42265" lon="1.51236">
        <ele>214.99</ele>
        <time>2013-09-29T11:29:16Z</time>
      </trkpt>
      <trkpt lat="43.42276" lon="1.51208">
        <ele>217.4</ele>
        <time>2013-09-29T11:29:30Z</time>
      </trkpt>
      <trkpt lat="43.4229" lon="1.51175">
        <ele>219.8</ele>
        <time>2013-09-29T11:29:47Z</time>
      </trkpt>
      <trkpt lat="43.423" lon="1.51151">
        <ele>223.16</ele>
        <time>2013-09-29T11:30:00Z</time>
      </trkpt>
      <trkpt lat="43.42308" lon="1.51123">
        <ele>225.09</ele>
        <time>2013-09-29T11:30:15Z</time>
      </trkpt>
      <trkpt lat="43.42322" lon="1.51084">
        <ele>226.05</ele>
        <time>2013-09-29T11:30:32Z</time>
      </trkpt>
      <trkpt lat="43.4234" lon="1.51036">
        <ele>227.01</ele>
        <time>2013-09-29T11:30:49Z</time>
      </trkpt>
      <trkpt lat="43.42346" lon="1.51028">
        <ele>227.49</ele>
        <time>2013-09-29T11:31:02Z</time>
      </trkpt>
      <trkpt lat="43.42346" lon="1.51028">
        <ele>227.49</ele>
        <time>2013-09-29T11:31:33Z</time>
      </trkpt>
      <trkpt lat="43.42346" lon="1.51028">
        <ele>227.49</ele>
        <time>2013-09-29T11:32:06Z</time>
      </trkpt>
      <trkpt lat="43.42347" lon="1.51028">
        <ele>227.97</ele>
        <time>2013-09-29T11:32:42Z</time>
      </trkpt>
      <trkpt lat="43.42347" lon="1.51028">
        <ele>227.49</ele>
        <time>2013-09-29T11:33:17Z</time>
      </trkpt>
      <trkpt lat="43.42347" lon="1.51028">
        <ele>227.97</ele>
        <time>2013-09-29T11:33:51Z</time>
      </trkpt>
      <trkpt lat="43.42347" lon="1.51028">
        <ele>227.97</ele>
        <time>2013-09-29T11:34:16Z</time>
      </trkpt>
      <trkpt lat="43.42346" lon="1.51028">
        <ele>227.97</ele>
        <time>2013-09-29T11:34:53Z</time>
      </trkpt>
      <trkpt lat="43.42347" lon="1.51028">
        <ele>228.45</ele>
        <time>2013-09-29T11:35:35Z</time>
      </trkpt>
      <trkpt lat="43.42346" lon="1.51028">
        <ele>227.97</ele>
        <time>2013-09-29T11:36:13Z</time>
      </trkpt>
      <trkpt lat="43.42348" lon="1.51029">
        <ele>228.45</ele>
        <time>2013-09-29T11:36:40Z</time>
      </trkpt>
      <trkpt lat="43.42349" lon="1.5103">
        <ele>228.45</ele>
        <time>2013-09-29T11:36:41Z</time>
      </trkpt>
      <trkpt lat="43.42351" lon="1.51031">
        <ele>228.45</ele>
        <time>2013-09-29T11:36:42Z</time>
      </trkpt>
      <trkpt lat="43.4239" lon="1.51057">
        <ele>228.93</ele>
        <time>2013-09-29T11:37:00Z</time>
      </trkpt>
      <trkpt lat="43.42427" lon="1.51082">
        <ele>230.37</ele>
        <time>2013-09-29T11:37:15Z</time>
      </trkpt>
      <trkpt lat="43.42473" lon="1.51117">
        <ele>233.26</ele>
        <time>2013-09-29T11:37:35Z</time>
      </trkpt>
      <trkpt lat="43.42498" lon="1.51137">
        <ele>236.14</ele>
        <time>2013-09-29T11:37:47Z</time>
      </trkpt>
      <trkpt lat="43.42532" lon="1.51162">
        <ele>239.02</ele>
        <time>2013-09-29T11:38:03Z</time>
      </trkpt>
      <trkpt lat="43.42564" lon="1.51179">
        <ele>242.39</ele>
        <time>2013-09-29T11:38:18Z</time>
      </trkpt>
      <trkpt lat="43.426" lon="1.51193">
        <ele>244.31</ele>
        <time>2013-09-29T11:38:34Z</time>
      </trkpt>
      <trkpt lat="43.4263" lon="1.51218">
        <ele>241.91</ele>
        <time>2013-09-29T11:38:42Z</time>
      </trkpt>
      <trkpt lat="43.42689" lon="1.51267">
        <ele>238.54</ele>
        <time>2013-09-29T11:38:52Z</time>
      </trkpt>
      <trkpt lat="43.42798" lon="1.51373">
        <ele>238.54</ele>
        <time>2013-09-29T11:39:09Z</time>
      </trkpt>
      <trkpt lat="43.42874" lon="1.51446">
        <ele>240.95</ele>
        <time>2013-09-29T11:39:24Z</time>
      </trkpt>
      <trkpt lat="43.42907" lon="1.51478">
        <ele>243.83</ele>
        <time>2013-09-29T11:39:33Z</time>
      </trkpt>
      <trkpt lat="43.42945" lon="1.51516">
        <ele>246.23</ele>
        <time>2013-09-29T11:39:48Z</time>
      </trkpt>
      <trkpt lat="43.42972" lon="1.51546">
        <ele>242.87</ele>
        <time>2013-09-29T11:39:55Z</time>
      </trkpt>
      <trkpt lat="43.42998" lon="1.51583">
        <ele>239.51</ele>
        <time>2013-09-29T11:40:00Z</time>
      </trkpt>
      <trkpt lat="43.43008" lon="1.51605">
        <ele>238.06</ele>
        <time>2013-09-29T11:40:02Z</time>
      </trkpt>
      <trkpt lat="43.43028" lon="1.51655">
        <ele>234.7</ele>
        <time>2013-09-29T11:40:06Z</time>
      </trkpt>
      <trkpt lat="43.43034" lon="1.51667">
        <ele>233.26</ele>
        <time>2013-09-29T11:40:07Z</time>
      </trkpt>
      <trkpt lat="43.43043" lon="1.51678">
        <ele>232.78</ele>
        <time>2013-09-29T11:40:08Z</time>
      </trkpt>
      <trkpt lat="43.43052" lon="1.51687">
        <ele>231.33</ele>
        <time>2013-09-29T11:40:09Z</time>
      </trkpt>
      <trkpt lat="43.43062" lon="1.51694">
        <ele>230.85</ele>
        <time>2013-09-29T11:40:10Z</time>
      </trkpt>
      <trkpt lat="43.43073" lon="1.51701">
        <ele>231.33</ele>
        <time>2013-09-29T11:40:11Z</time>
      </trkpt>
      <trkpt lat="43.43132" lon="1.51739">
        <ele>235.18</ele>
        <time>2013-09-29T11:40:18Z</time>
      </trkpt>
      <trkpt lat="43.4316" lon="1.51766">
        <ele>238.06</ele>
        <time>2013-09-29T11:40:24Z</time>
      </trkpt>
      <trkpt lat="43.43191" lon="1.51798">
        <ele>241.43</ele>
        <time>2013-09-29T11:40:35Z</time>
      </trkpt>
      <trkpt lat="43.43216" lon="1.51824">
        <ele>244.79</ele>
        <time>2013-09-29T11:40:46Z</time>
      </trkpt>
      <trkpt lat="43.4325" lon="1.51859">
        <ele>244.31</ele>
        <time>2013-09-29T11:40:58Z</time>
      </trkpt>
      <trkpt lat="43.43272" lon="1.51879">
        <ele>241.43</ele>
        <time>2013-09-29T11:41:03Z</time>
      </trkpt>
      <trkpt lat="43.43302" lon="1.51899">
        <ele>239.02</ele>
        <time>2013-09-29T11:41:08Z</time>
      </trkpt>
      <trkpt lat="43.43309" lon="1.51902">
        <ele>238.54</ele>
        <time>2013-09-29T11:41:09Z</time>
      </trkpt>
      <trkpt lat="43.43321" lon="1.51904">
        <ele>238.06</ele>
        <time>2013-09-29T11:41:10Z</time>
      </trkpt>
      <trkpt lat="43.4333" lon="1.51904">
        <ele>238.06</ele>
        <time>2013-09-29T11:41:11Z</time>
      </trkpt>
      <trkpt lat="43.4334" lon="1.51904">
        <ele>237.58</ele>
        <time>2013-09-29T11:41:12Z</time>
      </trkpt>
      <trkpt lat="43.43349" lon="1.51903">
        <ele>238.06</ele>
        <time>2013-09-29T11:41:13Z</time>
      </trkpt>
      <trkpt lat="43.43414" lon="1.51888">
        <ele>239.02</ele>
        <time>2013-09-29T11:41:22Z</time>
      </trkpt>
      <trkpt lat="43.43425" lon="1.51886">
        <ele>239.99</ele>
        <time>2013-09-29T11:41:24Z</time>
      </trkpt>
      <trkpt lat="43.43475" lon="1.51889">
        <ele>243.35</ele>
        <time>2013-09-29T11:41:36Z</time>
      </trkpt>
      <trkpt lat="43.43514" lon="1.51892">
        <ele>246.23</ele>
        <time>2013-09-29T11:41:51Z</time>
      </trkpt>
      <trkpt lat="43.43515" lon="1.51892">
        <ele>246.72</ele>
        <time>2013-09-29T11:41:52Z</time>
      </trkpt>
      <trkpt lat="43.43541" lon="1.51891">
        <ele>244.79</ele>
        <time>2013-09-29T11:42:05Z</time>
      </trkpt>
      <trkpt lat="43.4355" lon="1.51886">
        <ele>241.43</ele>
        <time>2013-09-29T11:42:08Z</time>
      </trkpt>
      <trkpt lat="43.4356" lon="1.51881">
        <ele>237.1</ele>
        <time>2013-09-29T11:42:11Z</time>
      </trkpt>
      <trkpt lat="43.43572" lon="1.5188">
        <ele>233.26</ele>
        <time>2013-09-29T11:42:14Z</time>
      </trkpt>
      <trkpt lat="43.43591" lon="1.51883">
        <ele>229.41</ele>
        <time>2013-09-29T11:42:18Z</time>
      </trkpt>
      <trkpt lat="43.43682" lon="1.51888">
        <ele>226.05</ele>
        <time>2013-09-29T11:42:22Z</time>
      </trkpt>
      <trkpt lat="43.43723" lon="1.51892">
        <ele>222.2</ele>
        <time>2013-09-29T11:42:26Z</time>
      </trkpt>
      <trkpt lat="43.4381" lon="1.51902">
        <ele>219.32</ele>
        <time>2013-09-29T11:42:35Z</time>
      </trkpt>
      <trkpt lat="43.43835" lon="1.51905">
        <ele>217.4</ele>
        <time>2013-09-29T11:42:38Z</time>
      </trkpt>
      <trkpt lat="43.4389" lon="1.5191">
        <ele>214.51</ele>
        <time>2013-09-29T11:42:45Z</time>
      </trkpt>
      <trkpt lat="43.43961" lon="1.51904">
        <ele>211.15</ele>
        <time>2013-09-29T11:42:57Z</time>
      </trkpt>
      <trkpt lat="43.43994" lon="1.51891">
        <ele>208.26</ele>
        <time>2013-09-29T11:43:04Z</time>
      </trkpt>
      <trkpt lat="43.44016" lon="1.51887">
        <ele>208.26</ele>
        <time>2013-09-29T11:43:08Z</time>
      </trkpt>
      <trkpt lat="43.4402" lon="1.51887">
        <ele>207.78</ele>
        <time>2013-09-29T11:43:09Z</time>
      </trkpt>
      <trkpt lat="43.44023" lon="1.51889">
        <ele>208.26</ele>
        <time>2013-09-29T11:43:10Z</time>
      </trkpt>
      <trkpt lat="43.44027" lon="1.51892">
        <ele>207.78</ele>
        <time>2013-09-29T11:43:11Z</time>
      </trkpt>
      <trkpt lat="43.44029" lon="1.51895">
        <ele>208.26</ele>
        <time>2013-09-29T11:43:12Z</time>
      </trkpt>
      <trkpt lat="43.44058" lon="1.51917">
        <ele>209.7</ele>
        <time>2013-09-29T11:43:28Z</time>
      </trkpt>
      <trkpt lat="43.44082" lon="1.51932">
        <ele>213.07</ele>
        <time>2013-09-29T11:43:44Z</time>
      </trkpt>
      <trkpt lat="43.44104" lon="1.51948">
        <ele>215.95</ele>
        <time>2013-09-29T11:44:01Z</time>
      </trkpt>
      <trkpt lat="43.44129" lon="1.51942">
        <ele>217.88</ele>
        <time>2013-09-29T11:44:19Z</time>
      </trkpt>
      <trkpt lat="43.44132" lon="1.51938">
        <ele>219.8</ele>
        <time>2013-09-29T11:44:28Z</time>
      </trkpt>
      <trkpt lat="43.44133" lon="1.51936">
        <ele>219.32</ele>
        <time>2013-09-29T11:44:29Z</time>
      </trkpt>
      <trkpt lat="43.44134" lon="1.51936">
        <ele>219.8</ele>
        <time>2013-09-29T11:44:30Z</time>
      </trkpt>
      <trkpt lat="43.44147" lon="1.51909">
        <ele>222.68</ele>
        <time>2013-09-29T11:44:47Z</time>
      </trkpt>
      <trkpt lat="43.44159" lon="1.51888">
        <ele>224.12</ele>
        <time>2013-09-29T11:45:01Z</time>
      </trkpt>
      <trkpt lat="43.44169" lon="1.51864">
        <ele>227.01</ele>
        <time>2013-09-29T11:45:15Z</time>
      </trkpt>
      <trkpt lat="43.44185" lon="1.51839">
        <ele>229.41</ele>
        <time>2013-09-29T11:45:30Z</time>
      </trkpt>
      <trkpt lat="43.44199" lon="1.51812">
        <ele>232.78</ele>
        <time>2013-09-29T11:45:47Z</time>
      </trkpt>
      <trkpt lat="43.4421" lon="1.51788">
        <ele>234.7</ele>
        <time>2013-09-29T11:46:01Z</time>
      </trkpt>
      <trkpt lat="43.44211" lon="1.51787">
        <ele>234.7</ele>
        <time>2013-09-29T11:46:02Z</time>
      </trkpt>
      <trkpt lat="43.44212" lon="1.51785">
        <ele>234.7</ele>
        <time>2013-09-29T11:46:03Z</time>
      </trkpt>
      <trkpt lat="43.44213" lon="1.51784">
        <ele>234.7</ele>
        <time>2013-09-29T11:46:04Z</time>
      </trkpt>
      <trkpt lat="43.44214" lon="1.51782">
        <ele>235.18</ele>
        <time>2013-09-29T11:46:05Z</time>
      </trkpt>
      <trkpt lat="43.44227" lon="1.51765">
        <ele>237.1</ele>
        <time>2013-09-29T11:46:19Z</time>
      </trkpt>
      <trkpt lat="43.44229" lon="1.51764">
        <ele>237.58</ele>
        <time>2013-09-29T11:46:20Z</time>
      </trkpt>
      <trkpt lat="43.4423" lon="1.51763">
        <ele>237.58</ele>
        <time>2013-09-29T11:46:21Z</time>
      </trkpt>
      <trkpt lat="43.44247" lon="1.5175">
        <ele>240.47</ele>
        <time>2013-09-29T11:46:34Z</time>
      </trkpt>
      <trkpt lat="43.44249" lon="1.51751">
        <ele>240.47</ele>
        <time>2013-09-29T11:46:35Z</time>
      </trkpt>
      <trkpt lat="43.44276" lon="1.5176">
        <ele>242.39</ele>
        <time>2013-09-29T11:46:51Z</time>
      </trkpt>
      <trkpt lat="43.44301" lon="1.51769">
        <ele>244.31</ele>
        <time>2013-09-29T11:47:08Z</time>
      </trkpt>
      <trkpt lat="43.44324" lon="1.51778">
        <ele>247.68</ele>
        <time>2013-09-29T11:47:24Z</time>
      </trkpt>
      <trkpt lat="43.44349" lon="1.51792">
        <ele>250.08</ele>
        <time>2013-09-29T11:47:41Z</time>
      </trkpt>
      <trkpt lat="43.44378" lon="1.51818">
        <ele>251.52</ele>
        <time>2013-09-29T11:47:57Z</time>
      </trkpt>
      <trkpt lat="43.44423" lon="1.51866">
        <ele>253.44</ele>
        <time>2013-09-29T11:48:16Z</time>
      </trkpt>
      <trkpt lat="43.44475" lon="1.51893">
        <ele>252.96</ele>
        <time>2013-09-29T11:48:32Z</time>
      </trkpt>
      <trkpt lat="43.44538" lon="1.51901">
        <ele>253.93</ele>
        <time>2013-09-29T11:48:48Z</time>
      </trkpt>
      <trkpt lat="43.44596" lon="1.51904">
        <ele>256.81</ele>
        <time>2013-09-29T11:49:05Z</time>
      </trkpt>
      <trkpt lat="43.4463" lon="1.51897">
        <ele>259.21</ele>
        <time>2013-09-29T11:49:19Z</time>
      </trkpt>
      <trkpt lat="43.44663" lon="1.51889">
        <ele>262.1</ele>
        <time>2013-09-29T11:49:33Z</time>
      </trkpt>
      <trkpt lat="43.4469" lon="1.51879">
        <ele>262.1</ele>
        <time>2013-09-29T11:49:48Z</time>
      </trkpt>
      <trkpt lat="43.44693" lon="1.51878">
        <ele>261.62</ele>
        <time>2013-09-29T11:50:04Z</time>
      </trkpt>
      <trkpt lat="43.44693" lon="1.51878">
        <ele>262.58</ele>
        <time>2013-09-29T11:50:24Z</time>
      </trkpt>
      <trkpt lat="43.44693" lon="1.51878">
        <ele>262.1</ele>
        <time>2013-09-29T11:50:48Z</time>
      </trkpt>
      <trkpt lat="43.44693" lon="1.51878">
        <ele>260.65</ele>
        <time>2013-09-29T11:51:06Z</time>
      </trkpt>
      <trkpt lat="43.44693" lon="1.51878">
        <ele>262.58</ele>
        <time>2013-09-29T11:51:08Z</time>
      </trkpt>
      <trkpt lat="43.44693" lon="1.51878">
        <ele>262.58</ele>
        <time>2013-09-29T11:51:26Z</time>
      </trkpt>
      <trkpt lat="43.44701" lon="1.51872">
        <ele>262.1</ele>
        <time>2013-09-29T11:51:53Z</time>
      </trkpt>
      <trkpt lat="43.44701" lon="1.51871">
        <ele>262.58</ele>
        <time>2013-09-29T11:52:12Z</time>
      </trkpt>
      <trkpt lat="43.44702" lon="1.5187">
        <ele>262.1</ele>
        <time>2013-09-29T11:52:36Z</time>
      </trkpt>
      <trkpt lat="43.44702" lon="1.5187">
        <ele>262.58</ele>
        <time>2013-09-29T11:53:08Z</time>
      </trkpt>
      <trkpt lat="43.44702" lon="1.5187">
        <ele>262.58</ele>
        <time>2013-09-29T11:53:43Z</time>
      </trkpt>
      <trkpt lat="43.44702" lon="1.5187">
        <ele>262.58</ele>
        <time>2013-09-29T11:54:16Z</time>
      </trkpt>
      <trkpt lat="43.44702" lon="1.5187">
        <ele>262.1</ele>
        <time>2013-09-29T11:54:54Z</time>
      </trkpt>
      <trkpt lat="43.44703" lon="1.5187">
        <ele>262.58</ele>
        <time>2013-09-29T11:55:34Z</time>
      </trkpt>
      <trkpt lat="43.44703" lon="1.51871">
        <ele>262.58</ele>
        <time>2013-09-29T11:56:15Z</time>
      </trkpt>
      <trkpt lat="43.44703" lon="1.51871">
        <ele>262.58</ele>
        <time>2013-09-29T11:56:56Z</time>
      </trkpt>
      <trkpt lat="43.44703" lon="1.5187">
        <ele>262.58</ele>
        <time>2013-09-29T11:57:38Z</time>
      </trkpt>
      <trkpt lat="43.44703" lon="1.5187">
        <ele>262.1</ele>
        <time>2013-09-29T11:58:13Z</time>
      </trkpt>
      <trkpt lat="43.44703" lon="1.5187">
        <ele>263.06</ele>
        <time>2013-09-29T11:58:50Z</time>
      </trkpt>
      <trkpt lat="43.44703" lon="1.5187">
        <ele>262.58</ele>
        <time>2013-09-29T11:59:23Z</time>
      </trkpt>
      <trkpt lat="43.44703" lon="1.5187">
        <ele>263.54</ele>
        <time>2013-09-29T11:59:59Z</time>
      </trkpt>
      <trkpt lat="43.44703" lon="1.5187">
        <ele>263.54</ele>
        <time>2013-09-29T12:00:29Z</time>
      </trkpt>
      <trkpt lat="43.44703" lon="1.5187">
        <ele>263.06</ele>
        <time>2013-09-29T12:01:04Z</time>
      </trkpt>
      <trkpt lat="43.44703" lon="1.51871">
        <ele>263.06</ele>
        <time>2013-09-29T12:01:21Z</time>
      </trkpt>
      <trkpt lat="43.44703" lon="1.51871">
        <ele>263.54</ele>
        <time>2013-09-29T12:01:48Z</time>
      </trkpt>
      <trkpt lat="43.44703" lon="1.51871">
        <ele>263.06</ele>
        <time>2013-09-29T12:02:11Z</time>
      </trkpt>
      <trkpt lat="43.44703" lon="1.51872">
        <ele>264.02</ele>
        <time>2013-09-29T12:02:39Z</time>
      </trkpt>
      <trkpt lat="43.44703" lon="1.51872">
        <ele>263.54</ele>
        <time>2013-09-29T12:03:09Z</time>
      </trkpt>
      <trkpt lat="43.44703" lon="1.51872">
        <ele>264.02</ele>
        <time>2013-09-29T12:03:45Z</time>
      </trkpt>
      <trkpt lat="43.44703" lon="1.51872">
        <ele>264.02</ele>
        <time>2013-09-29T12:04:15Z</time>
      </trkpt>
      <trkpt lat="43.44703" lon="1.51872">
        <ele>264.02</ele>
        <time>2013-09-29T12:04:45Z</time>
      </trkpt>
      <trkpt lat="43.44703" lon="1.51872">
        <ele>264.02</ele>
        <time>2013-09-29T12:05:17Z</time>
      </trkpt>
      <trkpt lat="43.44703" lon="1.51872">
        <ele>264.02</ele>
        <time>2013-09-29T12:05:55Z</time>
      </trkpt>
      <trkpt lat="43.44703" lon="1.51872">
        <ele>264.02</ele>
        <time>2013-09-29T12:06:21Z</time>
      </trkpt>
      <trkpt lat="43.44705" lon="1.51873">
        <ele>264.5</ele>
        <time>2013-09-29T12:06:46Z</time>
      </trkpt>
      <trkpt lat="43.44706" lon="1.51873">
        <ele>264.5</ele>
        <time>2013-09-29T12:06:47Z</time>
      </trkpt>
      <trkpt lat="43.44708" lon="1.51872">
        <ele>264.5</ele>
        <time>2013-09-29T12:06:48Z</time>
      </trkpt>
      <trkpt lat="43.44739" lon="1.51863">
        <ele>264.02</ele>
        <time>2013-09-29T12:07:06Z</time>
      </trkpt>
      <trkpt lat="43.44779" lon="1.51829">
        <ele>262.1</ele>
        <time>2013-09-29T12:07:21Z</time>
      </trkpt>
      <trkpt lat="43.44779" lon="1.51793">
        <ele>260.65</ele>
        <time>2013-09-29T12:07:27Z</time>
      </trkpt>
      <trkpt lat="43.44776" lon="1.51749">
        <ele>259.21</ele>
        <time>2013-09-29T12:07:38Z</time>
      </trkpt>
      <trkpt lat="43.44735" lon="1.51727">
        <ele>258.25</ele>
        <time>2013-09-29T12:07:49Z</time>
      </trkpt>
      <trkpt lat="43.44728" lon="1.51722">
        <ele>258.73</ele>
        <time>2013-09-29T12:07:51Z</time>
      </trkpt>
      <trkpt lat="43.44724" lon="1.51719">
        <ele>258.25</ele>
        <time>2013-09-29T12:07:52Z</time>
      </trkpt>
      <trkpt lat="43.44721" lon="1.51716">
        <ele>258.25</ele>
        <time>2013-09-29T12:07:53Z</time>
      </trkpt>
      <trkpt lat="43.44668" lon="1.51673">
        <ele>256.33</ele>
        <time>2013-09-29T12:08:08Z</time>
      </trkpt>
      <trkpt lat="43.4464" lon="1.51654">
        <ele>253.44</ele>
        <time>2013-09-29T12:08:13Z</time>
      </trkpt>
      <trkpt lat="43.44605" lon="1.51635">
        <ele>249.6</ele>
        <time>2013-09-29T12:08:17Z</time>
      </trkpt>
      <trkpt lat="43.44586" lon="1.51629">
        <ele>248.64</ele>
        <time>2013-09-29T12:08:19Z</time>
      </trkpt>
      <trkpt lat="43.44478" lon="1.51606">
        <ele>247.68</ele>
        <time>2013-09-29T12:08:31Z</time>
      </trkpt>
      <trkpt lat="43.44418" lon="1.51577">
        <ele>248.16</ele>
        <time>2013-09-29T12:08:41Z</time>
      </trkpt>
      <trkpt lat="43.44414" lon="1.51574">
        <ele>248.64</ele>
        <time>2013-09-29T12:08:42Z</time>
      </trkpt>
      <trkpt lat="43.44407" lon="1.51566">
        <ele>248.64</ele>
        <time>2013-09-29T12:08:44Z</time>
      </trkpt>
      <trkpt lat="43.44405" lon="1.51562">
        <ele>248.64</ele>
        <time>2013-09-29T12:08:45Z</time>
      </trkpt>
      <trkpt lat="43.44403" lon="1.51557">
        <ele>249.12</ele>
        <time>2013-09-29T12:08:46Z</time>
      </trkpt>
      <trkpt lat="43.44402" lon="1.51551">
        <ele>249.12</ele>
        <time>2013-09-29T12:08:47Z</time>
      </trkpt>
      <trkpt lat="43.44402" lon="1.51545">
        <ele>248.64</ele>
        <time>2013-09-29T12:08:48Z</time>
      </trkpt>
      <trkpt lat="43.44402" lon="1.51539">
        <ele>248.64</ele>
        <time>2013-09-29T12:08:49Z</time>
      </trkpt>
      <trkpt lat="43.44402" lon="1.51532">
        <ele>248.16</ele>
        <time>2013-09-29T12:08:50Z</time>
      </trkpt>
      <trkpt lat="43.44399" lon="1.51465">
        <ele>245.75</ele>
        <time>2013-09-29T12:09:00Z</time>
      </trkpt>
      <trkpt lat="43.44376" lon="1.51352">
        <ele>242.39</ele>
        <time>2013-09-29T12:09:15Z</time>
      </trkpt>
      <trkpt lat="43.44368" lon="1.51297">
        <ele>239.51</ele>
        <time>2013-09-29T12:09:20Z</time>
      </trkpt>
      <trkpt lat="43.44365" lon="1.51274">
        <ele>238.54</ele>
        <time>2013-09-29T12:09:22Z</time>
      </trkpt>
      <trkpt lat="43.44351" lon="1.51163">
        <ele>240.95</ele>
        <time>2013-09-29T12:09:34Z</time>
      </trkpt>
      <trkpt lat="43.44351" lon="1.51055">
        <ele>242.87</ele>
        <time>2013-09-29T12:09:52Z</time>
      </trkpt>
      <trkpt lat="43.44353" lon="1.51013">
        <ele>241.43</ele>
        <time>2013-09-29T12:10:00Z</time>
      </trkpt>
      <trkpt lat="43.44354" lon="1.51007">
        <ele>240.95</ele>
        <time>2013-09-29T12:10:01Z</time>
      </trkpt>
      <trkpt lat="43.44366" lon="1.5096">
        <ele>238.06</ele>
        <time>2013-09-29T12:10:07Z</time>
      </trkpt>
      <trkpt lat="43.44378" lon="1.50921">
        <ele>234.7</ele>
        <time>2013-09-29T12:10:11Z</time>
      </trkpt>
      <trkpt lat="43.44408" lon="1.5083">
        <ele>231.33</ele>
        <time>2013-09-29T12:10:21Z</time>
      </trkpt>
      <trkpt lat="43.44428" lon="1.50779">
        <ele>227.97</ele>
        <time>2013-09-29T12:10:26Z</time>
      </trkpt>
      <trkpt lat="43.44442" lon="1.50737">
        <ele>224.12</ele>
        <time>2013-09-29T12:10:30Z</time>
      </trkpt>
      <trkpt lat="43.44446" lon="1.50727">
        <ele>224.12</ele>
        <time>2013-09-29T12:10:31Z</time>
      </trkpt>
      <trkpt lat="43.44458" lon="1.50687">
        <ele>219.32</ele>
        <time>2013-09-29T12:10:35Z</time>
      </trkpt>
      <trkpt lat="43.44465" lon="1.50655">
        <ele>214.99</ele>
        <time>2013-09-29T12:10:38Z</time>
      </trkpt>
      <trkpt lat="43.44474" lon="1.50609">
        <ele>212.11</ele>
        <time>2013-09-29T12:10:42Z</time>
      </trkpt>
      <trkpt lat="43.44476" lon="1.50599">
        <ele>212.59</ele>
        <time>2013-09-29T12:10:43Z</time>
      </trkpt>
      <trkpt lat="43.44476" lon="1.50591">
        <ele>212.59</ele>
        <time>2013-09-29T12:10:44Z</time>
      </trkpt>
      <trkpt lat="43.44476" lon="1.50584">
        <ele>211.15</ele>
        <time>2013-09-29T12:10:45Z</time>
      </trkpt>
      <trkpt lat="43.44475" lon="1.50578">
        <ele>210.19</ele>
        <time>2013-09-29T12:10:46Z</time>
      </trkpt>
      <trkpt lat="43.44473" lon="1.50573">
        <ele>210.67</ele>
        <time>2013-09-29T12:10:47Z</time>
      </trkpt>
      <trkpt lat="43.44472" lon="1.50568">
        <ele>210.67</ele>
        <time>2013-09-29T12:10:48Z</time>
      </trkpt>
      <trkpt lat="43.4447" lon="1.50565">
        <ele>210.67</ele>
        <time>2013-09-29T12:10:51Z</time>
      </trkpt>
      <trkpt lat="43.44469" lon="1.50568">
        <ele>210.19</ele>
        <time>2013-09-29T12:10:52Z</time>
      </trkpt>
      <trkpt lat="43.44415" lon="1.50616">
        <ele>209.7</ele>
        <time>2013-09-29T12:11:00Z</time>
      </trkpt>
      <trkpt lat="43.44365" lon="1.50641">
        <ele>208.74</ele>
        <time>2013-09-29T12:11:06Z</time>
      </trkpt>
      <trkpt lat="43.44357" lon="1.50643">
        <ele>210.19</ele>
        <time>2013-09-29T12:11:07Z</time>
      </trkpt>
      <trkpt lat="43.44334" lon="1.50644">
        <ele>209.22</ele>
        <time>2013-09-29T12:11:10Z</time>
      </trkpt>
      <trkpt lat="43.44326" lon="1.50642">
        <ele>209.22</ele>
        <time>2013-09-29T12:11:11Z</time>
      </trkpt>
      <trkpt lat="43.44319" lon="1.5064">
        <ele>209.22</ele>
        <time>2013-09-29T12:11:12Z</time>
      </trkpt>
      <trkpt lat="43.44312" lon="1.50637">
        <ele>209.22</ele>
        <time>2013-09-29T12:11:13Z</time>
      </trkpt>
      <trkpt lat="43.44306" lon="1.50633">
        <ele>208.74</ele>
        <time>2013-09-29T12:11:14Z</time>
      </trkpt>
      <trkpt lat="43.443" lon="1.50629">
        <ele>208.74</ele>
        <time>2013-09-29T12:11:15Z</time>
      </trkpt>
      <trkpt lat="43.44275" lon="1.50611">
        <ele>209.22</ele>
        <time>2013-09-29T12:11:20Z</time>
      </trkpt>
      <trkpt lat="43.44271" lon="1.50608">
        <ele>208.74</ele>
        <time>2013-09-29T12:11:21Z</time>
      </trkpt>
      <trkpt lat="43.44268" lon="1.50604">
        <ele>208.26</ele>
        <time>2013-09-29T12:11:22Z</time>
      </trkpt>
      <trkpt lat="43.44265" lon="1.50599">
        <ele>208.74</ele>
        <time>2013-09-29T12:11:23Z</time>
      </trkpt>
      <trkpt lat="43.44262" lon="1.50595">
        <ele>208.74</ele>
        <time>2013-09-29T12:11:24Z</time>
      </trkpt>
      <trkpt lat="43.4426" lon="1.50591">
        <ele>208.74</ele>
        <time>2013-09-29T12:11:25Z</time>
      </trkpt>
      <trkpt lat="43.44257" lon="1.50586">
        <ele>209.22</ele>
        <time>2013-09-29T12:11:26Z</time>
      </trkpt>
      <trkpt lat="43.44255" lon="1.50582">
        <ele>209.7</ele>
        <time>2013-09-29T12:11:27Z</time>
      </trkpt>
      <trkpt lat="43.44254" lon="1.50578">
        <ele>210.67</ele>
        <time>2013-09-29T12:11:28Z</time>
      </trkpt>
      <trkpt lat="43.44253" lon="1.50575">
        <ele>211.15</ele>
        <time>2013-09-29T12:11:29Z</time>
      </trkpt>
      <trkpt lat="43.44251" lon="1.50573">
        <ele>211.15</ele>
        <time>2013-09-29T12:11:30Z</time>
      </trkpt>
      <trkpt lat="43.4425" lon="1.5057">
        <ele>210.67</ele>
        <time>2013-09-29T12:11:31Z</time>
      </trkpt>
      <trkpt lat="43.4424" lon="1.50533">
        <ele>213.55</ele>
        <time>2013-09-29T12:11:45Z</time>
      </trkpt>
      <trkpt lat="43.44245" lon="1.50519">
        <ele>216.91</ele>
        <time>2013-09-29T12:11:58Z</time>
      </trkpt>
      <trkpt lat="43.44252" lon="1.50502">
        <ele>219.8</ele>
        <time>2013-09-29T12:12:11Z</time>
      </trkpt>
      <trkpt lat="43.44257" lon="1.50492">
        <ele>220.28</ele>
        <time>2013-09-29T12:12:28Z</time>
      </trkpt>
      <trkpt lat="43.44264" lon="1.50478">
        <ele>223.64</ele>
        <time>2013-09-29T12:12:40Z</time>
      </trkpt>
      <trkpt lat="43.44275" lon="1.50448">
        <ele>227.01</ele>
        <time>2013-09-29T12:12:59Z</time>
      </trkpt>
      <trkpt lat="43.44282" lon="1.5044">
        <ele>227.97</ele>
        <time>2013-09-29T12:13:07Z</time>
      </trkpt>
      <trkpt lat="43.44302" lon="1.50421">
        <ele>231.81</ele>
        <time>2013-09-29T12:13:28Z</time>
      </trkpt>
      <trkpt lat="43.44315" lon="1.5041">
        <ele>234.7</ele>
        <time>2013-09-29T12:13:43Z</time>
      </trkpt>
      <trkpt lat="43.44321" lon="1.50404">
        <ele>236.62</ele>
        <time>2013-09-29T12:13:51Z</time>
      </trkpt>
      <trkpt lat="43.44331" lon="1.50394">
        <ele>239.99</ele>
        <time>2013-09-29T12:14:05Z</time>
      </trkpt>
      <trkpt lat="43.44332" lon="1.50392">
        <ele>239.99</ele>
        <time>2013-09-29T12:14:07Z</time>
      </trkpt>
      <trkpt lat="43.44342" lon="1.5037">
        <ele>243.83</ele>
        <time>2013-09-29T12:14:25Z</time>
      </trkpt>
      <trkpt lat="43.44353" lon="1.50334">
        <ele>246.72</ele>
        <time>2013-09-29T12:14:46Z</time>
      </trkpt>
      <trkpt lat="43.44361" lon="1.50303">
        <ele>249.12</ele>
        <time>2013-09-29T12:15:05Z</time>
      </trkpt>
      <trkpt lat="43.44367" lon="1.50262">
        <ele>250.56</ele>
        <time>2013-09-29T12:15:25Z</time>
      </trkpt>
      <trkpt lat="43.4437" lon="1.5022">
        <ele>252.96</ele>
        <time>2013-09-29T12:15:43Z</time>
      </trkpt>
      <trkpt lat="43.44371" lon="1.50175">
        <ele>254.41</ele>
        <time>2013-09-29T12:16:01Z</time>
      </trkpt>
      <trkpt lat="43.44371" lon="1.50157">
        <ele>255.85</ele>
        <time>2013-09-29T12:16:08Z</time>
      </trkpt>
      <trkpt lat="43.44371" lon="1.5011">
        <ele>258.25</ele>
        <time>2013-09-29T12:16:26Z</time>
      </trkpt>
      <trkpt lat="43.44371" lon="1.50067">
        <ele>261.14</ele>
        <time>2013-09-29T12:16:43Z</time>
      </trkpt>
      <trkpt lat="43.44371" lon="1.50034">
        <ele>264.02</ele>
        <time>2013-09-29T12:16:58Z</time>
      </trkpt>
      <trkpt lat="43.44373" lon="1.50005">
        <ele>264.98</ele>
        <time>2013-09-29T12:17:10Z</time>
      </trkpt>
      <trkpt lat="43.44388" lon="1.49963">
        <ele>266.9</ele>
        <time>2013-09-29T12:17:27Z</time>
      </trkpt>
      <trkpt lat="43.44413" lon="1.49914">
        <ele>266.42</ele>
        <time>2013-09-29T12:17:43Z</time>
      </trkpt>
      <trkpt lat="43.44456" lon="1.49834">
        <ele>264.98</ele>
        <time>2013-09-29T12:18:00Z</time>
      </trkpt>
      <trkpt lat="43.44486" lon="1.49764">
        <ele>265.46</ele>
        <time>2013-09-29T12:18:17Z</time>
      </trkpt>
      <trkpt lat="43.44486" lon="1.49763">
        <ele>266.42</ele>
        <time>2013-09-29T12:18:32Z</time>
      </trkpt>
      <trkpt lat="43.44485" lon="1.49764">
        <ele>265.94</ele>
        <time>2013-09-29T12:18:55Z</time>
      </trkpt>
      <trkpt lat="43.44485" lon="1.49763">
        <ele>265.46</ele>
        <time>2013-09-29T12:19:18Z</time>
      </trkpt>
      <trkpt lat="43.44485" lon="1.49763">
        <ele>265.94</ele>
        <time>2013-09-29T12:19:34Z</time>
      </trkpt>
      <trkpt lat="43.44485" lon="1.49763">
        <ele>265.46</ele>
        <time>2013-09-29T12:19:58Z</time>
      </trkpt>
      <trkpt lat="43.44488" lon="1.49758">
        <ele>265.94</ele>
        <time>2013-09-29T12:20:25Z</time>
      </trkpt>
      <trkpt lat="43.44507" lon="1.49716">
        <ele>264.98</ele>
        <time>2013-09-29T12:20:38Z</time>
      </trkpt>
      <trkpt lat="43.44537" lon="1.49642">
        <ele>264.5</ele>
        <time>2013-09-29T12:20:54Z</time>
      </trkpt>
      <trkpt lat="43.44577" lon="1.49543">
        <ele>263.06</ele>
        <time>2013-09-29T12:21:11Z</time>
      </trkpt>
      <trkpt lat="43.4462" lon="1.4943">
        <ele>260.65</ele>
        <time>2013-09-29T12:21:28Z</time>
      </trkpt>
      <trkpt lat="43.44637" lon="1.49342">
        <ele>262.1</ele>
        <time>2013-09-29T12:21:42Z</time>
      </trkpt>
      <trkpt lat="43.44638" lon="1.49337">
        <ele>262.1</ele>
        <time>2013-09-29T12:21:43Z</time>
      </trkpt>
      <trkpt lat="43.44648" lon="1.49279">
        <ele>263.06</ele>
        <time>2013-09-29T12:21:58Z</time>
      </trkpt>
      <trkpt lat="43.44657" lon="1.49235">
        <ele>264.5</ele>
        <time>2013-09-29T12:22:09Z</time>
      </trkpt>
      <trkpt lat="43.44667" lon="1.49169">
        <ele>264.02</ele>
        <time>2013-09-29T12:22:23Z</time>
      </trkpt>
      <trkpt lat="43.44685" lon="1.4909">
        <ele>263.06</ele>
        <time>2013-09-29T12:22:40Z</time>
      </trkpt>
      <trkpt lat="43.44699" lon="1.49019">
        <ele>261.14</ele>
        <time>2013-09-29T12:22:55Z</time>
      </trkpt>
      <trkpt lat="43.44676" lon="1.48984">
        <ele>264.02</ele>
        <time>2013-09-29T12:23:05Z</time>
      </trkpt>
      <trkpt lat="43.44641" lon="1.48932">
        <ele>262.1</ele>
        <time>2013-09-29T12:23:19Z</time>
      </trkpt>
      <trkpt lat="43.44638" lon="1.48926">
        <ele>262.1</ele>
        <time>2013-09-29T12:23:20Z</time>
      </trkpt>
      <trkpt lat="43.44635" lon="1.4892">
        <ele>261.14</ele>
        <time>2013-09-29T12:23:21Z</time>
      </trkpt>
      <trkpt lat="43.44635" lon="1.48913">
        <ele>261.62</ele>
        <time>2013-09-29T12:23:22Z</time>
      </trkpt>
      <trkpt lat="43.44634" lon="1.48899">
        <ele>262.1</ele>
        <time>2013-09-29T12:23:24Z</time>
      </trkpt>
      <trkpt lat="43.44635" lon="1.48893">
        <ele>262.1</ele>
        <time>2013-09-29T12:23:25Z</time>
      </trkpt>
      <trkpt lat="43.44635" lon="1.48887">
        <ele>262.1</ele>
        <time>2013-09-29T12:23:26Z</time>
      </trkpt>
      <trkpt lat="43.44655" lon="1.4879">
        <ele>259.69</ele>
        <time>2013-09-29T12:23:40Z</time>
      </trkpt>
      <trkpt lat="43.44659" lon="1.48769">
        <ele>259.21</ele>
        <time>2013-09-29T12:23:43Z</time>
      </trkpt>
      <trkpt lat="43.44663" lon="1.48747">
        <ele>259.69</ele>
        <time>2013-09-29T12:23:46Z</time>
      </trkpt>
      <trkpt lat="43.44666" lon="1.48741">
        <ele>258.73</ele>
        <time>2013-09-29T12:23:47Z</time>
      </trkpt>
      <trkpt lat="43.44669" lon="1.48734">
        <ele>258.25</ele>
        <time>2013-09-29T12:23:48Z</time>
      </trkpt>
      <trkpt lat="43.44691" lon="1.48688">
        <ele>258.25</ele>
        <time>2013-09-29T12:23:56Z</time>
      </trkpt>
      <trkpt lat="43.44693" lon="1.48682">
        <ele>258.25</ele>
        <time>2013-09-29T12:23:57Z</time>
      </trkpt>
      <trkpt lat="43.44712" lon="1.48587">
        <ele>254.89</ele>
        <time>2013-09-29T12:24:11Z</time>
      </trkpt>
      <trkpt lat="43.44715" lon="1.48573">
        <ele>254.41</ele>
        <time>2013-09-29T12:24:13Z</time>
      </trkpt>
      <trkpt lat="43.44733" lon="1.48479">
        <ele>251.52</ele>
        <time>2013-09-29T12:24:27Z</time>
      </trkpt>
      <trkpt lat="43.44734" lon="1.48471">
        <ele>251.04</ele>
        <time>2013-09-29T12:24:28Z</time>
      </trkpt>
      <trkpt lat="43.44756" lon="1.48383">
        <ele>249.6</ele>
        <time>2013-09-29T12:24:41Z</time>
      </trkpt>
      <trkpt lat="43.44758" lon="1.48381">
        <ele>248.64</ele>
        <time>2013-09-29T12:24:42Z</time>
      </trkpt>
      <trkpt lat="43.4476" lon="1.4838">
        <ele>249.12</ele>
        <time>2013-09-29T12:24:43Z</time>
      </trkpt>
      <trkpt lat="43.44772" lon="1.48374">
        <ele>246.72</ele>
        <time>2013-09-29T12:24:48Z</time>
      </trkpt>
      <trkpt lat="43.44803" lon="1.48363">
        <ele>243.35</ele>
        <time>2013-09-29T12:24:56Z</time>
      </trkpt>
      <trkpt lat="43.44808" lon="1.48362">
        <ele>242.87</ele>
        <time>2013-09-29T12:24:57Z</time>
      </trkpt>
      <trkpt lat="43.44823" lon="1.4836">
        <ele>240.95</ele>
        <time>2013-09-29T12:25:00Z</time>
      </trkpt>
      <trkpt lat="43.44828" lon="1.4836">
        <ele>241.43</ele>
        <time>2013-09-29T12:25:01Z</time>
      </trkpt>
      <trkpt lat="43.44832" lon="1.48361">
        <ele>240.95</ele>
        <time>2013-09-29T12:25:02Z</time>
      </trkpt>
      <trkpt lat="43.44836" lon="1.48363">
        <ele>239.51</ele>
        <time>2013-09-29T12:25:03Z</time>
      </trkpt>
      <trkpt lat="43.44847" lon="1.48372">
        <ele>238.06</ele>
        <time>2013-09-29T12:25:06Z</time>
      </trkpt>
      <trkpt lat="43.44849" lon="1.48377">
        <ele>237.58</ele>
        <time>2013-09-29T12:25:07Z</time>
      </trkpt>
      <trkpt lat="43.44852" lon="1.48383">
        <ele>237.58</ele>
        <time>2013-09-29T12:25:08Z</time>
      </trkpt>
      <trkpt lat="43.4486" lon="1.4841">
        <ele>235.66</ele>
        <time>2013-09-29T12:25:12Z</time>
      </trkpt>
      <trkpt lat="43.44861" lon="1.48418">
        <ele>235.66</ele>
        <time>2013-09-29T12:25:13Z</time>
      </trkpt>
      <trkpt lat="43.44869" lon="1.48469">
        <ele>234.7</ele>
        <time>2013-09-29T12:25:20Z</time>
      </trkpt>
      <trkpt lat="43.44878" lon="1.48486">
        <ele>234.7</ele>
        <time>2013-09-29T12:25:25Z</time>
      </trkpt>
      <trkpt lat="43.4489" lon="1.4849">
        <ele>234.7</ele>
        <time>2013-09-29T12:25:36Z</time>
      </trkpt>
      <trkpt lat="43.44896" lon="1.48484">
        <ele>236.14</ele>
        <time>2013-09-29T12:25:43Z</time>
      </trkpt>
      <trkpt lat="43.44905" lon="1.48485">
        <ele>239.02</ele>
        <time>2013-09-29T12:25:55Z</time>
      </trkpt>
      <trkpt lat="43.44907" lon="1.48487">
        <ele>241.43</ele>
        <time>2013-09-29T12:26:04Z</time>
      </trkpt>
      <trkpt lat="43.44914" lon="1.48493">
        <ele>240.95</ele>
        <time>2013-09-29T12:26:23Z</time>
      </trkpt>
      <trkpt lat="43.44933" lon="1.48506">
        <ele>243.35</ele>
        <time>2013-09-29T12:26:37Z</time>
      </trkpt>
      <trkpt lat="43.44944" lon="1.4849">
        <ele>244.79</ele>
        <time>2013-09-29T12:26:47Z</time>
      </trkpt>
      <trkpt lat="43.44957" lon="1.48416">
        <ele>243.83</ele>
        <time>2013-09-29T12:27:05Z</time>
      </trkpt>
      <trkpt lat="43.44967" lon="1.48334">
        <ele>243.83</ele>
        <time>2013-09-29T12:27:21Z</time>
      </trkpt>
      <trkpt lat="43.4498" lon="1.48244">
        <ele>246.23</ele>
        <time>2013-09-29T12:27:38Z</time>
      </trkpt>
      <trkpt lat="43.44979" lon="1.48214">
        <ele>248.16</ele>
        <time>2013-09-29T12:27:50Z</time>
      </trkpt>
      <trkpt lat="43.44983" lon="1.48217">
        <ele>248.16</ele>
        <time>2013-09-29T12:28:13Z</time>
      </trkpt>
      <trkpt lat="43.44982" lon="1.48218">
        <ele>247.68</ele>
        <time>2013-09-29T12:28:38Z</time>
      </trkpt>
      <trkpt lat="43.44983" lon="1.4822">
        <ele>248.16</ele>
        <time>2013-09-29T12:29:06Z</time>
      </trkpt>
      <trkpt lat="43.44993" lon="1.48231">
        <ele>249.12</ele>
        <time>2013-09-29T12:29:12Z</time>
      </trkpt>
      <trkpt lat="43.45015" lon="1.48257">
        <ele>252.48</ele>
        <time>2013-09-29T12:29:23Z</time>
      </trkpt>
      <trkpt lat="43.45046" lon="1.48293">
        <ele>254.89</ele>
        <time>2013-09-29T12:29:39Z</time>
      </trkpt>
      <trkpt lat="43.45074" lon="1.48317">
        <ele>256.33</ele>
        <time>2013-09-29T12:29:52Z</time>
      </trkpt>
      <trkpt lat="43.45116" lon="1.48359">
        <ele>258.73</ele>
        <time>2013-09-29T12:30:11Z</time>
      </trkpt>
      <trkpt lat="43.45155" lon="1.48398">
        <ele>262.1</ele>
        <time>2013-09-29T12:30:29Z</time>
      </trkpt>
      <trkpt lat="43.452" lon="1.48426">
        <ele>263.54</ele>
        <time>2013-09-29T12:30:46Z</time>
      </trkpt>
      <trkpt lat="43.45249" lon="1.48448">
        <ele>265.46</ele>
        <time>2013-09-29T12:31:04Z</time>
      </trkpt>
      <trkpt lat="43.45277" lon="1.4846">
        <ele>268.83</ele>
        <time>2013-09-29T12:31:17Z</time>
      </trkpt>
      <trkpt lat="43.45298" lon="1.48469">
        <ele>272.19</ele>
        <time>2013-09-29T12:31:29Z</time>
      </trkpt>
      <trkpt lat="43.45322" lon="1.48478">
        <ele>275.07</ele>
        <time>2013-09-29T12:31:45Z</time>
      </trkpt>
      <trkpt lat="43.45333" lon="1.48488">
        <ele>277</ele>
        <time>2013-09-29T12:31:54Z</time>
      </trkpt>
      <trkpt lat="43.45334" lon="1.48502">
        <ele>278.92</ele>
        <time>2013-09-29T12:32:02Z</time>
      </trkpt>
      <trkpt lat="43.45318" lon="1.48533">
        <ele>280.84</ele>
        <time>2013-09-29T12:32:17Z</time>
      </trkpt>
      <trkpt lat="43.45305" lon="1.48567">
        <ele>280.84</ele>
        <time>2013-09-29T12:32:30Z</time>
      </trkpt>
      <trkpt lat="43.45301" lon="1.48577">
        <ele>281.32</ele>
        <time>2013-09-29T12:32:43Z</time>
      </trkpt>
      <trkpt lat="43.45303" lon="1.48576">
        <ele>281.32</ele>
        <time>2013-09-29T12:33:02Z</time>
      </trkpt>
      <trkpt lat="43.45316" lon="1.48563">
        <ele>282.77</ele>
        <time>2013-09-29T12:33:13Z</time>
      </trkpt>
      <trkpt lat="43.45316" lon="1.48561">
        <ele>282.77</ele>
        <time>2013-09-29T12:33:25Z</time>
      </trkpt>
      <trkpt lat="43.45316" lon="1.48561">
        <ele>282.28</ele>
        <time>2013-09-29T12:33:51Z</time>
      </trkpt>
      <trkpt lat="43.45316" lon="1.48561">
        <ele>282.77</ele>
        <time>2013-09-29T12:34:16Z</time>
      </trkpt>
      <trkpt lat="43.45316" lon="1.48561">
        <ele>282.77</ele>
        <time>2013-09-29T12:34:43Z</time>
      </trkpt>
      <trkpt lat="43.45316" lon="1.48561">
        <ele>282.77</ele>
        <time>2013-09-29T12:35:13Z</time>
      </trkpt>
      <trkpt lat="43.45316" lon="1.48561">
        <ele>283.25</ele>
        <time>2013-09-29T12:35:47Z</time>
      </trkpt>
      <trkpt lat="43.45315" lon="1.48563">
        <ele>282.77</ele>
        <time>2013-09-29T12:36:13Z</time>
      </trkpt>
      <trkpt lat="43.45308" lon="1.48572">
        <ele>281.8</ele>
        <time>2013-09-29T12:36:18Z</time>
      </trkpt>
      <trkpt lat="43.45296" lon="1.4861">
        <ele>282.28</ele>
        <time>2013-09-29T12:36:28Z</time>
      </trkpt>
      <trkpt lat="43.453" lon="1.48613">
        <ele>282.77</ele>
        <time>2013-09-29T12:36:30Z</time>
      </trkpt>
      <trkpt lat="43.45327" lon="1.48634">
        <ele>283.73</ele>
        <time>2013-09-29T12:36:45Z</time>
      </trkpt>
      <trkpt lat="43.45356" lon="1.48654">
        <ele>281.8</ele>
        <time>2013-09-29T12:36:53Z</time>
      </trkpt>
      <trkpt lat="43.4536" lon="1.48657">
        <ele>281.8</ele>
        <time>2013-09-29T12:36:54Z</time>
      </trkpt>
      <trkpt lat="43.45403" lon="1.48697">
        <ele>278.92</ele>
        <time>2013-09-29T12:37:05Z</time>
      </trkpt>
      <trkpt lat="43.45407" lon="1.487">
        <ele>278.44</ele>
        <time>2013-09-29T12:37:06Z</time>
      </trkpt>
      <trkpt lat="43.45429" lon="1.48719">
        <ele>275.07</ele>
        <time>2013-09-29T12:37:12Z</time>
      </trkpt>
      <trkpt lat="43.45433" lon="1.48722">
        <ele>273.63</ele>
        <time>2013-09-29T12:37:13Z</time>
      </trkpt>
      <trkpt lat="43.45448" lon="1.48735">
        <ele>270.27</ele>
        <time>2013-09-29T12:37:16Z</time>
      </trkpt>
      <trkpt lat="43.4546" lon="1.48745">
        <ele>266.9</ele>
        <time>2013-09-29T12:37:18Z</time>
      </trkpt>
      <trkpt lat="43.45473" lon="1.48754">
        <ele>263.06</ele>
        <time>2013-09-29T12:37:20Z</time>
      </trkpt>
      <trkpt lat="43.45491" lon="1.48769">
        <ele>259.69</ele>
        <time>2013-09-29T12:37:23Z</time>
      </trkpt>
      <trkpt lat="43.45504" lon="1.4878">
        <ele>258.25</ele>
        <time>2013-09-29T12:37:26Z</time>
      </trkpt>
      <trkpt lat="43.45511" lon="1.48792">
        <ele>256.33</ele>
        <time>2013-09-29T12:37:29Z</time>
      </trkpt>
      <trkpt lat="43.45511" lon="1.48797">
        <ele>256.33</ele>
        <time>2013-09-29T12:37:30Z</time>
      </trkpt>
      <trkpt lat="43.45512" lon="1.48801">
        <ele>256.81</ele>
        <time>2013-09-29T12:37:31Z</time>
      </trkpt>
      <trkpt lat="43.45514" lon="1.48804">
        <ele>255.85</ele>
        <time>2013-09-29T12:37:32Z</time>
      </trkpt>
      <trkpt lat="43.45517" lon="1.48806">
        <ele>254.89</ele>
        <time>2013-09-29T12:37:33Z</time>
      </trkpt>
      <trkpt lat="43.45519" lon="1.4881">
        <ele>254.89</ele>
        <time>2013-09-29T12:37:34Z</time>
      </trkpt>
      <trkpt lat="43.45519" lon="1.48814">
        <ele>254.89</ele>
        <time>2013-09-29T12:37:35Z</time>
      </trkpt>
      <trkpt lat="43.45519" lon="1.48818">
        <ele>254.41</ele>
        <time>2013-09-29T12:37:36Z</time>
      </trkpt>
      <trkpt lat="43.45518" lon="1.48823">
        <ele>254.41</ele>
        <time>2013-09-29T12:37:37Z</time>
      </trkpt>
      <trkpt lat="43.45517" lon="1.48826">
        <ele>254.41</ele>
        <time>2013-09-29T12:37:38Z</time>
      </trkpt>
      <trkpt lat="43.45515" lon="1.4883">
        <ele>254.41</ele>
        <time>2013-09-29T12:37:39Z</time>
      </trkpt>
      <trkpt lat="43.45515" lon="1.48834">
        <ele>253.93</ele>
        <time>2013-09-29T12:37:40Z</time>
      </trkpt>
      <trkpt lat="43.45511" lon="1.48858">
        <ele>252.96</ele>
        <time>2013-09-29T12:37:46Z</time>
      </trkpt>
      <trkpt lat="43.45511" lon="1.48861">
        <ele>252.48</ele>
        <time>2013-09-29T12:37:47Z</time>
      </trkpt>
      <trkpt lat="43.45514" lon="1.48864">
        <ele>251.52</ele>
        <time>2013-09-29T12:37:48Z</time>
      </trkpt>
      <trkpt lat="43.45517" lon="1.48865">
        <ele>251.04</ele>
        <time>2013-09-29T12:37:49Z</time>
      </trkpt>
      <trkpt lat="43.45521" lon="1.48866">
        <ele>251.04</ele>
        <time>2013-09-29T12:37:50Z</time>
      </trkpt>
      <trkpt lat="43.45535" lon="1.48874">
        <ele>247.68</ele>
        <time>2013-09-29T12:37:55Z</time>
      </trkpt>
      <trkpt lat="43.45538" lon="1.48875">
        <ele>247.2</ele>
        <time>2013-09-29T12:37:56Z</time>
      </trkpt>
      <trkpt lat="43.45545" lon="1.48878">
        <ele>245.27</ele>
        <time>2013-09-29T12:37:59Z</time>
      </trkpt>
      <trkpt lat="43.45557" lon="1.48889">
        <ele>242.87</ele>
        <time>2013-09-29T12:38:11Z</time>
      </trkpt>
      <trkpt lat="43.45561" lon="1.48893">
        <ele>240.95</ele>
        <time>2013-09-29T12:38:23Z</time>
      </trkpt>
      <trkpt lat="43.45564" lon="1.48899">
        <ele>239.02</ele>
        <time>2013-09-29T12:38:29Z</time>
      </trkpt>
      <trkpt lat="43.45567" lon="1.48905">
        <ele>235.66</ele>
        <time>2013-09-29T12:38:40Z</time>
      </trkpt>
      <trkpt lat="43.45575" lon="1.48919">
        <ele>234.22</ele>
        <time>2013-09-29T12:38:54Z</time>
      </trkpt>
      <trkpt lat="43.45577" lon="1.48919">
        <ele>234.22</ele>
        <time>2013-09-29T12:38:59Z</time>
      </trkpt>
      <trkpt lat="43.45597" lon="1.48913">
        <ele>233.74</ele>
        <time>2013-09-29T12:39:11Z</time>
      </trkpt>
      <trkpt lat="43.45602" lon="1.48908">
        <ele>234.22</ele>
        <time>2013-09-29T12:39:13Z</time>
      </trkpt>
      <trkpt lat="43.45643" lon="1.48863">
        <ele>232.3</ele>
        <time>2013-09-29T12:39:28Z</time>
      </trkpt>
      <trkpt lat="43.45661" lon="1.48843">
        <ele>232.3</ele>
        <time>2013-09-29T12:39:33Z</time>
      </trkpt>
      <trkpt lat="43.4571" lon="1.48785">
        <ele>229.41</ele>
        <time>2013-09-29T12:39:48Z</time>
      </trkpt>
      <trkpt lat="43.45714" lon="1.48781">
        <ele>229.89</ele>
        <time>2013-09-29T12:39:49Z</time>
      </trkpt>
      <trkpt lat="43.45723" lon="1.48769">
        <ele>228.93</ele>
        <time>2013-09-29T12:39:52Z</time>
      </trkpt>
      <trkpt lat="43.45745" lon="1.48764">
        <ele>230.37</ele>
        <time>2013-09-29T12:40:01Z</time>
      </trkpt>
      <trkpt lat="43.45757" lon="1.48784">
        <ele>233.74</ele>
        <time>2013-09-29T12:40:15Z</time>
      </trkpt>
      <trkpt lat="43.45765" lon="1.48799">
        <ele>237.1</ele>
        <time>2013-09-29T12:40:26Z</time>
      </trkpt>
      <trkpt lat="43.45773" lon="1.48812">
        <ele>239.99</ele>
        <time>2013-09-29T12:40:37Z</time>
      </trkpt>
      <trkpt lat="43.45781" lon="1.48827">
        <ele>242.87</ele>
        <time>2013-09-29T12:40:51Z</time>
      </trkpt>
      <trkpt lat="43.45789" lon="1.48839">
        <ele>245.27</ele>
        <time>2013-09-29T12:41:05Z</time>
      </trkpt>
      <trkpt lat="43.45799" lon="1.48854">
        <ele>248.64</ele>
        <time>2013-09-29T12:41:21Z</time>
      </trkpt>
      <trkpt lat="43.4581" lon="1.4887">
        <ele>250.56</ele>
        <time>2013-09-29T12:41:36Z</time>
      </trkpt>
      <trkpt lat="43.4582" lon="1.48886">
        <ele>253.93</ele>
        <time>2013-09-29T12:41:52Z</time>
      </trkpt>
      <trkpt lat="43.45832" lon="1.48902">
        <ele>255.37</ele>
        <time>2013-09-29T12:42:07Z</time>
      </trkpt>
      <trkpt lat="43.45835" lon="1.48907">
        <ele>256.33</ele>
        <time>2013-09-29T12:42:11Z</time>
      </trkpt>
      <trkpt lat="43.45836" lon="1.48908">
        <ele>256.33</ele>
        <time>2013-09-29T12:42:12Z</time>
      </trkpt>
      <trkpt lat="43.45837" lon="1.48909">
        <ele>256.81</ele>
        <time>2013-09-29T12:42:13Z</time>
      </trkpt>
      <trkpt lat="43.45838" lon="1.48909">
        <ele>256.33</ele>
        <time>2013-09-29T12:42:14Z</time>
      </trkpt>
      <trkpt lat="43.45839" lon="1.4891">
        <ele>256.81</ele>
        <time>2013-09-29T12:42:15Z</time>
      </trkpt>
      <trkpt lat="43.45839" lon="1.48912">
        <ele>256.33</ele>
        <time>2013-09-29T12:42:16Z</time>
      </trkpt>
      <trkpt lat="43.45849" lon="1.48925">
        <ele>258.73</ele>
        <time>2013-09-29T12:42:29Z</time>
      </trkpt>
      <trkpt lat="43.4585" lon="1.48926">
        <ele>259.21</ele>
        <time>2013-09-29T12:42:30Z</time>
      </trkpt>
      <trkpt lat="43.4586" lon="1.4894">
        <ele>261.62</ele>
        <time>2013-09-29T12:42:45Z</time>
      </trkpt>
      <trkpt lat="43.45872" lon="1.48956">
        <ele>264.02</ele>
        <time>2013-09-29T12:43:02Z</time>
      </trkpt>
      <trkpt lat="43.45886" lon="1.48977">
        <ele>266.9</ele>
        <time>2013-09-29T12:43:19Z</time>
      </trkpt>
      <trkpt lat="43.45891" lon="1.4898">
        <ele>266.42</ele>
        <time>2013-09-29T12:43:32Z</time>
      </trkpt>
      <trkpt lat="43.45891" lon="1.4898">
        <ele>266.9</ele>
        <time>2013-09-29T12:43:55Z</time>
      </trkpt>
      <trkpt lat="43.45891" lon="1.4898">
        <ele>265.94</ele>
        <time>2013-09-29T12:44:19Z</time>
      </trkpt>
      <trkpt lat="43.45891" lon="1.48979">
        <ele>266.42</ele>
        <time>2013-09-29T12:44:52Z</time>
      </trkpt>
      <trkpt lat="43.45892" lon="1.48978">
        <ele>266.42</ele>
        <time>2013-09-29T12:45:01Z</time>
      </trkpt>
      <trkpt lat="43.45892" lon="1.48976">
        <ele>266.42</ele>
        <time>2013-09-29T12:45:02Z</time>
      </trkpt>
      <trkpt lat="43.45893" lon="1.48974">
        <ele>266.42</ele>
        <time>2013-09-29T12:45:03Z</time>
      </trkpt>
      <trkpt lat="43.45894" lon="1.48972">
        <ele>265.46</ele>
        <time>2013-09-29T12:45:04Z</time>
      </trkpt>
      <trkpt lat="43.45895" lon="1.4897">
        <ele>265.46</ele>
        <time>2013-09-29T12:45:05Z</time>
      </trkpt>
      <trkpt lat="43.4592" lon="1.48928">
        <ele>262.1</ele>
        <time>2013-09-29T12:45:14Z</time>
      </trkpt>
      <trkpt lat="43.45928" lon="1.48914">
        <ele>261.14</ele>
        <time>2013-09-29T12:45:16Z</time>
      </trkpt>
      <trkpt lat="43.45959" lon="1.48862">
        <ele>257.77</ele>
        <time>2013-09-29T12:45:23Z</time>
      </trkpt>
      <trkpt lat="43.46006" lon="1.48781">
        <ele>254.41</ele>
        <time>2013-09-29T12:45:34Z</time>
      </trkpt>
      <trkpt lat="43.4603" lon="1.48741">
        <ele>252</ele>
        <time>2013-09-29T12:45:40Z</time>
      </trkpt>
      <trkpt lat="43.4607" lon="1.48659">
        <ele>248.16</ele>
        <time>2013-09-29T12:45:52Z</time>
      </trkpt>
      <trkpt lat="43.46097" lon="1.48596">
        <ele>246.72</ele>
        <time>2013-09-29T12:46:02Z</time>
      </trkpt>
      <trkpt lat="43.46115" lon="1.48564">
        <ele>243.35</ele>
        <time>2013-09-29T12:46:07Z</time>
      </trkpt>
      <trkpt lat="43.46143" lon="1.4852">
        <ele>240.47</ele>
        <time>2013-09-29T12:46:13Z</time>
      </trkpt>
      <trkpt lat="43.4616" lon="1.48495">
        <ele>237.1</ele>
        <time>2013-09-29T12:46:16Z</time>
      </trkpt>
      <trkpt lat="43.46184" lon="1.48456">
        <ele>233.74</ele>
        <time>2013-09-29T12:46:20Z</time>
      </trkpt>
      <trkpt lat="43.46217" lon="1.48395">
        <ele>230.37</ele>
        <time>2013-09-29T12:46:26Z</time>
      </trkpt>
      <trkpt lat="43.46225" lon="1.4838">
        <ele>229.41</ele>
        <time>2013-09-29T12:46:28Z</time>
      </trkpt>
      <trkpt lat="43.46229" lon="1.48375">
        <ele>228.93</ele>
        <time>2013-09-29T12:46:29Z</time>
      </trkpt>
      <trkpt lat="43.46233" lon="1.48371">
        <ele>228.93</ele>
        <time>2013-09-29T12:46:30Z</time>
      </trkpt>
      <trkpt lat="43.46238" lon="1.48369">
        <ele>228.45</ele>
        <time>2013-09-29T12:46:31Z</time>
      </trkpt>
      <trkpt lat="43.46243" lon="1.48369">
        <ele>227.97</ele>
        <time>2013-09-29T12:46:32Z</time>
      </trkpt>
      <trkpt lat="43.46248" lon="1.4837">
        <ele>227.49</ele>
        <time>2013-09-29T12:46:33Z</time>
      </trkpt>
      <trkpt lat="43.46254" lon="1.48372">
        <ele>226.53</ele>
        <time>2013-09-29T12:46:34Z</time>
      </trkpt>
      <trkpt lat="43.46262" lon="1.48379">
        <ele>226.05</ele>
        <time>2013-09-29T12:46:35Z</time>
      </trkpt>
      <trkpt lat="43.46307" lon="1.48406">
        <ele>223.64</ele>
        <time>2013-09-29T12:46:41Z</time>
      </trkpt>
      <trkpt lat="43.46347" lon="1.48421">
        <ele>219.8</ele>
        <time>2013-09-29T12:46:46Z</time>
      </trkpt>
      <trkpt lat="43.46397" lon="1.48444">
        <ele>215.47</ele>
        <time>2013-09-29T12:46:52Z</time>
      </trkpt>
      <trkpt lat="43.46404" lon="1.48451">
        <ele>214.51</ele>
        <time>2013-09-29T12:46:53Z</time>
      </trkpt>
      <trkpt lat="43.46433" lon="1.4848">
        <ele>211.63</ele>
        <time>2013-09-29T12:46:57Z</time>
      </trkpt>
      <trkpt lat="43.46441" lon="1.48484">
        <ele>210.67</ele>
        <time>2013-09-29T12:46:58Z</time>
      </trkpt>
      <trkpt lat="43.46449" lon="1.48486">
        <ele>209.7</ele>
        <time>2013-09-29T12:46:59Z</time>
      </trkpt>
      <trkpt lat="43.46458" lon="1.48488">
        <ele>209.22</ele>
        <time>2013-09-29T12:47:00Z</time>
      </trkpt>
      <trkpt lat="43.46466" lon="1.48489">
        <ele>209.22</ele>
        <time>2013-09-29T12:47:01Z</time>
      </trkpt>
      <trkpt lat="43.46475" lon="1.48489">
        <ele>208.26</ele>
        <time>2013-09-29T12:47:02Z</time>
      </trkpt>
      <trkpt lat="43.46509" lon="1.48489">
        <ele>206.34</ele>
        <time>2013-09-29T12:47:06Z</time>
      </trkpt>
      <trkpt lat="43.46517" lon="1.48487">
        <ele>206.34</ele>
        <time>2013-09-29T12:47:07Z</time>
      </trkpt>
      <trkpt lat="43.46524" lon="1.48485">
        <ele>206.34</ele>
        <time>2013-09-29T12:47:08Z</time>
      </trkpt>
      <trkpt lat="43.4653" lon="1.48482">
        <ele>206.34</ele>
        <time>2013-09-29T12:47:09Z</time>
      </trkpt>
      <trkpt lat="43.46563" lon="1.48446">
        <ele>207.3</ele>
        <time>2013-09-29T12:47:20Z</time>
      </trkpt>
      <trkpt lat="43.46616" lon="1.48391">
        <ele>205.38</ele>
        <time>2013-09-29T12:47:37Z</time>
      </trkpt>
      <trkpt lat="43.46669" lon="1.48363">
        <ele>204.9</ele>
        <time>2013-09-29T12:47:49Z</time>
      </trkpt>
      <trkpt lat="43.46698" lon="1.48346">
        <ele>205.38</ele>
        <time>2013-09-29T12:48:01Z</time>
      </trkpt>
      <trkpt lat="43.46698" lon="1.48348">
        <ele>205.38</ele>
        <time>2013-09-29T12:48:02Z</time>
      </trkpt>
      <trkpt lat="43.46698" lon="1.4835">
        <ele>205.86</ele>
        <time>2013-09-29T12:48:03Z</time>
      </trkpt>
      <trkpt lat="43.46697" lon="1.48353">
        <ele>205.86</ele>
        <time>2013-09-29T12:48:17Z</time>
      </trkpt>
      <trkpt lat="43.46697" lon="1.4835">
        <ele>205.38</ele>
        <time>2013-09-29T12:48:30Z</time>
      </trkpt>
      <trkpt lat="43.46698" lon="1.48348">
        <ele>205.38</ele>
        <time>2013-09-29T12:48:31Z</time>
      </trkpt>
      <trkpt lat="43.46698" lon="1.48346">
        <ele>205.38</ele>
        <time>2013-09-29T12:48:32Z</time>
      </trkpt>
      <trkpt lat="43.46699" lon="1.48344">
        <ele>205.38</ele>
        <time>2013-09-29T12:48:33Z</time>
      </trkpt>
      <trkpt lat="43.46701" lon="1.48343">
        <ele>205.38</ele>
        <time>2013-09-29T12:48:34Z</time>
      </trkpt>
      <trkpt lat="43.46703" lon="1.48341">
        <ele>204.9</ele>
        <time>2013-09-29T12:48:35Z</time>
      </trkpt>
      <trkpt lat="43.46706" lon="1.4834">
        <ele>204.9</ele>
        <time>2013-09-29T12:48:36Z</time>
      </trkpt>
      <trkpt lat="43.46764" lon="1.48319">
        <ele>203.94</ele>
        <time>2013-09-29T12:48:51Z</time>
      </trkpt>
      <trkpt lat="43.46832" lon="1.48258">
        <ele>204.42</ele>
        <time>2013-09-29T12:49:08Z</time>
      </trkpt>
      <trkpt lat="43.46909" lon="1.48199">
        <ele>203.94</ele>
        <time>2013-09-29T12:49:27Z</time>
      </trkpt>
      <trkpt lat="43.46957" lon="1.48163">
        <ele>202.98</ele>
        <time>2013-09-29T12:49:39Z</time>
      </trkpt>
      <trkpt lat="43.47015" lon="1.48116">
        <ele>202.98</ele>
        <time>2013-09-29T12:49:55Z</time>
      </trkpt>
      <trkpt lat="43.47061" lon="1.48087">
        <ele>201.53</ele>
        <time>2013-09-29T12:50:05Z</time>
      </trkpt>
      <trkpt lat="43.47138" lon="1.48041">
        <ele>199.13</ele>
        <time>2013-09-29T12:50:18Z</time>
      </trkpt>
      <trkpt lat="43.47193" lon="1.47984">
        <ele>199.13</ele>
        <time>2013-09-29T12:50:31Z</time>
      </trkpt>
      <trkpt lat="43.47226" lon="1.47941">
        <ele>199.13</ele>
        <time>2013-09-29T12:50:43Z</time>
      </trkpt>
      <trkpt lat="43.47229" lon="1.47939">
        <ele>199.61</ele>
        <time>2013-09-29T12:50:44Z</time>
      </trkpt>
      <trkpt lat="43.47233" lon="1.4794">
        <ele>198.65</ele>
        <time>2013-09-29T12:50:45Z</time>
      </trkpt>
      <trkpt lat="43.47237" lon="1.47942">
        <ele>198.17</ele>
        <time>2013-09-29T12:50:46Z</time>
      </trkpt>
      <trkpt lat="43.47241" lon="1.47945">
        <ele>198.65</ele>
        <time>2013-09-29T12:50:47Z</time>
      </trkpt>
      <trkpt lat="43.47245" lon="1.47948">
        <ele>198.17</ele>
        <time>2013-09-29T12:50:48Z</time>
      </trkpt>
      <trkpt lat="43.47297" lon="1.47995">
        <ele>199.13</ele>
        <time>2013-09-29T12:51:00Z</time>
      </trkpt>
      <trkpt lat="43.47332" lon="1.48025">
        <ele>199.13</ele>
        <time>2013-09-29T12:51:12Z</time>
      </trkpt>
      <trkpt lat="43.47335" lon="1.48028">
        <ele>199.13</ele>
        <time>2013-09-29T12:51:13Z</time>
      </trkpt>
      <trkpt lat="43.47339" lon="1.48032">
        <ele>198.65</ele>
        <time>2013-09-29T12:51:14Z</time>
      </trkpt>
      <trkpt lat="43.47362" lon="1.48042">
        <ele>197.69</ele>
        <time>2013-09-29T12:51:23Z</time>
      </trkpt>
      <trkpt lat="43.47364" lon="1.48039">
        <ele>197.69</ele>
        <time>2013-09-29T12:51:24Z</time>
      </trkpt>
      <trkpt lat="43.47366" lon="1.48034">
        <ele>197.21</ele>
        <time>2013-09-29T12:51:25Z</time>
      </trkpt>
      <trkpt lat="43.47368" lon="1.4803">
        <ele>197.21</ele>
        <time>2013-09-29T12:51:26Z</time>
      </trkpt>
      <trkpt lat="43.47369" lon="1.48024">
        <ele>196.73</ele>
        <time>2013-09-29T12:51:27Z</time>
      </trkpt>
      <trkpt lat="43.47371" lon="1.48018">
        <ele>196.73</ele>
        <time>2013-09-29T12:51:28Z</time>
      </trkpt>
      <trkpt lat="43.47394" lon="1.47891">
        <ele>195.28</ele>
        <time>2013-09-29T12:51:46Z</time>
      </trkpt>
      <trkpt lat="43.47431" lon="1.47758">
        <ele>195.28</ele>
        <time>2013-09-29T12:52:04Z</time>
      </trkpt>
      <trkpt lat="43.47487" lon="1.47632">
        <ele>193.84</ele>
        <time>2013-09-29T12:52:23Z</time>
      </trkpt>
      <trkpt lat="43.47529" lon="1.47539">
        <ele>193.84</ele>
        <time>2013-09-29T12:52:40Z</time>
      </trkpt>
      <trkpt lat="43.47564" lon="1.47458">
        <ele>193.84</ele>
        <time>2013-09-29T12:52:55Z</time>
      </trkpt>
      <trkpt lat="43.47623" lon="1.47358">
        <ele>192.88</ele>
        <time>2013-09-29T12:53:14Z</time>
      </trkpt>
      <trkpt lat="43.47682" lon="1.47261">
        <ele>192.4</ele>
        <time>2013-09-29T12:53:33Z</time>
      </trkpt>
      <trkpt lat="43.47727" lon="1.47174">
        <ele>191.44</ele>
        <time>2013-09-29T12:53:50Z</time>
      </trkpt>
      <trkpt lat="43.47731" lon="1.47172">
        <ele>191.44</ele>
        <time>2013-09-29T12:53:51Z</time>
      </trkpt>
      <trkpt lat="43.47735" lon="1.47172">
        <ele>191.44</ele>
        <time>2013-09-29T12:53:52Z</time>
      </trkpt>
      <trkpt lat="43.47739" lon="1.47175">
        <ele>191.44</ele>
        <time>2013-09-29T12:53:53Z</time>
      </trkpt>
      <trkpt lat="43.47742" lon="1.47178">
        <ele>191.92</ele>
        <time>2013-09-29T12:53:54Z</time>
      </trkpt>
      <trkpt lat="43.47744" lon="1.47182">
        <ele>191.92</ele>
        <time>2013-09-29T12:53:55Z</time>
      </trkpt>
      <trkpt lat="43.47764" lon="1.47195">
        <ele>191.92</ele>
        <time>2013-09-29T12:54:01Z</time>
      </trkpt>
      <trkpt lat="43.47767" lon="1.47193">
        <ele>191.92</ele>
        <time>2013-09-29T12:54:02Z</time>
      </trkpt>
      <trkpt lat="43.4777" lon="1.4719">
        <ele>191.92</ele>
        <time>2013-09-29T12:54:03Z</time>
      </trkpt>
      <trkpt lat="43.47772" lon="1.47186">
        <ele>191.44</ele>
        <time>2013-09-29T12:54:04Z</time>
      </trkpt>
      <trkpt lat="43.47774" lon="1.47181">
        <ele>191.92</ele>
        <time>2013-09-29T12:54:05Z</time>
      </trkpt>
      <trkpt lat="43.47776" lon="1.47176">
        <ele>191.44</ele>
        <time>2013-09-29T12:54:06Z</time>
      </trkpt>
      <trkpt lat="43.47777" lon="1.4717">
        <ele>191.44</ele>
        <time>2013-09-29T12:54:07Z</time>
      </trkpt>
      <trkpt lat="43.4778" lon="1.47165">
        <ele>191.44</ele>
        <time>2013-09-29T12:54:08Z</time>
      </trkpt>
      <trkpt lat="43.47783" lon="1.47161">
        <ele>191.44</ele>
        <time>2013-09-29T12:54:09Z</time>
      </trkpt>
      <trkpt lat="43.47786" lon="1.47156">
        <ele>190.96</ele>
        <time>2013-09-29T12:54:10Z</time>
      </trkpt>
      <trkpt lat="43.47789" lon="1.47151">
        <ele>190.96</ele>
        <time>2013-09-29T12:54:11Z</time>
      </trkpt>
      <trkpt lat="43.47791" lon="1.47145">
        <ele>190.48</ele>
        <time>2013-09-29T12:54:12Z</time>
      </trkpt>
      <trkpt lat="43.47829" lon="1.47072">
        <ele>190.96</ele>
        <time>2013-09-29T12:54:27Z</time>
      </trkpt>
      <trkpt lat="43.47855" lon="1.47019">
        <ele>190.48</ele>
        <time>2013-09-29T12:54:39Z</time>
      </trkpt>
      <trkpt lat="43.47885" lon="1.4697">
        <ele>190</ele>
        <time>2013-09-29T12:54:53Z</time>
      </trkpt>
      <trkpt lat="43.47928" lon="1.46929">
        <ele>189.52</ele>
        <time>2013-09-29T12:55:06Z</time>
      </trkpt>
      <trkpt lat="43.47977" lon="1.46876">
        <ele>190</ele>
        <time>2013-09-29T12:55:23Z</time>
      </trkpt>
      <trkpt lat="43.48036" lon="1.46842">
        <ele>189.04</ele>
        <time>2013-09-29T12:55:40Z</time>
      </trkpt>
      <trkpt lat="43.4808" lon="1.46806">
        <ele>189.04</ele>
        <time>2013-09-29T12:55:56Z</time>
      </trkpt>
      <trkpt lat="43.48109" lon="1.46746">
        <ele>189.04</ele>
        <time>2013-09-29T12:56:13Z</time>
      </trkpt>
      <trkpt lat="43.48135" lon="1.46723">
        <ele>189.04</ele>
        <time>2013-09-29T12:56:28Z</time>
      </trkpt>
      <trkpt lat="43.48143" lon="1.46726">
        <ele>189.52</ele>
        <time>2013-09-29T12:56:49Z</time>
      </trkpt>
      <trkpt lat="43.48163" lon="1.46728">
        <ele>189.52</ele>
        <time>2013-09-29T12:57:07Z</time>
      </trkpt>
      <trkpt lat="43.48204" lon="1.46712">
        <ele>190</ele>
        <time>2013-09-29T12:57:23Z</time>
      </trkpt>
      <trkpt lat="43.48238" lon="1.46682">
        <ele>191.44</ele>
        <time>2013-09-29T12:57:39Z</time>
      </trkpt>
      <trkpt lat="43.4826" lon="1.46656">
        <ele>191.92</ele>
        <time>2013-09-29T12:57:53Z</time>
      </trkpt>
      <trkpt lat="43.4829" lon="1.46636">
        <ele>192.88</ele>
        <time>2013-09-29T12:58:10Z</time>
      </trkpt>
      <trkpt lat="43.48324" lon="1.46636">
        <ele>194.32</ele>
        <time>2013-09-29T12:58:27Z</time>
      </trkpt>
      <trkpt lat="43.48362" lon="1.46636">
        <ele>197.69</ele>
        <time>2013-09-29T12:58:46Z</time>
      </trkpt>
      <trkpt lat="43.48378" lon="1.46648">
        <ele>200.57</ele>
        <time>2013-09-29T12:59:01Z</time>
      </trkpt>
      <trkpt lat="43.48405" lon="1.46669">
        <ele>203.46</ele>
        <time>2013-09-29T12:59:21Z</time>
      </trkpt>
      <trkpt lat="43.48432" lon="1.46685">
        <ele>206.34</ele>
        <time>2013-09-29T12:59:42Z</time>
      </trkpt>
      <trkpt lat="43.48447" lon="1.46698">
        <ele>209.22</ele>
        <time>2013-09-29T12:59:57Z</time>
      </trkpt>
      <trkpt lat="43.48458" lon="1.46729">
        <ele>211.15</ele>
        <time>2013-09-29T13:00:15Z</time>
      </trkpt>
      <trkpt lat="43.48462" lon="1.46772">
        <ele>212.11</ele>
        <time>2013-09-29T13:00:33Z</time>
      </trkpt>
      <trkpt lat="43.4848" lon="1.46803">
        <ele>212.59</ele>
        <time>2013-09-29T13:00:48Z</time>
      </trkpt>
      <trkpt lat="43.4851" lon="1.46805">
        <ele>213.55</ele>
        <time>2013-09-29T13:01:03Z</time>
      </trkpt>
      <trkpt lat="43.48532" lon="1.46818">
        <ele>215.47</ele>
        <time>2013-09-29T13:01:19Z</time>
      </trkpt>
      <trkpt lat="43.48552" lon="1.46832">
        <ele>218.36</ele>
        <time>2013-09-29T13:01:35Z</time>
      </trkpt>
      <trkpt lat="43.48576" lon="1.46858">
        <ele>219.8</ele>
        <time>2013-09-29T13:01:54Z</time>
      </trkpt>
      <trkpt lat="43.48597" lon="1.46895">
        <ele>217.4</ele>
        <time>2013-09-29T13:02:06Z</time>
      </trkpt>
      <trkpt lat="43.48611" lon="1.46927">
        <ele>213.55</ele>
        <time>2013-09-29T13:02:11Z</time>
      </trkpt>
      <trkpt lat="43.48628" lon="1.46964">
        <ele>212.59</ele>
        <time>2013-09-29T13:02:15Z</time>
      </trkpt>
      <trkpt lat="43.48633" lon="1.46972">
        <ele>212.11</ele>
        <time>2013-09-29T13:02:16Z</time>
      </trkpt>
      <trkpt lat="43.48655" lon="1.47011">
        <ele>213.55</ele>
        <time>2013-09-29T13:02:22Z</time>
      </trkpt>
      <trkpt lat="43.48657" lon="1.47014">
        <ele>214.51</ele>
        <time>2013-09-29T13:02:23Z</time>
      </trkpt>
      <trkpt lat="43.48687" lon="1.47046">
        <ele>217.4</ele>
        <time>2013-09-29T13:02:39Z</time>
      </trkpt>
      <trkpt lat="43.4871" lon="1.47066">
        <ele>220.76</ele>
        <time>2013-09-29T13:02:55Z</time>
      </trkpt>
      <trkpt lat="43.48727" lon="1.47081">
        <ele>223.16</ele>
        <time>2013-09-29T13:03:11Z</time>
      </trkpt>
      <trkpt lat="43.48748" lon="1.47096">
        <ele>226.53</ele>
        <time>2013-09-29T13:03:30Z</time>
      </trkpt>
      <trkpt lat="43.48767" lon="1.4711">
        <ele>228.93</ele>
        <time>2013-09-29T13:03:48Z</time>
      </trkpt>
      <trkpt lat="43.48785" lon="1.47131">
        <ele>231.81</ele>
        <time>2013-09-29T13:04:06Z</time>
      </trkpt>
      <trkpt lat="43.48796" lon="1.47149">
        <ele>234.22</ele>
        <time>2013-09-29T13:04:20Z</time>
      </trkpt>
      <trkpt lat="43.48797" lon="1.4715">
        <ele>234.22</ele>
        <time>2013-09-29T13:04:21Z</time>
      </trkpt>
      <trkpt lat="43.48798" lon="1.47151">
        <ele>234.7</ele>
        <time>2013-09-29T13:04:22Z</time>
      </trkpt>
      <trkpt lat="43.48799" lon="1.47152">
        <ele>234.22</ele>
        <time>2013-09-29T13:04:23Z</time>
      </trkpt>
      <trkpt lat="43.488" lon="1.47154">
        <ele>234.7</ele>
        <time>2013-09-29T13:04:24Z</time>
      </trkpt>
      <trkpt lat="43.488" lon="1.47155">
        <ele>235.18</ele>
        <time>2013-09-29T13:04:25Z</time>
      </trkpt>
      <trkpt lat="43.48801" lon="1.47156">
        <ele>235.18</ele>
        <time>2013-09-29T13:04:26Z</time>
      </trkpt>
      <trkpt lat="43.48802" lon="1.47158">
        <ele>235.18</ele>
        <time>2013-09-29T13:04:27Z</time>
      </trkpt>
      <trkpt lat="43.48818" lon="1.47174">
        <ele>238.54</ele>
        <time>2013-09-29T13:04:43Z</time>
      </trkpt>
      <trkpt lat="43.48837" lon="1.47188">
        <ele>241.43</ele>
        <time>2013-09-29T13:04:58Z</time>
      </trkpt>
      <trkpt lat="43.48854" lon="1.47204">
        <ele>243.35</ele>
        <time>2013-09-29T13:05:14Z</time>
      </trkpt>
      <trkpt lat="43.4887" lon="1.47222">
        <ele>245.75</ele>
        <time>2013-09-29T13:05:30Z</time>
      </trkpt>
      <trkpt lat="43.48882" lon="1.47245">
        <ele>248.64</ele>
        <time>2013-09-29T13:05:46Z</time>
      </trkpt>
      <trkpt lat="43.48883" lon="1.47253">
        <ele>249.6</ele>
        <time>2013-09-29T13:05:52Z</time>
      </trkpt>
      <trkpt lat="43.48884" lon="1.47254">
        <ele>249.6</ele>
        <time>2013-09-29T13:05:53Z</time>
      </trkpt>
      <trkpt lat="43.48885" lon="1.47255">
        <ele>249.6</ele>
        <time>2013-09-29T13:05:54Z</time>
      </trkpt>
      <trkpt lat="43.48886" lon="1.47256">
        <ele>250.08</ele>
        <time>2013-09-29T13:05:55Z</time>
      </trkpt>
      <trkpt lat="43.48887" lon="1.47258">
        <ele>250.56</ele>
        <time>2013-09-29T13:05:56Z</time>
      </trkpt>
      <trkpt lat="43.48888" lon="1.4726">
        <ele>250.56</ele>
        <time>2013-09-29T13:05:57Z</time>
      </trkpt>
      <trkpt lat="43.4889" lon="1.47265">
        <ele>250.56</ele>
        <time>2013-09-29T13:06:00Z</time>
      </trkpt>
      <trkpt lat="43.48891" lon="1.47266">
        <ele>251.04</ele>
        <time>2013-09-29T13:06:01Z</time>
      </trkpt>
      <trkpt lat="43.48908" lon="1.47283">
        <ele>252.48</ele>
        <time>2013-09-29T13:06:16Z</time>
      </trkpt>
      <trkpt lat="43.4893" lon="1.47298">
        <ele>252</ele>
        <time>2013-09-29T13:06:32Z</time>
      </trkpt>
      <trkpt lat="43.48918" lon="1.47337">
        <ele>252</ele>
        <time>2013-09-29T13:06:46Z</time>
      </trkpt>
      <trkpt lat="43.48901" lon="1.47369">
        <ele>252.48</ele>
        <time>2013-09-29T13:07:01Z</time>
      </trkpt>
      <trkpt lat="43.48884" lon="1.47365">
        <ele>252.96</ele>
        <time>2013-09-29T13:07:14Z</time>
      </trkpt>
      <trkpt lat="43.48874" lon="1.4736">
        <ele>252.96</ele>
        <time>2013-09-29T13:07:22Z</time>
      </trkpt>
      <trkpt lat="43.48873" lon="1.47361">
        <ele>252.96</ele>
        <time>2013-09-29T13:07:23Z</time>
      </trkpt>
      <trkpt lat="43.48873" lon="1.47362">
        <ele>253.44</ele>
        <time>2013-09-29T13:07:24Z</time>
      </trkpt>
      <trkpt lat="43.48875" lon="1.47365">
        <ele>253.93</ele>
        <time>2013-09-29T13:07:27Z</time>
      </trkpt>
      <trkpt lat="43.48877" lon="1.47366">
        <ele>253.44</ele>
        <time>2013-09-29T13:07:28Z</time>
      </trkpt>
      <trkpt lat="43.48878" lon="1.47366">
        <ele>253.44</ele>
        <time>2013-09-29T13:07:29Z</time>
      </trkpt>
      <trkpt lat="43.4888" lon="1.47366">
        <ele>253.44</ele>
        <time>2013-09-29T13:07:30Z</time>
      </trkpt>
      <trkpt lat="43.48881" lon="1.47366">
        <ele>253.44</ele>
        <time>2013-09-29T13:07:31Z</time>
      </trkpt>
      <trkpt lat="43.48882" lon="1.47366">
        <ele>252.96</ele>
        <time>2013-09-29T13:07:32Z</time>
      </trkpt>
      <trkpt lat="43.489" lon="1.47372">
        <ele>252.96</ele>
        <time>2013-09-29T13:07:45Z</time>
      </trkpt>
      <trkpt lat="43.489" lon="1.47372">
        <ele>252.96</ele>
        <time>2013-09-29T13:08:14Z</time>
      </trkpt>
      <trkpt lat="43.489" lon="1.47372">
        <ele>252.96</ele>
        <time>2013-09-29T13:08:36Z</time>
      </trkpt>
      <trkpt lat="43.489" lon="1.47372">
        <ele>252.96</ele>
        <time>2013-09-29T13:09:04Z</time>
      </trkpt>
      <trkpt lat="43.48901" lon="1.47374">
        <ele>253.44</ele>
        <time>2013-09-29T13:09:06Z</time>
      </trkpt>
      <trkpt lat="43.48903" lon="1.47375">
        <ele>252.96</ele>
        <time>2013-09-29T13:09:07Z</time>
      </trkpt>
      <trkpt lat="43.48904" lon="1.47376">
        <ele>252.48</ele>
        <time>2013-09-29T13:09:08Z</time>
      </trkpt>
      <trkpt lat="43.48905" lon="1.47378">
        <ele>252.96</ele>
        <time>2013-09-29T13:09:09Z</time>
      </trkpt>
      <trkpt lat="43.48906" lon="1.47379">
        <ele>252.96</ele>
        <time>2013-09-29T13:09:10Z</time>
      </trkpt>
      <trkpt lat="43.48907" lon="1.47381">
        <ele>252.96</ele>
        <time>2013-09-29T13:09:11Z</time>
      </trkpt>
      <trkpt lat="43.48908" lon="1.47382">
        <ele>252.96</ele>
        <time>2013-09-29T13:09:12Z</time>
      </trkpt>
      <trkpt lat="43.48909" lon="1.47383">
        <ele>252.48</ele>
        <time>2013-09-29T13:09:13Z</time>
      </trkpt>
      <trkpt lat="43.48925" lon="1.47394">
        <ele>249.6</ele>
        <time>2013-09-29T13:09:22Z</time>
      </trkpt>
      <trkpt lat="43.48933" lon="1.47399">
        <ele>248.64</ele>
        <time>2013-09-29T13:09:24Z</time>
      </trkpt>
      <trkpt lat="43.48938" lon="1.47401">
        <ele>247.2</ele>
        <time>2013-09-29T13:09:25Z</time>
      </trkpt>
      <trkpt lat="43.48954" lon="1.47406">
        <ele>244.31</ele>
        <time>2013-09-29T13:09:28Z</time>
      </trkpt>
      <trkpt lat="43.48959" lon="1.47409">
        <ele>243.35</ele>
        <time>2013-09-29T13:09:29Z</time>
      </trkpt>
      <trkpt lat="43.48964" lon="1.47414">
        <ele>242.39</ele>
        <time>2013-09-29T13:09:30Z</time>
      </trkpt>
      <trkpt lat="43.48969" lon="1.47421">
        <ele>241.91</ele>
        <time>2013-09-29T13:09:31Z</time>
      </trkpt>
      <trkpt lat="43.48972" lon="1.47429">
        <ele>241.91</ele>
        <time>2013-09-29T13:09:32Z</time>
      </trkpt>
      <trkpt lat="43.48974" lon="1.47439">
        <ele>241.91</ele>
        <time>2013-09-29T13:09:33Z</time>
      </trkpt>
      <trkpt lat="43.48975" lon="1.47449">
        <ele>241.91</ele>
        <time>2013-09-29T13:09:34Z</time>
      </trkpt>
      <trkpt lat="43.48976" lon="1.47459">
        <ele>241.91</ele>
        <time>2013-09-29T13:09:35Z</time>
      </trkpt>
      <trkpt lat="43.48976" lon="1.47469">
        <ele>241.91</ele>
        <time>2013-09-29T13:09:36Z</time>
      </trkpt>
      <trkpt lat="43.48974" lon="1.47477">
        <ele>242.39</ele>
        <time>2013-09-29T13:09:37Z</time>
      </trkpt>
      <trkpt lat="43.48972" lon="1.47484">
        <ele>242.87</ele>
        <time>2013-09-29T13:09:38Z</time>
      </trkpt>
      <trkpt lat="43.48963" lon="1.47529">
        <ele>245.27</ele>
        <time>2013-09-29T13:09:49Z</time>
      </trkpt>
      <trkpt lat="43.48957" lon="1.47589">
        <ele>249.12</ele>
        <time>2013-09-29T13:10:07Z</time>
      </trkpt>
      <trkpt lat="43.48957" lon="1.47592">
        <ele>249.12</ele>
        <time>2013-09-29T13:10:08Z</time>
      </trkpt>
      <trkpt lat="43.48946" lon="1.47631">
        <ele>252</ele>
        <time>2013-09-29T13:10:22Z</time>
      </trkpt>
      <trkpt lat="43.48939" lon="1.47664">
        <ele>253.44</ele>
        <time>2013-09-29T13:10:33Z</time>
      </trkpt>
      <trkpt lat="43.4894" lon="1.47666">
        <ele>253.93</ele>
        <time>2013-09-29T13:10:34Z</time>
      </trkpt>
      <trkpt lat="43.48941" lon="1.47667">
        <ele>253.93</ele>
        <time>2013-09-29T13:10:35Z</time>
      </trkpt>
      <trkpt lat="43.48943" lon="1.47669">
        <ele>253.44</ele>
        <time>2013-09-29T13:10:36Z</time>
      </trkpt>
      <trkpt lat="43.48945" lon="1.4767">
        <ele>253.44</ele>
        <time>2013-09-29T13:10:37Z</time>
      </trkpt>
      <trkpt lat="43.48946" lon="1.47671">
        <ele>253.93</ele>
        <time>2013-09-29T13:10:38Z</time>
      </trkpt>
      <trkpt lat="43.48972" lon="1.47691">
        <ele>255.85</ele>
        <time>2013-09-29T13:10:52Z</time>
      </trkpt>
      <trkpt lat="43.4899" lon="1.47706">
        <ele>258.73</ele>
        <time>2013-09-29T13:11:07Z</time>
      </trkpt>
      <trkpt lat="43.4901" lon="1.47723">
        <ele>261.62</ele>
        <time>2013-09-29T13:11:24Z</time>
      </trkpt>
      <trkpt lat="43.4903" lon="1.47738">
        <ele>264.5</ele>
        <time>2013-09-29T13:11:40Z</time>
      </trkpt>
      <trkpt lat="43.49056" lon="1.47761">
        <ele>267.38</ele>
        <time>2013-09-29T13:12:00Z</time>
      </trkpt>
      <trkpt lat="43.49057" lon="1.47765">
        <ele>267.86</ele>
        <time>2013-09-29T13:12:02Z</time>
      </trkpt>
      <trkpt lat="43.49057" lon="1.47767">
        <ele>267.86</ele>
        <time>2013-09-29T13:12:03Z</time>
      </trkpt>
      <trkpt lat="43.49057" lon="1.4777">
        <ele>267.86</ele>
        <time>2013-09-29T13:12:04Z</time>
      </trkpt>
      <trkpt lat="43.49056" lon="1.47773">
        <ele>268.35</ele>
        <time>2013-09-29T13:12:05Z</time>
      </trkpt>
      <trkpt lat="43.49054" lon="1.47776">
        <ele>267.86</ele>
        <time>2013-09-29T13:12:06Z</time>
      </trkpt>
      <trkpt lat="43.49039" lon="1.47844">
        <ele>269.79</ele>
        <time>2013-09-29T13:12:27Z</time>
      </trkpt>
      <trkpt lat="43.4903" lon="1.47901">
        <ele>271.71</ele>
        <time>2013-09-29T13:12:47Z</time>
      </trkpt>
      <trkpt lat="43.49029" lon="1.47902">
        <ele>271.71</ele>
        <time>2013-09-29T13:13:06Z</time>
      </trkpt>
      <trkpt lat="43.49029" lon="1.47902">
        <ele>271.71</ele>
        <time>2013-09-29T13:13:39Z</time>
      </trkpt>
      <trkpt lat="43.49029" lon="1.47902">
        <ele>271.71</ele>
        <time>2013-09-29T13:14:09Z</time>
      </trkpt>
      <trkpt lat="43.49029" lon="1.47902">
        <ele>271.71</ele>
        <time>2013-09-29T13:14:43Z</time>
      </trkpt>
      <trkpt lat="43.49029" lon="1.47902">
        <ele>271.71</ele>
        <time>2013-09-29T13:15:19Z</time>
      </trkpt>
      <trkpt lat="43.49029" lon="1.47902">
        <ele>272.19</ele>
        <time>2013-09-29T13:15:50Z</time>
      </trkpt>
      <trkpt lat="43.49029" lon="1.47902">
        <ele>272.19</ele>
        <time>2013-09-29T13:16:25Z</time>
      </trkpt>
      <trkpt lat="43.49029" lon="1.47902">
        <ele>272.19</ele>
        <time>2013-09-29T13:16:58Z</time>
      </trkpt>
      <trkpt lat="43.49029" lon="1.47902">
        <ele>272.19</ele>
        <time>2013-09-29T13:17:32Z</time>
      </trkpt>
      <trkpt lat="43.49029" lon="1.47902">
        <ele>271.71</ele>
        <time>2013-09-29T13:18:08Z</time>
      </trkpt>
      <trkpt lat="43.49029" lon="1.47902">
        <ele>271.71</ele>
        <time>2013-09-29T13:18:43Z</time>
      </trkpt>
      <trkpt lat="43.49028" lon="1.47902">
        <ele>271.71</ele>
        <time>2013-09-29T13:19:17Z</time>
      </trkpt>
      <trkpt lat="43.49029" lon="1.47902">
        <ele>272.19</ele>
        <time>2013-09-29T13:19:51Z</time>
      </trkpt>
      <trkpt lat="43.49028" lon="1.47902">
        <ele>272.19</ele>
        <time>2013-09-29T13:20:28Z</time>
      </trkpt>
      <trkpt lat="43.49028" lon="1.47902">
        <ele>271.71</ele>
        <time>2013-09-29T13:21:11Z</time>
      </trkpt>
      <trkpt lat="43.49028" lon="1.47902">
        <ele>271.71</ele>
        <time>2013-09-29T13:21:45Z</time>
      </trkpt>
      <trkpt lat="43.49028" lon="1.47902">
        <ele>271.23</ele>
        <time>2013-09-29T13:22:16Z</time>
      </trkpt>
      <trkpt lat="43.49028" lon="1.47902">
        <ele>271.23</ele>
        <time>2013-09-29T13:22:49Z</time>
      </trkpt>
      <trkpt lat="43.49028" lon="1.47902">
        <ele>271.71</ele>
        <time>2013-09-29T13:23:28Z</time>
      </trkpt>
      <trkpt lat="43.49025" lon="1.47905">
        <ele>271.71</ele>
        <time>2013-09-29T13:23:48Z</time>
      </trkpt>
      <trkpt lat="43.49023" lon="1.47913">
        <ele>271.23</ele>
        <time>2013-09-29T13:24:04Z</time>
      </trkpt>
      <trkpt lat="43.49041" lon="1.47933">
        <ele>267.38</ele>
        <time>2013-09-29T13:24:14Z</time>
      </trkpt>
      <trkpt lat="43.4906" lon="1.47943">
        <ele>264.02</ele>
        <time>2013-09-29T13:24:18Z</time>
      </trkpt>
      <trkpt lat="43.49072" lon="1.47948">
        <ele>260.65</ele>
        <time>2013-09-29T13:24:20Z</time>
      </trkpt>
      <trkpt lat="43.49091" lon="1.47958">
        <ele>256.81</ele>
        <time>2013-09-29T13:24:23Z</time>
      </trkpt>
      <trkpt lat="43.49114" lon="1.47968">
        <ele>252.48</ele>
        <time>2013-09-29T13:24:26Z</time>
      </trkpt>
      <trkpt lat="43.49135" lon="1.4798">
        <ele>249.12</ele>
        <time>2013-09-29T13:24:29Z</time>
      </trkpt>
      <trkpt lat="43.49154" lon="1.47994">
        <ele>245.75</ele>
        <time>2013-09-29T13:24:32Z</time>
      </trkpt>
      <trkpt lat="43.4916" lon="1.48001">
        <ele>243.83</ele>
        <time>2013-09-29T13:24:33Z</time>
      </trkpt>
      <trkpt lat="43.49171" lon="1.48015">
        <ele>240.95</ele>
        <time>2013-09-29T13:24:35Z</time>
      </trkpt>
      <trkpt lat="43.49189" lon="1.48039">
        <ele>238.54</ele>
        <time>2013-09-29T13:24:38Z</time>
      </trkpt>
      <trkpt lat="43.49206" lon="1.48064">
        <ele>234.7</ele>
        <time>2013-09-29T13:24:41Z</time>
      </trkpt>
      <trkpt lat="43.49232" lon="1.48099">
        <ele>230.85</ele>
        <time>2013-09-29T13:24:46Z</time>
      </trkpt>
      <trkpt lat="43.49237" lon="1.48106">
        <ele>230.85</ele>
        <time>2013-09-29T13:24:47Z</time>
      </trkpt>
      <trkpt lat="43.49268" lon="1.48133">
        <ele>227.49</ele>
        <time>2013-09-29T13:24:52Z</time>
      </trkpt>
      <trkpt lat="43.49291" lon="1.48155">
        <ele>223.64</ele>
        <time>2013-09-29T13:24:56Z</time>
      </trkpt>
      <trkpt lat="43.49313" lon="1.48176">
        <ele>219.8</ele>
        <time>2013-09-29T13:25:00Z</time>
      </trkpt>
      <trkpt lat="43.49332" lon="1.48195">
        <ele>217.4</ele>
        <time>2013-09-29T13:25:04Z</time>
      </trkpt>
      <trkpt lat="43.49335" lon="1.48199">
        <ele>217.4</ele>
        <time>2013-09-29T13:25:05Z</time>
      </trkpt>
      <trkpt lat="43.49337" lon="1.48203">
        <ele>218.84</ele>
        <time>2013-09-29T13:25:06Z</time>
      </trkpt>
      <trkpt lat="43.49337" lon="1.48208">
        <ele>219.32</ele>
        <time>2013-09-29T13:25:07Z</time>
      </trkpt>
      <trkpt lat="43.49337" lon="1.48212">
        <ele>218.36</ele>
        <time>2013-09-29T13:25:08Z</time>
      </trkpt>
      <trkpt lat="43.49336" lon="1.48216">
        <ele>219.32</ele>
        <time>2013-09-29T13:25:09Z</time>
      </trkpt>
      <trkpt lat="43.49334" lon="1.48219">
        <ele>219.32</ele>
        <time>2013-09-29T13:25:10Z</time>
      </trkpt>
      <trkpt lat="43.49333" lon="1.48222">
        <ele>220.28</ele>
        <time>2013-09-29T13:25:11Z</time>
      </trkpt>
      <trkpt lat="43.49331" lon="1.48225">
        <ele>220.28</ele>
        <time>2013-09-29T13:25:12Z</time>
      </trkpt>
      <trkpt lat="43.49329" lon="1.48227">
        <ele>220.28</ele>
        <time>2013-09-29T13:25:13Z</time>
      </trkpt>
      <trkpt lat="43.49328" lon="1.48229">
        <ele>219.8</ele>
        <time>2013-09-29T13:25:14Z</time>
      </trkpt>
      <trkpt lat="43.49326" lon="1.48232">
        <ele>219.32</ele>
        <time>2013-09-29T13:25:15Z</time>
      </trkpt>
      <trkpt lat="43.49325" lon="1.48234">
        <ele>219.32</ele>
        <time>2013-09-29T13:25:16Z</time>
      </trkpt>
      <trkpt lat="43.49323" lon="1.48237">
        <ele>219.32</ele>
        <time>2013-09-29T13:25:17Z</time>
      </trkpt>
      <trkpt lat="43.49299" lon="1.48274">
        <ele>218.84</ele>
        <time>2013-09-29T13:25:30Z</time>
      </trkpt>
      <trkpt lat="43.49289" lon="1.48304">
        <ele>220.76</ele>
        <time>2013-09-29T13:25:43Z</time>
      </trkpt>
      <trkpt lat="43.4929" lon="1.48305">
        <ele>220.76</ele>
        <time>2013-09-29T13:25:44Z</time>
      </trkpt>
      <trkpt lat="43.49291" lon="1.48307">
        <ele>222.2</ele>
        <time>2013-09-29T13:25:45Z</time>
      </trkpt>
      <trkpt lat="43.49293" lon="1.48308">
        <ele>221.24</ele>
        <time>2013-09-29T13:25:46Z</time>
      </trkpt>
      <trkpt lat="43.49294" lon="1.48309">
        <ele>221.72</ele>
        <time>2013-09-29T13:25:47Z</time>
      </trkpt>
      <trkpt lat="43.49306" lon="1.4832">
        <ele>225.09</ele>
        <time>2013-09-29T13:25:57Z</time>
      </trkpt>
      <trkpt lat="43.49315" lon="1.48328">
        <ele>227.49</ele>
        <time>2013-09-29T13:26:06Z</time>
      </trkpt>
      <trkpt lat="43.49316" lon="1.48329">
        <ele>227.49</ele>
        <time>2013-09-29T13:26:07Z</time>
      </trkpt>
      <trkpt lat="43.49317" lon="1.4833">
        <ele>226.53</ele>
        <time>2013-09-29T13:26:08Z</time>
      </trkpt>
      <trkpt lat="43.49318" lon="1.48331">
        <ele>227.01</ele>
        <time>2013-09-29T13:26:09Z</time>
      </trkpt>
      <trkpt lat="43.49319" lon="1.48332">
        <ele>227.49</ele>
        <time>2013-09-29T13:26:10Z</time>
      </trkpt>
      <trkpt lat="43.4932" lon="1.48332">
        <ele>227.01</ele>
        <time>2013-09-29T13:26:11Z</time>
      </trkpt>
      <trkpt lat="43.49323" lon="1.48336">
        <ele>228.93</ele>
        <time>2013-09-29T13:26:15Z</time>
      </trkpt>
      <trkpt lat="43.49328" lon="1.48339">
        <ele>229.89</ele>
        <time>2013-09-29T13:26:20Z</time>
      </trkpt>
      <trkpt lat="43.49329" lon="1.4834">
        <ele>230.37</ele>
        <time>2013-09-29T13:26:21Z</time>
      </trkpt>
      <trkpt lat="43.49329" lon="1.48341">
        <ele>229.89</ele>
        <time>2013-09-29T13:26:22Z</time>
      </trkpt>
      <trkpt lat="43.49331" lon="1.48342">
        <ele>230.37</ele>
        <time>2013-09-29T13:26:23Z</time>
      </trkpt>
      <trkpt lat="43.49342" lon="1.48352">
        <ele>232.3</ele>
        <time>2013-09-29T13:26:37Z</time>
      </trkpt>
      <trkpt lat="43.49352" lon="1.48362">
        <ele>235.66</ele>
        <time>2013-09-29T13:26:49Z</time>
      </trkpt>
      <trkpt lat="43.49366" lon="1.48374">
        <ele>236.14</ele>
        <time>2013-09-29T13:27:06Z</time>
      </trkpt>
      <trkpt lat="43.49374" lon="1.48381">
        <ele>239.02</ele>
        <time>2013-09-29T13:27:16Z</time>
      </trkpt>
      <trkpt lat="43.49376" lon="1.48383">
        <ele>240.95</ele>
        <time>2013-09-29T13:27:18Z</time>
      </trkpt>
      <trkpt lat="43.49378" lon="1.48384">
        <ele>239.99</ele>
        <time>2013-09-29T13:27:20Z</time>
      </trkpt>
      <trkpt lat="43.49379" lon="1.48384">
        <ele>240.47</ele>
        <time>2013-09-29T13:27:21Z</time>
      </trkpt>
      <trkpt lat="43.49384" lon="1.48388">
        <ele>239.99</ele>
        <time>2013-09-29T13:27:27Z</time>
      </trkpt>
      <trkpt lat="43.49386" lon="1.4839">
        <ele>242.39</ele>
        <time>2013-09-29T13:27:30Z</time>
      </trkpt>
      <trkpt lat="43.49388" lon="1.48392">
        <ele>241.43</ele>
        <time>2013-09-29T13:27:33Z</time>
      </trkpt>
      <trkpt lat="43.49395" lon="1.48398">
        <ele>244.79</ele>
        <time>2013-09-29T13:27:42Z</time>
      </trkpt>
      <trkpt lat="43.49398" lon="1.48399">
        <ele>244.79</ele>
        <time>2013-09-29T13:27:46Z</time>
      </trkpt>
      <trkpt lat="43.49412" lon="1.48411">
        <ele>247.2</ele>
        <time>2013-09-29T13:28:03Z</time>
      </trkpt>
      <trkpt lat="43.49426" lon="1.48421">
        <ele>250.08</ele>
        <time>2013-09-29T13:28:21Z</time>
      </trkpt>
      <trkpt lat="43.4944" lon="1.48433">
        <ele>252.48</ele>
        <time>2013-09-29T13:28:38Z</time>
      </trkpt>
      <trkpt lat="43.49456" lon="1.48446">
        <ele>254.89</ele>
        <time>2013-09-29T13:28:56Z</time>
      </trkpt>
      <trkpt lat="43.49476" lon="1.4846">
        <ele>255.37</ele>
        <time>2013-09-29T13:29:13Z</time>
      </trkpt>
      <trkpt lat="43.49503" lon="1.48481">
        <ele>257.29</ele>
        <time>2013-09-29T13:29:32Z</time>
      </trkpt>
      <trkpt lat="43.49505" lon="1.48483">
        <ele>257.29</ele>
        <time>2013-09-29T13:29:34Z</time>
      </trkpt>
      <trkpt lat="43.49507" lon="1.48484">
        <ele>255.85</ele>
        <time>2013-09-29T13:29:35Z</time>
      </trkpt>
      <trkpt lat="43.49508" lon="1.48484">
        <ele>256.33</ele>
        <time>2013-09-29T13:29:36Z</time>
      </trkpt>
      <trkpt lat="43.49509" lon="1.48485">
        <ele>255.85</ele>
        <time>2013-09-29T13:29:37Z</time>
      </trkpt>
      <trkpt lat="43.49511" lon="1.48486">
        <ele>256.33</ele>
        <time>2013-09-29T13:29:38Z</time>
      </trkpt>
      <trkpt lat="43.49512" lon="1.48487">
        <ele>255.85</ele>
        <time>2013-09-29T13:29:39Z</time>
      </trkpt>
      <trkpt lat="43.49526" lon="1.48495">
        <ele>256.81</ele>
        <time>2013-09-29T13:29:54Z</time>
      </trkpt>
      <trkpt lat="43.49538" lon="1.48504">
        <ele>255.37</ele>
        <time>2013-09-29T13:30:08Z</time>
      </trkpt>
      <trkpt lat="43.49545" lon="1.48508">
        <ele>253.44</ele>
        <time>2013-09-29T13:30:11Z</time>
      </trkpt>
      <trkpt lat="43.49579" lon="1.48531">
        <ele>251.52</ele>
        <time>2013-09-29T13:30:21Z</time>
      </trkpt>
      <trkpt lat="43.49588" lon="1.48537">
        <ele>250.08</ele>
        <time>2013-09-29T13:30:23Z</time>
      </trkpt>
      <trkpt lat="43.4961" lon="1.48552">
        <ele>247.2</ele>
        <time>2013-09-29T13:30:28Z</time>
      </trkpt>
      <trkpt lat="43.49614" lon="1.48555">
        <ele>246.72</ele>
        <time>2013-09-29T13:30:29Z</time>
      </trkpt>
      <trkpt lat="43.49637" lon="1.48575">
        <ele>243.83</ele>
        <time>2013-09-29T13:30:34Z</time>
      </trkpt>
      <trkpt lat="43.49642" lon="1.48577">
        <ele>243.35</ele>
        <time>2013-09-29T13:30:35Z</time>
      </trkpt>
      <trkpt lat="43.49646" lon="1.48578">
        <ele>243.83</ele>
        <time>2013-09-29T13:30:36Z</time>
      </trkpt>
      <trkpt lat="43.49656" lon="1.48579">
        <ele>245.27</ele>
        <time>2013-09-29T13:30:39Z</time>
      </trkpt>
      <trkpt lat="43.49678" lon="1.48585">
        <ele>248.64</ele>
        <time>2013-09-29T13:30:53Z</time>
      </trkpt>
      <trkpt lat="43.49699" lon="1.48588">
        <ele>252</ele>
        <time>2013-09-29T13:31:09Z</time>
      </trkpt>
      <trkpt lat="43.49719" lon="1.4859">
        <ele>254.89</ele>
        <time>2013-09-29T13:31:25Z</time>
      </trkpt>
      <trkpt lat="43.49727" lon="1.48591">
        <ele>255.85</ele>
        <time>2013-09-29T13:31:33Z</time>
      </trkpt>
      <trkpt lat="43.49728" lon="1.48591">
        <ele>256.33</ele>
        <time>2013-09-29T13:31:34Z</time>
      </trkpt>
      <trkpt lat="43.4974" lon="1.48593">
        <ele>260.17</ele>
        <time>2013-09-29T13:31:47Z</time>
      </trkpt>
      <trkpt lat="43.4974" lon="1.48593">
        <ele>260.17</ele>
        <time>2013-09-29T13:31:48Z</time>
      </trkpt>
      <trkpt lat="43.49751" lon="1.48596">
        <ele>263.06</ele>
        <time>2013-09-29T13:32:00Z</time>
      </trkpt>
      <trkpt lat="43.49754" lon="1.48595">
        <ele>263.06</ele>
        <time>2013-09-29T13:32:14Z</time>
      </trkpt>
      <trkpt lat="43.49755" lon="1.48596">
        <ele>263.54</ele>
        <time>2013-09-29T13:32:15Z</time>
      </trkpt>
      <trkpt lat="43.49756" lon="1.48597">
        <ele>263.06</ele>
        <time>2013-09-29T13:32:16Z</time>
      </trkpt>
      <trkpt lat="43.4976" lon="1.48597">
        <ele>262.58</ele>
        <time>2013-09-29T13:32:19Z</time>
      </trkpt>
      <trkpt lat="43.49772" lon="1.486">
        <ele>265.46</ele>
        <time>2013-09-29T13:32:31Z</time>
      </trkpt>
      <trkpt lat="43.49787" lon="1.48601">
        <ele>266.42</ele>
        <time>2013-09-29T13:32:44Z</time>
      </trkpt>
      <trkpt lat="43.49788" lon="1.486">
        <ele>265.94</ele>
        <time>2013-09-29T13:32:45Z</time>
      </trkpt>
      <trkpt lat="43.49807" lon="1.48575">
        <ele>267.38</ele>
        <time>2013-09-29T13:33:01Z</time>
      </trkpt>
      <trkpt lat="43.49843" lon="1.48557">
        <ele>269.79</ele>
        <time>2013-09-29T13:33:22Z</time>
      </trkpt>
      <trkpt lat="43.49886" lon="1.4856">
        <ele>267.86</ele>
        <time>2013-09-29T13:33:39Z</time>
      </trkpt>
      <trkpt lat="43.49908" lon="1.48553">
        <ele>263.54</ele>
        <time>2013-09-29T13:33:43Z</time>
      </trkpt>
      <trkpt lat="43.49939" lon="1.48541">
        <ele>260.17</ele>
        <time>2013-09-29T13:33:47Z</time>
      </trkpt>
      <trkpt lat="43.49981" lon="1.48526">
        <ele>256.33</ele>
        <time>2013-09-29T13:33:52Z</time>
      </trkpt>
      <trkpt lat="43.4999" lon="1.48523">
        <ele>256.33</ele>
        <time>2013-09-29T13:33:53Z</time>
      </trkpt>
      <trkpt lat="43.50048" lon="1.48499">
        <ele>255.37</ele>
        <time>2013-09-29T13:34:00Z</time>
      </trkpt>
      <trkpt lat="43.50056" lon="1.48497">
        <ele>254.41</ele>
        <time>2013-09-29T13:34:01Z</time>
      </trkpt>
      <trkpt lat="43.50063" lon="1.48498">
        <ele>255.37</ele>
        <time>2013-09-29T13:34:02Z</time>
      </trkpt>
      <trkpt lat="43.50069" lon="1.485">
        <ele>255.37</ele>
        <time>2013-09-29T13:34:03Z</time>
      </trkpt>
      <trkpt lat="43.50075" lon="1.48503">
        <ele>256.81</ele>
        <time>2013-09-29T13:34:04Z</time>
      </trkpt>
      <trkpt lat="43.50081" lon="1.48506">
        <ele>256.33</ele>
        <time>2013-09-29T13:34:05Z</time>
      </trkpt>
      <trkpt lat="43.50086" lon="1.48508">
        <ele>256.81</ele>
        <time>2013-09-29T13:34:06Z</time>
      </trkpt>
      <trkpt lat="43.50091" lon="1.48509">
        <ele>257.29</ele>
        <time>2013-09-29T13:34:07Z</time>
      </trkpt>
      <trkpt lat="43.50095" lon="1.4851">
        <ele>258.25</ele>
        <time>2013-09-29T13:34:08Z</time>
      </trkpt>
      <trkpt lat="43.501" lon="1.48511">
        <ele>257.77</ele>
        <time>2013-09-29T13:34:09Z</time>
      </trkpt>
      <trkpt lat="43.50103" lon="1.48511">
        <ele>258.25</ele>
        <time>2013-09-29T13:34:10Z</time>
      </trkpt>
      <trkpt lat="43.50139" lon="1.48518">
        <ele>260.17</ele>
        <time>2013-09-29T13:34:24Z</time>
      </trkpt>
      <trkpt lat="43.50181" lon="1.48525">
        <ele>263.06</ele>
        <time>2013-09-29T13:34:42Z</time>
      </trkpt>
      <trkpt lat="43.50225" lon="1.48532">
        <ele>266.42</ele>
        <time>2013-09-29T13:35:01Z</time>
      </trkpt>
      <trkpt lat="43.50232" lon="1.48534">
        <ele>267.86</ele>
        <time>2013-09-29T13:35:04Z</time>
      </trkpt>
      <trkpt lat="43.50262" lon="1.48535">
        <ele>269.31</ele>
        <time>2013-09-29T13:35:18Z</time>
      </trkpt>
      <trkpt lat="43.50288" lon="1.48528">
        <ele>272.19</ele>
        <time>2013-09-29T13:35:32Z</time>
      </trkpt>
      <trkpt lat="43.50289" lon="1.4853">
        <ele>271.71</ele>
        <time>2013-09-29T13:35:33Z</time>
      </trkpt>
      <trkpt lat="43.5029" lon="1.48532">
        <ele>272.19</ele>
        <time>2013-09-29T13:35:34Z</time>
      </trkpt>
      <trkpt lat="43.5029" lon="1.48534">
        <ele>272.67</ele>
        <time>2013-09-29T13:35:35Z</time>
      </trkpt>
      <trkpt lat="43.5029" lon="1.48536">
        <ele>272.67</ele>
        <time>2013-09-29T13:35:36Z</time>
      </trkpt>
      <trkpt lat="43.5029" lon="1.48538">
        <ele>272.67</ele>
        <time>2013-09-29T13:35:37Z</time>
      </trkpt>
      <trkpt lat="43.5029" lon="1.4854">
        <ele>273.63</ele>
        <time>2013-09-29T13:35:38Z</time>
      </trkpt>
      <trkpt lat="43.5029" lon="1.48542">
        <ele>273.63</ele>
        <time>2013-09-29T13:35:39Z</time>
      </trkpt>
      <trkpt lat="43.5029" lon="1.48544">
        <ele>273.63</ele>
        <time>2013-09-29T13:35:40Z</time>
      </trkpt>
      <trkpt lat="43.5029" lon="1.48546">
        <ele>273.63</ele>
        <time>2013-09-29T13:35:41Z</time>
      </trkpt>
      <trkpt lat="43.50291" lon="1.48579">
        <ele>271.71</ele>
        <time>2013-09-29T13:35:52Z</time>
      </trkpt>
      <trkpt lat="43.50291" lon="1.48611">
        <ele>268.35</ele>
        <time>2013-09-29T13:35:56Z</time>
      </trkpt>
      <trkpt lat="43.50291" lon="1.4862">
        <ele>267.86</ele>
        <time>2013-09-29T13:35:57Z</time>
      </trkpt>
      <trkpt lat="43.50291" lon="1.48649">
        <ele>264.98</ele>
        <time>2013-09-29T13:36:01Z</time>
      </trkpt>
      <trkpt lat="43.50291" lon="1.48685">
        <ele>261.62</ele>
        <time>2013-09-29T13:36:05Z</time>
      </trkpt>
      <trkpt lat="43.50291" lon="1.48695">
        <ele>261.62</ele>
        <time>2013-09-29T13:36:06Z</time>
      </trkpt>
      <trkpt lat="43.50293" lon="1.48729">
        <ele>260.65</ele>
        <time>2013-09-29T13:36:10Z</time>
      </trkpt>
      <trkpt lat="43.50296" lon="1.48735">
        <ele>260.65</ele>
        <time>2013-09-29T13:36:11Z</time>
      </trkpt>
      <trkpt lat="43.50299" lon="1.4874">
        <ele>260.17</ele>
        <time>2013-09-29T13:36:12Z</time>
      </trkpt>
      <trkpt lat="43.50303" lon="1.48745">
        <ele>260.17</ele>
        <time>2013-09-29T13:36:13Z</time>
      </trkpt>
      <trkpt lat="43.50307" lon="1.48749">
        <ele>259.69</ele>
        <time>2013-09-29T13:36:14Z</time>
      </trkpt>
      <trkpt lat="43.50311" lon="1.48753">
        <ele>259.21</ele>
        <time>2013-09-29T13:36:15Z</time>
      </trkpt>
      <trkpt lat="43.50331" lon="1.4877">
        <ele>256.81</ele>
        <time>2013-09-29T13:36:19Z</time>
      </trkpt>
      <trkpt lat="43.50346" lon="1.48781">
        <ele>254.89</ele>
        <time>2013-09-29T13:36:22Z</time>
      </trkpt>
      <trkpt lat="43.50351" lon="1.48784">
        <ele>254.89</ele>
        <time>2013-09-29T13:36:23Z</time>
      </trkpt>
      <trkpt lat="43.50362" lon="1.48792">
        <ele>253.44</ele>
        <time>2013-09-29T13:36:26Z</time>
      </trkpt>
      <trkpt lat="43.50379" lon="1.4881">
        <ele>247.68</ele>
        <time>2013-09-29T13:36:32Z</time>
      </trkpt>
      <trkpt lat="43.50381" lon="1.48821">
        <ele>246.72</ele>
        <time>2013-09-29T13:36:34Z</time>
      </trkpt>
      <trkpt lat="43.50389" lon="1.48839">
        <ele>244.79</ele>
        <time>2013-09-29T13:36:38Z</time>
      </trkpt>
      <trkpt lat="43.50393" lon="1.48842">
        <ele>244.31</ele>
        <time>2013-09-29T13:36:39Z</time>
      </trkpt>
      <trkpt lat="43.50397" lon="1.48844">
        <ele>243.35</ele>
        <time>2013-09-29T13:36:40Z</time>
      </trkpt>
      <trkpt lat="43.50402" lon="1.48847">
        <ele>241.91</ele>
        <time>2013-09-29T13:36:41Z</time>
      </trkpt>
      <trkpt lat="43.50407" lon="1.4885">
        <ele>240.95</ele>
        <time>2013-09-29T13:36:42Z</time>
      </trkpt>
      <trkpt lat="43.50412" lon="1.48852">
        <ele>239.51</ele>
        <time>2013-09-29T13:36:43Z</time>
      </trkpt>
      <trkpt lat="43.50423" lon="1.48857">
        <ele>238.06</ele>
        <time>2013-09-29T13:36:45Z</time>
      </trkpt>
      <trkpt lat="43.50434" lon="1.48859">
        <ele>236.62</ele>
        <time>2013-09-29T13:36:47Z</time>
      </trkpt>
      <trkpt lat="43.50447" lon="1.48863">
        <ele>234.7</ele>
        <time>2013-09-29T13:36:50Z</time>
      </trkpt>
      <trkpt lat="43.50467" lon="1.48865">
        <ele>230.85</ele>
        <time>2013-09-29T13:36:55Z</time>
      </trkpt>
      <trkpt lat="43.50488" lon="1.48867">
        <ele>227.49</ele>
        <time>2013-09-29T13:37:00Z</time>
      </trkpt>
      <trkpt lat="43.50495" lon="1.4887">
        <ele>227.01</ele>
        <time>2013-09-29T13:37:02Z</time>
      </trkpt>
      <trkpt lat="43.50498" lon="1.48873">
        <ele>227.01</ele>
        <time>2013-09-29T13:37:03Z</time>
      </trkpt>
      <trkpt lat="43.50501" lon="1.48878">
        <ele>226.05</ele>
        <time>2013-09-29T13:37:04Z</time>
      </trkpt>
      <trkpt lat="43.50514" lon="1.48906">
        <ele>222.2</ele>
        <time>2013-09-29T13:37:09Z</time>
      </trkpt>
      <trkpt lat="43.50518" lon="1.48918">
        <ele>221.24</ele>
        <time>2013-09-29T13:37:11Z</time>
      </trkpt>
      <trkpt lat="43.50531" lon="1.48946">
        <ele>218.84</ele>
        <time>2013-09-29T13:37:16Z</time>
      </trkpt>
      <trkpt lat="43.50544" lon="1.48966">
        <ele>217.4</ele>
        <time>2013-09-29T13:37:20Z</time>
      </trkpt>
      <trkpt lat="43.50549" lon="1.4897">
        <ele>216.91</ele>
        <time>2013-09-29T13:37:21Z</time>
      </trkpt>
      <trkpt lat="43.50554" lon="1.48973">
        <ele>216.91</ele>
        <time>2013-09-29T13:37:22Z</time>
      </trkpt>
      <trkpt lat="43.50559" lon="1.48975">
        <ele>216.43</ele>
        <time>2013-09-29T13:37:23Z</time>
      </trkpt>
      <trkpt lat="43.50564" lon="1.48976">
        <ele>216.43</ele>
        <time>2013-09-29T13:37:24Z</time>
      </trkpt>
      <trkpt lat="43.5057" lon="1.48978">
        <ele>215.95</ele>
        <time>2013-09-29T13:37:25Z</time>
      </trkpt>
      <trkpt lat="43.50576" lon="1.48979">
        <ele>215.95</ele>
        <time>2013-09-29T13:37:26Z</time>
      </trkpt>
      <trkpt lat="43.50583" lon="1.48981">
        <ele>215.95</ele>
        <time>2013-09-29T13:37:27Z</time>
      </trkpt>
      <trkpt lat="43.50588" lon="1.48983">
        <ele>216.43</ele>
        <time>2013-09-29T13:37:28Z</time>
      </trkpt>
      <trkpt lat="43.50594" lon="1.48987">
        <ele>215.47</ele>
        <time>2013-09-29T13:37:29Z</time>
      </trkpt>
      <trkpt lat="43.50598" lon="1.48992">
        <ele>215.95</ele>
        <time>2013-09-29T13:37:30Z</time>
      </trkpt>
      <trkpt lat="43.50603" lon="1.48997">
        <ele>216.43</ele>
        <time>2013-09-29T13:37:31Z</time>
      </trkpt>
      <trkpt lat="43.50607" lon="1.49001">
        <ele>216.43</ele>
        <time>2013-09-29T13:37:32Z</time>
      </trkpt>
      <trkpt lat="43.50649" lon="1.49064">
        <ele>215.95</ele>
        <time>2013-09-29T13:37:46Z</time>
      </trkpt>
      <trkpt lat="43.50685" lon="1.49138">
        <ele>215.95</ele>
        <time>2013-09-29T13:38:01Z</time>
      </trkpt>
      <trkpt lat="43.50735" lon="1.49217">
        <ele>216.91</ele>
        <time>2013-09-29T13:38:17Z</time>
      </trkpt>
      <trkpt lat="43.50756" lon="1.49254">
        <ele>217.88</ele>
        <time>2013-09-29T13:38:27Z</time>
      </trkpt>
      <trkpt lat="43.50757" lon="1.49254">
        <ele>216.91</ele>
        <time>2013-09-29T13:38:53Z</time>
      </trkpt>
      <trkpt lat="43.50758" lon="1.49257">
        <ele>216.91</ele>
        <time>2013-09-29T13:39:20Z</time>
      </trkpt>
      <trkpt lat="43.50761" lon="1.49261">
        <ele>216.91</ele>
        <time>2013-09-29T13:39:23Z</time>
      </trkpt>
      <trkpt lat="43.50776" lon="1.4928">
        <ele>213.55</ele>
        <time>2013-09-29T13:39:30Z</time>
      </trkpt>
      <trkpt lat="43.50795" lon="1.4929">
        <ele>209.7</ele>
        <time>2013-09-29T13:39:34Z</time>
      </trkpt>
      <trkpt lat="43.50811" lon="1.49294">
        <ele>206.82</ele>
        <time>2013-09-29T13:39:37Z</time>
      </trkpt>
      <trkpt lat="43.50817" lon="1.49294">
        <ele>206.82</ele>
        <time>2013-09-29T13:39:38Z</time>
      </trkpt>
      <trkpt lat="43.50823" lon="1.49292">
        <ele>205.86</ele>
        <time>2013-09-29T13:39:39Z</time>
      </trkpt>
      <trkpt lat="43.50829" lon="1.49289">
        <ele>205.38</ele>
        <time>2013-09-29T13:39:40Z</time>
      </trkpt>
      <trkpt lat="43.50834" lon="1.49286">
        <ele>204.9</ele>
        <time>2013-09-29T13:39:41Z</time>
      </trkpt>
      <trkpt lat="43.50838" lon="1.49282">
        <ele>204.42</ele>
        <time>2013-09-29T13:39:42Z</time>
      </trkpt>
      <trkpt lat="43.50842" lon="1.49279">
        <ele>203.94</ele>
        <time>2013-09-29T13:39:43Z</time>
      </trkpt>
      <trkpt lat="43.50845" lon="1.49275">
        <ele>203.94</ele>
        <time>2013-09-29T13:39:44Z</time>
      </trkpt>
      <trkpt lat="43.50847" lon="1.49271">
        <ele>203.94</ele>
        <time>2013-09-29T13:39:45Z</time>
      </trkpt>
      <trkpt lat="43.50849" lon="1.4927">
        <ele>203.46</ele>
        <time>2013-09-29T13:39:46Z</time>
      </trkpt>
      <trkpt lat="43.5085" lon="1.49271">
        <ele>203.46</ele>
        <time>2013-09-29T13:39:47Z</time>
      </trkpt>
      <trkpt lat="43.50851" lon="1.49272">
        <ele>202.98</ele>
        <time>2013-09-29T13:39:48Z</time>
      </trkpt>
      <trkpt lat="43.50853" lon="1.49274">
        <ele>202.49</ele>
        <time>2013-09-29T13:39:49Z</time>
      </trkpt>
      <trkpt lat="43.50853" lon="1.49277">
        <ele>202.01</ele>
        <time>2013-09-29T13:39:50Z</time>
      </trkpt>
      <trkpt lat="43.50853" lon="1.49281">
        <ele>201.05</ele>
        <time>2013-09-29T13:39:51Z</time>
      </trkpt>
      <trkpt lat="43.50853" lon="1.49284">
        <ele>200.57</ele>
        <time>2013-09-29T13:39:52Z</time>
      </trkpt>
      <trkpt lat="43.50851" lon="1.49305">
        <ele>197.21</ele>
        <time>2013-09-29T13:39:58Z</time>
      </trkpt>
      <trkpt lat="43.50849" lon="1.49314">
        <ele>195.77</ele>
        <time>2013-09-29T13:40:01Z</time>
      </trkpt>
      <trkpt lat="43.50846" lon="1.49323">
        <ele>194.32</ele>
        <time>2013-09-29T13:40:04Z</time>
      </trkpt>
      <trkpt lat="43.50845" lon="1.49326">
        <ele>193.84</ele>
        <time>2013-09-29T13:40:05Z</time>
      </trkpt>
      <trkpt lat="43.50844" lon="1.49328">
        <ele>193.36</ele>
        <time>2013-09-29T13:40:06Z</time>
      </trkpt>
      <trkpt lat="43.50843" lon="1.49331">
        <ele>193.36</ele>
        <time>2013-09-29T13:40:07Z</time>
      </trkpt>
      <trkpt lat="43.50843" lon="1.49334">
        <ele>192.88</ele>
        <time>2013-09-29T13:40:08Z</time>
      </trkpt>
      <trkpt lat="43.50843" lon="1.49336">
        <ele>191.92</ele>
        <time>2013-09-29T13:40:09Z</time>
      </trkpt>
      <trkpt lat="43.50842" lon="1.49339">
        <ele>191.44</ele>
        <time>2013-09-29T13:40:10Z</time>
      </trkpt>
      <trkpt lat="43.50842" lon="1.49342">
        <ele>190.48</ele>
        <time>2013-09-29T13:40:11Z</time>
      </trkpt>
      <trkpt lat="43.50843" lon="1.49344">
        <ele>190.48</ele>
        <time>2013-09-29T13:40:21Z</time>
      </trkpt>
      <trkpt lat="43.50846" lon="1.49344">
        <ele>189.52</ele>
        <time>2013-09-29T13:40:25Z</time>
      </trkpt>
      <trkpt lat="43.50849" lon="1.49345">
        <ele>189.04</ele>
        <time>2013-09-29T13:40:27Z</time>
      </trkpt>
      <trkpt lat="43.50853" lon="1.49347">
        <ele>187.11</ele>
        <time>2013-09-29T13:40:40Z</time>
      </trkpt>
      <trkpt lat="43.50853" lon="1.4935">
        <ele>187.11</ele>
        <time>2013-09-29T13:40:41Z</time>
      </trkpt>
      <trkpt lat="43.50852" lon="1.49352">
        <ele>186.63</ele>
        <time>2013-09-29T13:40:42Z</time>
      </trkpt>
      <trkpt lat="43.50852" lon="1.49355">
        <ele>186.15</ele>
        <time>2013-09-29T13:40:43Z</time>
      </trkpt>
      <trkpt lat="43.50851" lon="1.49358">
        <ele>185.67</ele>
        <time>2013-09-29T13:40:44Z</time>
      </trkpt>
      <trkpt lat="43.5085" lon="1.4936">
        <ele>185.19</ele>
        <time>2013-09-29T13:40:45Z</time>
      </trkpt>
      <trkpt lat="43.50849" lon="1.49363">
        <ele>184.71</ele>
        <time>2013-09-29T13:40:46Z</time>
      </trkpt>
      <trkpt lat="43.50848" lon="1.49366">
        <ele>183.75</ele>
        <time>2013-09-29T13:40:47Z</time>
      </trkpt>
      <trkpt lat="43.50839" lon="1.49389">
        <ele>180.38</ele>
        <time>2013-09-29T13:40:52Z</time>
      </trkpt>
      <trkpt lat="43.50837" lon="1.49394">
        <ele>179.9</ele>
        <time>2013-09-29T13:40:53Z</time>
      </trkpt>
      <trkpt lat="43.50834" lon="1.49399">
        <ele>179.9</ele>
        <time>2013-09-29T13:40:54Z</time>
      </trkpt>
      <trkpt lat="43.50827" lon="1.49408">
        <ele>178.94</ele>
        <time>2013-09-29T13:40:56Z</time>
      </trkpt>
      <trkpt lat="43.50823" lon="1.49411">
        <ele>178.94</ele>
        <time>2013-09-29T13:40:57Z</time>
      </trkpt>
      <trkpt lat="43.50819" lon="1.49413">
        <ele>178.94</ele>
        <time>2013-09-29T13:40:58Z</time>
      </trkpt>
      <trkpt lat="43.50816" lon="1.49415">
        <ele>178.94</ele>
        <time>2013-09-29T13:40:59Z</time>
      </trkpt>
      <trkpt lat="43.50814" lon="1.49417">
        <ele>178.46</ele>
        <time>2013-09-29T13:41:00Z</time>
      </trkpt>
      <trkpt lat="43.50813" lon="1.4942">
        <ele>179.42</ele>
        <time>2013-09-29T13:41:01Z</time>
      </trkpt>
      <trkpt lat="43.50812" lon="1.49421">
        <ele>178.94</ele>
        <time>2013-09-29T13:41:02Z</time>
      </trkpt>
      <trkpt lat="43.50812" lon="1.49424">
        <ele>179.42</ele>
        <time>2013-09-29T13:41:03Z</time>
      </trkpt>
      <trkpt lat="43.50813" lon="1.4944">
        <ele>179.42</ele>
        <time>2013-09-29T13:41:15Z</time>
      </trkpt>
      <trkpt lat="43.5081" lon="1.49442">
        <ele>179.42</ele>
        <time>2013-09-29T13:41:22Z</time>
      </trkpt>
      <trkpt lat="43.50808" lon="1.49443">
        <ele>179.42</ele>
        <time>2013-09-29T13:41:23Z</time>
      </trkpt>
      <trkpt lat="43.50806" lon="1.49443">
        <ele>179.42</ele>
        <time>2013-09-29T13:41:24Z</time>
      </trkpt>
      <trkpt lat="43.50805" lon="1.49443">
        <ele>179.42</ele>
        <time>2013-09-29T13:41:25Z</time>
      </trkpt>
      <trkpt lat="43.50802" lon="1.49443">
        <ele>179.9</ele>
        <time>2013-09-29T13:41:26Z</time>
      </trkpt>
      <trkpt lat="43.50768" lon="1.49437">
        <ele>180.87</ele>
        <time>2013-09-29T13:41:40Z</time>
      </trkpt>
      <trkpt lat="43.50731" lon="1.49428">
        <ele>183.75</ele>
        <time>2013-09-29T13:41:57Z</time>
      </trkpt>
      <trkpt lat="43.50705" lon="1.49411">
        <ele>185.19</ele>
        <time>2013-09-29T13:42:10Z</time>
      </trkpt>
      <trkpt lat="43.50666" lon="1.49386">
        <ele>183.27</ele>
        <time>2013-09-29T13:42:22Z</time>
      </trkpt>
      <trkpt lat="43.50661" lon="1.49384">
        <ele>183.27</ele>
        <time>2013-09-29T13:42:23Z</time>
      </trkpt>
      <trkpt lat="43.50655" lon="1.49383">
        <ele>183.27</ele>
        <time>2013-09-29T13:42:24Z</time>
      </trkpt>
      <trkpt lat="43.5065" lon="1.49383">
        <ele>182.79</ele>
        <time>2013-09-29T13:42:25Z</time>
      </trkpt>
      <trkpt lat="43.50645" lon="1.49383">
        <ele>182.79</ele>
        <time>2013-09-29T13:42:26Z</time>
      </trkpt>
      <trkpt lat="43.5064" lon="1.49384">
        <ele>182.31</ele>
        <time>2013-09-29T13:42:27Z</time>
      </trkpt>
      <trkpt lat="43.50581" lon="1.49398">
        <ele>182.79</ele>
        <time>2013-09-29T13:42:40Z</time>
      </trkpt>
      <trkpt lat="43.50536" lon="1.4939">
        <ele>184.23</ele>
        <time>2013-09-29T13:42:54Z</time>
      </trkpt>
      <trkpt lat="43.50505" lon="1.49375">
        <ele>187.11</ele>
        <time>2013-09-29T13:43:08Z</time>
      </trkpt>
      <trkpt lat="43.50483" lon="1.49368">
        <ele>190</ele>
        <time>2013-09-29T13:43:19Z</time>
      </trkpt>
      <trkpt lat="43.50473" lon="1.49363">
        <ele>192.4</ele>
        <time>2013-09-29T13:43:25Z</time>
      </trkpt>
      <trkpt lat="43.50452" lon="1.49357">
        <ele>193.84</ele>
        <time>2013-09-29T13:43:37Z</time>
      </trkpt>
      <trkpt lat="43.5045" lon="1.49357">
        <ele>193.84</ele>
        <time>2013-09-29T13:43:38Z</time>
      </trkpt>
      <trkpt lat="43.50448" lon="1.49357">
        <ele>193.84</ele>
        <time>2013-09-29T13:43:39Z</time>
      </trkpt>
      <trkpt lat="43.50429" lon="1.49351">
        <ele>196.25</ele>
        <time>2013-09-29T13:43:51Z</time>
      </trkpt>
      <trkpt lat="43.5042" lon="1.4935">
        <ele>197.21</ele>
        <time>2013-09-29T13:43:57Z</time>
      </trkpt>
      <trkpt lat="43.50418" lon="1.49349">
        <ele>197.69</ele>
        <time>2013-09-29T13:43:58Z</time>
      </trkpt>
      <trkpt lat="43.50417" lon="1.49348">
        <ele>197.21</ele>
        <time>2013-09-29T13:43:59Z</time>
      </trkpt>
      <trkpt lat="43.50415" lon="1.49347">
        <ele>198.17</ele>
        <time>2013-09-29T13:44:00Z</time>
      </trkpt>
      <trkpt lat="43.50414" lon="1.49347">
        <ele>197.69</ele>
        <time>2013-09-29T13:44:01Z</time>
      </trkpt>
      <trkpt lat="43.50385" lon="1.49336">
        <ele>199.61</ele>
        <time>2013-09-29T13:44:17Z</time>
      </trkpt>
      <trkpt lat="43.50363" lon="1.49316">
        <ele>201.05</ele>
        <time>2013-09-29T13:44:31Z</time>
      </trkpt>
      <trkpt lat="43.50337" lon="1.49291">
        <ele>202.01</ele>
        <time>2013-09-29T13:44:45Z</time>
      </trkpt>
      <trkpt lat="43.50304" lon="1.49264">
        <ele>204.42</ele>
        <time>2013-09-29T13:45:02Z</time>
      </trkpt>
      <trkpt lat="43.50275" lon="1.49253">
        <ele>207.3</ele>
        <time>2013-09-29T13:45:16Z</time>
      </trkpt>
      <trkpt lat="43.50245" lon="1.49244">
        <ele>209.22</ele>
        <time>2013-09-29T13:45:32Z</time>
      </trkpt>
      <trkpt lat="43.50218" lon="1.49238">
        <ele>212.11</ele>
        <time>2013-09-29T13:45:47Z</time>
      </trkpt>
      <trkpt lat="43.50192" lon="1.49239">
        <ele>214.03</ele>
        <time>2013-09-29T13:46:02Z</time>
      </trkpt>
      <trkpt lat="43.50169" lon="1.49257">
        <ele>217.4</ele>
        <time>2013-09-29T13:46:19Z</time>
      </trkpt>
      <trkpt lat="43.50162" lon="1.49263">
        <ele>217.88</ele>
        <time>2013-09-29T13:46:25Z</time>
      </trkpt>
      <trkpt lat="43.50161" lon="1.49264">
        <ele>217.88</ele>
        <time>2013-09-29T13:46:26Z</time>
      </trkpt>
      <trkpt lat="43.50161" lon="1.49266">
        <ele>217.88</ele>
        <time>2013-09-29T13:46:27Z</time>
      </trkpt>
      <trkpt lat="43.50161" lon="1.49267">
        <ele>217.88</ele>
        <time>2013-09-29T13:46:28Z</time>
      </trkpt>
      <trkpt lat="43.5016" lon="1.49269">
        <ele>218.36</ele>
        <time>2013-09-29T13:46:29Z</time>
      </trkpt>
      <trkpt lat="43.50159" lon="1.4927">
        <ele>218.84</ele>
        <time>2013-09-29T13:46:30Z</time>
      </trkpt>
      <trkpt lat="43.50158" lon="1.49271">
        <ele>218.36</ele>
        <time>2013-09-29T13:46:31Z</time>
      </trkpt>
      <trkpt lat="43.50156" lon="1.49272">
        <ele>218.84</ele>
        <time>2013-09-29T13:46:32Z</time>
      </trkpt>
      <trkpt lat="43.50156" lon="1.49273">
        <ele>218.84</ele>
        <time>2013-09-29T13:46:33Z</time>
      </trkpt>
      <trkpt lat="43.50155" lon="1.49274">
        <ele>218.84</ele>
        <time>2013-09-29T13:46:34Z</time>
      </trkpt>
      <trkpt lat="43.50154" lon="1.49276">
        <ele>219.32</ele>
        <time>2013-09-29T13:46:35Z</time>
      </trkpt>
      <trkpt lat="43.50153" lon="1.49277">
        <ele>219.32</ele>
        <time>2013-09-29T13:46:36Z</time>
      </trkpt>
      <trkpt lat="43.50152" lon="1.49278">
        <ele>219.32</ele>
        <time>2013-09-29T13:46:37Z</time>
      </trkpt>
      <trkpt lat="43.50151" lon="1.49279">
        <ele>219.8</ele>
        <time>2013-09-29T13:46:38Z</time>
      </trkpt>
      <trkpt lat="43.5014" lon="1.49293">
        <ele>221.72</ele>
        <time>2013-09-29T13:46:49Z</time>
      </trkpt>
      <trkpt lat="43.50139" lon="1.49295">
        <ele>222.2</ele>
        <time>2013-09-29T13:46:50Z</time>
      </trkpt>
      <trkpt lat="43.50138" lon="1.49296">
        <ele>222.2</ele>
        <time>2013-09-29T13:46:51Z</time>
      </trkpt>
      <trkpt lat="43.50137" lon="1.49297">
        <ele>222.2</ele>
        <time>2013-09-29T13:46:52Z</time>
      </trkpt>
      <trkpt lat="43.50135" lon="1.49297">
        <ele>222.2</ele>
        <time>2013-09-29T13:46:53Z</time>
      </trkpt>
      <trkpt lat="43.50134" lon="1.49298">
        <ele>223.16</ele>
        <time>2013-09-29T13:46:54Z</time>
      </trkpt>
      <trkpt lat="43.50133" lon="1.49299">
        <ele>223.16</ele>
        <time>2013-09-29T13:46:55Z</time>
      </trkpt>
      <trkpt lat="43.50132" lon="1.493">
        <ele>223.16</ele>
        <time>2013-09-29T13:46:56Z</time>
      </trkpt>
      <trkpt lat="43.50131" lon="1.49301">
        <ele>223.16</ele>
        <time>2013-09-29T13:46:57Z</time>
      </trkpt>
      <trkpt lat="43.50131" lon="1.49303">
        <ele>223.64</ele>
        <time>2013-09-29T13:46:58Z</time>
      </trkpt>
      <trkpt lat="43.5013" lon="1.49304">
        <ele>223.16</ele>
        <time>2013-09-29T13:46:59Z</time>
      </trkpt>
      <trkpt lat="43.50129" lon="1.49306">
        <ele>223.64</ele>
        <time>2013-09-29T13:47:00Z</time>
      </trkpt>
      <trkpt lat="43.50115" lon="1.49322">
        <ele>227.01</ele>
        <time>2013-09-29T13:47:15Z</time>
      </trkpt>
      <trkpt lat="43.50111" lon="1.49327">
        <ele>227.49</ele>
        <time>2013-09-29T13:47:19Z</time>
      </trkpt>
      <trkpt lat="43.5011" lon="1.49328">
        <ele>227.49</ele>
        <time>2013-09-29T13:47:20Z</time>
      </trkpt>
      <trkpt lat="43.50109" lon="1.4933">
        <ele>227.97</ele>
        <time>2013-09-29T13:47:21Z</time>
      </trkpt>
      <trkpt lat="43.50108" lon="1.49331">
        <ele>227.97</ele>
        <time>2013-09-29T13:47:22Z</time>
      </trkpt>
      <trkpt lat="43.50108" lon="1.49332">
        <ele>227.97</ele>
        <time>2013-09-29T13:47:23Z</time>
      </trkpt>
      <trkpt lat="43.50107" lon="1.49334">
        <ele>228.45</ele>
        <time>2013-09-29T13:47:24Z</time>
      </trkpt>
      <trkpt lat="43.50106" lon="1.49335">
        <ele>228.45</ele>
        <time>2013-09-29T13:47:25Z</time>
      </trkpt>
      <trkpt lat="43.50105" lon="1.49336">
        <ele>228.93</ele>
        <time>2013-09-29T13:47:26Z</time>
      </trkpt>
      <trkpt lat="43.50104" lon="1.49337">
        <ele>229.41</ele>
        <time>2013-09-29T13:47:27Z</time>
      </trkpt>
      <trkpt lat="43.50103" lon="1.49338">
        <ele>229.41</ele>
        <time>2013-09-29T13:47:28Z</time>
      </trkpt>
      <trkpt lat="43.50102" lon="1.49341">
        <ele>229.41</ele>
        <time>2013-09-29T13:47:30Z</time>
      </trkpt>
      <trkpt lat="43.50101" lon="1.49342">
        <ele>229.41</ele>
        <time>2013-09-29T13:47:31Z</time>
      </trkpt>
      <trkpt lat="43.501" lon="1.49344">
        <ele>229.89</ele>
        <time>2013-09-29T13:47:32Z</time>
      </trkpt>
      <trkpt lat="43.50086" lon="1.49365">
        <ele>232.3</ele>
        <time>2013-09-29T13:47:49Z</time>
      </trkpt>
      <trkpt lat="43.50083" lon="1.4937">
        <ele>233.26</ele>
        <time>2013-09-29T13:47:53Z</time>
      </trkpt>
      <trkpt lat="43.50082" lon="1.49371">
        <ele>233.26</ele>
        <time>2013-09-29T13:47:54Z</time>
      </trkpt>
      <trkpt lat="43.50064" lon="1.49393">
        <ele>235.66</ele>
        <time>2013-09-29T13:48:12Z</time>
      </trkpt>
      <trkpt lat="43.50042" lon="1.49417">
        <ele>239.51</ele>
        <time>2013-09-29T13:48:32Z</time>
      </trkpt>
      <trkpt lat="43.5002" lon="1.49442">
        <ele>241.91</ele>
        <time>2013-09-29T13:48:52Z</time>
      </trkpt>
      <trkpt lat="43.49999" lon="1.49471">
        <ele>243.35</ele>
        <time>2013-09-29T13:49:08Z</time>
      </trkpt>
      <trkpt lat="43.49974" lon="1.49506">
        <ele>246.23</ele>
        <time>2013-09-29T13:49:27Z</time>
      </trkpt>
      <trkpt lat="43.49949" lon="1.49539">
        <ele>247.68</ele>
        <time>2013-09-29T13:49:46Z</time>
      </trkpt>
      <trkpt lat="43.49932" lon="1.49562">
        <ele>248.64</ele>
        <time>2013-09-29T13:49:59Z</time>
      </trkpt>
      <trkpt lat="43.49908" lon="1.496">
        <ele>250.08</ele>
        <time>2013-09-29T13:50:16Z</time>
      </trkpt>
      <trkpt lat="43.49871" lon="1.49651">
        <ele>248.64</ele>
        <time>2013-09-29T13:50:33Z</time>
      </trkpt>
      <trkpt lat="43.49841" lon="1.49697">
        <ele>248.64</ele>
        <time>2013-09-29T13:50:48Z</time>
      </trkpt>
      <trkpt lat="43.49804" lon="1.49741">
        <ele>247.68</ele>
        <time>2013-09-29T13:51:02Z</time>
      </trkpt>
      <trkpt lat="43.49776" lon="1.49784">
        <ele>248.16</ele>
        <time>2013-09-29T13:51:14Z</time>
      </trkpt>
      <trkpt lat="43.49729" lon="1.49856">
        <ele>248.16</ele>
        <time>2013-09-29T13:51:30Z</time>
      </trkpt>
      <trkpt lat="43.4969" lon="1.49921">
        <ele>250.56</ele>
        <time>2013-09-29T13:51:46Z</time>
      </trkpt>
      <trkpt lat="43.49684" lon="1.49939">
        <ele>246.72</ele>
        <time>2013-09-29T13:51:55Z</time>
      </trkpt>
      <trkpt lat="43.49688" lon="1.49945">
        <ele>243.83</ele>
        <time>2013-09-29T13:51:58Z</time>
      </trkpt>
      <trkpt lat="43.49696" lon="1.49958">
        <ele>240.47</ele>
        <time>2013-09-29T13:52:02Z</time>
      </trkpt>
      <trkpt lat="43.49704" lon="1.49974">
        <ele>237.58</ele>
        <time>2013-09-29T13:52:05Z</time>
      </trkpt>
      <trkpt lat="43.49714" lon="1.50004">
        <ele>234.22</ele>
        <time>2013-09-29T13:52:09Z</time>
      </trkpt>
      <trkpt lat="43.4972" lon="1.50018">
        <ele>233.74</ele>
        <time>2013-09-29T13:52:10Z</time>
      </trkpt>
      <trkpt lat="43.49735" lon="1.50052">
        <ele>232.3</ele>
        <time>2013-09-29T13:52:14Z</time>
      </trkpt>
      <trkpt lat="43.49742" lon="1.50069">
        <ele>230.85</ele>
        <time>2013-09-29T13:52:16Z</time>
      </trkpt>
      <trkpt lat="43.49751" lon="1.50102">
        <ele>227.97</ele>
        <time>2013-09-29T13:52:20Z</time>
      </trkpt>
      <trkpt lat="43.49765" lon="1.5017">
        <ele>226.53</ele>
        <time>2013-09-29T13:52:26Z</time>
      </trkpt>
      <trkpt lat="43.4977" lon="1.50181">
        <ele>227.01</ele>
        <time>2013-09-29T13:52:27Z</time>
      </trkpt>
      <trkpt lat="43.49774" lon="1.50188">
        <ele>227.01</ele>
        <time>2013-09-29T13:52:28Z</time>
      </trkpt>
      <trkpt lat="43.49799" lon="1.50219">
        <ele>230.37</ele>
        <time>2013-09-29T13:52:34Z</time>
      </trkpt>
      <trkpt lat="43.49819" lon="1.50251">
        <ele>233.26</ele>
        <time>2013-09-29T13:52:44Z</time>
      </trkpt>
      <trkpt lat="43.49853" lon="1.50305">
        <ele>236.62</ele>
        <time>2013-09-29T13:53:03Z</time>
      </trkpt>
      <trkpt lat="43.49883" lon="1.50335">
        <ele>239.99</ele>
        <time>2013-09-29T13:53:18Z</time>
      </trkpt>
      <trkpt lat="43.49912" lon="1.50366">
        <ele>243.35</ele>
        <time>2013-09-29T13:53:35Z</time>
      </trkpt>
      <trkpt lat="43.49925" lon="1.50385">
        <ele>243.83</ele>
        <time>2013-09-29T13:53:52Z</time>
      </trkpt>
      <trkpt lat="43.49924" lon="1.50388">
        <ele>243.35</ele>
        <time>2013-09-29T13:54:17Z</time>
      </trkpt>
      <trkpt lat="43.49924" lon="1.50389">
        <ele>243.83</ele>
        <time>2013-09-29T13:54:18Z</time>
      </trkpt>
      <trkpt lat="43.49924" lon="1.50391">
        <ele>243.35</ele>
        <time>2013-09-29T13:54:19Z</time>
      </trkpt>
      <trkpt lat="43.49928" lon="1.50418">
        <ele>240.95</ele>
        <time>2013-09-29T13:54:26Z</time>
      </trkpt>
      <trkpt lat="43.49935" lon="1.50452">
        <ele>238.06</ele>
        <time>2013-09-29T13:54:31Z</time>
      </trkpt>
      <trkpt lat="43.49942" lon="1.50484">
        <ele>234.22</ele>
        <time>2013-09-29T13:54:35Z</time>
      </trkpt>
      <trkpt lat="43.49944" lon="1.50494">
        <ele>232.78</ele>
        <time>2013-09-29T13:54:36Z</time>
      </trkpt>
      <trkpt lat="43.49946" lon="1.50506">
        <ele>232.3</ele>
        <time>2013-09-29T13:54:37Z</time>
      </trkpt>
      <trkpt lat="43.49948" lon="1.50518">
        <ele>230.85</ele>
        <time>2013-09-29T13:54:38Z</time>
      </trkpt>
      <trkpt lat="43.49952" lon="1.50573">
        <ele>226.53</ele>
        <time>2013-09-29T13:54:42Z</time>
      </trkpt>
      <trkpt lat="43.49954" lon="1.50586">
        <ele>225.09</ele>
        <time>2013-09-29T13:54:43Z</time>
      </trkpt>
      <trkpt lat="43.49957" lon="1.506">
        <ele>224.12</ele>
        <time>2013-09-29T13:54:44Z</time>
      </trkpt>
      <trkpt lat="43.49976" lon="1.50659">
        <ele>220.76</ele>
        <time>2013-09-29T13:54:48Z</time>
      </trkpt>
      <trkpt lat="43.5" lon="1.50715">
        <ele>217.4</ele>
        <time>2013-09-29T13:54:52Z</time>
      </trkpt>
      <trkpt lat="43.50013" lon="1.50741">
        <ele>216.43</ele>
        <time>2013-09-29T13:54:54Z</time>
      </trkpt>
      <trkpt lat="43.50031" lon="1.50777">
        <ele>214.03</ele>
        <time>2013-09-29T13:54:57Z</time>
      </trkpt>
      <trkpt lat="43.50035" lon="1.50791">
        <ele>213.55</ele>
        <time>2013-09-29T13:54:58Z</time>
      </trkpt>
      <trkpt lat="43.50036" lon="1.50804">
        <ele>213.55</ele>
        <time>2013-09-29T13:54:59Z</time>
      </trkpt>
      <trkpt lat="43.50037" lon="1.50817">
        <ele>212.59</ele>
        <time>2013-09-29T13:55:00Z</time>
      </trkpt>
      <trkpt lat="43.50037" lon="1.50829">
        <ele>212.11</ele>
        <time>2013-09-29T13:55:01Z</time>
      </trkpt>
      <trkpt lat="43.50037" lon="1.50841">
        <ele>211.63</ele>
        <time>2013-09-29T13:55:02Z</time>
      </trkpt>
      <trkpt lat="43.50039" lon="1.50863">
        <ele>210.19</ele>
        <time>2013-09-29T13:55:04Z</time>
      </trkpt>
      <trkpt lat="43.5004" lon="1.50872">
        <ele>210.19</ele>
        <time>2013-09-29T13:55:05Z</time>
      </trkpt>
      <trkpt lat="43.50042" lon="1.50887">
        <ele>209.22</ele>
        <time>2013-09-29T13:55:07Z</time>
      </trkpt>
      <trkpt lat="43.50041" lon="1.50893">
        <ele>209.22</ele>
        <time>2013-09-29T13:55:08Z</time>
      </trkpt>
      <trkpt lat="43.5004" lon="1.50897">
        <ele>208.74</ele>
        <time>2013-09-29T13:55:09Z</time>
      </trkpt>
      <trkpt lat="43.50037" lon="1.50899">
        <ele>209.7</ele>
        <time>2013-09-29T13:55:10Z</time>
      </trkpt>
      <trkpt lat="43.50035" lon="1.50899">
        <ele>209.7</ele>
        <time>2013-09-29T13:55:11Z</time>
      </trkpt>
      <trkpt lat="43.50032" lon="1.509">
        <ele>210.19</ele>
        <time>2013-09-29T13:55:12Z</time>
      </trkpt>
      <trkpt lat="43.49998" lon="1.50925">
        <ele>212.11</ele>
        <time>2013-09-29T13:55:24Z</time>
      </trkpt>
      <trkpt lat="43.49961" lon="1.50898">
        <ele>210.19</ele>
        <time>2013-09-29T13:55:34Z</time>
      </trkpt>
      <trkpt lat="43.49957" lon="1.50897">
        <ele>209.7</ele>
        <time>2013-09-29T13:55:35Z</time>
      </trkpt>
      <trkpt lat="43.49954" lon="1.50898">
        <ele>210.19</ele>
        <time>2013-09-29T13:55:36Z</time>
      </trkpt>
      <trkpt lat="43.4995" lon="1.509">
        <ele>209.7</ele>
        <time>2013-09-29T13:55:37Z</time>
      </trkpt>
      <trkpt lat="43.49947" lon="1.50903">
        <ele>209.22</ele>
        <time>2013-09-29T13:55:38Z</time>
      </trkpt>
      <trkpt lat="43.49944" lon="1.50907">
        <ele>208.74</ele>
        <time>2013-09-29T13:55:39Z</time>
      </trkpt>
      <trkpt lat="43.4994" lon="1.50911">
        <ele>207.78</ele>
        <time>2013-09-29T13:55:40Z</time>
      </trkpt>
      <trkpt lat="43.49936" lon="1.50914">
        <ele>206.82</ele>
        <time>2013-09-29T13:55:41Z</time>
      </trkpt>
      <trkpt lat="43.49931" lon="1.50918">
        <ele>205.38</ele>
        <time>2013-09-29T13:55:42Z</time>
      </trkpt>
      <trkpt lat="43.49925" lon="1.50921">
        <ele>204.42</ele>
        <time>2013-09-29T13:55:43Z</time>
      </trkpt>
      <trkpt lat="43.49919" lon="1.50924">
        <ele>203.94</ele>
        <time>2013-09-29T13:55:44Z</time>
      </trkpt>
      <trkpt lat="43.49901" lon="1.50936">
        <ele>199.61</ele>
        <time>2013-09-29T13:55:48Z</time>
      </trkpt>
      <trkpt lat="43.49896" lon="1.50939">
        <ele>198.65</ele>
        <time>2013-09-29T13:55:49Z</time>
      </trkpt>
      <trkpt lat="43.49891" lon="1.50944">
        <ele>197.69</ele>
        <time>2013-09-29T13:55:50Z</time>
      </trkpt>
      <trkpt lat="43.49887" lon="1.50951">
        <ele>197.21</ele>
        <time>2013-09-29T13:55:51Z</time>
      </trkpt>
      <trkpt lat="43.49868" lon="1.50986">
        <ele>193.84</ele>
        <time>2013-09-29T13:55:56Z</time>
      </trkpt>
      <trkpt lat="43.49857" lon="1.51007">
        <ele>190.96</ele>
        <time>2013-09-29T13:55:59Z</time>
      </trkpt>
      <trkpt lat="43.49844" lon="1.51028">
        <ele>186.63</ele>
        <time>2013-09-29T13:56:02Z</time>
      </trkpt>
      <trkpt lat="43.49825" lon="1.51056">
        <ele>183.27</ele>
        <time>2013-09-29T13:56:06Z</time>
      </trkpt>
      <trkpt lat="43.4982" lon="1.51064">
        <ele>182.79</ele>
        <time>2013-09-29T13:56:07Z</time>
      </trkpt>
      <trkpt lat="43.49818" lon="1.51068">
        <ele>182.31</ele>
        <time>2013-09-29T13:56:08Z</time>
      </trkpt>
      <trkpt lat="43.49815" lon="1.51081">
        <ele>181.83</ele>
        <time>2013-09-29T13:56:10Z</time>
      </trkpt>
      <trkpt lat="43.49814" lon="1.51088">
        <ele>181.35</ele>
        <time>2013-09-29T13:56:11Z</time>
      </trkpt>
      <trkpt lat="43.49813" lon="1.51095">
        <ele>180.87</ele>
        <time>2013-09-29T13:56:12Z</time>
      </trkpt>
      <trkpt lat="43.49813" lon="1.51101">
        <ele>181.35</ele>
        <time>2013-09-29T13:56:13Z</time>
      </trkpt>
      <trkpt lat="43.49815" lon="1.51117">
        <ele>180.38</ele>
        <time>2013-09-29T13:56:15Z</time>
      </trkpt>
      <trkpt lat="43.49818" lon="1.51132">
        <ele>179.9</ele>
        <time>2013-09-29T13:56:17Z</time>
      </trkpt>
      <trkpt lat="43.4982" lon="1.5114">
        <ele>178.94</ele>
        <time>2013-09-29T13:56:18Z</time>
      </trkpt>
      <trkpt lat="43.49825" lon="1.51149">
        <ele>178.94</ele>
        <time>2013-09-29T13:56:19Z</time>
      </trkpt>
      <trkpt lat="43.49855" lon="1.51222">
        <ele>175.58</ele>
        <time>2013-09-29T13:56:27Z</time>
      </trkpt>
      <trkpt lat="43.49868" lon="1.51259">
        <ele>173.66</ele>
        <time>2013-09-29T13:56:31Z</time>
      </trkpt>
      <trkpt lat="43.49896" lon="1.513">
        <ele>171.73</ele>
        <time>2013-09-29T13:56:36Z</time>
      </trkpt>
      <trkpt lat="43.49901" lon="1.51306">
        <ele>172.21</ele>
        <time>2013-09-29T13:56:37Z</time>
      </trkpt>
      <trkpt lat="43.49935" lon="1.51339">
        <ele>169.81</ele>
        <time>2013-09-29T13:56:42Z</time>
      </trkpt>
      <trkpt lat="43.49954" lon="1.51355">
        <ele>167.89</ele>
        <time>2013-09-29T13:56:45Z</time>
      </trkpt>
      <trkpt lat="43.49986" lon="1.5139">
        <ele>165.96</ele>
        <time>2013-09-29T13:56:51Z</time>
      </trkpt>
      <trkpt lat="43.49987" lon="1.51396">
        <ele>165.48</ele>
        <time>2013-09-29T13:56:52Z</time>
      </trkpt>
      <trkpt lat="43.49988" lon="1.51403">
        <ele>165.48</ele>
        <time>2013-09-29T13:56:53Z</time>
      </trkpt>
      <trkpt lat="43.49987" lon="1.5141">
        <ele>165</ele>
        <time>2013-09-29T13:56:54Z</time>
      </trkpt>
      <trkpt lat="43.49987" lon="1.51418">
        <ele>165</ele>
        <time>2013-09-29T13:56:55Z</time>
      </trkpt>
      <trkpt lat="43.49986" lon="1.51425">
        <ele>164.04</ele>
        <time>2013-09-29T13:56:56Z</time>
      </trkpt>
      <trkpt lat="43.49976" lon="1.51477">
        <ele>163.56</ele>
        <time>2013-09-29T13:57:06Z</time>
      </trkpt>
      <trkpt lat="43.49976" lon="1.51504">
        <ele>162.12</ele>
        <time>2013-09-29T13:57:11Z</time>
      </trkpt>
      <trkpt lat="43.49979" lon="1.5151">
        <ele>162.12</ele>
        <time>2013-09-29T13:57:12Z</time>
      </trkpt>
      <trkpt lat="43.49983" lon="1.51516">
        <ele>162.12</ele>
        <time>2013-09-29T13:57:13Z</time>
      </trkpt>
      <trkpt lat="43.50051" lon="1.51605">
        <ele>159.24</ele>
        <time>2013-09-29T13:57:26Z</time>
      </trkpt>
      <trkpt lat="43.50142" lon="1.51717">
        <ele>157.31</ele>
        <time>2013-09-29T13:57:42Z</time>
      </trkpt>
      <trkpt lat="43.50211" lon="1.51795">
        <ele>155.39</ele>
        <time>2013-09-29T13:57:54Z</time>
      </trkpt>
      <trkpt lat="43.50217" lon="1.51799">
        <ele>155.39</ele>
        <time>2013-09-29T13:57:55Z</time>
      </trkpt>
      <trkpt lat="43.50271" lon="1.51827">
        <ele>155.87</ele>
        <time>2013-09-29T13:58:03Z</time>
      </trkpt>
      <trkpt lat="43.50277" lon="1.51832">
        <ele>155.39</ele>
        <time>2013-09-29T13:58:04Z</time>
      </trkpt>
      <trkpt lat="43.50283" lon="1.51838">
        <ele>155.39</ele>
        <time>2013-09-29T13:58:05Z</time>
      </trkpt>
      <trkpt lat="43.50288" lon="1.51845">
        <ele>155.39</ele>
        <time>2013-09-29T13:58:06Z</time>
      </trkpt>
      <trkpt lat="43.50293" lon="1.51853">
        <ele>155.39</ele>
        <time>2013-09-29T13:58:07Z</time>
      </trkpt>
      <trkpt lat="43.50359" lon="1.5197">
        <ele>155.39</ele>
        <time>2013-09-29T13:58:23Z</time>
      </trkpt>
      <trkpt lat="43.50414" lon="1.52074">
        <ele>154.91</ele>
        <time>2013-09-29T13:58:38Z</time>
      </trkpt>
      <trkpt lat="43.5042" lon="1.52088">
        <ele>154.91</ele>
        <time>2013-09-29T13:58:40Z</time>
      </trkpt>
      <trkpt lat="43.50422" lon="1.52096">
        <ele>154.91</ele>
        <time>2013-09-29T13:58:41Z</time>
      </trkpt>
      <trkpt lat="43.50425" lon="1.52102">
        <ele>154.91</ele>
        <time>2013-09-29T13:58:42Z</time>
      </trkpt>
      <trkpt lat="43.50427" lon="1.52107">
        <ele>154.43</ele>
        <time>2013-09-29T13:58:43Z</time>
      </trkpt>
      <trkpt lat="43.50429" lon="1.52111">
        <ele>154.91</ele>
        <time>2013-09-29T13:58:44Z</time>
      </trkpt>
      <trkpt lat="43.50437" lon="1.5212">
        <ele>155.87</ele>
        <time>2013-09-29T13:58:48Z</time>
      </trkpt>
      <trkpt lat="43.5044" lon="1.52119">
        <ele>155.87</ele>
        <time>2013-09-29T13:58:49Z</time>
      </trkpt>
      <trkpt lat="43.50441" lon="1.52118">
        <ele>156.35</ele>
        <time>2013-09-29T13:58:50Z</time>
      </trkpt>
      <trkpt lat="43.50443" lon="1.52117">
        <ele>156.35</ele>
        <time>2013-09-29T13:58:51Z</time>
      </trkpt>
      <trkpt lat="43.50445" lon="1.52115">
        <ele>156.35</ele>
        <time>2013-09-29T13:58:52Z</time>
      </trkpt>
      <trkpt lat="43.50448" lon="1.52112">
        <ele>156.35</ele>
        <time>2013-09-29T13:58:53Z</time>
      </trkpt>
      <trkpt lat="43.5045" lon="1.5211">
        <ele>156.83</ele>
        <time>2013-09-29T13:58:54Z</time>
      </trkpt>
      <trkpt lat="43.50472" lon="1.52087">
        <ele>156.83</ele>
        <time>2013-09-29T13:59:01Z</time>
      </trkpt>
      <trkpt lat="43.50479" lon="1.5208">
        <ele>156.83</ele>
        <time>2013-09-29T13:59:03Z</time>
      </trkpt>
      <trkpt lat="43.50535" lon="1.52048">
        <ele>156.35</ele>
        <time>2013-09-29T13:59:15Z</time>
      </trkpt>
      <trkpt lat="43.50579" lon="1.52041">
        <ele>155.87</ele>
        <time>2013-09-29T13:59:24Z</time>
      </trkpt>
      <trkpt lat="43.50631" lon="1.52036">
        <ele>156.35</ele>
        <time>2013-09-29T13:59:36Z</time>
      </trkpt>
      <trkpt lat="43.50673" lon="1.52024">
        <ele>156.35</ele>
        <time>2013-09-29T13:59:47Z</time>
      </trkpt>
      <trkpt lat="43.50686" lon="1.52018">
        <ele>156.35</ele>
        <time>2013-09-29T13:59:50Z</time>
      </trkpt>
      <trkpt lat="43.5069" lon="1.52016">
        <ele>156.83</ele>
        <time>2013-09-29T13:59:51Z</time>
      </trkpt>
      <trkpt lat="43.50732" lon="1.51982">
        <ele>156.35</ele>
        <time>2013-09-29T14:00:01Z</time>
      </trkpt>
      <trkpt lat="43.50796" lon="1.51916">
        <ele>156.35</ele>
        <time>2013-09-29T14:00:16Z</time>
      </trkpt>
      <trkpt lat="43.50864" lon="1.5184">
        <ele>156.83</ele>
        <time>2013-09-29T14:00:32Z</time>
      </trkpt>
      <trkpt lat="43.50923" lon="1.51779">
        <ele>155.87</ele>
        <time>2013-09-29T14:00:46Z</time>
      </trkpt>
      <trkpt lat="43.50933" lon="1.51771">
        <ele>154.91</ele>
        <time>2013-09-29T14:00:48Z</time>
      </trkpt>
      <trkpt lat="43.51022" lon="1.51731">
        <ele>154.91</ele>
        <time>2013-09-29T14:01:03Z</time>
      </trkpt>
      <trkpt lat="43.51034" lon="1.51727">
        <ele>154.91</ele>
        <time>2013-09-29T14:01:05Z</time>
      </trkpt>
      <trkpt lat="43.5104" lon="1.51724">
        <ele>154.91</ele>
        <time>2013-09-29T14:01:06Z</time>
      </trkpt>
      <trkpt lat="43.51093" lon="1.51699">
        <ele>154.91</ele>
        <time>2013-09-29T14:01:16Z</time>
      </trkpt>
      <trkpt lat="43.51104" lon="1.51698">
        <ele>156.83</ele>
        <time>2013-09-29T14:01:20Z</time>
      </trkpt>
      <trkpt lat="43.51106" lon="1.51701">
        <ele>156.35</ele>
        <time>2013-09-29T14:01:21Z</time>
      </trkpt>
      <trkpt lat="43.51116" lon="1.51733">
        <ele>157.31</ele>
        <time>2013-09-29T14:01:28Z</time>
      </trkpt>
      <trkpt lat="43.51119" lon="1.51737">
        <ele>157.31</ele>
        <time>2013-09-29T14:01:29Z</time>
      </trkpt>
      <trkpt lat="43.51122" lon="1.51739">
        <ele>156.35</ele>
        <time>2013-09-29T14:01:30Z</time>
      </trkpt>
      <trkpt lat="43.51127" lon="1.51739">
        <ele>155.39</ele>
        <time>2013-09-29T14:01:31Z</time>
      </trkpt>
      <trkpt lat="43.51131" lon="1.51738">
        <ele>154.91</ele>
        <time>2013-09-29T14:01:32Z</time>
      </trkpt>
      <trkpt lat="43.51155" lon="1.51733">
        <ele>153.47</ele>
        <time>2013-09-29T14:01:36Z</time>
      </trkpt>
      <trkpt lat="43.51263" lon="1.51705">
        <ele>152.51</ele>
        <time>2013-09-29T14:01:50Z</time>
      </trkpt>
      <trkpt lat="43.51353" lon="1.51679">
        <ele>153.95</ele>
        <time>2013-09-29T14:02:03Z</time>
      </trkpt>
      <trkpt lat="43.51416" lon="1.5166">
        <ele>153.95</ele>
        <time>2013-09-29T14:02:14Z</time>
      </trkpt>
      <trkpt lat="43.51423" lon="1.5166">
        <ele>153.95</ele>
        <time>2013-09-29T14:02:15Z</time>
      </trkpt>
      <trkpt lat="43.51429" lon="1.51662">
        <ele>153.95</ele>
        <time>2013-09-29T14:02:16Z</time>
      </trkpt>
      <trkpt lat="43.51434" lon="1.51664">
        <ele>153.47</ele>
        <time>2013-09-29T14:02:17Z</time>
      </trkpt>
      <trkpt lat="43.5144" lon="1.51667">
        <ele>153.47</ele>
        <time>2013-09-29T14:02:18Z</time>
      </trkpt>
      <trkpt lat="43.51446" lon="1.51671">
        <ele>153.47</ele>
        <time>2013-09-29T14:02:19Z</time>
      </trkpt>
      <trkpt lat="43.51451" lon="1.51676">
        <ele>153.47</ele>
        <time>2013-09-29T14:02:20Z</time>
      </trkpt>
      <trkpt lat="43.51456" lon="1.51682">
        <ele>152.99</ele>
        <time>2013-09-29T14:02:21Z</time>
      </trkpt>
      <trkpt lat="43.5146" lon="1.51688">
        <ele>152.99</ele>
        <time>2013-09-29T14:02:22Z</time>
      </trkpt>
      <trkpt lat="43.51478" lon="1.51729">
        <ele>152.99</ele>
        <time>2013-09-29T14:02:28Z</time>
      </trkpt>
      <trkpt lat="43.5148" lon="1.51736">
        <ele>153.95</ele>
        <time>2013-09-29T14:02:29Z</time>
      </trkpt>
      <trkpt lat="43.51481" lon="1.51744">
        <ele>153.47</ele>
        <time>2013-09-29T14:02:30Z</time>
      </trkpt>
      <trkpt lat="43.51481" lon="1.51751">
        <ele>153.47</ele>
        <time>2013-09-29T14:02:31Z</time>
      </trkpt>
      <trkpt lat="43.5148" lon="1.51759">
        <ele>153.47</ele>
        <time>2013-09-29T14:02:32Z</time>
      </trkpt>
      <trkpt lat="43.51479" lon="1.51767">
        <ele>153.95</ele>
        <time>2013-09-29T14:02:33Z</time>
      </trkpt>
      <trkpt lat="43.51478" lon="1.51775">
        <ele>153.47</ele>
        <time>2013-09-29T14:02:34Z</time>
      </trkpt>
      <trkpt lat="43.51476" lon="1.51782">
        <ele>153.47</ele>
        <time>2013-09-29T14:02:35Z</time>
      </trkpt>
      <trkpt lat="43.51471" lon="1.51805">
        <ele>152.99</ele>
        <time>2013-09-29T14:02:38Z</time>
      </trkpt>
      <trkpt lat="43.51469" lon="1.51813">
        <ele>153.47</ele>
        <time>2013-09-29T14:02:39Z</time>
      </trkpt>
      <trkpt lat="43.51469" lon="1.51898">
        <ele>153.47</ele>
        <time>2013-09-29T14:02:49Z</time>
      </trkpt>
      <trkpt lat="43.51471" lon="1.51906">
        <ele>152.99</ele>
        <time>2013-09-29T14:02:50Z</time>
      </trkpt>
      <trkpt lat="43.51473" lon="1.51914">
        <ele>153.95</ele>
        <time>2013-09-29T14:02:51Z</time>
      </trkpt>
      <trkpt lat="43.51476" lon="1.51922">
        <ele>153.47</ele>
        <time>2013-09-29T14:02:52Z</time>
      </trkpt>
      <trkpt lat="43.51479" lon="1.51929">
        <ele>153.47</ele>
        <time>2013-09-29T14:02:53Z</time>
      </trkpt>
      <trkpt lat="43.51484" lon="1.51936">
        <ele>153.47</ele>
        <time>2013-09-29T14:02:54Z</time>
      </trkpt>
      <trkpt lat="43.51488" lon="1.51943">
        <ele>152.99</ele>
        <time>2013-09-29T14:02:55Z</time>
      </trkpt>
      <trkpt lat="43.51494" lon="1.5195">
        <ele>152.99</ele>
        <time>2013-09-29T14:02:56Z</time>
      </trkpt>
      <trkpt lat="43.51555" lon="1.52022">
        <ele>152.99</ele>
        <time>2013-09-29T14:03:09Z</time>
      </trkpt>
      <trkpt lat="43.51573" lon="1.52045">
        <ele>152.99</ele>
        <time>2013-09-29T14:03:13Z</time>
      </trkpt>
      <trkpt lat="43.51578" lon="1.52049">
        <ele>153.47</ele>
        <time>2013-09-29T14:03:14Z</time>
      </trkpt>
      <trkpt lat="43.51582" lon="1.52053">
        <ele>153.95</ele>
        <time>2013-09-29T14:03:15Z</time>
      </trkpt>
      <trkpt lat="43.51587" lon="1.52056">
        <ele>152.99</ele>
        <time>2013-09-29T14:03:16Z</time>
      </trkpt>
      <trkpt lat="43.51593" lon="1.52058">
        <ele>152.99</ele>
        <time>2013-09-29T14:03:17Z</time>
      </trkpt>
      <trkpt lat="43.51598" lon="1.5206">
        <ele>152.51</ele>
        <time>2013-09-29T14:03:18Z</time>
      </trkpt>
      <trkpt lat="43.51604" lon="1.5206">
        <ele>152.51</ele>
        <time>2013-09-29T14:03:19Z</time>
      </trkpt>
      <trkpt lat="43.5161" lon="1.52061">
        <ele>152.51</ele>
        <time>2013-09-29T14:03:20Z</time>
      </trkpt>
      <trkpt lat="43.51647" lon="1.52062">
        <ele>152.51</ele>
        <time>2013-09-29T14:03:26Z</time>
      </trkpt>
      <trkpt lat="43.51716" lon="1.52025">
        <ele>152.03</ele>
        <time>2013-09-29T14:03:39Z</time>
      </trkpt>
      <trkpt lat="43.51781" lon="1.51979">
        <ele>151.54</ele>
        <time>2013-09-29T14:03:51Z</time>
      </trkpt>
      <trkpt lat="43.518" lon="1.51973">
        <ele>152.03</ele>
        <time>2013-09-29T14:03:54Z</time>
      </trkpt>
      <trkpt lat="43.51806" lon="1.51973">
        <ele>152.03</ele>
        <time>2013-09-29T14:03:55Z</time>
      </trkpt>
      <trkpt lat="43.51812" lon="1.51973">
        <ele>152.03</ele>
        <time>2013-09-29T14:03:56Z</time>
      </trkpt>
      <trkpt lat="43.51818" lon="1.51973">
        <ele>152.03</ele>
        <time>2013-09-29T14:03:57Z</time>
      </trkpt>
      <trkpt lat="43.51824" lon="1.51975">
        <ele>152.03</ele>
        <time>2013-09-29T14:03:58Z</time>
      </trkpt>
      <trkpt lat="43.5192" lon="1.52012">
        <ele>152.51</ele>
        <time>2013-09-29T14:04:15Z</time>
      </trkpt>
      <trkpt lat="43.51946" lon="1.52022">
        <ele>152.51</ele>
        <time>2013-09-29T14:04:20Z</time>
      </trkpt>
      <trkpt lat="43.51999" lon="1.52021">
        <ele>152.99</ele>
        <time>2013-09-29T14:04:30Z</time>
      </trkpt>
      <trkpt lat="43.52037" lon="1.52009">
        <ele>152.99</ele>
        <time>2013-09-29T14:04:37Z</time>
      </trkpt>
      <trkpt lat="43.52063" lon="1.5199">
        <ele>152.51</ele>
        <time>2013-09-29T14:04:42Z</time>
      </trkpt>
      <trkpt lat="43.52092" lon="1.51968">
        <ele>152.03</ele>
        <time>2013-09-29T14:04:48Z</time>
      </trkpt>
      <trkpt lat="43.52097" lon="1.51966">
        <ele>152.03</ele>
        <time>2013-09-29T14:04:49Z</time>
      </trkpt>
      <trkpt lat="43.52101" lon="1.51964">
        <ele>152.51</ele>
        <time>2013-09-29T14:04:50Z</time>
      </trkpt>
      <trkpt lat="43.52106" lon="1.51962">
        <ele>152.03</ele>
        <time>2013-09-29T14:04:51Z</time>
      </trkpt>
      <trkpt lat="43.52111" lon="1.51961">
        <ele>152.03</ele>
        <time>2013-09-29T14:04:52Z</time>
      </trkpt>
      <trkpt lat="43.52116" lon="1.5196">
        <ele>152.51</ele>
        <time>2013-09-29T14:04:53Z</time>
      </trkpt>
      <trkpt lat="43.52122" lon="1.5196">
        <ele>152.51</ele>
        <time>2013-09-29T14:04:54Z</time>
      </trkpt>
      <trkpt lat="43.52144" lon="1.51957">
        <ele>152.03</ele>
        <time>2013-09-29T14:04:58Z</time>
      </trkpt>
      <trkpt lat="43.5217" lon="1.51958">
        <ele>152.51</ele>
        <time>2013-09-29T14:05:03Z</time>
      </trkpt>
      <trkpt lat="43.52176" lon="1.51957">
        <ele>152.99</ele>
        <time>2013-09-29T14:05:04Z</time>
      </trkpt>
      <trkpt lat="43.52259" lon="1.51932">
        <ele>152.51</ele>
        <time>2013-09-29T14:05:19Z</time>
      </trkpt>
      <trkpt lat="43.52279" lon="1.51924">
        <ele>152.51</ele>
        <time>2013-09-29T14:05:23Z</time>
      </trkpt>
      <trkpt lat="43.52348" lon="1.51891">
        <ele>152.03</ele>
        <time>2013-09-29T14:05:37Z</time>
      </trkpt>
      <trkpt lat="43.52353" lon="1.51891">
        <ele>152.03</ele>
        <time>2013-09-29T14:05:38Z</time>
      </trkpt>
      <trkpt lat="43.52357" lon="1.51891">
        <ele>152.51</ele>
        <time>2013-09-29T14:05:39Z</time>
      </trkpt>
      <trkpt lat="43.5236" lon="1.51892">
        <ele>152.03</ele>
        <time>2013-09-29T14:05:40Z</time>
      </trkpt>
      <trkpt lat="43.52363" lon="1.51895">
        <ele>151.54</ele>
        <time>2013-09-29T14:05:41Z</time>
      </trkpt>
      <trkpt lat="43.52365" lon="1.519">
        <ele>151.54</ele>
        <time>2013-09-29T14:05:42Z</time>
      </trkpt>
      <trkpt lat="43.52367" lon="1.51905">
        <ele>151.06</ele>
        <time>2013-09-29T14:05:43Z</time>
      </trkpt>
      <trkpt lat="43.52374" lon="1.51923">
        <ele>149.14</ele>
        <time>2013-09-29T14:05:46Z</time>
      </trkpt>
      <trkpt lat="43.52378" lon="1.51928">
        <ele>148.18</ele>
        <time>2013-09-29T14:05:47Z</time>
      </trkpt>
      <trkpt lat="43.52413" lon="1.51988">
        <ele>146.26</ele>
        <time>2013-09-29T14:05:55Z</time>
      </trkpt>
      <trkpt lat="43.52419" lon="1.51995">
        <ele>146.74</ele>
        <time>2013-09-29T14:05:56Z</time>
      </trkpt>
      <trkpt lat="43.52463" lon="1.52039">
        <ele>147.7</ele>
        <time>2013-09-29T14:06:04Z</time>
      </trkpt>
      <trkpt lat="43.52469" lon="1.52042">
        <ele>147.22</ele>
        <time>2013-09-29T14:06:05Z</time>
      </trkpt>
      <trkpt lat="43.52475" lon="1.52044">
        <ele>147.22</ele>
        <time>2013-09-29T14:06:06Z</time>
      </trkpt>
      <trkpt lat="43.52482" lon="1.52045">
        <ele>147.7</ele>
        <time>2013-09-29T14:06:07Z</time>
      </trkpt>
      <trkpt lat="43.52489" lon="1.52046">
        <ele>147.22</ele>
        <time>2013-09-29T14:06:08Z</time>
      </trkpt>
      <trkpt lat="43.52496" lon="1.52045">
        <ele>146.74</ele>
        <time>2013-09-29T14:06:09Z</time>
      </trkpt>
      <trkpt lat="43.5256" lon="1.5203">
        <ele>146.74</ele>
        <time>2013-09-29T14:06:19Z</time>
      </trkpt>
      <trkpt lat="43.52566" lon="1.5203">
        <ele>146.74</ele>
        <time>2013-09-29T14:06:20Z</time>
      </trkpt>
      <trkpt lat="43.52571" lon="1.52031">
        <ele>146.74</ele>
        <time>2013-09-29T14:06:21Z</time>
      </trkpt>
      <trkpt lat="43.52576" lon="1.52033">
        <ele>146.74</ele>
        <time>2013-09-29T14:06:22Z</time>
      </trkpt>
      <trkpt lat="43.52581" lon="1.52035">
        <ele>147.7</ele>
        <time>2013-09-29T14:06:23Z</time>
      </trkpt>
      <trkpt lat="43.52585" lon="1.52039">
        <ele>147.7</ele>
        <time>2013-09-29T14:06:24Z</time>
      </trkpt>
      <trkpt lat="43.52588" lon="1.52042">
        <ele>148.66</ele>
        <time>2013-09-29T14:06:25Z</time>
      </trkpt>
      <trkpt lat="43.52591" lon="1.52046">
        <ele>148.66</ele>
        <time>2013-09-29T14:06:26Z</time>
      </trkpt>
      <trkpt lat="43.52593" lon="1.52049">
        <ele>149.14</ele>
        <time>2013-09-29T14:06:27Z</time>
      </trkpt>
      <trkpt lat="43.52595" lon="1.52052">
        <ele>149.62</ele>
        <time>2013-09-29T14:06:28Z</time>
      </trkpt>
      <trkpt lat="43.5263" lon="1.52116">
        <ele>149.62</ele>
        <time>2013-09-29T14:06:43Z</time>
      </trkpt>
      <trkpt lat="43.52684" lon="1.52224">
        <ele>147.22</ele>
        <time>2013-09-29T14:06:58Z</time>
      </trkpt>
      <trkpt lat="43.52746" lon="1.52344">
        <ele>148.66</ele>
        <time>2013-09-29T14:07:16Z</time>
      </trkpt>
      <trkpt lat="43.52794" lon="1.5241">
        <ele>147.7</ele>
        <time>2013-09-29T14:07:29Z</time>
      </trkpt>
      <trkpt lat="43.5285" lon="1.52458">
        <ele>147.22</ele>
        <time>2013-09-29T14:07:40Z</time>
      </trkpt>
      <trkpt lat="43.52854" lon="1.52462">
        <ele>147.7</ele>
        <time>2013-09-29T14:07:41Z</time>
      </trkpt>
      <trkpt lat="43.52858" lon="1.52468">
        <ele>147.22</ele>
        <time>2013-09-29T14:07:42Z</time>
      </trkpt>
      <trkpt lat="43.52862" lon="1.52474">
        <ele>147.7</ele>
        <time>2013-09-29T14:07:43Z</time>
      </trkpt>
      <trkpt lat="43.52865" lon="1.52481">
        <ele>146.74</ele>
        <time>2013-09-29T14:07:44Z</time>
      </trkpt>
      <trkpt lat="43.52866" lon="1.52488">
        <ele>147.22</ele>
        <time>2013-09-29T14:07:45Z</time>
      </trkpt>
      <trkpt lat="43.52868" lon="1.52496">
        <ele>147.22</ele>
        <time>2013-09-29T14:07:46Z</time>
      </trkpt>
      <trkpt lat="43.52868" lon="1.52505">
        <ele>146.74</ele>
        <time>2013-09-29T14:07:47Z</time>
      </trkpt>
      <trkpt lat="43.52868" lon="1.52513">
        <ele>147.22</ele>
        <time>2013-09-29T14:07:48Z</time>
      </trkpt>
      <trkpt lat="43.52867" lon="1.52521">
        <ele>147.22</ele>
        <time>2013-09-29T14:07:49Z</time>
      </trkpt>
      <trkpt lat="43.52861" lon="1.52611">
        <ele>147.7</ele>
        <time>2013-09-29T14:08:00Z</time>
      </trkpt>
      <trkpt lat="43.52863" lon="1.52619">
        <ele>147.22</ele>
        <time>2013-09-29T14:08:01Z</time>
      </trkpt>
      <trkpt lat="43.52865" lon="1.52626">
        <ele>147.7</ele>
        <time>2013-09-29T14:08:02Z</time>
      </trkpt>
      <trkpt lat="43.52869" lon="1.52633">
        <ele>147.22</ele>
        <time>2013-09-29T14:08:03Z</time>
      </trkpt>
      <trkpt lat="43.52874" lon="1.52639">
        <ele>147.22</ele>
        <time>2013-09-29T14:08:04Z</time>
      </trkpt>
      <trkpt lat="43.52879" lon="1.52644">
        <ele>146.74</ele>
        <time>2013-09-29T14:08:05Z</time>
      </trkpt>
      <trkpt lat="43.52885" lon="1.52649">
        <ele>146.74</ele>
        <time>2013-09-29T14:08:06Z</time>
      </trkpt>
      <trkpt lat="43.52947" lon="1.527">
        <ele>148.66</ele>
        <time>2013-09-29T14:08:19Z</time>
      </trkpt>
      <trkpt lat="43.52981" lon="1.52724">
        <ele>151.54</ele>
        <time>2013-09-29T14:08:31Z</time>
      </trkpt>
      <trkpt lat="43.52989" lon="1.52722">
        <ele>152.03</ele>
        <time>2013-09-29T14:08:34Z</time>
      </trkpt>
      <trkpt lat="43.5299" lon="1.52719">
        <ele>152.03</ele>
        <time>2013-09-29T14:08:35Z</time>
      </trkpt>
      <trkpt lat="43.53009" lon="1.52671">
        <ele>150.1</ele>
        <time>2013-09-29T14:08:44Z</time>
      </trkpt>
      <trkpt lat="43.53016" lon="1.5266">
        <ele>150.58</ele>
        <time>2013-09-29T14:08:46Z</time>
      </trkpt>
      <trkpt lat="43.53074" lon="1.52571">
        <ele>149.62</ele>
        <time>2013-09-29T14:09:03Z</time>
      </trkpt>
      <trkpt lat="43.53108" lon="1.52536">
        <ele>149.62</ele>
        <time>2013-09-29T14:09:13Z</time>
      </trkpt>
      <trkpt lat="43.53116" lon="1.52527">
        <ele>149.14</ele>
        <time>2013-09-29T14:09:15Z</time>
      </trkpt>
      <trkpt lat="43.53182" lon="1.52427">
        <ele>149.14</ele>
        <time>2013-09-29T14:09:33Z</time>
      </trkpt>
      <trkpt lat="43.53233" lon="1.52363">
        <ele>149.62</ele>
        <time>2013-09-29T14:09:47Z</time>
      </trkpt>
      <trkpt lat="43.5324" lon="1.52356">
        <ele>149.62</ele>
        <time>2013-09-29T14:09:49Z</time>
      </trkpt>
      <trkpt lat="43.53246" lon="1.52349">
        <ele>150.58</ele>
        <time>2013-09-29T14:09:51Z</time>
      </trkpt>
      <trkpt lat="43.53248" lon="1.52344">
        <ele>151.06</ele>
        <time>2013-09-29T14:09:52Z</time>
      </trkpt>
      <trkpt lat="43.53248" lon="1.52339">
        <ele>151.06</ele>
        <time>2013-09-29T14:09:53Z</time>
      </trkpt>
      <trkpt lat="43.53248" lon="1.52334">
        <ele>151.06</ele>
        <time>2013-09-29T14:09:54Z</time>
      </trkpt>
      <trkpt lat="43.53248" lon="1.52329">
        <ele>151.06</ele>
        <time>2013-09-29T14:09:55Z</time>
      </trkpt>
      <trkpt lat="43.53246" lon="1.52325">
        <ele>151.06</ele>
        <time>2013-09-29T14:09:56Z</time>
      </trkpt>
      <trkpt lat="43.53245" lon="1.52322">
        <ele>151.06</ele>
        <time>2013-09-29T14:09:57Z</time>
      </trkpt>
      <trkpt lat="43.53244" lon="1.52319">
        <ele>151.54</ele>
        <time>2013-09-29T14:09:58Z</time>
      </trkpt>
      <trkpt lat="43.53244" lon="1.52316">
        <ele>151.54</ele>
        <time>2013-09-29T14:10:05Z</time>
      </trkpt>
      <trkpt lat="43.53244" lon="1.52314">
        <ele>152.03</ele>
        <time>2013-09-29T14:10:06Z</time>
      </trkpt>
      <trkpt lat="43.53245" lon="1.52311">
        <ele>151.54</ele>
        <time>2013-09-29T14:10:07Z</time>
      </trkpt>
      <trkpt lat="43.53246" lon="1.52308">
        <ele>151.06</ele>
        <time>2013-09-29T14:10:08Z</time>
      </trkpt>
      <trkpt lat="43.53248" lon="1.52305">
        <ele>151.54</ele>
        <time>2013-09-29T14:10:09Z</time>
      </trkpt>
      <trkpt lat="43.53251" lon="1.52302">
        <ele>151.54</ele>
        <time>2013-09-29T14:10:10Z</time>
      </trkpt>
      <trkpt lat="43.53253" lon="1.52301">
        <ele>151.54</ele>
        <time>2013-09-29T14:10:11Z</time>
      </trkpt>
      <trkpt lat="43.53256" lon="1.52301">
        <ele>152.03</ele>
        <time>2013-09-29T14:10:12Z</time>
      </trkpt>
      <trkpt lat="43.5326" lon="1.52301">
        <ele>151.54</ele>
        <time>2013-09-29T14:10:13Z</time>
      </trkpt>
      <trkpt lat="43.53275" lon="1.523">
        <ele>151.54</ele>
        <time>2013-09-29T14:10:17Z</time>
      </trkpt>
      <trkpt lat="43.53306" lon="1.52283">
        <ele>152.99</ele>
        <time>2013-09-29T14:10:27Z</time>
      </trkpt>
      <trkpt lat="43.53337" lon="1.52235">
        <ele>153.95</ele>
        <time>2013-09-29T14:10:41Z</time>
      </trkpt>
      <trkpt lat="43.5338" lon="1.52162">
        <ele>152.99</ele>
        <time>2013-09-29T14:10:57Z</time>
      </trkpt>
      <trkpt lat="43.53408" lon="1.52118">
        <ele>153.47</ele>
        <time>2013-09-29T14:11:06Z</time>
      </trkpt>
      <trkpt lat="43.53463" lon="1.52062">
        <ele>153.47</ele>
        <time>2013-09-29T14:11:21Z</time>
      </trkpt>
      <trkpt lat="43.53485" lon="1.52025">
        <ele>153.47</ele>
        <time>2013-09-29T14:11:31Z</time>
      </trkpt>
      <trkpt lat="43.53493" lon="1.52023">
        <ele>153.47</ele>
        <time>2013-09-29T14:11:33Z</time>
      </trkpt>
      <trkpt lat="43.53497" lon="1.52022">
        <ele>153.95</ele>
        <time>2013-09-29T14:11:34Z</time>
      </trkpt>
      <trkpt lat="43.53502" lon="1.5202">
        <ele>153.47</ele>
        <time>2013-09-29T14:11:35Z</time>
      </trkpt>
      <trkpt lat="43.53505" lon="1.52016">
        <ele>153.47</ele>
        <time>2013-09-29T14:11:36Z</time>
      </trkpt>
      <trkpt lat="43.53509" lon="1.52012">
        <ele>153.47</ele>
        <time>2013-09-29T14:11:37Z</time>
      </trkpt>
      <trkpt lat="43.53512" lon="1.52008">
        <ele>153.47</ele>
        <time>2013-09-29T14:11:38Z</time>
      </trkpt>
      <trkpt lat="43.53529" lon="1.51982">
        <ele>153.47</ele>
        <time>2013-09-29T14:11:43Z</time>
      </trkpt>
      <trkpt lat="43.53534" lon="1.51971">
        <ele>153.47</ele>
        <time>2013-09-29T14:11:45Z</time>
      </trkpt>
      <trkpt lat="43.53537" lon="1.51966">
        <ele>153.47</ele>
        <time>2013-09-29T14:11:46Z</time>
      </trkpt>
      <trkpt lat="43.536" lon="1.51884">
        <ele>152.51</ele>
        <time>2013-09-29T14:12:02Z</time>
      </trkpt>
      <trkpt lat="43.53619" lon="1.51848">
        <ele>151.06</ele>
        <time>2013-09-29T14:12:07Z</time>
      </trkpt>
      <trkpt lat="43.53642" lon="1.51811">
        <ele>149.14</ele>
        <time>2013-09-29T14:12:12Z</time>
      </trkpt>
      <trkpt lat="43.53653" lon="1.51798">
        <ele>148.66</ele>
        <time>2013-09-29T14:12:14Z</time>
      </trkpt>
      <trkpt lat="43.53692" lon="1.51752">
        <ele>146.26</ele>
        <time>2013-09-29T14:12:21Z</time>
      </trkpt>
      <trkpt lat="43.53709" lon="1.51737">
        <ele>147.22</ele>
        <time>2013-09-29T14:12:24Z</time>
      </trkpt>
      <trkpt lat="43.53713" lon="1.5173">
        <ele>146.74</ele>
        <time>2013-09-29T14:12:25Z</time>
      </trkpt>
      <trkpt lat="43.53715" lon="1.51723">
        <ele>146.74</ele>
        <time>2013-09-29T14:12:26Z</time>
      </trkpt>
      <trkpt lat="43.53716" lon="1.51715">
        <ele>146.74</ele>
        <time>2013-09-29T14:12:27Z</time>
      </trkpt>
      <trkpt lat="43.53717" lon="1.51707">
        <ele>147.22</ele>
        <time>2013-09-29T14:12:28Z</time>
      </trkpt>
      <trkpt lat="43.53719" lon="1.51701">
        <ele>146.74</ele>
        <time>2013-09-29T14:12:29Z</time>
      </trkpt>
      <trkpt lat="43.53721" lon="1.51694">
        <ele>146.74</ele>
        <time>2013-09-29T14:12:30Z</time>
      </trkpt>
      <trkpt lat="43.53724" lon="1.51682">
        <ele>146.74</ele>
        <time>2013-09-29T14:12:32Z</time>
      </trkpt>
      <trkpt lat="43.53724" lon="1.51675">
        <ele>146.74</ele>
        <time>2013-09-29T14:12:33Z</time>
      </trkpt>
      <trkpt lat="43.53722" lon="1.51669">
        <ele>146.26</ele>
        <time>2013-09-29T14:12:34Z</time>
      </trkpt>
      <trkpt lat="43.53719" lon="1.51664">
        <ele>146.74</ele>
        <time>2013-09-29T14:12:35Z</time>
      </trkpt>
      <trkpt lat="43.53717" lon="1.51658">
        <ele>146.74</ele>
        <time>2013-09-29T14:12:36Z</time>
      </trkpt>
      <trkpt lat="43.53692" lon="1.51603">
        <ele>146.74</ele>
        <time>2013-09-29T14:12:46Z</time>
      </trkpt>
      <trkpt lat="43.53693" lon="1.51599">
        <ele>146.26</ele>
        <time>2013-09-29T14:12:47Z</time>
      </trkpt>
      <trkpt lat="43.53695" lon="1.51596">
        <ele>146.26</ele>
        <time>2013-09-29T14:12:48Z</time>
      </trkpt>
      <trkpt lat="43.53698" lon="1.51592">
        <ele>145.78</ele>
        <time>2013-09-29T14:12:49Z</time>
      </trkpt>
      <trkpt lat="43.53701" lon="1.51589">
        <ele>145.3</ele>
        <time>2013-09-29T14:12:50Z</time>
      </trkpt>
      <trkpt lat="43.53706" lon="1.51585">
        <ele>145.3</ele>
        <time>2013-09-29T14:12:51Z</time>
      </trkpt>
      <trkpt lat="43.53783" lon="1.51531">
        <ele>142.89</ele>
        <time>2013-09-29T14:13:05Z</time>
      </trkpt>
      <trkpt lat="43.53827" lon="1.51505">
        <ele>143.37</ele>
        <time>2013-09-29T14:13:13Z</time>
      </trkpt>
      <trkpt lat="43.53833" lon="1.51503">
        <ele>143.37</ele>
        <time>2013-09-29T14:13:14Z</time>
      </trkpt>
      <trkpt lat="43.53839" lon="1.51503">
        <ele>143.37</ele>
        <time>2013-09-29T14:13:15Z</time>
      </trkpt>
      <trkpt lat="43.53855" lon="1.51503">
        <ele>144.82</ele>
        <time>2013-09-29T14:13:18Z</time>
      </trkpt>
      <trkpt lat="43.53859" lon="1.51502">
        <ele>145.3</ele>
        <time>2013-09-29T14:13:19Z</time>
      </trkpt>
      <trkpt lat="43.53863" lon="1.515">
        <ele>145.3</ele>
        <time>2013-09-29T14:13:20Z</time>
      </trkpt>
      <trkpt lat="43.53867" lon="1.51496">
        <ele>145.78</ele>
        <time>2013-09-29T14:13:21Z</time>
      </trkpt>
      <trkpt lat="43.5387" lon="1.51492">
        <ele>145.78</ele>
        <time>2013-09-29T14:13:22Z</time>
      </trkpt>
      <trkpt lat="43.53873" lon="1.51488">
        <ele>145.3</ele>
        <time>2013-09-29T14:13:23Z</time>
      </trkpt>
      <trkpt lat="43.53875" lon="1.51483">
        <ele>145.3</ele>
        <time>2013-09-29T14:13:24Z</time>
      </trkpt>
      <trkpt lat="43.53882" lon="1.51469">
        <ele>145.78</ele>
        <time>2013-09-29T14:13:27Z</time>
      </trkpt>
      <trkpt lat="43.53883" lon="1.51463">
        <ele>145.78</ele>
        <time>2013-09-29T14:13:28Z</time>
      </trkpt>
      <trkpt lat="43.53884" lon="1.51457">
        <ele>145.3</ele>
        <time>2013-09-29T14:13:29Z</time>
      </trkpt>
      <trkpt lat="43.53899" lon="1.51368">
        <ele>145.78</ele>
        <time>2013-09-29T14:13:45Z</time>
      </trkpt>
      <trkpt lat="43.53904" lon="1.51344">
        <ele>146.26</ele>
        <time>2013-09-29T14:13:51Z</time>
      </trkpt>
      <trkpt lat="43.53906" lon="1.51343">
        <ele>146.74</ele>
        <time>2013-09-29T14:13:52Z</time>
      </trkpt>
      <trkpt lat="43.53908" lon="1.51343">
        <ele>146.74</ele>
        <time>2013-09-29T14:14:03Z</time>
      </trkpt>
      <trkpt lat="43.53911" lon="1.51342">
        <ele>146.74</ele>
        <time>2013-09-29T14:14:20Z</time>
      </trkpt>
      <trkpt lat="43.5391" lon="1.51342">
        <ele>146.74</ele>
        <time>2013-09-29T14:14:36Z</time>
      </trkpt>
      <trkpt lat="43.5391" lon="1.51342">
        <ele>146.74</ele>
        <time>2013-09-29T14:14:53Z</time>
      </trkpt>
      <trkpt lat="43.5391" lon="1.51342">
        <ele>144.82</ele>
        <time>2013-09-29T14:15:12Z</time>
      </trkpt>
    </trkseg>
  </trk>
</gpx>